<?xml version="1.0" encoding="UTF-8" standalone="no" ?>
<gpx xmlns="http://www.topografix.com/GPX/1/1" xmlns:xsi="http://www.w3.org/2001/XMLSchema-instance" xsi:schemaLocation="http://www.topografix.com/GPX/1/1 http://www.topografix.com/GPX/1/1/gpx.xsd" version="1.1" creator="VisuGPX - https://www.visugpx.com">
  <metadata>
    <name>180mn - Sortie gravel à Belvédère de Château Thebault</name>
  </metadata>
  <trk>
    <name><![CDATA[180mn - Sortie gravel à Belvédère de Château Thebault_1]]></name>
    <trkseg>
      <trkpt lat="47.21273" lon="-1.5717">
        <ele>63.749463</ele>
        <time>2021-11-06T13:44:11.947Z</time>
      </trkpt>
      <trkpt lat="47.21259" lon="-1.57167">
        <ele>63.492476</ele>
        <time>2021-11-06T13:44:14.968Z</time>
      </trkpt>
      <trkpt lat="47.21249" lon="-1.5716">
        <ele>63.279514</ele>
        <time>2021-11-06T13:44:16.950Z</time>
      </trkpt>
      <trkpt lat="47.2124" lon="-1.5715">
        <ele>63.070069</ele>
        <time>2021-11-06T13:44:18.951Z</time>
      </trkpt>
      <trkpt lat="47.21229" lon="-1.57147">
        <ele>62.905331</ele>
        <time>2021-11-06T13:44:20.956Z</time>
      </trkpt>
      <trkpt lat="47.21218" lon="-1.57143">
        <ele>62.772115</ele>
        <time>2021-11-06T13:44:22.970Z</time>
      </trkpt>
      <trkpt lat="47.21207" lon="-1.57139">
        <ele>62.631432</ele>
        <time>2021-11-06T13:44:24.966Z</time>
      </trkpt>
      <trkpt lat="47.21197" lon="-1.57135">
        <ele>62.502194</ele>
        <time>2021-11-06T13:44:26.948Z</time>
      </trkpt>
      <trkpt lat="47.21186" lon="-1.5713">
        <ele>62.36923</ele>
        <time>2021-11-06T13:44:28.953Z</time>
      </trkpt>
      <trkpt lat="47.21177" lon="-1.57126">
        <ele>62.24884</ele>
        <time>2021-11-06T13:44:30.950Z</time>
      </trkpt>
      <trkpt lat="47.21167" lon="-1.57124">
        <ele>62.127195</ele>
        <time>2021-11-06T13:44:32.961Z</time>
      </trkpt>
      <trkpt lat="47.21155" lon="-1.5712">
        <ele>61.982961</ele>
        <time>2021-11-06T13:44:34.967Z</time>
      </trkpt>
      <trkpt lat="47.21143" lon="-1.57117">
        <ele>61.834033</ele>
        <time>2021-11-06T13:44:36.953Z</time>
      </trkpt>
      <trkpt lat="47.21133" lon="-1.57114">
        <ele>61.713899</ele>
        <time>2021-11-06T13:44:38.968Z</time>
      </trkpt>
      <trkpt lat="47.21122" lon="-1.5711">
        <ele>61.570091</ele>
        <time>2021-11-06T13:44:40.993Z</time>
      </trkpt>
      <trkpt lat="47.21111" lon="-1.57107">
        <ele>61.438592</ele>
        <time>2021-11-06T13:44:42.952Z</time>
      </trkpt>
      <trkpt lat="47.211" lon="-1.57103">
        <ele>61.301266</ele>
        <time>2021-11-06T13:44:44.950Z</time>
      </trkpt>
      <trkpt lat="47.21089" lon="-1.57098">
        <ele>61.163642</ele>
        <time>2021-11-06T13:44:46.953Z</time>
      </trkpt>
      <trkpt lat="47.21079" lon="-1.57095">
        <ele>61.040622</ele>
        <time>2021-11-06T13:44:48.946Z</time>
      </trkpt>
      <trkpt lat="47.21069" lon="-1.57091">
        <ele>60.906223</ele>
        <time>2021-11-06T13:44:50.956Z</time>
      </trkpt>
      <trkpt lat="47.21058" lon="-1.57087">
        <ele>60.757645</ele>
        <time>2021-11-06T13:44:52.940Z</time>
      </trkpt>
      <trkpt lat="47.21047" lon="-1.57083">
        <ele>60.462661</ele>
        <time>2021-11-06T13:44:54.937Z</time>
      </trkpt>
      <trkpt lat="47.21036" lon="-1.57079">
        <ele>60.175511</ele>
        <time>2021-11-06T13:44:56.948Z</time>
      </trkpt>
      <trkpt lat="47.21026" lon="-1.57075">
        <ele>59.91643</ele>
        <time>2021-11-06T13:44:58.947Z</time>
      </trkpt>
      <trkpt lat="47.21017" lon="-1.57072">
        <ele>59.65848</ele>
        <time>2021-11-06T13:45:01.973Z</time>
      </trkpt>
      <trkpt lat="47.21008" lon="-1.57069">
        <ele>59.421679</ele>
        <time>2021-11-06T13:45:05.957Z</time>
      </trkpt>
      <trkpt lat="47.20998" lon="-1.57068">
        <ele>59.186574</ele>
        <time>2021-11-06T13:45:10.966Z</time>
      </trkpt>
      <trkpt lat="47.20982" lon="-1.57059">
        <ele>58.751276</ele>
        <time>2021-11-06T13:45:55.515Z</time>
      </trkpt>
      <trkpt lat="47.2097" lon="-1.57063">
        <ele>58.442341</ele>
        <time>2021-11-06T13:45:58.438Z</time>
      </trkpt>
      <trkpt lat="47.20957" lon="-1.57065">
        <ele>58.096372</ele>
        <time>2021-11-06T13:46:00.963Z</time>
      </trkpt>
      <trkpt lat="47.20948" lon="-1.57058">
        <ele>57.845333</ele>
        <time>2021-11-06T13:46:02.954Z</time>
      </trkpt>
      <trkpt lat="47.20942" lon="-1.57047">
        <ele>57.590838</ele>
        <time>2021-11-06T13:46:04.955Z</time>
      </trkpt>
      <trkpt lat="47.20933" lon="-1.5704">
        <ele>57.339799</ele>
        <time>2021-11-06T13:46:06.997Z</time>
      </trkpt>
      <trkpt lat="47.20922" lon="-1.57038">
        <ele>57.070394</ele>
        <time>2021-11-06T13:46:08.965Z</time>
      </trkpt>
      <trkpt lat="47.20912" lon="-1.57035">
        <ele>56.788183</ele>
        <time>2021-11-06T13:46:10.965Z</time>
      </trkpt>
      <trkpt lat="47.209" lon="-1.57031">
        <ele>56.490671</ele>
        <time>2021-11-06T13:46:12.973Z</time>
      </trkpt>
      <trkpt lat="47.20889" lon="-1.57027">
        <ele>56.213291</ele>
        <time>2021-11-06T13:46:14.958Z</time>
      </trkpt>
      <trkpt lat="47.2088" lon="-1.57016">
        <ele>56.214596</ele>
        <time>2021-11-06T13:46:16.962Z</time>
      </trkpt>
      <trkpt lat="47.20875" lon="-1.57001">
        <ele>56.215994</ele>
        <time>2021-11-06T13:46:18.955Z</time>
      </trkpt>
      <trkpt lat="47.2087" lon="-1.56985">
        <ele>56.21741</ele>
        <time>2021-11-06T13:46:20.941Z</time>
      </trkpt>
      <trkpt lat="47.20865" lon="-1.5697">
        <ele>56.218809</ele>
        <time>2021-11-06T13:46:22.983Z</time>
      </trkpt>
      <trkpt lat="47.20859" lon="-1.56955">
        <ele>56.220156</ele>
        <time>2021-11-06T13:46:24.967Z</time>
      </trkpt>
      <trkpt lat="47.20855" lon="-1.56942">
        <ele>56.22129</ele>
        <time>2021-11-06T13:46:26.948Z</time>
      </trkpt>
      <trkpt lat="47.20822" lon="-1.56897">
        <ele>56.226726</ele>
        <time>2021-11-06T13:46:57.628Z</time>
      </trkpt>
      <trkpt lat="47.20814" lon="-1.56889">
        <ele>56.227833</ele>
        <time>2021-11-06T13:46:59.936Z</time>
      </trkpt>
      <trkpt lat="47.20815" lon="-1.56874">
        <ele>56.229039</ele>
        <time>2021-11-06T13:47:02.571Z</time>
      </trkpt>
      <trkpt lat="47.20823" lon="-1.56863">
        <ele>56.230338</ele>
        <time>2021-11-06T13:47:03.955Z</time>
      </trkpt>
      <trkpt lat="47.20829" lon="-1.56849">
        <ele>56.231579</ele>
        <time>2021-11-06T13:47:05.943Z</time>
      </trkpt>
      <trkpt lat="47.20833" lon="-1.56835">
        <ele>56.232831</ele>
        <time>2021-11-06T13:47:07.970Z</time>
      </trkpt>
      <trkpt lat="47.20838" lon="-1.56822">
        <ele>56.234057</ele>
        <time>2021-11-06T13:47:09.965Z</time>
      </trkpt>
      <trkpt lat="47.20842" lon="-1.56808">
        <ele>56.242323</ele>
        <time>2021-11-06T13:47:11.955Z</time>
      </trkpt>
      <trkpt lat="47.20847" lon="-1.56794">
        <ele>56.255639</ele>
        <time>2021-11-06T13:47:13.955Z</time>
      </trkpt>
      <trkpt lat="47.20852" lon="-1.5678">
        <ele>56.269556</ele>
        <time>2021-11-06T13:47:15.956Z</time>
      </trkpt>
      <trkpt lat="47.20858" lon="-1.56766">
        <ele>56.284154</ele>
        <time>2021-11-06T13:47:17.952Z</time>
      </trkpt>
      <trkpt lat="47.20862" lon="-1.56751">
        <ele>56.298908</ele>
        <time>2021-11-06T13:47:19.944Z</time>
      </trkpt>
      <trkpt lat="47.20866" lon="-1.56734">
        <ele>56.314108</ele>
        <time>2021-11-06T13:47:21.958Z</time>
      </trkpt>
      <trkpt lat="47.20871" lon="-1.56718">
        <ele>56.329491</ele>
        <time>2021-11-06T13:47:23.946Z</time>
      </trkpt>
      <trkpt lat="47.20875" lon="-1.56702">
        <ele>56.344355</ele>
        <time>2021-11-06T13:47:25.962Z</time>
      </trkpt>
      <trkpt lat="47.2088" lon="-1.56687">
        <ele>56.359002</ele>
        <time>2021-11-06T13:47:27.969Z</time>
      </trkpt>
      <trkpt lat="47.20884" lon="-1.56673">
        <ele>56.372808</ele>
        <time>2021-11-06T13:47:29.948Z</time>
      </trkpt>
      <trkpt lat="47.20889" lon="-1.56661">
        <ele>56.384783</ele>
        <time>2021-11-06T13:47:31.989Z</time>
      </trkpt>
      <trkpt lat="47.20885" lon="-1.56649">
        <ele>56.39715</ele>
        <time>2021-11-06T13:47:36.956Z</time>
      </trkpt>
      <trkpt lat="47.20876" lon="-1.56639">
        <ele>56.41046</ele>
        <time>2021-11-06T13:47:39.662Z</time>
      </trkpt>
      <trkpt lat="47.20865" lon="-1.56631">
        <ele>56.426261</ele>
        <time>2021-11-06T13:47:42.869Z</time>
      </trkpt>
      <trkpt lat="47.20856" lon="-1.56623">
        <ele>56.440746</ele>
        <time>2021-11-06T13:47:45.762Z</time>
      </trkpt>
      <trkpt lat="47.20845" lon="-1.56613">
        <ele>56.457265</ele>
        <time>2021-11-06T13:47:48.972Z</time>
      </trkpt>
      <trkpt lat="47.20836" lon="-1.56604">
        <ele>56.467321</ele>
        <time>2021-11-06T13:47:51.473Z</time>
      </trkpt>
      <trkpt lat="47.20825" lon="-1.56595">
        <ele>56.469043</ele>
        <time>2021-11-06T13:47:53.943Z</time>
      </trkpt>
      <trkpt lat="47.20816" lon="-1.56587">
        <ele>56.470428</ele>
        <time>2021-11-06T13:47:55.951Z</time>
      </trkpt>
      <trkpt lat="47.20807" lon="-1.56578">
        <ele>56.47194</ele>
        <time>2021-11-06T13:47:57.946Z</time>
      </trkpt>
      <trkpt lat="47.20797" lon="-1.56569">
        <ele>56.473599</ele>
        <time>2021-11-06T13:47:59.957Z</time>
      </trkpt>
      <trkpt lat="47.20786" lon="-1.56559">
        <ele>56.475402</ele>
        <time>2021-11-06T13:48:01.949Z</time>
      </trkpt>
      <trkpt lat="47.20774" lon="-1.56548">
        <ele>56.477261</ele>
        <time>2021-11-06T13:48:03.950Z</time>
      </trkpt>
      <trkpt lat="47.20764" lon="-1.56538">
        <ele>56.478954</ele>
        <time>2021-11-06T13:48:05.948Z</time>
      </trkpt>
      <trkpt lat="47.20756" lon="-1.56532">
        <ele>56.48025</ele>
        <time>2021-11-06T13:48:08.016Z</time>
      </trkpt>
      <trkpt lat="47.20746" lon="-1.56537">
        <ele>56.481657</ele>
        <time>2021-11-06T13:48:10.974Z</time>
      </trkpt>
      <trkpt lat="47.20735" lon="-1.56535">
        <ele>56.483177</ele>
        <time>2021-11-06T13:48:12.951Z</time>
      </trkpt>
      <trkpt lat="47.20724" lon="-1.56539">
        <ele>56.484761</ele>
        <time>2021-11-06T13:48:14.958Z</time>
      </trkpt>
      <trkpt lat="47.20715" lon="-1.56547">
        <ele>56.486241</ele>
        <time>2021-11-06T13:48:16.951Z</time>
      </trkpt>
      <trkpt lat="47.20705" lon="-1.56551">
        <ele>56.487665</ele>
        <time>2021-11-06T13:48:18.965Z</time>
      </trkpt>
      <trkpt lat="47.20696" lon="-1.56557">
        <ele>56.48905</ele>
        <time>2021-11-06T13:48:20.946Z</time>
      </trkpt>
      <trkpt lat="47.20689" lon="-1.5657">
        <ele>56.490518</ele>
        <time>2021-11-06T13:48:22.963Z</time>
      </trkpt>
      <trkpt lat="47.20682" lon="-1.5658">
        <ele>56.514412</ele>
        <time>2021-11-06T13:48:24.999Z</time>
      </trkpt>
      <trkpt lat="47.20673" lon="-1.56584">
        <ele>56.614747</ele>
        <time>2021-11-06T13:48:26.959Z</time>
      </trkpt>
      <trkpt lat="47.20668" lon="-1.56572">
        <ele>56.712157</ele>
        <time>2021-11-06T13:48:28.968Z</time>
      </trkpt>
      <trkpt lat="47.2066" lon="-1.56559">
        <ele>56.835882</ele>
        <time>2021-11-06T13:48:30.958Z</time>
      </trkpt>
      <trkpt lat="47.2065" lon="-1.5655">
        <ele>56.956832</ele>
        <time>2021-11-06T13:48:32.950Z</time>
      </trkpt>
      <trkpt lat="47.20639" lon="-1.56546">
        <ele>57.073127</ele>
        <time>2021-11-06T13:48:34.938Z</time>
      </trkpt>
      <trkpt lat="47.20628" lon="-1.5655">
        <ele>57.188717</ele>
        <time>2021-11-06T13:48:36.950Z</time>
      </trkpt>
      <trkpt lat="47.2062" lon="-1.56559">
        <ele>57.302163</ele>
        <time>2021-11-06T13:48:38.997Z</time>
      </trkpt>
      <trkpt lat="47.20612" lon="-1.5657">
        <ele>57.410482</ele>
        <time>2021-11-06T13:48:40.957Z</time>
      </trkpt>
      <trkpt lat="47.20606" lon="-1.56581">
        <ele>57.513762</ele>
        <time>2021-11-06T13:48:42.990Z</time>
      </trkpt>
      <trkpt lat="47.206" lon="-1.56592">
        <ele>57.611396</ele>
        <time>2021-11-06T13:48:44.932Z</time>
      </trkpt>
      <trkpt lat="47.20594" lon="-1.56606">
        <ele>57.724303</ele>
        <time>2021-11-06T13:48:46.959Z</time>
      </trkpt>
      <trkpt lat="47.20589" lon="-1.56618">
        <ele>57.828287</ele>
        <time>2021-11-06T13:48:48.957Z</time>
      </trkpt>
      <trkpt lat="47.20584" lon="-1.5663">
        <ele>57.929395</ele>
        <time>2021-11-06T13:48:50.956Z</time>
      </trkpt>
      <trkpt lat="47.20578" lon="-1.56642">
        <ele>58.030449</ele>
        <time>2021-11-06T13:48:52.952Z</time>
      </trkpt>
      <trkpt lat="47.20572" lon="-1.56653">
        <ele>58.13302</ele>
        <time>2021-11-06T13:48:54.952Z</time>
      </trkpt>
      <trkpt lat="47.20566" lon="-1.56665">
        <ele>58.2353</ele>
        <time>2021-11-06T13:48:56.946Z</time>
      </trkpt>
      <trkpt lat="47.20561" lon="-1.56677">
        <ele>58.336374</ele>
        <time>2021-11-06T13:48:58.947Z</time>
      </trkpt>
      <trkpt lat="47.20555" lon="-1.56689">
        <ele>58.299605</ele>
        <time>2021-11-06T13:49:00.960Z</time>
      </trkpt>
      <trkpt lat="47.20549" lon="-1.567">
        <ele>58.219461</ele>
        <time>2021-11-06T13:49:02.956Z</time>
      </trkpt>
      <trkpt lat="47.20542" lon="-1.56711">
        <ele>58.138073</ele>
        <time>2021-11-06T13:49:04.958Z</time>
      </trkpt>
      <trkpt lat="47.20533" lon="-1.56717">
        <ele>58.056722</ele>
        <time>2021-11-06T13:49:06.949Z</time>
      </trkpt>
      <trkpt lat="47.20523" lon="-1.5672">
        <ele>57.9738</ele>
        <time>2021-11-06T13:49:08.961Z</time>
      </trkpt>
      <trkpt lat="47.20513" lon="-1.56719">
        <ele>57.893794</ele>
        <time>2021-11-06T13:49:10.946Z</time>
      </trkpt>
      <trkpt lat="47.20504" lon="-1.56719">
        <ele>57.818912</ele>
        <time>2021-11-06T13:49:12.959Z</time>
      </trkpt>
      <trkpt lat="47.20497" lon="-1.56729">
        <ele>57.73927</ele>
        <time>2021-11-06T13:49:14.954Z</time>
      </trkpt>
      <trkpt lat="47.20494" lon="-1.56745">
        <ele>57.648877</ele>
        <time>2021-11-06T13:49:16.950Z</time>
      </trkpt>
      <trkpt lat="47.20493" lon="-1.5676">
        <ele>57.564388</ele>
        <time>2021-11-06T13:49:18.954Z</time>
      </trkpt>
      <trkpt lat="47.20491" lon="-1.56775">
        <ele>57.482513</ele>
        <time>2021-11-06T13:49:20.949Z</time>
      </trkpt>
      <trkpt lat="47.20489" lon="-1.56789">
        <ele>57.400157</ele>
        <time>2021-11-06T13:49:22.973Z</time>
      </trkpt>
      <trkpt lat="47.20486" lon="-1.56804">
        <ele>57.315241</ele>
        <time>2021-11-06T13:49:24.962Z</time>
      </trkpt>
      <trkpt lat="47.20484" lon="-1.56818">
        <ele>57.232754</ele>
        <time>2021-11-06T13:49:26.950Z</time>
      </trkpt>
      <trkpt lat="47.20481" lon="-1.56832">
        <ele>57.153378</ele>
        <time>2021-11-06T13:49:28.944Z</time>
      </trkpt>
      <trkpt lat="47.20478" lon="-1.56846">
        <ele>57.074077</ele>
        <time>2021-11-06T13:49:30.949Z</time>
      </trkpt>
      <trkpt lat="47.20475" lon="-1.5686">
        <ele>56.992433</ele>
        <time>2021-11-06T13:49:32.954Z</time>
      </trkpt>
      <trkpt lat="47.20472" lon="-1.56873">
        <ele>56.913886</ele>
        <time>2021-11-06T13:49:34.951Z</time>
      </trkpt>
      <trkpt lat="47.2047" lon="-1.56887">
        <ele>56.836019</ele>
        <time>2021-11-06T13:49:36.974Z</time>
      </trkpt>
      <trkpt lat="47.20468" lon="-1.56901">
        <ele>56.759806</ele>
        <time>2021-11-06T13:49:38.941Z</time>
      </trkpt>
      <trkpt lat="47.20465" lon="-1.56915">
        <ele>56.677542</ele>
        <time>2021-11-06T13:49:40.959Z</time>
      </trkpt>
      <trkpt lat="47.20462" lon="-1.5693">
        <ele>56.593632</ele>
        <time>2021-11-06T13:49:42.975Z</time>
      </trkpt>
      <trkpt lat="47.20459" lon="-1.56945">
        <ele>56.509564</ele>
        <time>2021-11-06T13:49:44.964Z</time>
      </trkpt>
      <trkpt lat="47.20457" lon="-1.5696">
        <ele>56.425396</ele>
        <time>2021-11-06T13:49:46.967Z</time>
      </trkpt>
      <trkpt lat="47.20455" lon="-1.56975">
        <ele>56.342474</ele>
        <time>2021-11-06T13:49:48.937Z</time>
      </trkpt>
      <trkpt lat="47.20452" lon="-1.56989">
        <ele>56.25983</ele>
        <time>2021-11-06T13:49:50.946Z</time>
      </trkpt>
      <trkpt lat="47.20449" lon="-1.57004">
        <ele>56.1757</ele>
        <time>2021-11-06T13:49:52.952Z</time>
      </trkpt>
      <trkpt lat="47.20446" lon="-1.57019">
        <ele>56.090887</ele>
        <time>2021-11-06T13:49:54.960Z</time>
      </trkpt>
      <trkpt lat="47.20443" lon="-1.57033">
        <ele>56.007054</ele>
        <time>2021-11-06T13:49:56.957Z</time>
      </trkpt>
      <trkpt lat="47.2044" lon="-1.57048">
        <ele>55.926201</ele>
        <time>2021-11-06T13:49:58.960Z</time>
      </trkpt>
      <trkpt lat="47.20437" lon="-1.57062">
        <ele>55.844458</ele>
        <time>2021-11-06T13:50:00.953Z</time>
      </trkpt>
      <trkpt lat="47.20434" lon="-1.57076">
        <ele>55.763769</ele>
        <time>2021-11-06T13:50:02.969Z</time>
      </trkpt>
      <trkpt lat="47.2043" lon="-1.5709">
        <ele>55.680751</ele>
        <time>2021-11-06T13:50:04.964Z</time>
      </trkpt>
      <trkpt lat="47.20427" lon="-1.57104">
        <ele>55.598991</ele>
        <time>2021-11-06T13:50:06.941Z</time>
      </trkpt>
      <trkpt lat="47.20424" lon="-1.57118">
        <ele>55.519853</ele>
        <time>2021-11-06T13:50:08.955Z</time>
      </trkpt>
      <trkpt lat="47.20418" lon="-1.5713">
        <ele>55.451836</ele>
        <time>2021-11-06T13:50:10.944Z</time>
      </trkpt>
      <trkpt lat="47.20409" lon="-1.57136">
        <ele>55.451517</ele>
        <time>2021-11-06T13:50:12.941Z</time>
      </trkpt>
      <trkpt lat="47.20399" lon="-1.57141">
        <ele>55.451197</ele>
        <time>2021-11-06T13:50:14.940Z</time>
      </trkpt>
      <trkpt lat="47.20389" lon="-1.57146">
        <ele>55.450885</ele>
        <time>2021-11-06T13:50:16.947Z</time>
      </trkpt>
      <trkpt lat="47.2038" lon="-1.57152">
        <ele>55.45057</ele>
        <time>2021-11-06T13:50:18.957Z</time>
      </trkpt>
      <trkpt lat="47.20371" lon="-1.57159">
        <ele>55.450256</ele>
        <time>2021-11-06T13:50:20.952Z</time>
      </trkpt>
      <trkpt lat="47.20362" lon="-1.57165">
        <ele>55.449947</ele>
        <time>2021-11-06T13:50:22.932Z</time>
      </trkpt>
      <trkpt lat="47.20353" lon="-1.57171">
        <ele>55.449635</ele>
        <time>2021-11-06T13:50:24.957Z</time>
      </trkpt>
      <trkpt lat="47.20343" lon="-1.57176">
        <ele>55.449316</ele>
        <time>2021-11-06T13:50:26.968Z</time>
      </trkpt>
      <trkpt lat="47.20334" lon="-1.5718">
        <ele>55.449019</ele>
        <time>2021-11-06T13:50:28.971Z</time>
      </trkpt>
      <trkpt lat="47.20324" lon="-1.57182">
        <ele>55.448726</ele>
        <time>2021-11-06T13:50:30.955Z</time>
      </trkpt>
      <trkpt lat="47.20315" lon="-1.57189">
        <ele>55.448409</ele>
        <time>2021-11-06T13:50:32.959Z</time>
      </trkpt>
      <trkpt lat="47.20305" lon="-1.57196">
        <ele>55.448081</ele>
        <time>2021-11-06T13:50:34.954Z</time>
      </trkpt>
      <trkpt lat="47.20296" lon="-1.57202">
        <ele>55.447763</ele>
        <time>2021-11-06T13:50:36.964Z</time>
      </trkpt>
      <trkpt lat="47.20286" lon="-1.57208">
        <ele>55.447435</ele>
        <time>2021-11-06T13:50:38.978Z</time>
      </trkpt>
      <trkpt lat="47.20276" lon="-1.57213">
        <ele>55.447104</ele>
        <time>2021-11-06T13:50:40.947Z</time>
      </trkpt>
      <trkpt lat="47.20266" lon="-1.57212">
        <ele>55.446792</ele>
        <time>2021-11-06T13:50:42.953Z</time>
      </trkpt>
      <trkpt lat="47.20256" lon="-1.57213">
        <ele>55.446499</ele>
        <time>2021-11-06T13:50:44.947Z</time>
      </trkpt>
      <trkpt lat="47.20247" lon="-1.57213">
        <ele>55.441918</ele>
        <time>2021-11-06T13:50:46.972Z</time>
      </trkpt>
      <trkpt lat="47.20238" lon="-1.57213">
        <ele>55.431055</ele>
        <time>2021-11-06T13:50:48.969Z</time>
      </trkpt>
      <trkpt lat="47.20229" lon="-1.57203">
        <ele>55.417723</ele>
        <time>2021-11-06T13:50:51.960Z</time>
      </trkpt>
      <trkpt lat="47.20224" lon="-1.57188">
        <ele>55.404624</ele>
        <time>2021-11-06T13:50:54.953Z</time>
      </trkpt>
      <trkpt lat="47.20212" lon="-1.57182">
        <ele>55.389871</ele>
        <time>2021-11-06T13:50:57.966Z</time>
      </trkpt>
      <trkpt lat="47.20199" lon="-1.57192">
        <ele>55.37324</ele>
        <time>2021-11-06T13:51:00.956Z</time>
      </trkpt>
      <trkpt lat="47.2019" lon="-1.57201">
        <ele>55.360618</ele>
        <time>2021-11-06T13:51:02.949Z</time>
      </trkpt>
      <trkpt lat="47.20181" lon="-1.57207">
        <ele>55.348384</ele>
        <time>2021-11-06T13:51:04.949Z</time>
      </trkpt>
      <trkpt lat="47.20171" lon="-1.57213">
        <ele>55.336125</ele>
        <time>2021-11-06T13:51:06.960Z</time>
      </trkpt>
      <trkpt lat="47.20161" lon="-1.57219">
        <ele>55.323911</ele>
        <time>2021-11-06T13:51:08.951Z</time>
      </trkpt>
      <trkpt lat="47.20152" lon="-1.57226">
        <ele>55.312025</ele>
        <time>2021-11-06T13:51:10.951Z</time>
      </trkpt>
      <trkpt lat="47.20142" lon="-1.57231">
        <ele>55.299884</ele>
        <time>2021-11-06T13:51:12.964Z</time>
      </trkpt>
      <trkpt lat="47.20133" lon="-1.57238">
        <ele>55.287858</ele>
        <time>2021-11-06T13:51:14.952Z</time>
      </trkpt>
      <trkpt lat="47.20124" lon="-1.57244">
        <ele>55.275939</ele>
        <time>2021-11-06T13:51:16.951Z</time>
      </trkpt>
      <trkpt lat="47.20115" lon="-1.57251">
        <ele>55.264053</ele>
        <time>2021-11-06T13:51:18.950Z</time>
      </trkpt>
      <trkpt lat="47.20106" lon="-1.57257">
        <ele>55.252201</ele>
        <time>2021-11-06T13:51:20.953Z</time>
      </trkpt>
      <trkpt lat="47.20096" lon="-1.57263">
        <ele>55.240308</ele>
        <time>2021-11-06T13:51:22.952Z</time>
      </trkpt>
      <trkpt lat="47.20087" lon="-1.57269">
        <ele>55.234542</ele>
        <time>2021-11-06T13:51:24.954Z</time>
      </trkpt>
      <trkpt lat="47.20078" lon="-1.57276">
        <ele>55.232022</ele>
        <time>2021-11-06T13:51:26.947Z</time>
      </trkpt>
      <trkpt lat="47.20069" lon="-1.57284">
        <ele>55.229503</ele>
        <time>2021-11-06T13:51:28.947Z</time>
      </trkpt>
      <trkpt lat="47.20061" lon="-1.57292">
        <ele>55.22702</ele>
        <time>2021-11-06T13:51:30.946Z</time>
      </trkpt>
      <trkpt lat="47.20052" lon="-1.573">
        <ele>55.224574</ele>
        <time>2021-11-06T13:51:32.947Z</time>
      </trkpt>
      <trkpt lat="47.20043" lon="-1.57306">
        <ele>55.222106</ele>
        <time>2021-11-06T13:51:34.965Z</time>
      </trkpt>
      <trkpt lat="47.20034" lon="-1.57312">
        <ele>55.219585</ele>
        <time>2021-11-06T13:51:36.959Z</time>
      </trkpt>
      <trkpt lat="47.20025" lon="-1.57318">
        <ele>55.217043</ele>
        <time>2021-11-06T13:51:38.945Z</time>
      </trkpt>
      <trkpt lat="47.20016" lon="-1.57325">
        <ele>55.214605</ele>
        <time>2021-11-06T13:51:40.951Z</time>
      </trkpt>
      <trkpt lat="47.20007" lon="-1.57331">
        <ele>55.212144</ele>
        <time>2021-11-06T13:51:42.951Z</time>
      </trkpt>
      <trkpt lat="47.19997" lon="-1.57336">
        <ele>55.209581</ele>
        <time>2021-11-06T13:51:44.970Z</time>
      </trkpt>
      <trkpt lat="47.19987" lon="-1.57338">
        <ele>55.207066</ele>
        <time>2021-11-06T13:51:46.970Z</time>
      </trkpt>
      <trkpt lat="47.1998" lon="-1.57327">
        <ele>55.204559</ele>
        <time>2021-11-06T13:51:48.947Z</time>
      </trkpt>
      <trkpt lat="47.19978" lon="-1.57311">
        <ele>55.201843</ele>
        <time>2021-11-06T13:51:50.969Z</time>
      </trkpt>
      <trkpt lat="47.19977" lon="-1.57294">
        <ele>55.199058</ele>
        <time>2021-11-06T13:51:52.952Z</time>
      </trkpt>
      <trkpt lat="47.19977" lon="-1.57278">
        <ele>55.196331</ele>
        <time>2021-11-06T13:51:54.956Z</time>
      </trkpt>
      <trkpt lat="47.19977" lon="-1.57262">
        <ele>55.193672</ele>
        <time>2021-11-06T13:51:56.947Z</time>
      </trkpt>
      <trkpt lat="47.19977" lon="-1.57247">
        <ele>55.199276</ele>
        <time>2021-11-06T13:51:58.951Z</time>
      </trkpt>
      <trkpt lat="47.19978" lon="-1.5723">
        <ele>55.229444</ele>
        <time>2021-11-06T13:52:00.972Z</time>
      </trkpt>
      <trkpt lat="47.19978" lon="-1.57213">
        <ele>55.260882</ele>
        <time>2021-11-06T13:52:02.943Z</time>
      </trkpt>
      <trkpt lat="47.19978" lon="-1.57197">
        <ele>55.292139</ele>
        <time>2021-11-06T13:52:04.937Z</time>
      </trkpt>
      <trkpt lat="47.19978" lon="-1.5718">
        <ele>55.323579</ele>
        <time>2021-11-06T13:52:06.957Z</time>
      </trkpt>
      <trkpt lat="47.19978" lon="-1.57163">
        <ele>55.354836</ele>
        <time>2021-11-06T13:52:08.978Z</time>
      </trkpt>
      <trkpt lat="47.19977" lon="-1.57146">
        <ele>55.386722</ele>
        <time>2021-11-06T13:52:10.929Z</time>
      </trkpt>
      <trkpt lat="47.19974" lon="-1.57129">
        <ele>55.418593</ele>
        <time>2021-11-06T13:52:12.940Z</time>
      </trkpt>
      <trkpt lat="47.19971" lon="-1.57113">
        <ele>55.449685</ele>
        <time>2021-11-06T13:52:14.943Z</time>
      </trkpt>
      <trkpt lat="47.19967" lon="-1.57098">
        <ele>55.480514</ele>
        <time>2021-11-06T13:52:16.942Z</time>
      </trkpt>
      <trkpt lat="47.19963" lon="-1.57082">
        <ele>55.5109</ele>
        <time>2021-11-06T13:52:18.951Z</time>
      </trkpt>
      <trkpt lat="47.1996" lon="-1.57067">
        <ele>55.540245</ele>
        <time>2021-11-06T13:52:20.932Z</time>
      </trkpt>
      <trkpt lat="47.19956" lon="-1.57052">
        <ele>55.57077</ele>
        <time>2021-11-06T13:52:22.947Z</time>
      </trkpt>
      <trkpt lat="47.1995" lon="-1.57037">
        <ele>55.60267</ele>
        <time>2021-11-06T13:52:24.948Z</time>
      </trkpt>
      <trkpt lat="47.19949" lon="-1.5702">
        <ele>55.634724</ele>
        <time>2021-11-06T13:52:26.944Z</time>
      </trkpt>
      <trkpt lat="47.1995" lon="-1.57003">
        <ele>55.666577</ele>
        <time>2021-11-06T13:52:28.946Z</time>
      </trkpt>
      <trkpt lat="47.1995" lon="-1.56986">
        <ele>55.6771</ele>
        <time>2021-11-06T13:52:30.949Z</time>
      </trkpt>
      <trkpt lat="47.19951" lon="-1.56969">
        <ele>55.661636</ele>
        <time>2021-11-06T13:52:32.964Z</time>
      </trkpt>
      <trkpt lat="47.19951" lon="-1.56951">
        <ele>55.645722</ele>
        <time>2021-11-06T13:52:34.952Z</time>
      </trkpt>
      <trkpt lat="47.19951" lon="-1.56934">
        <ele>55.630176</ele>
        <time>2021-11-06T13:52:36.949Z</time>
      </trkpt>
      <trkpt lat="47.19951" lon="-1.56917">
        <ele>55.614725</ele>
        <time>2021-11-06T13:52:38.956Z</time>
      </trkpt>
      <trkpt lat="47.19951" lon="-1.569">
        <ele>55.598911</ele>
        <time>2021-11-06T13:52:40.973Z</time>
      </trkpt>
      <trkpt lat="47.19951" lon="-1.56883">
        <ele>55.583458</ele>
        <time>2021-11-06T13:52:42.956Z</time>
      </trkpt>
      <trkpt lat="47.19951" lon="-1.56866">
        <ele>55.568078</ele>
        <time>2021-11-06T13:52:44.946Z</time>
      </trkpt>
      <trkpt lat="47.19951" lon="-1.56849">
        <ele>55.552886</ele>
        <time>2021-11-06T13:52:46.949Z</time>
      </trkpt>
      <trkpt lat="47.19952" lon="-1.56833">
        <ele>55.537971</ele>
        <time>2021-11-06T13:52:48.973Z</time>
      </trkpt>
      <trkpt lat="47.19952" lon="-1.56817">
        <ele>55.52343</ele>
        <time>2021-11-06T13:52:50.951Z</time>
      </trkpt>
      <trkpt lat="47.19951" lon="-1.56801">
        <ele>55.508792</ele>
        <time>2021-11-06T13:52:52.950Z</time>
      </trkpt>
      <trkpt lat="47.19951" lon="-1.56784">
        <ele>55.494068</ele>
        <time>2021-11-06T13:52:54.976Z</time>
      </trkpt>
      <trkpt lat="47.19951" lon="-1.56769">
        <ele>55.479617</ele>
        <time>2021-11-06T13:52:56.947Z</time>
      </trkpt>
      <trkpt lat="47.19952" lon="-1.56753">
        <ele>55.465648</ele>
        <time>2021-11-06T13:52:58.964Z</time>
      </trkpt>
      <trkpt lat="47.19952" lon="-1.56738">
        <ele>55.452053</ele>
        <time>2021-11-06T13:53:00.947Z</time>
      </trkpt>
      <trkpt lat="47.19951" lon="-1.56724">
        <ele>55.463172</ele>
        <time>2021-11-06T13:53:02.974Z</time>
      </trkpt>
      <trkpt lat="47.19951" lon="-1.5671">
        <ele>55.517462</ele>
        <time>2021-11-06T13:53:04.952Z</time>
      </trkpt>
      <trkpt lat="47.19951" lon="-1.56695">
        <ele>55.571019</ele>
        <time>2021-11-06T13:53:06.950Z</time>
      </trkpt>
      <trkpt lat="47.19951" lon="-1.56682">
        <ele>55.623794</ele>
        <time>2021-11-06T13:53:08.964Z</time>
      </trkpt>
      <trkpt lat="47.19951" lon="-1.56667">
        <ele>55.678854</ele>
        <time>2021-11-06T13:53:10.946Z</time>
      </trkpt>
      <trkpt lat="47.19951" lon="-1.56652">
        <ele>55.734688</ele>
        <time>2021-11-06T13:53:12.965Z</time>
      </trkpt>
      <trkpt lat="47.19951" lon="-1.56638">
        <ele>55.790901</ele>
        <time>2021-11-06T13:53:14.952Z</time>
      </trkpt>
      <trkpt lat="47.19951" lon="-1.56622">
        <ele>55.848231</ele>
        <time>2021-11-06T13:53:16.962Z</time>
      </trkpt>
      <trkpt lat="47.19951" lon="-1.56607">
        <ele>55.906764</ele>
        <time>2021-11-06T13:53:18.964Z</time>
      </trkpt>
      <trkpt lat="47.19952" lon="-1.56592">
        <ele>55.964861</ele>
        <time>2021-11-06T13:53:20.966Z</time>
      </trkpt>
      <trkpt lat="47.19952" lon="-1.56576">
        <ele>56.023709</ele>
        <time>2021-11-06T13:53:22.951Z</time>
      </trkpt>
      <trkpt lat="47.19952" lon="-1.56561">
        <ele>56.081514</ele>
        <time>2021-11-06T13:53:24.955Z</time>
      </trkpt>
      <trkpt lat="47.19952" lon="-1.56546">
        <ele>56.13999</ele>
        <time>2021-11-06T13:53:26.949Z</time>
      </trkpt>
      <trkpt lat="47.19952" lon="-1.5653">
        <ele>56.198456</ele>
        <time>2021-11-06T13:53:28.954Z</time>
      </trkpt>
      <trkpt lat="47.19953" lon="-1.56515">
        <ele>56.257019</ele>
        <time>2021-11-06T13:53:30.980Z</time>
      </trkpt>
      <trkpt lat="47.19954" lon="-1.56499">
        <ele>56.315581</ele>
        <time>2021-11-06T13:53:32.972Z</time>
      </trkpt>
      <trkpt lat="47.19954" lon="-1.56484">
        <ele>56.372627</ele>
        <time>2021-11-06T13:53:34.961Z</time>
      </trkpt>
      <trkpt lat="47.19955" lon="-1.56469">
        <ele>56.431359</ele>
        <time>2021-11-06T13:53:36.961Z</time>
      </trkpt>
      <trkpt lat="47.19958" lon="-1.56454">
        <ele>56.499898</ele>
        <time>2021-11-06T13:53:38.952Z</time>
      </trkpt>
      <trkpt lat="47.19961" lon="-1.56438">
        <ele>56.572203</ele>
        <time>2021-11-06T13:53:40.981Z</time>
      </trkpt>
      <trkpt lat="47.19965" lon="-1.56423">
        <ele>56.643718</ele>
        <time>2021-11-06T13:53:42.952Z</time>
      </trkpt>
      <trkpt lat="47.19969" lon="-1.56408">
        <ele>56.71541</ele>
        <time>2021-11-06T13:53:44.953Z</time>
      </trkpt>
      <trkpt lat="47.19971" lon="-1.56393">
        <ele>56.787784</ele>
        <time>2021-11-06T13:53:46.954Z</time>
      </trkpt>
      <trkpt lat="47.19972" lon="-1.56377">
        <ele>56.858585</ele>
        <time>2021-11-06T13:53:48.956Z</time>
      </trkpt>
      <trkpt lat="47.19972" lon="-1.56361">
        <ele>56.928178</ele>
        <time>2021-11-06T13:53:50.952Z</time>
      </trkpt>
      <trkpt lat="47.19973" lon="-1.56346">
        <ele>56.998222</ele>
        <time>2021-11-06T13:53:52.952Z</time>
      </trkpt>
      <trkpt lat="47.19974" lon="-1.56331">
        <ele>57.067184</ele>
        <time>2021-11-06T13:53:54.957Z</time>
      </trkpt>
      <trkpt lat="47.19976" lon="-1.56315">
        <ele>57.13739</ele>
        <time>2021-11-06T13:53:56.954Z</time>
      </trkpt>
      <trkpt lat="47.19977" lon="-1.56299">
        <ele>57.208575</ele>
        <time>2021-11-06T13:53:58.954Z</time>
      </trkpt>
      <trkpt lat="47.19978" lon="-1.56284">
        <ele>57.279592</ele>
        <time>2021-11-06T13:54:00.954Z</time>
      </trkpt>
      <trkpt lat="47.19977" lon="-1.56268">
        <ele>57.350161</ele>
        <time>2021-11-06T13:54:02.956Z</time>
      </trkpt>
      <trkpt lat="47.19977" lon="-1.56252">
        <ele>57.420656</ele>
        <time>2021-11-06T13:54:04.958Z</time>
      </trkpt>
      <trkpt lat="47.19977" lon="-1.56237">
        <ele>57.49115</ele>
        <time>2021-11-06T13:54:06.965Z</time>
      </trkpt>
      <trkpt lat="47.19977" lon="-1.56221">
        <ele>57.560001</ele>
        <time>2021-11-06T13:54:08.947Z</time>
      </trkpt>
      <trkpt lat="47.19976" lon="-1.56206">
        <ele>57.627811</ele>
        <time>2021-11-06T13:54:10.951Z</time>
      </trkpt>
      <trkpt lat="47.19976" lon="-1.56191">
        <ele>57.593751</ele>
        <time>2021-11-06T13:54:12.967Z</time>
      </trkpt>
      <trkpt lat="47.19976" lon="-1.56176">
        <ele>57.544112</ele>
        <time>2021-11-06T13:54:14.949Z</time>
      </trkpt>
      <trkpt lat="47.19971" lon="-1.56165">
        <ele>57.498369</ele>
        <time>2021-11-06T13:54:16.936Z</time>
      </trkpt>
      <trkpt lat="47.19961" lon="-1.56162">
        <ele>57.452258</ele>
        <time>2021-11-06T13:54:18.949Z</time>
      </trkpt>
      <trkpt lat="47.19951" lon="-1.56164">
        <ele>57.403104</ele>
        <time>2021-11-06T13:54:20.943Z</time>
      </trkpt>
      <trkpt lat="47.19942" lon="-1.56167">
        <ele>57.354726</ele>
        <time>2021-11-06T13:54:22.952Z</time>
      </trkpt>
      <trkpt lat="47.1993" lon="-1.56171">
        <ele>57.295212</ele>
        <time>2021-11-06T13:54:25.949Z</time>
      </trkpt>
      <trkpt lat="47.19917" lon="-1.56173">
        <ele>57.232902</ele>
        <time>2021-11-06T13:54:28.958Z</time>
      </trkpt>
      <trkpt lat="47.19904" lon="-1.56176">
        <ele>57.167041</ele>
        <time>2021-11-06T13:54:30.978Z</time>
      </trkpt>
      <trkpt lat="47.19892" lon="-1.56178">
        <ele>57.110128</ele>
        <time>2021-11-06T13:54:34.478Z</time>
      </trkpt>
      <trkpt lat="47.19881" lon="-1.5618">
        <ele>57.054222</ele>
        <time>2021-11-06T13:54:37.344Z</time>
      </trkpt>
      <trkpt lat="47.19871" lon="-1.56182">
        <ele>57.005759</ele>
        <time>2021-11-06T13:54:39.810Z</time>
      </trkpt>
      <trkpt lat="47.19861" lon="-1.56183">
        <ele>56.956659</ele>
        <time>2021-11-06T13:54:42.170Z</time>
      </trkpt>
      <trkpt lat="47.19848" lon="-1.56186">
        <ele>56.892899</ele>
        <time>2021-11-06T13:54:44.958Z</time>
      </trkpt>
      <trkpt lat="47.19839" lon="-1.56187">
        <ele>56.847825</ele>
        <time>2021-11-06T13:54:46.978Z</time>
      </trkpt>
      <trkpt lat="47.19829" lon="-1.56189">
        <ele>56.80297</ele>
        <time>2021-11-06T13:54:48.954Z</time>
      </trkpt>
      <trkpt lat="47.1982" lon="-1.56191">
        <ele>56.756241</ele>
        <time>2021-11-06T13:54:50.947Z</time>
      </trkpt>
      <trkpt lat="47.19811" lon="-1.56193">
        <ele>56.703625</ele>
        <time>2021-11-06T13:54:52.952Z</time>
      </trkpt>
      <trkpt lat="47.19801" lon="-1.56195">
        <ele>56.650013</ele>
        <time>2021-11-06T13:54:54.950Z</time>
      </trkpt>
      <trkpt lat="47.19791" lon="-1.56197">
        <ele>56.595643</ele>
        <time>2021-11-06T13:54:56.952Z</time>
      </trkpt>
      <trkpt lat="47.19781" lon="-1.56199">
        <ele>56.538686</ele>
        <time>2021-11-06T13:54:58.942Z</time>
      </trkpt>
      <trkpt lat="47.1977" lon="-1.56201">
        <ele>56.477414</ele>
        <time>2021-11-06T13:55:00.967Z</time>
      </trkpt>
      <trkpt lat="47.19759" lon="-1.56203">
        <ele>56.413218</ele>
        <time>2021-11-06T13:55:02.969Z</time>
      </trkpt>
      <trkpt lat="47.19747" lon="-1.56205">
        <ele>56.348472</ele>
        <time>2021-11-06T13:55:04.954Z</time>
      </trkpt>
      <trkpt lat="47.19735" lon="-1.56207">
        <ele>56.281526</ele>
        <time>2021-11-06T13:55:06.934Z</time>
      </trkpt>
      <trkpt lat="47.19722" lon="-1.56209">
        <ele>56.210135</ele>
        <time>2021-11-06T13:55:08.968Z</time>
      </trkpt>
      <trkpt lat="47.19709" lon="-1.56212">
        <ele>56.135705</ele>
        <time>2021-11-06T13:55:10.965Z</time>
      </trkpt>
      <trkpt lat="47.19695" lon="-1.56215">
        <ele>56.058533</ele>
        <time>2021-11-06T13:55:12.947Z</time>
      </trkpt>
      <trkpt lat="47.19681" lon="-1.56217">
        <ele>55.979811</ele>
        <time>2021-11-06T13:55:14.950Z</time>
      </trkpt>
      <trkpt lat="47.19667" lon="-1.56223">
        <ele>55.897044</ele>
        <time>2021-11-06T13:55:16.958Z</time>
      </trkpt>
      <trkpt lat="47.19652" lon="-1.56227">
        <ele>55.813071</ele>
        <time>2021-11-06T13:55:18.967Z</time>
      </trkpt>
      <trkpt lat="47.1964" lon="-1.56232">
        <ele>55.744996</ele>
        <time>2021-11-06T13:55:20.951Z</time>
      </trkpt>
      <trkpt lat="47.19642" lon="-1.56249">
        <ele>55.68894</ele>
        <time>2021-11-06T13:55:23.954Z</time>
      </trkpt>
      <trkpt lat="47.19653" lon="-1.56253">
        <ele>55.633656</ele>
        <time>2021-11-06T13:55:25.958Z</time>
      </trkpt>
      <trkpt lat="47.19665" lon="-1.56252">
        <ele>55.577057</ele>
        <time>2021-11-06T13:55:27.958Z</time>
      </trkpt>
      <trkpt lat="47.19675" lon="-1.56247">
        <ele>55.522891</ele>
        <time>2021-11-06T13:55:29.963Z</time>
      </trkpt>
      <trkpt lat="47.19679" lon="-1.5623">
        <ele>55.461353</ele>
        <time>2021-11-06T13:55:31.943Z</time>
      </trkpt>
      <trkpt lat="47.19679" lon="-1.56211">
        <ele>55.396247</ele>
        <time>2021-11-06T13:55:33.944Z</time>
      </trkpt>
      <trkpt lat="47.19676" lon="-1.56193">
        <ele>55.334505</ele>
        <time>2021-11-06T13:55:35.954Z</time>
      </trkpt>
      <trkpt lat="47.19675" lon="-1.56178">
        <ele>55.284623</ele>
        <time>2021-11-06T13:55:37.951Z</time>
      </trkpt>
      <trkpt lat="47.19667" lon="-1.56168">
        <ele>55.233422</ele>
        <time>2021-11-06T13:55:39.943Z</time>
      </trkpt>
      <trkpt lat="47.19656" lon="-1.56169">
        <ele>55.178733</ele>
        <time>2021-11-06T13:55:41.973Z</time>
      </trkpt>
      <trkpt lat="47.19665" lon="-1.5616">
        <ele>55.126152</ele>
        <time>2021-11-06T13:55:47.951Z</time>
      </trkpt>
      <trkpt lat="47.19674" lon="-1.56158">
        <ele>55.079771</ele>
        <time>2021-11-06T13:55:50.314Z</time>
      </trkpt>
      <trkpt lat="47.19682" lon="-1.56153">
        <ele>55.034791</ele>
        <time>2021-11-06T13:55:53.200Z</time>
      </trkpt>
      <trkpt lat="47.19685" lon="-1.56139">
        <ele>54.987035</ele>
        <time>2021-11-06T13:55:55.954Z</time>
      </trkpt>
      <trkpt lat="47.19684" lon="-1.56125">
        <ele>54.937965</ele>
        <time>2021-11-06T13:55:58.169Z</time>
      </trkpt>
      <trkpt lat="47.19683" lon="-1.56109">
        <ele>54.886741</ele>
        <time>2021-11-06T13:55:59.993Z</time>
      </trkpt>
      <trkpt lat="47.19683" lon="-1.56093">
        <ele>54.890382</ele>
        <time>2021-11-06T13:56:01.952Z</time>
      </trkpt>
      <trkpt lat="47.19683" lon="-1.56078">
        <ele>54.913696</ele>
        <time>2021-11-06T13:56:03.951Z</time>
      </trkpt>
      <trkpt lat="47.19683" lon="-1.56063">
        <ele>54.936744</ele>
        <time>2021-11-06T13:56:05.947Z</time>
      </trkpt>
      <trkpt lat="47.19683" lon="-1.56048">
        <ele>54.959147</ele>
        <time>2021-11-06T13:56:07.949Z</time>
      </trkpt>
      <trkpt lat="47.19683" lon="-1.56034">
        <ele>54.980795</ele>
        <time>2021-11-06T13:56:09.958Z</time>
      </trkpt>
      <trkpt lat="47.19683" lon="-1.5602">
        <ele>55.001519</ele>
        <time>2021-11-06T13:56:11.954Z</time>
      </trkpt>
      <trkpt lat="47.19683" lon="-1.56006">
        <ele>55.022413</ele>
        <time>2021-11-06T13:56:13.955Z</time>
      </trkpt>
      <trkpt lat="47.19684" lon="-1.55992">
        <ele>55.043887</ele>
        <time>2021-11-06T13:56:15.954Z</time>
      </trkpt>
      <trkpt lat="47.19684" lon="-1.55978">
        <ele>55.06583</ele>
        <time>2021-11-06T13:56:17.979Z</time>
      </trkpt>
      <trkpt lat="47.19684" lon="-1.55964">
        <ele>55.08779</ele>
        <time>2021-11-06T13:56:19.965Z</time>
      </trkpt>
      <trkpt lat="47.19684" lon="-1.55948">
        <ele>55.110952</ele>
        <time>2021-11-06T13:56:21.948Z</time>
      </trkpt>
      <trkpt lat="47.19684" lon="-1.55933">
        <ele>55.134269</ele>
        <time>2021-11-06T13:56:23.952Z</time>
      </trkpt>
      <trkpt lat="47.19685" lon="-1.55918">
        <ele>55.157305</ele>
        <time>2021-11-06T13:56:25.971Z</time>
      </trkpt>
      <trkpt lat="47.19686" lon="-1.55903">
        <ele>55.180857</ele>
        <time>2021-11-06T13:56:27.952Z</time>
      </trkpt>
      <trkpt lat="47.19685" lon="-1.55887">
        <ele>55.204884</ele>
        <time>2021-11-06T13:56:29.955Z</time>
      </trkpt>
      <trkpt lat="47.19683" lon="-1.55872">
        <ele>55.2282</ele>
        <time>2021-11-06T13:56:31.955Z</time>
      </trkpt>
      <trkpt lat="47.19683" lon="-1.55857">
        <ele>55.25111</ele>
        <time>2021-11-06T13:56:33.950Z</time>
      </trkpt>
      <trkpt lat="47.19681" lon="-1.55842">
        <ele>55.273367</ele>
        <time>2021-11-06T13:56:35.947Z</time>
      </trkpt>
      <trkpt lat="47.1968" lon="-1.55827">
        <ele>55.306836</ele>
        <time>2021-11-06T13:56:37.943Z</time>
      </trkpt>
      <trkpt lat="47.19678" lon="-1.55812">
        <ele>55.340558</ele>
        <time>2021-11-06T13:56:39.955Z</time>
      </trkpt>
      <trkpt lat="47.19676" lon="-1.55797">
        <ele>55.373484</ele>
        <time>2021-11-06T13:56:41.961Z</time>
      </trkpt>
      <trkpt lat="47.19676" lon="-1.55784">
        <ele>55.404402</ele>
        <time>2021-11-06T13:56:43.952Z</time>
      </trkpt>
      <trkpt lat="47.19671" lon="-1.5577">
        <ele>55.437969</ele>
        <time>2021-11-06T13:56:46.968Z</time>
      </trkpt>
      <trkpt lat="47.19661" lon="-1.5577">
        <ele>55.469681</ele>
        <time>2021-11-06T13:56:49.062Z</time>
      </trkpt>
      <trkpt lat="47.19654" lon="-1.5576">
        <ele>55.501579</ele>
        <time>2021-11-06T13:56:51.937Z</time>
      </trkpt>
      <trkpt lat="47.19655" lon="-1.55742">
        <ele>55.540538</ele>
        <time>2021-11-06T13:56:53.947Z</time>
      </trkpt>
      <trkpt lat="47.19652" lon="-1.55727">
        <ele>55.575482</ele>
        <time>2021-11-06T13:56:55.950Z</time>
      </trkpt>
      <trkpt lat="47.19649" lon="-1.55713">
        <ele>55.609574</ele>
        <time>2021-11-06T13:56:57.952Z</time>
      </trkpt>
      <trkpt lat="47.19646" lon="-1.55699">
        <ele>55.64165</ele>
        <time>2021-11-06T13:56:59.946Z</time>
      </trkpt>
      <trkpt lat="47.19643" lon="-1.55685">
        <ele>55.673723</ele>
        <time>2021-11-06T13:57:01.946Z</time>
      </trkpt>
      <trkpt lat="47.1964" lon="-1.55671">
        <ele>55.706352</ele>
        <time>2021-11-06T13:57:03.950Z</time>
      </trkpt>
      <trkpt lat="47.19637" lon="-1.55656">
        <ele>55.74095</ele>
        <time>2021-11-06T13:57:05.961Z</time>
      </trkpt>
      <trkpt lat="47.19634" lon="-1.55642">
        <ele>55.773616</ele>
        <time>2021-11-06T13:57:07.960Z</time>
      </trkpt>
      <trkpt lat="47.1963" lon="-1.55628">
        <ele>55.807396</ele>
        <time>2021-11-06T13:57:09.971Z</time>
      </trkpt>
      <trkpt lat="47.19625" lon="-1.55615">
        <ele>55.840521</ele>
        <time>2021-11-06T13:57:11.961Z</time>
      </trkpt>
      <trkpt lat="47.19618" lon="-1.55605">
        <ele>55.836065</ele>
        <time>2021-11-06T13:57:13.948Z</time>
      </trkpt>
      <trkpt lat="47.19614" lon="-1.55591">
        <ele>55.753589</ele>
        <time>2021-11-06T13:57:15.952Z</time>
      </trkpt>
      <trkpt lat="47.19617" lon="-1.55575">
        <ele>55.661668</ele>
        <time>2021-11-06T13:57:17.947Z</time>
      </trkpt>
      <trkpt lat="47.19618" lon="-1.55559">
        <ele>55.571288</ele>
        <time>2021-11-06T13:57:19.956Z</time>
      </trkpt>
      <trkpt lat="47.19615" lon="-1.55544">
        <ele>55.484798</ele>
        <time>2021-11-06T13:57:21.947Z</time>
      </trkpt>
      <trkpt lat="47.19617" lon="-1.5553">
        <ele>55.405103</ele>
        <time>2021-11-06T13:57:23.951Z</time>
      </trkpt>
      <trkpt lat="47.19622" lon="-1.55516">
        <ele>55.317519</ele>
        <time>2021-11-06T13:57:25.954Z</time>
      </trkpt>
      <trkpt lat="47.19627" lon="-1.55503">
        <ele>55.231942</ele>
        <time>2021-11-06T13:57:27.951Z</time>
      </trkpt>
      <trkpt lat="47.1963" lon="-1.55489">
        <ele>55.148027</ele>
        <time>2021-11-06T13:57:29.972Z</time>
      </trkpt>
      <trkpt lat="47.19633" lon="-1.55475">
        <ele>55.06544</ele>
        <time>2021-11-06T13:57:31.961Z</time>
      </trkpt>
      <trkpt lat="47.19638" lon="-1.55458">
        <ele>54.96676</ele>
        <time>2021-11-06T13:57:34.961Z</time>
      </trkpt>
      <trkpt lat="47.19642" lon="-1.55443">
        <ele>54.870778</ele>
        <time>2021-11-06T13:57:36.966Z</time>
      </trkpt>
      <trkpt lat="47.19648" lon="-1.55427">
        <ele>54.771041</ele>
        <time>2021-11-06T13:57:38.958Z</time>
      </trkpt>
      <trkpt lat="47.19654" lon="-1.55412">
        <ele>54.675215</ele>
        <time>2021-11-06T13:57:40.948Z</time>
      </trkpt>
      <trkpt lat="47.19657" lon="-1.55397">
        <ele>54.588509</ele>
        <time>2021-11-06T13:57:42.970Z</time>
      </trkpt>
      <trkpt lat="47.19656" lon="-1.55382">
        <ele>54.502501</ele>
        <time>2021-11-06T13:57:44.955Z</time>
      </trkpt>
      <trkpt lat="47.19656" lon="-1.55367">
        <ele>54.416112</ele>
        <time>2021-11-06T13:57:46.948Z</time>
      </trkpt>
      <trkpt lat="47.19655" lon="-1.55351">
        <ele>54.369979</ele>
        <time>2021-11-06T13:57:48.959Z</time>
      </trkpt>
      <trkpt lat="47.19654" lon="-1.55336">
        <ele>54.355077</ele>
        <time>2021-11-06T13:57:50.948Z</time>
      </trkpt>
      <trkpt lat="47.19654" lon="-1.5532">
        <ele>54.34007</ele>
        <time>2021-11-06T13:57:52.952Z</time>
      </trkpt>
      <trkpt lat="47.19654" lon="-1.55305">
        <ele>54.325096</ele>
        <time>2021-11-06T13:57:54.955Z</time>
      </trkpt>
      <trkpt lat="47.19654" lon="-1.5529">
        <ele>54.310579</ele>
        <time>2021-11-06T13:57:56.961Z</time>
      </trkpt>
      <trkpt lat="47.19654" lon="-1.55274">
        <ele>54.295991</ele>
        <time>2021-11-06T13:57:58.949Z</time>
      </trkpt>
      <trkpt lat="47.19655" lon="-1.5526">
        <ele>54.282158</ele>
        <time>2021-11-06T13:58:00.949Z</time>
      </trkpt>
      <trkpt lat="47.19657" lon="-1.55244">
        <ele>54.266512</ele>
        <time>2021-11-06T13:58:03.964Z</time>
      </trkpt>
      <trkpt lat="47.19667" lon="-1.55237">
        <ele>54.2503</ele>
        <time>2021-11-06T13:58:06.954Z</time>
      </trkpt>
      <trkpt lat="47.19676" lon="-1.55234">
        <ele>54.236784</ele>
        <time>2021-11-06T13:58:08.500Z</time>
      </trkpt>
      <trkpt lat="47.19682" lon="-1.5522">
        <ele>54.220529</ele>
        <time>2021-11-06T13:58:11.633Z</time>
      </trkpt>
      <trkpt lat="47.19682" lon="-1.55199">
        <ele>54.200237</ele>
        <time>2021-11-06T13:58:14.990Z</time>
      </trkpt>
      <trkpt lat="47.1968" lon="-1.55182">
        <ele>54.184135</ele>
        <time>2021-11-06T13:58:17.962Z</time>
      </trkpt>
      <trkpt lat="47.19679" lon="-1.55166">
        <ele>54.168244</ele>
        <time>2021-11-06T13:58:20.960Z</time>
      </trkpt>
      <trkpt lat="47.19678" lon="-1.55147">
        <ele>54.150344</ele>
        <time>2021-11-06T13:58:23.903Z</time>
      </trkpt>
      <trkpt lat="47.19677" lon="-1.55132">
        <ele>54.135495</ele>
        <time>2021-11-06T13:58:26.625Z</time>
      </trkpt>
      <trkpt lat="47.19675" lon="-1.55114">
        <ele>54.110872</ele>
        <time>2021-11-06T13:58:29.681Z</time>
      </trkpt>
      <trkpt lat="47.19673" lon="-1.55098">
        <ele>54.074149</ele>
        <time>2021-11-06T13:58:32.310Z</time>
      </trkpt>
      <trkpt lat="47.19672" lon="-1.55083">
        <ele>54.04087</ele>
        <time>2021-11-06T13:58:34.957Z</time>
      </trkpt>
      <trkpt lat="47.19671" lon="-1.55066">
        <ele>54.001994</ele>
        <time>2021-11-06T13:58:37.939Z</time>
      </trkpt>
      <trkpt lat="47.19671" lon="-1.55048">
        <ele>53.959841</ele>
        <time>2021-11-06T13:58:40.955Z</time>
      </trkpt>
      <trkpt lat="47.19671" lon="-1.5503">
        <ele>53.918148</ele>
        <time>2021-11-06T13:58:43.971Z</time>
      </trkpt>
      <trkpt lat="47.19671" lon="-1.5501">
        <ele>53.872355</ele>
        <time>2021-11-06T13:58:46.960Z</time>
      </trkpt>
      <trkpt lat="47.19676" lon="-1.54997">
        <ele>53.839408</ele>
        <time>2021-11-06T13:58:48.969Z</time>
      </trkpt>
      <trkpt lat="47.19685" lon="-1.5499">
        <ele>53.804889</ele>
        <time>2021-11-06T13:58:50.958Z</time>
      </trkpt>
      <trkpt lat="47.19696" lon="-1.54987">
        <ele>53.769188</ele>
        <time>2021-11-06T13:58:52.956Z</time>
      </trkpt>
      <trkpt lat="47.19708" lon="-1.54987">
        <ele>53.726605</ele>
        <time>2021-11-06T13:58:55.967Z</time>
      </trkpt>
      <trkpt lat="47.19715" lon="-1.54975">
        <ele>53.691728</ele>
        <time>2021-11-06T13:58:59.966Z</time>
      </trkpt>
      <trkpt lat="47.19712" lon="-1.54959">
        <ele>53.654353</ele>
        <time>2021-11-06T13:59:02.951Z</time>
      </trkpt>
      <trkpt lat="47.19705" lon="-1.5495">
        <ele>53.623135</ele>
        <time>2021-11-06T13:59:04.954Z</time>
      </trkpt>
      <trkpt lat="47.19695" lon="-1.54949">
        <ele>53.591216</ele>
        <time>2021-11-06T13:59:07.383Z</time>
      </trkpt>
      <trkpt lat="47.19683" lon="-1.5495">
        <ele>53.550294</ele>
        <time>2021-11-06T13:59:10.268Z</time>
      </trkpt>
      <trkpt lat="47.19674" lon="-1.54946">
        <ele>53.531457</ele>
        <time>2021-11-06T13:59:12.586Z</time>
      </trkpt>
      <trkpt lat="47.19671" lon="-1.54931">
        <ele>53.708962</ele>
        <time>2021-11-06T13:59:14.957Z</time>
      </trkpt>
      <trkpt lat="47.19673" lon="-1.54916">
        <ele>53.888021</ele>
        <time>2021-11-06T13:59:17.332Z</time>
      </trkpt>
      <trkpt lat="47.19675" lon="-1.549">
        <ele>54.079242</ele>
        <time>2021-11-06T13:59:19.846Z</time>
      </trkpt>
      <trkpt lat="47.19678" lon="-1.54887">
        <ele>54.238956</ele>
        <time>2021-11-06T13:59:21.959Z</time>
      </trkpt>
      <trkpt lat="47.19681" lon="-1.54872">
        <ele>54.422611</ele>
        <time>2021-11-06T13:59:24.442Z</time>
      </trkpt>
      <trkpt lat="47.19681" lon="-1.54859">
        <ele>54.576536</ele>
        <time>2021-11-06T13:59:26.687Z</time>
      </trkpt>
      <trkpt lat="47.19678" lon="-1.54846">
        <ele>54.733206</ele>
        <time>2021-11-06T13:59:28.939Z</time>
      </trkpt>
      <trkpt lat="47.19673" lon="-1.54833">
        <ele>54.907171</ele>
        <time>2021-11-06T13:59:31.390Z</time>
      </trkpt>
      <trkpt lat="47.19668" lon="-1.54822">
        <ele>55.068995</ele>
        <time>2021-11-06T13:59:33.790Z</time>
      </trkpt>
      <trkpt lat="47.1966" lon="-1.5481">
        <ele>55.262013</ele>
        <time>2021-11-06T13:59:36.500Z</time>
      </trkpt>
      <trkpt lat="47.19651" lon="-1.54797">
        <ele>55.485331</ele>
        <time>2021-11-06T13:59:39.831Z</time>
      </trkpt>
      <trkpt lat="47.19642" lon="-1.54785">
        <ele>55.697543</ele>
        <time>2021-11-06T13:59:42.953Z</time>
      </trkpt>
      <trkpt lat="47.19635" lon="-1.54775">
        <ele>55.863669</ele>
        <time>2021-11-06T13:59:45.397Z</time>
      </trkpt>
      <trkpt lat="47.19628" lon="-1.54765">
        <ele>56.029796</ele>
        <time>2021-11-06T13:59:47.826Z</time>
      </trkpt>
      <trkpt lat="47.19621" lon="-1.54756">
        <ele>56.192686</ele>
        <time>2021-11-06T13:59:50.952Z</time>
      </trkpt>
      <trkpt lat="47.19586" lon="-1.54714">
        <ele>56.807654</ele>
        <time>2021-11-06T14:01:07.965Z</time>
      </trkpt>
      <trkpt lat="47.1958" lon="-1.54703">
        <ele>56.897075</ele>
        <time>2021-11-06T14:01:09.979Z</time>
      </trkpt>
      <trkpt lat="47.19574" lon="-1.54692">
        <ele>56.98876</ele>
        <time>2021-11-06T14:01:11.941Z</time>
      </trkpt>
      <trkpt lat="47.19565" lon="-1.54678">
        <ele>57.112535</ele>
        <time>2021-11-06T14:01:14.984Z</time>
      </trkpt>
      <trkpt lat="47.19557" lon="-1.54668">
        <ele>57.211618</ele>
        <time>2021-11-06T14:01:18.307Z</time>
      </trkpt>
      <trkpt lat="47.19551" lon="-1.54658">
        <ele>57.297996</ele>
        <time>2021-11-06T14:01:21.555Z</time>
      </trkpt>
      <trkpt lat="47.19544" lon="-1.54648">
        <ele>57.388799</ele>
        <time>2021-11-06T14:01:23.953Z</time>
      </trkpt>
      <trkpt lat="47.19534" lon="-1.54636">
        <ele>57.505536</ele>
        <time>2021-11-06T14:01:25.982Z</time>
      </trkpt>
      <trkpt lat="47.19526" lon="-1.54626">
        <ele>57.6069</ele>
        <time>2021-11-06T14:01:27.950Z</time>
      </trkpt>
      <trkpt lat="47.19518" lon="-1.54616">
        <ele>57.704645</ele>
        <time>2021-11-06T14:01:29.949Z</time>
      </trkpt>
      <trkpt lat="47.1951" lon="-1.54607">
        <ele>57.802593</ele>
        <time>2021-11-06T14:01:31.953Z</time>
      </trkpt>
      <trkpt lat="47.19502" lon="-1.54599">
        <ele>57.892285</ele>
        <time>2021-11-06T14:01:33.953Z</time>
      </trkpt>
      <trkpt lat="47.19495" lon="-1.5459">
        <ele>57.978963</ele>
        <time>2021-11-06T14:01:35.981Z</time>
      </trkpt>
      <trkpt lat="47.1949" lon="-1.54572">
        <ele>58.105312</ele>
        <time>2021-11-06T14:01:38.956Z</time>
      </trkpt>
      <trkpt lat="47.19487" lon="-1.54557">
        <ele>58.204944</ele>
        <time>2021-11-06T14:01:40.937Z</time>
      </trkpt>
      <trkpt lat="47.19483" lon="-1.54543">
        <ele>58.301636</ele>
        <time>2021-11-06T14:01:42.987Z</time>
      </trkpt>
      <trkpt lat="47.1948" lon="-1.5453">
        <ele>58.136494</ele>
        <time>2021-11-06T14:01:44.963Z</time>
      </trkpt>
      <trkpt lat="47.19478" lon="-1.54517">
        <ele>57.941902</ele>
        <time>2021-11-06T14:01:46.954Z</time>
      </trkpt>
      <trkpt lat="47.19476" lon="-1.54502">
        <ele>57.736345</ele>
        <time>2021-11-06T14:01:48.954Z</time>
      </trkpt>
      <trkpt lat="47.19475" lon="-1.54488">
        <ele>57.534624</ele>
        <time>2021-11-06T14:01:50.952Z</time>
      </trkpt>
      <trkpt lat="47.19472" lon="-1.54475">
        <ele>57.344653</ele>
        <time>2021-11-06T14:01:52.944Z</time>
      </trkpt>
      <trkpt lat="47.19466" lon="-1.54461">
        <ele>57.104541</ele>
        <time>2021-11-06T14:01:55.956Z</time>
      </trkpt>
      <trkpt lat="47.19456" lon="-1.54465">
        <ele>56.887452</ele>
        <time>2021-11-06T14:01:59.940Z</time>
      </trkpt>
      <trkpt lat="47.19449" lon="-1.54476">
        <ele>56.67145</ele>
        <time>2021-11-06T14:02:01.976Z</time>
      </trkpt>
      <trkpt lat="47.1944" lon="-1.54487">
        <ele>56.433124</ele>
        <time>2021-11-06T14:02:03.954Z</time>
      </trkpt>
      <trkpt lat="47.19433" lon="-1.54497">
        <ele>56.232404</ele>
        <time>2021-11-06T14:02:05.971Z</time>
      </trkpt>
      <trkpt lat="47.19427" lon="-1.5448">
        <ele>55.969595</ele>
        <time>2021-11-06T14:02:09.948Z</time>
      </trkpt>
      <trkpt lat="47.19437" lon="-1.54471">
        <ele>55.733957</ele>
        <time>2021-11-06T14:02:11.968Z</time>
      </trkpt>
      <trkpt lat="47.19447" lon="-1.54466">
        <ele>55.509229</ele>
        <time>2021-11-06T14:02:13.937Z</time>
      </trkpt>
      <trkpt lat="47.19454" lon="-1.54457">
        <ele>55.319732</ele>
        <time>2021-11-06T14:02:15.966Z</time>
      </trkpt>
      <trkpt lat="47.19452" lon="-1.54438">
        <ele>55.056302</ele>
        <time>2021-11-06T14:02:18.961Z</time>
      </trkpt>
      <trkpt lat="47.19441" lon="-1.54424">
        <ele>54.748769</ele>
        <time>2021-11-06T14:02:20.961Z</time>
      </trkpt>
      <trkpt lat="47.1943" lon="-1.54413">
        <ele>54.512568</ele>
        <time>2021-11-06T14:02:22.955Z</time>
      </trkpt>
      <trkpt lat="47.19425" lon="-1.54398">
        <ele>54.344658</ele>
        <time>2021-11-06T14:02:24.971Z</time>
      </trkpt>
      <trkpt lat="47.19418" lon="-1.54385">
        <ele>54.186707</ele>
        <time>2021-11-06T14:02:26.979Z</time>
      </trkpt>
      <trkpt lat="47.19409" lon="-1.54374">
        <ele>54.026992</ele>
        <time>2021-11-06T14:02:28.966Z</time>
      </trkpt>
      <trkpt lat="47.19401" lon="-1.54362">
        <ele>53.86972</ele>
        <time>2021-11-06T14:02:30.965Z</time>
      </trkpt>
      <trkpt lat="47.19393" lon="-1.54353">
        <ele>53.723864</ele>
        <time>2021-11-06T14:02:32.949Z</time>
      </trkpt>
      <trkpt lat="47.19385" lon="-1.54343">
        <ele>53.568092</ele>
        <time>2021-11-06T14:02:34.946Z</time>
      </trkpt>
      <trkpt lat="47.19377" lon="-1.54332">
        <ele>53.422574</ele>
        <time>2021-11-06T14:02:36.969Z</time>
      </trkpt>
      <trkpt lat="47.1937" lon="-1.54319">
        <ele>53.262238</ele>
        <time>2021-11-06T14:02:38.964Z</time>
      </trkpt>
      <trkpt lat="47.19363" lon="-1.54306">
        <ele>53.102358</ele>
        <time>2021-11-06T14:02:40.951Z</time>
      </trkpt>
      <trkpt lat="47.19354" lon="-1.54295">
        <ele>52.941581</ele>
        <time>2021-11-06T14:02:42.955Z</time>
      </trkpt>
      <trkpt lat="47.19346" lon="-1.54284">
        <ele>52.782267</ele>
        <time>2021-11-06T14:02:44.961Z</time>
      </trkpt>
      <trkpt lat="47.19339" lon="-1.54273">
        <ele>52.635716</ele>
        <time>2021-11-06T14:02:46.964Z</time>
      </trkpt>
      <trkpt lat="47.19333" lon="-1.5426">
        <ele>52.485384</ele>
        <time>2021-11-06T14:02:48.965Z</time>
      </trkpt>
      <trkpt lat="47.19326" lon="-1.54247">
        <ele>52.324418</ele>
        <time>2021-11-06T14:02:50.953Z</time>
      </trkpt>
      <trkpt lat="47.19319" lon="-1.54233">
        <ele>52.157322</ele>
        <time>2021-11-06T14:02:52.979Z</time>
      </trkpt>
      <trkpt lat="47.19313" lon="-1.54219">
        <ele>52.028731</ele>
        <time>2021-11-06T14:02:54.962Z</time>
      </trkpt>
      <trkpt lat="47.19306" lon="-1.54206">
        <ele>51.995502</ele>
        <time>2021-11-06T14:02:56.979Z</time>
      </trkpt>
      <trkpt lat="47.19299" lon="-1.54194">
        <ele>51.962882</ele>
        <time>2021-11-06T14:02:58.977Z</time>
      </trkpt>
      <trkpt lat="47.19291" lon="-1.54184">
        <ele>51.92892</ele>
        <time>2021-11-06T14:03:00.958Z</time>
      </trkpt>
      <trkpt lat="47.19282" lon="-1.54175">
        <ele>51.897735</ele>
        <time>2021-11-06T14:03:03.005Z</time>
      </trkpt>
      <trkpt lat="47.19273" lon="-1.54159">
        <ele>51.85299</ele>
        <time>2021-11-06T14:03:05.951Z</time>
      </trkpt>
      <trkpt lat="47.19266" lon="-1.54145">
        <ele>51.817898</ele>
        <time>2021-11-06T14:03:07.969Z</time>
      </trkpt>
      <trkpt lat="47.1926" lon="-1.54131">
        <ele>51.782806</ele>
        <time>2021-11-06T14:03:09.950Z</time>
      </trkpt>
      <trkpt lat="47.19254" lon="-1.54119">
        <ele>51.751107</ele>
        <time>2021-11-06T14:03:11.946Z</time>
      </trkpt>
      <trkpt lat="47.19249" lon="-1.54107">
        <ele>51.722968</ele>
        <time>2021-11-06T14:03:13.970Z</time>
      </trkpt>
      <trkpt lat="47.19242" lon="-1.54093">
        <ele>51.687192</ele>
        <time>2021-11-06T14:03:15.972Z</time>
      </trkpt>
      <trkpt lat="47.19236" lon="-1.54078">
        <ele>51.651213</ele>
        <time>2021-11-06T14:03:17.936Z</time>
      </trkpt>
      <trkpt lat="47.19231" lon="-1.54063">
        <ele>51.616056</ele>
        <time>2021-11-06T14:03:19.947Z</time>
      </trkpt>
      <trkpt lat="47.19224" lon="-1.54048">
        <ele>51.578558</ele>
        <time>2021-11-06T14:03:21.973Z</time>
      </trkpt>
      <trkpt lat="47.19218" lon="-1.54034">
        <ele>51.543634</ele>
        <time>2021-11-06T14:03:23.948Z</time>
      </trkpt>
      <trkpt lat="47.19211" lon="-1.54021">
        <ele>51.509789</ele>
        <time>2021-11-06T14:03:25.958Z</time>
      </trkpt>
      <trkpt lat="47.19204" lon="-1.54009">
        <ele>51.506132</ele>
        <time>2021-11-06T14:03:27.982Z</time>
      </trkpt>
      <trkpt lat="47.19197" lon="-1.53996">
        <ele>51.556117</ele>
        <time>2021-11-06T14:03:29.968Z</time>
      </trkpt>
      <trkpt lat="47.1919" lon="-1.53985">
        <ele>51.604873</ele>
        <time>2021-11-06T14:03:31.952Z</time>
      </trkpt>
      <trkpt lat="47.19184" lon="-1.53973">
        <ele>51.651756</ele>
        <time>2021-11-06T14:03:33.982Z</time>
      </trkpt>
      <trkpt lat="47.19178" lon="-1.53962">
        <ele>51.697645</ele>
        <time>2021-11-06T14:03:35.970Z</time>
      </trkpt>
      <trkpt lat="47.19172" lon="-1.53951">
        <ele>51.744713</ele>
        <time>2021-11-06T14:03:37.962Z</time>
      </trkpt>
      <trkpt lat="47.19165" lon="-1.53937">
        <ele>51.797076</ele>
        <time>2021-11-06T14:03:39.968Z</time>
      </trkpt>
      <trkpt lat="47.19159" lon="-1.53926">
        <ele>51.843635</ele>
        <time>2021-11-06T14:03:41.965Z</time>
      </trkpt>
      <trkpt lat="47.19153" lon="-1.53916">
        <ele>51.88758</ele>
        <time>2021-11-06T14:03:43.976Z</time>
      </trkpt>
      <trkpt lat="47.19146" lon="-1.53905">
        <ele>51.93433</ele>
        <time>2021-11-06T14:03:45.939Z</time>
      </trkpt>
      <trkpt lat="47.19137" lon="-1.53896">
        <ele>51.986767</ele>
        <time>2021-11-06T14:03:47.969Z</time>
      </trkpt>
      <trkpt lat="47.19128" lon="-1.53888">
        <ele>52.037235</ele>
        <time>2021-11-06T14:03:49.972Z</time>
      </trkpt>
      <trkpt lat="47.19119" lon="-1.53878">
        <ele>52.089096</ele>
        <time>2021-11-06T14:03:51.950Z</time>
      </trkpt>
      <trkpt lat="47.19111" lon="-1.53869">
        <ele>52.137657</ele>
        <time>2021-11-06T14:03:53.963Z</time>
      </trkpt>
      <trkpt lat="47.19104" lon="-1.53858">
        <ele>52.183426</ele>
        <time>2021-11-06T14:03:55.974Z</time>
      </trkpt>
      <trkpt lat="47.19096" lon="-1.53848">
        <ele>52.233109</ele>
        <time>2021-11-06T14:03:57.958Z</time>
      </trkpt>
      <trkpt lat="47.19088" lon="-1.53839">
        <ele>52.280239</ele>
        <time>2021-11-06T14:03:59.954Z</time>
      </trkpt>
      <trkpt lat="47.1908" lon="-1.53831">
        <ele>52.325098</ele>
        <time>2021-11-06T14:04:01.968Z</time>
      </trkpt>
      <trkpt lat="47.19073" lon="-1.53821">
        <ele>52.389859</ele>
        <time>2021-11-06T14:04:03.952Z</time>
      </trkpt>
      <trkpt lat="47.19065" lon="-1.53812">
        <ele>52.458629</ele>
        <time>2021-11-06T14:04:05.963Z</time>
      </trkpt>
      <trkpt lat="47.19057" lon="-1.53803">
        <ele>52.526034</ele>
        <time>2021-11-06T14:04:07.964Z</time>
      </trkpt>
      <trkpt lat="47.1905" lon="-1.53793">
        <ele>52.591943</ele>
        <time>2021-11-06T14:04:09.966Z</time>
      </trkpt>
      <trkpt lat="47.19043" lon="-1.53784">
        <ele>52.65813</ele>
        <time>2021-11-06T14:04:11.958Z</time>
      </trkpt>
      <trkpt lat="47.19036" lon="-1.53774">
        <ele>52.725023</ele>
        <time>2021-11-06T14:04:13.968Z</time>
      </trkpt>
      <trkpt lat="47.19029" lon="-1.53763">
        <ele>52.79418</ele>
        <time>2021-11-06T14:04:15.958Z</time>
      </trkpt>
      <trkpt lat="47.19021" lon="-1.53753">
        <ele>52.864376</ele>
        <time>2021-11-06T14:04:17.965Z</time>
      </trkpt>
      <trkpt lat="47.19013" lon="-1.53745">
        <ele>52.930477</ele>
        <time>2021-11-06T14:04:19.962Z</time>
      </trkpt>
      <trkpt lat="47.19006" lon="-1.53738">
        <ele>52.994292</ele>
        <time>2021-11-06T14:04:21.962Z</time>
      </trkpt>
      <trkpt lat="47.18998" lon="-1.5373">
        <ele>53.058075</ele>
        <time>2021-11-06T14:04:23.956Z</time>
      </trkpt>
      <trkpt lat="47.18987" lon="-1.5372">
        <ele>53.146688</ele>
        <time>2021-11-06T14:04:26.962Z</time>
      </trkpt>
      <trkpt lat="47.18979" lon="-1.53712">
        <ele>53.212115</ele>
        <time>2021-11-06T14:04:28.980Z</time>
      </trkpt>
      <trkpt lat="47.1897" lon="-1.53707">
        <ele>53.281119</ele>
        <time>2021-11-06T14:04:30.959Z</time>
      </trkpt>
      <trkpt lat="47.18959" lon="-1.53699">
        <ele>53.360923</ele>
        <time>2021-11-06T14:04:32.969Z</time>
      </trkpt>
      <trkpt lat="47.18948" lon="-1.53691">
        <ele>53.44713</ele>
        <time>2021-11-06T14:04:35.970Z</time>
      </trkpt>
      <trkpt lat="47.18938" lon="-1.53683">
        <ele>53.525712</ele>
        <time>2021-11-06T14:04:37.960Z</time>
      </trkpt>
      <trkpt lat="47.18928" lon="-1.53676">
        <ele>53.548159</ele>
        <time>2021-11-06T14:04:39.974Z</time>
      </trkpt>
      <trkpt lat="47.18919" lon="-1.53668">
        <ele>53.512592</ele>
        <time>2021-11-06T14:04:41.952Z</time>
      </trkpt>
      <trkpt lat="47.18911" lon="-1.5366">
        <ele>53.479271</ele>
        <time>2021-11-06T14:04:43.964Z</time>
      </trkpt>
      <trkpt lat="47.18903" lon="-1.53654">
        <ele>53.447335</ele>
        <time>2021-11-06T14:04:46.616Z</time>
      </trkpt>
      <trkpt lat="47.18891" lon="-1.53648">
        <ele>53.402516</ele>
        <time>2021-11-06T14:04:48.966Z</time>
      </trkpt>
      <trkpt lat="47.18882" lon="-1.53639">
        <ele>53.364397</ele>
        <time>2021-11-06T14:04:51.780Z</time>
      </trkpt>
      <trkpt lat="47.18868" lon="-1.53628">
        <ele>53.310135</ele>
        <time>2021-11-06T14:04:54.990Z</time>
      </trkpt>
      <trkpt lat="47.18858" lon="-1.53621">
        <ele>53.271119</ele>
        <time>2021-11-06T14:04:57.811Z</time>
      </trkpt>
      <trkpt lat="47.18847" lon="-1.53613">
        <ele>53.229496</ele>
        <time>2021-11-06T14:04:59.983Z</time>
      </trkpt>
      <trkpt lat="47.18838" lon="-1.5361">
        <ele>53.195287</ele>
        <time>2021-11-06T14:05:01.974Z</time>
      </trkpt>
      <trkpt lat="47.18823" lon="-1.53609">
        <ele>53.142828</ele>
        <time>2021-11-06T14:05:04.992Z</time>
      </trkpt>
      <trkpt lat="47.18813" lon="-1.53608">
        <ele>53.107951</ele>
        <time>2021-11-06T14:05:06.969Z</time>
      </trkpt>
      <trkpt lat="47.18799" lon="-1.53603">
        <ele>53.058296</ele>
        <time>2021-11-06T14:05:10.112Z</time>
      </trkpt>
      <trkpt lat="47.18788" lon="-1.53597">
        <ele>53.018623</ele>
        <time>2021-11-06T14:05:12.983Z</time>
      </trkpt>
      <trkpt lat="47.18777" lon="-1.53595">
        <ele>52.978546</ele>
        <time>2021-11-06T14:05:14.950Z</time>
      </trkpt>
      <trkpt lat="47.18767" lon="-1.53593">
        <ele>52.942016</ele>
        <time>2021-11-06T14:05:16.940Z</time>
      </trkpt>
      <trkpt lat="47.18757" lon="-1.5359">
        <ele>53.063164</ele>
        <time>2021-11-06T14:05:18.965Z</time>
      </trkpt>
      <trkpt lat="47.18747" lon="-1.53587">
        <ele>53.194901</ele>
        <time>2021-11-06T14:05:20.953Z</time>
      </trkpt>
      <trkpt lat="47.18737" lon="-1.53585">
        <ele>53.326114</ele>
        <time>2021-11-06T14:05:22.967Z</time>
      </trkpt>
      <trkpt lat="47.18728" lon="-1.53582">
        <ele>53.450229</ele>
        <time>2021-11-06T14:05:24.955Z</time>
      </trkpt>
      <trkpt lat="47.18717" lon="-1.53577">
        <ele>53.612712</ele>
        <time>2021-11-06T14:05:27.964Z</time>
      </trkpt>
      <trkpt lat="47.18708" lon="-1.53574">
        <ele>53.738068</ele>
        <time>2021-11-06T14:05:29.959Z</time>
      </trkpt>
      <trkpt lat="47.18698" lon="-1.53572">
        <ele>53.863216</ele>
        <time>2021-11-06T14:05:31.948Z</time>
      </trkpt>
      <trkpt lat="47.18689" lon="-1.5357">
        <ele>53.991308</ele>
        <time>2021-11-06T14:05:33.948Z</time>
      </trkpt>
      <trkpt lat="47.1868" lon="-1.53567">
        <ele>54.121199</ele>
        <time>2021-11-06T14:05:35.951Z</time>
      </trkpt>
      <trkpt lat="47.1867" lon="-1.53565">
        <ele>54.245985</ele>
        <time>2021-11-06T14:05:37.954Z</time>
      </trkpt>
      <trkpt lat="47.18661" lon="-1.53562">
        <ele>54.37509</ele>
        <time>2021-11-06T14:05:39.965Z</time>
      </trkpt>
      <trkpt lat="47.18652" lon="-1.53558">
        <ele>54.50238</ele>
        <time>2021-11-06T14:05:41.984Z</time>
      </trkpt>
      <trkpt lat="47.18643" lon="-1.53554">
        <ele>54.627023</ele>
        <time>2021-11-06T14:05:43.967Z</time>
      </trkpt>
      <trkpt lat="47.18635" lon="-1.53548">
        <ele>54.752212</ele>
        <time>2021-11-06T14:05:45.945Z</time>
      </trkpt>
      <trkpt lat="47.18624" lon="-1.5354">
        <ele>54.912868</ele>
        <time>2021-11-06T14:05:48.967Z</time>
      </trkpt>
      <trkpt lat="47.18613" lon="-1.53533">
        <ele>55.068827</ele>
        <time>2021-11-06T14:05:51.983Z</time>
      </trkpt>
      <trkpt lat="47.18602" lon="-1.53525">
        <ele>55.24021</ele>
        <time>2021-11-06T14:05:53.977Z</time>
      </trkpt>
      <trkpt lat="47.18592" lon="-1.5352">
        <ele>55.364773</ele>
        <time>2021-11-06T14:05:56.909Z</time>
      </trkpt>
      <trkpt lat="47.18585" lon="-1.53511">
        <ele>55.410862</ele>
        <time>2021-11-06T14:05:58.945Z</time>
      </trkpt>
      <trkpt lat="47.18576" lon="-1.53503">
        <ele>55.459807</ele>
        <time>2021-11-06T14:06:00.941Z</time>
      </trkpt>
      <trkpt lat="47.18568" lon="-1.53496">
        <ele>55.508577</ele>
        <time>2021-11-06T14:06:02.973Z</time>
      </trkpt>
      <trkpt lat="47.1856" lon="-1.53486">
        <ele>55.558981</ele>
        <time>2021-11-06T14:06:04.955Z</time>
      </trkpt>
      <trkpt lat="47.18552" lon="-1.53478">
        <ele>55.607609</ele>
        <time>2021-11-06T14:06:06.982Z</time>
      </trkpt>
      <trkpt lat="47.18542" lon="-1.53468">
        <ele>55.664337</ele>
        <time>2021-11-06T14:06:09.958Z</time>
      </trkpt>
      <trkpt lat="47.18534" lon="-1.5346">
        <ele>55.708672</ele>
        <time>2021-11-06T14:06:11.969Z</time>
      </trkpt>
      <trkpt lat="47.18526" lon="-1.53453">
        <ele>55.756618</ele>
        <time>2021-11-06T14:06:13.964Z</time>
      </trkpt>
      <trkpt lat="47.18515" lon="-1.53443">
        <ele>55.820825</ele>
        <time>2021-11-06T14:06:16.957Z</time>
      </trkpt>
      <trkpt lat="47.18507" lon="-1.53436">
        <ele>55.865562</ele>
        <time>2021-11-06T14:06:18.992Z</time>
      </trkpt>
      <trkpt lat="47.18498" lon="-1.53423">
        <ele>55.924072</ele>
        <time>2021-11-06T14:06:21.977Z</time>
      </trkpt>
      <trkpt lat="47.18492" lon="-1.53414">
        <ele>55.968106</ele>
        <time>2021-11-06T14:06:23.986Z</time>
      </trkpt>
      <trkpt lat="47.18483" lon="-1.53405">
        <ele>56.019087</ele>
        <time>2021-11-06T14:06:25.976Z</time>
      </trkpt>
      <trkpt lat="47.18474" lon="-1.53396">
        <ele>56.071921</ele>
        <time>2021-11-06T14:06:27.986Z</time>
      </trkpt>
      <trkpt lat="47.18465" lon="-1.53387">
        <ele>56.125062</ele>
        <time>2021-11-06T14:06:29.948Z</time>
      </trkpt>
      <trkpt lat="47.18457" lon="-1.53376">
        <ele>56.180054</ele>
        <time>2021-11-06T14:06:31.967Z</time>
      </trkpt>
      <trkpt lat="47.18448" lon="-1.53367">
        <ele>56.230845</ele>
        <time>2021-11-06T14:06:33.966Z</time>
      </trkpt>
      <trkpt lat="47.18441" lon="-1.53358">
        <ele>56.135539</ele>
        <time>2021-11-06T14:06:35.970Z</time>
      </trkpt>
      <trkpt lat="47.18433" lon="-1.5335">
        <ele>56.033746</ele>
        <time>2021-11-06T14:06:37.956Z</time>
      </trkpt>
      <trkpt lat="47.18425" lon="-1.5334">
        <ele>55.935062</ele>
        <time>2021-11-06T14:06:39.977Z</time>
      </trkpt>
      <trkpt lat="47.18418" lon="-1.53332">
        <ele>55.841524</ele>
        <time>2021-11-06T14:06:41.968Z</time>
      </trkpt>
      <trkpt lat="47.18411" lon="-1.53323">
        <ele>55.746388</ele>
        <time>2021-11-06T14:06:43.980Z</time>
      </trkpt>
      <trkpt lat="47.18403" lon="-1.53314">
        <ele>55.644234</ele>
        <time>2021-11-06T14:06:45.957Z</time>
      </trkpt>
      <trkpt lat="47.18395" lon="-1.53306">
        <ele>55.540409</ele>
        <time>2021-11-06T14:06:47.944Z</time>
      </trkpt>
      <trkpt lat="47.18387" lon="-1.53297">
        <ele>55.436197</ele>
        <time>2021-11-06T14:06:49.956Z</time>
      </trkpt>
      <trkpt lat="47.1838" lon="-1.53288">
        <ele>55.34222</ele>
        <time>2021-11-06T14:06:51.979Z</time>
      </trkpt>
      <trkpt lat="47.18371" lon="-1.53278">
        <ele>55.2293</ele>
        <time>2021-11-06T14:06:54.953Z</time>
      </trkpt>
      <trkpt lat="47.18362" lon="-1.53267">
        <ele>55.111528</ele>
        <time>2021-11-06T14:06:57.955Z</time>
      </trkpt>
      <trkpt lat="47.18355" lon="-1.53257">
        <ele>55.004756</ele>
        <time>2021-11-06T14:06:59.955Z</time>
      </trkpt>
      <trkpt lat="47.18348" lon="-1.53247">
        <ele>54.912637</ele>
        <time>2021-11-06T14:07:01.964Z</time>
      </trkpt>
      <trkpt lat="47.18342" lon="-1.53239">
        <ele>54.820891</ele>
        <time>2021-11-06T14:07:03.958Z</time>
      </trkpt>
      <trkpt lat="47.18334" lon="-1.53227">
        <ele>54.702149</ele>
        <time>2021-11-06T14:07:06.570Z</time>
      </trkpt>
      <trkpt lat="47.18326" lon="-1.53219">
        <ele>54.602047</ele>
        <time>2021-11-06T14:07:08.934Z</time>
      </trkpt>
      <trkpt lat="47.18319" lon="-1.53209">
        <ele>54.504557</ele>
        <time>2021-11-06T14:07:10.955Z</time>
      </trkpt>
      <trkpt lat="47.18311" lon="-1.53197">
        <ele>54.392127</ele>
        <time>2021-11-06T14:07:12.942Z</time>
      </trkpt>
      <trkpt lat="47.18304" lon="-1.53185">
        <ele>54.473739</ele>
        <time>2021-11-06T14:07:14.937Z</time>
      </trkpt>
      <trkpt lat="47.18298" lon="-1.53172">
        <ele>54.560106</ele>
        <time>2021-11-06T14:07:17.352Z</time>
      </trkpt>
      <trkpt lat="47.18286" lon="-1.53163">
        <ele>54.68012</ele>
        <time>2021-11-06T14:07:19.953Z</time>
      </trkpt>
      <trkpt lat="47.18276" lon="-1.53165">
        <ele>54.76214</ele>
        <time>2021-11-06T14:07:21.973Z</time>
      </trkpt>
      <trkpt lat="47.18267" lon="-1.53174">
        <ele>54.854775</ele>
        <time>2021-11-06T14:07:24.404Z</time>
      </trkpt>
      <trkpt lat="47.1825" lon="-1.53151">
        <ele>55.049739</ele>
        <time>2021-11-06T14:07:44.950Z</time>
      </trkpt>
      <trkpt lat="47.18255" lon="-1.53133">
        <ele>55.158017</ele>
        <time>2021-11-06T14:07:46.940Z</time>
      </trkpt>
      <trkpt lat="47.18259" lon="-1.53118">
        <ele>55.255456</ele>
        <time>2021-11-06T14:07:48.980Z</time>
      </trkpt>
      <trkpt lat="47.18262" lon="-1.53103">
        <ele>55.343737</ele>
        <time>2021-11-06T14:07:50.982Z</time>
      </trkpt>
      <trkpt lat="47.18264" lon="-1.53088">
        <ele>55.429592</ele>
        <time>2021-11-06T14:07:52.954Z</time>
      </trkpt>
      <trkpt lat="47.18263" lon="-1.53074">
        <ele>55.510911</ele>
        <time>2021-11-06T14:07:54.951Z</time>
      </trkpt>
      <trkpt lat="47.18258" lon="-1.53061">
        <ele>55.599446</ele>
        <time>2021-11-06T14:07:56.950Z</time>
      </trkpt>
      <trkpt lat="47.18253" lon="-1.53047">
        <ele>55.687564</ele>
        <time>2021-11-06T14:07:58.950Z</time>
      </trkpt>
      <trkpt lat="47.18247" lon="-1.53034">
        <ele>55.778433</ele>
        <time>2021-11-06T14:08:00.950Z</time>
      </trkpt>
      <trkpt lat="47.18242" lon="-1.5302">
        <ele>55.864952</ele>
        <time>2021-11-06T14:08:02.977Z</time>
      </trkpt>
      <trkpt lat="47.18238" lon="-1.53007">
        <ele>55.873035</ele>
        <time>2021-11-06T14:08:04.951Z</time>
      </trkpt>
      <trkpt lat="47.18234" lon="-1.52993">
        <ele>55.814358</ele>
        <time>2021-11-06T14:08:06.936Z</time>
      </trkpt>
      <trkpt lat="47.1823" lon="-1.5298">
        <ele>55.755281</ele>
        <time>2021-11-06T14:08:08.972Z</time>
      </trkpt>
      <trkpt lat="47.18225" lon="-1.52966">
        <ele>55.695756</ele>
        <time>2021-11-06T14:08:11.034Z</time>
      </trkpt>
      <trkpt lat="47.18221" lon="-1.52953">
        <ele>55.638153</ele>
        <time>2021-11-06T14:08:12.961Z</time>
      </trkpt>
      <trkpt lat="47.18216" lon="-1.52939">
        <ele>55.577578</ele>
        <time>2021-11-06T14:08:14.970Z</time>
      </trkpt>
      <trkpt lat="47.18211" lon="-1.52925">
        <ele>55.516384</ele>
        <time>2021-11-06T14:08:16.950Z</time>
      </trkpt>
      <trkpt lat="47.18208" lon="-1.52911">
        <ele>55.456743</ele>
        <time>2021-11-06T14:08:18.948Z</time>
      </trkpt>
      <trkpt lat="47.18203" lon="-1.52898">
        <ele>55.397666</ele>
        <time>2021-11-06T14:08:20.963Z</time>
      </trkpt>
      <trkpt lat="47.18199" lon="-1.52885">
        <ele>55.33972</ele>
        <time>2021-11-06T14:08:22.958Z</time>
      </trkpt>
      <trkpt lat="47.18194" lon="-1.52871">
        <ele>55.279763</ele>
        <time>2021-11-06T14:08:24.974Z</time>
      </trkpt>
      <trkpt lat="47.18189" lon="-1.52858">
        <ele>55.219951</ele>
        <time>2021-11-06T14:08:26.962Z</time>
      </trkpt>
      <trkpt lat="47.18184" lon="-1.52844">
        <ele>55.160522</ele>
        <time>2021-11-06T14:08:28.951Z</time>
      </trkpt>
      <trkpt lat="47.18179" lon="-1.52832">
        <ele>55.102082</ele>
        <time>2021-11-06T14:08:30.957Z</time>
      </trkpt>
      <trkpt lat="47.18174" lon="-1.52818">
        <ele>55.042042</ele>
        <time>2021-11-06T14:08:32.979Z</time>
      </trkpt>
      <trkpt lat="47.18168" lon="-1.52805">
        <ele>54.981781</ele>
        <time>2021-11-06T14:08:34.955Z</time>
      </trkpt>
      <trkpt lat="47.18162" lon="-1.52793">
        <ele>54.921486</ele>
        <time>2021-11-06T14:08:36.962Z</time>
      </trkpt>
      <trkpt lat="47.18156" lon="-1.52782">
        <ele>54.865005</ele>
        <time>2021-11-06T14:08:38.968Z</time>
      </trkpt>
      <trkpt lat="47.1815" lon="-1.52772">
        <ele>54.83439</ele>
        <time>2021-11-06T14:08:40.952Z</time>
      </trkpt>
      <trkpt lat="47.1814" lon="-1.52762">
        <ele>54.796277</ele>
        <time>2021-11-06T14:08:43.961Z</time>
      </trkpt>
      <trkpt lat="47.18129" lon="-1.52752">
        <ele>54.757639</ele>
        <time>2021-11-06T14:08:46.949Z</time>
      </trkpt>
      <trkpt lat="47.18122" lon="-1.52741">
        <ele>54.724682</ele>
        <time>2021-11-06T14:08:48.961Z</time>
      </trkpt>
      <trkpt lat="47.18114" lon="-1.52729">
        <ele>54.688661</ele>
        <time>2021-11-06T14:08:50.954Z</time>
      </trkpt>
      <trkpt lat="47.18105" lon="-1.52718">
        <ele>54.652873</ele>
        <time>2021-11-06T14:08:52.964Z</time>
      </trkpt>
      <trkpt lat="47.18096" lon="-1.52707">
        <ele>54.616709</ele>
        <time>2021-11-06T14:08:54.948Z</time>
      </trkpt>
      <trkpt lat="47.18088" lon="-1.52695">
        <ele>54.580388</ele>
        <time>2021-11-06T14:08:56.976Z</time>
      </trkpt>
      <trkpt lat="47.18079" lon="-1.52684">
        <ele>54.544178</ele>
        <time>2021-11-06T14:08:59.028Z</time>
      </trkpt>
      <trkpt lat="47.1807" lon="-1.52674">
        <ele>54.507345</ele>
        <time>2021-11-06T14:09:00.952Z</time>
      </trkpt>
      <trkpt lat="47.1806" lon="-1.52668">
        <ele>54.473555</ele>
        <time>2021-11-06T14:09:02.961Z</time>
      </trkpt>
      <trkpt lat="47.18049" lon="-1.52666">
        <ele>54.439757</ele>
        <time>2021-11-06T14:09:04.964Z</time>
      </trkpt>
      <trkpt lat="47.18039" lon="-1.52662">
        <ele>54.40655</ele>
        <time>2021-11-06T14:09:06.969Z</time>
      </trkpt>
      <trkpt lat="47.1803" lon="-1.52653">
        <ele>54.371854</ele>
        <time>2021-11-06T14:09:08.951Z</time>
      </trkpt>
      <trkpt lat="47.18022" lon="-1.52643">
        <ele>54.33781</ele>
        <time>2021-11-06T14:09:10.972Z</time>
      </trkpt>
      <trkpt lat="47.18014" lon="-1.52631">
        <ele>54.303643</ele>
        <time>2021-11-06T14:09:12.956Z</time>
      </trkpt>
      <trkpt lat="47.18008" lon="-1.52618">
        <ele>54.502562</ele>
        <time>2021-11-06T14:09:14.961Z</time>
      </trkpt>
      <trkpt lat="47.18" lon="-1.52604">
        <ele>54.758182</ele>
        <time>2021-11-06T14:09:16.952Z</time>
      </trkpt>
      <trkpt lat="47.17992" lon="-1.5259">
        <ele>55.038878</ele>
        <time>2021-11-06T14:09:18.957Z</time>
      </trkpt>
      <trkpt lat="47.17985" lon="-1.5258">
        <ele>55.248377</ele>
        <time>2021-11-06T14:09:20.950Z</time>
      </trkpt>
      <trkpt lat="47.17979" lon="-1.5257">
        <ele>55.453358</ele>
        <time>2021-11-06T14:09:22.945Z</time>
      </trkpt>
      <trkpt lat="47.17972" lon="-1.52558">
        <ele>55.703488</ele>
        <time>2021-11-06T14:09:25.980Z</time>
      </trkpt>
      <trkpt lat="47.17964" lon="-1.52544">
        <ele>55.9554</ele>
        <time>2021-11-06T14:09:28.958Z</time>
      </trkpt>
      <trkpt lat="47.17957" lon="-1.52533">
        <ele>56.188512</ele>
        <time>2021-11-06T14:09:30.976Z</time>
      </trkpt>
      <trkpt lat="47.17952" lon="-1.52522">
        <ele>56.399998</ele>
        <time>2021-11-06T14:09:34.122Z</time>
      </trkpt>
      <trkpt lat="47.17904" lon="-1.52539">
        <ele>57.480424</ele>
        <time>2021-11-06T14:09:47.686Z</time>
      </trkpt>
      <trkpt lat="47.17824" lon="-1.52512">
        <ele>59.074762</ele>
        <time>2021-11-06T14:10:17.953Z</time>
      </trkpt>
      <trkpt lat="47.17822" lon="-1.52497">
        <ele>59.260997</ele>
        <time>2021-11-06T14:10:19.946Z</time>
      </trkpt>
      <trkpt lat="47.17819" lon="-1.52483">
        <ele>59.438164</ele>
        <time>2021-11-06T14:10:21.975Z</time>
      </trkpt>
      <trkpt lat="47.17815" lon="-1.52469">
        <ele>59.613771</ele>
        <time>2021-11-06T14:10:23.979Z</time>
      </trkpt>
      <trkpt lat="47.1781" lon="-1.52456">
        <ele>59.796871</ele>
        <time>2021-11-06T14:10:25.951Z</time>
      </trkpt>
      <trkpt lat="47.17805" lon="-1.52443">
        <ele>59.978062</ele>
        <time>2021-11-06T14:10:27.972Z</time>
      </trkpt>
      <trkpt lat="47.178" lon="-1.5243">
        <ele>60.162905</ele>
        <time>2021-11-06T14:10:29.961Z</time>
      </trkpt>
      <trkpt lat="47.17791" lon="-1.5242">
        <ele>60.366357</ele>
        <time>2021-11-06T14:10:31.946Z</time>
      </trkpt>
      <trkpt lat="47.17784" lon="-1.52407">
        <ele>60.559617</ele>
        <time>2021-11-06T14:10:33.983Z</time>
      </trkpt>
      <trkpt lat="47.17785" lon="-1.5239">
        <ele>60.771342</ele>
        <time>2021-11-06T14:10:35.960Z</time>
      </trkpt>
      <trkpt lat="47.17783" lon="-1.52372">
        <ele>60.992324</ele>
        <time>2021-11-06T14:10:37.953Z</time>
      </trkpt>
      <trkpt lat="47.17776" lon="-1.52354">
        <ele>61.237094</ele>
        <time>2021-11-06T14:10:39.938Z</time>
      </trkpt>
      <trkpt lat="47.17768" lon="-1.52336">
        <ele>61.386648</ele>
        <time>2021-11-06T14:10:41.959Z</time>
      </trkpt>
      <trkpt lat="47.17761" lon="-1.52318">
        <ele>61.085213</ele>
        <time>2021-11-06T14:10:43.951Z</time>
      </trkpt>
      <trkpt lat="47.17754" lon="-1.52299">
        <ele>60.772049</ele>
        <time>2021-11-06T14:10:45.961Z</time>
      </trkpt>
      <trkpt lat="47.17746" lon="-1.5228">
        <ele>60.454999</ele>
        <time>2021-11-06T14:10:47.938Z</time>
      </trkpt>
      <trkpt lat="47.17738" lon="-1.52261">
        <ele>60.133634</ele>
        <time>2021-11-06T14:10:49.954Z</time>
      </trkpt>
      <trkpt lat="47.1773" lon="-1.52241">
        <ele>59.803453</ele>
        <time>2021-11-06T14:10:51.971Z</time>
      </trkpt>
      <trkpt lat="47.17722" lon="-1.52221">
        <ele>59.46244</ele>
        <time>2021-11-06T14:10:53.967Z</time>
      </trkpt>
      <trkpt lat="47.17713" lon="-1.52199">
        <ele>59.094929</ele>
        <time>2021-11-06T14:10:55.965Z</time>
      </trkpt>
      <trkpt lat="47.17703" lon="-1.52178">
        <ele>58.727605</ele>
        <time>2021-11-06T14:10:57.967Z</time>
      </trkpt>
      <trkpt lat="47.17695" lon="-1.52161">
        <ele>58.431489</ele>
        <time>2021-11-06T14:10:59.961Z</time>
      </trkpt>
      <trkpt lat="47.17687" lon="-1.52152">
        <ele>58.209194</ele>
        <time>2021-11-06T14:11:01.987Z</time>
      </trkpt>
      <trkpt lat="47.17679" lon="-1.52142">
        <ele>57.992623</ele>
        <time>2021-11-06T14:11:03.956Z</time>
      </trkpt>
      <trkpt lat="47.17677" lon="-1.52127">
        <ele>57.774404</ele>
        <time>2021-11-06T14:11:05.969Z</time>
      </trkpt>
      <trkpt lat="47.17672" lon="-1.52114">
        <ele>57.789188</ele>
        <time>2021-11-06T14:11:07.942Z</time>
      </trkpt>
      <trkpt lat="47.17666" lon="-1.52101">
        <ele>58.207622</ele>
        <time>2021-11-06T14:11:09.981Z</time>
      </trkpt>
      <trkpt lat="47.1766" lon="-1.52089">
        <ele>58.608447</ele>
        <time>2021-11-06T14:11:11.957Z</time>
      </trkpt>
      <trkpt lat="47.17654" lon="-1.52078">
        <ele>59.00473</ele>
        <time>2021-11-06T14:11:13.957Z</time>
      </trkpt>
      <trkpt lat="47.17648" lon="-1.52067">
        <ele>59.373891</ele>
        <time>2021-11-06T14:11:15.955Z</time>
      </trkpt>
      <trkpt lat="47.17641" lon="-1.52052">
        <ele>59.849676</ele>
        <time>2021-11-06T14:11:18.969Z</time>
      </trkpt>
      <trkpt lat="47.17634" lon="-1.52037">
        <ele>60.354632</ele>
        <time>2021-11-06T14:11:21.960Z</time>
      </trkpt>
      <trkpt lat="47.17627" lon="-1.52024">
        <ele>60.795484</ele>
        <time>2021-11-06T14:11:23.948Z</time>
      </trkpt>
      <trkpt lat="47.17621" lon="-1.52011">
        <ele>61.200188</ele>
        <time>2021-11-06T14:11:26.732Z</time>
      </trkpt>
      <trkpt lat="47.17608" lon="-1.51981">
        <ele>62.176028</ele>
        <time>2021-11-06T14:11:33.443Z</time>
      </trkpt>
      <trkpt lat="47.17504" lon="-1.51547">
        <ele>73.335332</ele>
        <time>2021-11-06T14:13:00.847Z</time>
      </trkpt>
      <trkpt lat="47.17504" lon="-1.51534">
        <ele>73.347001</ele>
        <time>2021-11-06T14:13:02.957Z</time>
      </trkpt>
      <trkpt lat="47.17503" lon="-1.51519">
        <ele>73.359999</ele>
        <time>2021-11-06T14:13:05.428Z</time>
      </trkpt>
      <trkpt lat="47.17503" lon="-1.51502">
        <ele>73.374544</ele>
        <time>2021-11-06T14:13:08.215Z</time>
      </trkpt>
      <trkpt lat="47.17502" lon="-1.51487">
        <ele>73.388168</ele>
        <time>2021-11-06T14:13:10.905Z</time>
      </trkpt>
      <trkpt lat="47.17502" lon="-1.51468">
        <ele>73.404905</ele>
        <time>2021-11-06T14:13:13.940Z</time>
      </trkpt>
      <trkpt lat="47.17499" lon="-1.51453">
        <ele>73.417817</ele>
        <time>2021-11-06T14:13:15.976Z</time>
      </trkpt>
      <trkpt lat="47.17495" lon="-1.51438">
        <ele>73.432347</ele>
        <time>2021-11-06T14:13:17.976Z</time>
      </trkpt>
      <trkpt lat="47.17492" lon="-1.51422">
        <ele>73.446549</ele>
        <time>2021-11-06T14:13:19.971Z</time>
      </trkpt>
      <trkpt lat="47.17487" lon="-1.51408">
        <ele>73.460728</ele>
        <time>2021-11-06T14:13:21.955Z</time>
      </trkpt>
      <trkpt lat="47.17481" lon="-1.51393">
        <ele>73.47568</ele>
        <time>2021-11-06T14:13:23.947Z</time>
      </trkpt>
      <trkpt lat="47.17475" lon="-1.51378">
        <ele>73.455367</ele>
        <time>2021-11-06T14:13:25.974Z</time>
      </trkpt>
      <trkpt lat="47.17469" lon="-1.51364">
        <ele>73.425695</ele>
        <time>2021-11-06T14:13:27.975Z</time>
      </trkpt>
      <trkpt lat="47.17461" lon="-1.51352">
        <ele>73.395682</ele>
        <time>2021-11-06T14:13:29.950Z</time>
      </trkpt>
      <trkpt lat="47.17453" lon="-1.5134">
        <ele>73.365227</ele>
        <time>2021-11-06T14:13:31.941Z</time>
      </trkpt>
      <trkpt lat="47.17444" lon="-1.5133">
        <ele>73.334561</ele>
        <time>2021-11-06T14:13:33.946Z</time>
      </trkpt>
      <trkpt lat="47.17434" lon="-1.51321">
        <ele>73.304962</ele>
        <time>2021-11-06T14:13:35.959Z</time>
      </trkpt>
      <trkpt lat="47.17425" lon="-1.51312">
        <ele>73.274978</ele>
        <time>2021-11-06T14:13:37.971Z</time>
      </trkpt>
      <trkpt lat="47.17414" lon="-1.51306">
        <ele>73.24491</ele>
        <time>2021-11-06T14:13:39.972Z</time>
      </trkpt>
      <trkpt lat="47.17403" lon="-1.51301">
        <ele>73.214888</ele>
        <time>2021-11-06T14:13:41.951Z</time>
      </trkpt>
      <trkpt lat="47.17392" lon="-1.51297">
        <ele>73.184406</ele>
        <time>2021-11-06T14:13:43.957Z</time>
      </trkpt>
      <trkpt lat="47.17381" lon="-1.51293">
        <ele>73.153372</ele>
        <time>2021-11-06T14:13:45.956Z</time>
      </trkpt>
      <trkpt lat="47.17369" lon="-1.51291">
        <ele>73.12181</ele>
        <time>2021-11-06T14:13:47.980Z</time>
      </trkpt>
      <trkpt lat="47.17357" lon="-1.5129">
        <ele>73.09017</ele>
        <time>2021-11-06T14:13:49.978Z</time>
      </trkpt>
      <trkpt lat="47.17344" lon="-1.51288">
        <ele>73.056566</ele>
        <time>2021-11-06T14:13:51.969Z</time>
      </trkpt>
      <trkpt lat="47.17332" lon="-1.51285">
        <ele>73.023929</ele>
        <time>2021-11-06T14:13:53.968Z</time>
      </trkpt>
      <trkpt lat="47.1732" lon="-1.51281">
        <ele>73.01577</ele>
        <time>2021-11-06T14:13:55.956Z</time>
      </trkpt>
      <trkpt lat="47.17309" lon="-1.51274">
        <ele>73.055856</ele>
        <time>2021-11-06T14:13:57.963Z</time>
      </trkpt>
      <trkpt lat="47.17297" lon="-1.51266">
        <ele>73.09608</ele>
        <time>2021-11-06T14:13:59.949Z</time>
      </trkpt>
      <trkpt lat="47.17287" lon="-1.51256">
        <ele>73.137001</ele>
        <time>2021-11-06T14:14:01.952Z</time>
      </trkpt>
      <trkpt lat="47.17278" lon="-1.51243">
        <ele>73.177196</ele>
        <time>2021-11-06T14:14:03.955Z</time>
      </trkpt>
      <trkpt lat="47.17269" lon="-1.51229">
        <ele>73.217835</ele>
        <time>2021-11-06T14:14:05.994Z</time>
      </trkpt>
      <trkpt lat="47.17261" lon="-1.51215">
        <ele>73.259555</ele>
        <time>2021-11-06T14:14:07.949Z</time>
      </trkpt>
      <trkpt lat="47.17252" lon="-1.51201">
        <ele>73.301129</ele>
        <time>2021-11-06T14:14:09.960Z</time>
      </trkpt>
      <trkpt lat="47.17244" lon="-1.51187">
        <ele>73.343228</ele>
        <time>2021-11-06T14:14:11.974Z</time>
      </trkpt>
      <trkpt lat="47.17234" lon="-1.51173">
        <ele>73.386031</ele>
        <time>2021-11-06T14:14:13.958Z</time>
      </trkpt>
      <trkpt lat="47.17225" lon="-1.51158">
        <ele>73.42943</ele>
        <time>2021-11-06T14:14:15.955Z</time>
      </trkpt>
      <trkpt lat="47.17217" lon="-1.51144">
        <ele>73.470557</ele>
        <time>2021-11-06T14:14:17.981Z</time>
      </trkpt>
      <trkpt lat="47.17208" lon="-1.51136">
        <ele>73.502001</ele>
        <time>2021-11-06T14:14:20.954Z</time>
      </trkpt>
      <trkpt lat="47.17199" lon="-1.51146">
        <ele>73.537979</ele>
        <time>2021-11-06T14:14:27.009Z</time>
      </trkpt>
      <trkpt lat="47.17193" lon="-1.51156">
        <ele>73.568012</ele>
        <time>2021-11-06T14:14:31.701Z</time>
      </trkpt>
      <trkpt lat="47.17175" lon="-1.51178">
        <ele>73.92114</ele>
        <time>2021-11-06T14:15:50.951Z</time>
      </trkpt>
      <trkpt lat="47.17166" lon="-1.51189">
        <ele>74.123995</ele>
        <time>2021-11-06T14:15:53.950Z</time>
      </trkpt>
      <trkpt lat="47.17157" lon="-1.51198">
        <ele>74.319694</ele>
        <time>2021-11-06T14:15:56.961Z</time>
      </trkpt>
      <trkpt lat="47.17149" lon="-1.51208">
        <ele>74.506946</ele>
        <time>2021-11-06T14:15:59.950Z</time>
      </trkpt>
      <trkpt lat="47.1714" lon="-1.51217">
        <ele>74.692738</ele>
        <time>2021-11-06T14:16:02.949Z</time>
      </trkpt>
      <trkpt lat="47.17131" lon="-1.51227">
        <ele>74.893397</ele>
        <time>2021-11-06T14:16:05.967Z</time>
      </trkpt>
      <trkpt lat="47.17122" lon="-1.51238">
        <ele>75.103616</ele>
        <time>2021-11-06T14:16:08.951Z</time>
      </trkpt>
      <trkpt lat="47.17113" lon="-1.51247">
        <ele>75.288678</ele>
        <time>2021-11-06T14:16:11.971Z</time>
      </trkpt>
      <trkpt lat="47.17105" lon="-1.51257">
        <ele>75.476032</ele>
        <time>2021-11-06T14:16:14.962Z</time>
      </trkpt>
      <trkpt lat="47.17096" lon="-1.51269">
        <ele>75.68516</ele>
        <time>2021-11-06T14:16:17.948Z</time>
      </trkpt>
      <trkpt lat="47.17087" lon="-1.51281">
        <ele>75.893968</ele>
        <time>2021-11-06T14:16:20.954Z</time>
      </trkpt>
      <trkpt lat="47.17075" lon="-1.51289">
        <ele>76.12899</ele>
        <time>2021-11-06T14:16:23.968Z</time>
      </trkpt>
      <trkpt lat="47.17062" lon="-1.51288">
        <ele>76.356329</ele>
        <time>2021-11-06T14:16:26.955Z</time>
      </trkpt>
      <trkpt lat="47.17053" lon="-1.51284">
        <ele>76.528586</ele>
        <time>2021-11-06T14:16:28.933Z</time>
      </trkpt>
      <trkpt lat="47.17041" lon="-1.51274">
        <ele>76.748376</ele>
        <time>2021-11-06T14:16:31.949Z</time>
      </trkpt>
      <trkpt lat="47.17032" lon="-1.51267">
        <ele>76.749977</ele>
        <time>2021-11-06T14:16:33.970Z</time>
      </trkpt>
      <trkpt lat="47.17024" lon="-1.51262">
        <ele>76.751516</ele>
        <time>2021-11-06T14:16:35.953Z</time>
      </trkpt>
      <trkpt lat="47.17015" lon="-1.51255">
        <ele>76.753094</ele>
        <time>2021-11-06T14:16:37.963Z</time>
      </trkpt>
      <trkpt lat="47.17007" lon="-1.51248">
        <ele>76.754637</ele>
        <time>2021-11-06T14:16:39.953Z</time>
      </trkpt>
      <trkpt lat="47.16998" lon="-1.51241">
        <ele>76.756178</ele>
        <time>2021-11-06T14:16:41.963Z</time>
      </trkpt>
      <trkpt lat="47.1699" lon="-1.51235">
        <ele>76.75773</ele>
        <time>2021-11-06T14:16:43.971Z</time>
      </trkpt>
      <trkpt lat="47.16981" lon="-1.51229">
        <ele>76.759283</ele>
        <time>2021-11-06T14:16:45.963Z</time>
      </trkpt>
      <trkpt lat="47.16972" lon="-1.51223">
        <ele>76.760809</ele>
        <time>2021-11-06T14:16:47.957Z</time>
      </trkpt>
      <trkpt lat="47.16964" lon="-1.51217">
        <ele>76.762381</ele>
        <time>2021-11-06T14:16:49.966Z</time>
      </trkpt>
      <trkpt lat="47.16955" lon="-1.51211">
        <ele>76.763967</ele>
        <time>2021-11-06T14:16:51.955Z</time>
      </trkpt>
      <trkpt lat="47.16945" lon="-1.51205">
        <ele>76.765604</ele>
        <time>2021-11-06T14:16:53.951Z</time>
      </trkpt>
      <trkpt lat="47.16936" lon="-1.51199">
        <ele>76.767266</ele>
        <time>2021-11-06T14:16:55.960Z</time>
      </trkpt>
      <trkpt lat="47.16926" lon="-1.51193">
        <ele>76.76895</ele>
        <time>2021-11-06T14:16:57.947Z</time>
      </trkpt>
      <trkpt lat="47.16917" lon="-1.51188">
        <ele>76.770539</ele>
        <time>2021-11-06T14:16:59.977Z</time>
      </trkpt>
      <trkpt lat="47.16907" lon="-1.51185">
        <ele>76.772155</ele>
        <time>2021-11-06T14:17:01.934Z</time>
      </trkpt>
      <trkpt lat="47.16898" lon="-1.51181">
        <ele>76.77373</ele>
        <time>2021-11-06T14:17:03.944Z</time>
      </trkpt>
      <trkpt lat="47.16888" lon="-1.51179">
        <ele>76.775304</ele>
        <time>2021-11-06T14:17:05.940Z</time>
      </trkpt>
      <trkpt lat="47.16879" lon="-1.51178">
        <ele>76.776888</ele>
        <time>2021-11-06T14:17:07.956Z</time>
      </trkpt>
      <trkpt lat="47.16868" lon="-1.51178">
        <ele>76.620073</ele>
        <time>2021-11-06T14:17:09.971Z</time>
      </trkpt>
      <trkpt lat="47.16859" lon="-1.51175">
        <ele>76.439579</ele>
        <time>2021-11-06T14:17:11.976Z</time>
      </trkpt>
      <trkpt lat="47.1685" lon="-1.51173">
        <ele>76.266245</ele>
        <time>2021-11-06T14:17:13.947Z</time>
      </trkpt>
      <trkpt lat="47.1684" lon="-1.51169">
        <ele>76.084171</ele>
        <time>2021-11-06T14:17:15.965Z</time>
      </trkpt>
      <trkpt lat="47.1683" lon="-1.51166">
        <ele>75.887624</ele>
        <time>2021-11-06T14:17:17.947Z</time>
      </trkpt>
      <trkpt lat="47.1682" lon="-1.51162">
        <ele>75.683052</ele>
        <time>2021-11-06T14:17:19.947Z</time>
      </trkpt>
      <trkpt lat="47.16809" lon="-1.51156">
        <ele>75.471768</ele>
        <time>2021-11-06T14:17:21.943Z</time>
      </trkpt>
      <trkpt lat="47.16799" lon="-1.51149">
        <ele>75.255404</ele>
        <time>2021-11-06T14:17:23.947Z</time>
      </trkpt>
      <trkpt lat="47.16789" lon="-1.5114">
        <ele>75.034999</ele>
        <time>2021-11-06T14:17:25.958Z</time>
      </trkpt>
      <trkpt lat="47.16779" lon="-1.51131">
        <ele>74.811234</ele>
        <time>2021-11-06T14:17:27.940Z</time>
      </trkpt>
      <trkpt lat="47.16769" lon="-1.5112">
        <ele>74.574841</ele>
        <time>2021-11-06T14:17:29.956Z</time>
      </trkpt>
      <trkpt lat="47.16758" lon="-1.51108">
        <ele>74.327034</ele>
        <time>2021-11-06T14:17:31.954Z</time>
      </trkpt>
      <trkpt lat="47.16748" lon="-1.51096">
        <ele>74.077119</ele>
        <time>2021-11-06T14:17:33.949Z</time>
      </trkpt>
      <trkpt lat="47.16739" lon="-1.51083">
        <ele>73.839701</ele>
        <time>2021-11-06T14:17:35.942Z</time>
      </trkpt>
      <trkpt lat="47.1673" lon="-1.5107">
        <ele>73.602912</ele>
        <time>2021-11-06T14:17:37.956Z</time>
      </trkpt>
      <trkpt lat="47.16722" lon="-1.51057">
        <ele>73.377651</ele>
        <time>2021-11-06T14:17:39.967Z</time>
      </trkpt>
      <trkpt lat="47.16713" lon="-1.51045">
        <ele>73.286277</ele>
        <time>2021-11-06T14:17:41.961Z</time>
      </trkpt>
      <trkpt lat="47.16704" lon="-1.51033">
        <ele>73.196316</ele>
        <time>2021-11-06T14:17:43.958Z</time>
      </trkpt>
      <trkpt lat="47.16695" lon="-1.51021">
        <ele>73.102038</ele>
        <time>2021-11-06T14:17:45.965Z</time>
      </trkpt>
      <trkpt lat="47.16685" lon="-1.51009">
        <ele>73.00444</ele>
        <time>2021-11-06T14:17:47.985Z</time>
      </trkpt>
      <trkpt lat="47.16675" lon="-1.50996">
        <ele>72.905495</ele>
        <time>2021-11-06T14:17:49.968Z</time>
      </trkpt>
      <trkpt lat="47.16666" lon="-1.50984">
        <ele>72.813762</ele>
        <time>2021-11-06T14:17:51.950Z</time>
      </trkpt>
      <trkpt lat="47.16658" lon="-1.5097">
        <ele>72.719183</ele>
        <time>2021-11-06T14:17:53.945Z</time>
      </trkpt>
      <trkpt lat="47.16649" lon="-1.50956">
        <ele>72.620899</ele>
        <time>2021-11-06T14:17:55.966Z</time>
      </trkpt>
      <trkpt lat="47.16641" lon="-1.50942">
        <ele>72.521841</ele>
        <time>2021-11-06T14:17:57.952Z</time>
      </trkpt>
      <trkpt lat="47.16632" lon="-1.50928">
        <ele>72.422637</ele>
        <time>2021-11-06T14:17:59.948Z</time>
      </trkpt>
      <trkpt lat="47.16624" lon="-1.50913">
        <ele>72.323881</ele>
        <time>2021-11-06T14:18:01.941Z</time>
      </trkpt>
      <trkpt lat="47.16615" lon="-1.50899">
        <ele>72.225918</ele>
        <time>2021-11-06T14:18:03.954Z</time>
      </trkpt>
      <trkpt lat="47.16607" lon="-1.50884">
        <ele>72.130287</ele>
        <time>2021-11-06T14:18:05.953Z</time>
      </trkpt>
      <trkpt lat="47.166" lon="-1.50871">
        <ele>72.037538</ele>
        <time>2021-11-06T14:18:07.957Z</time>
      </trkpt>
      <trkpt lat="47.16592" lon="-1.50856">
        <ele>72.025718</ele>
        <time>2021-11-06T14:18:09.954Z</time>
      </trkpt>
      <trkpt lat="47.16586" lon="-1.50839">
        <ele>72.038337</ele>
        <time>2021-11-06T14:18:11.941Z</time>
      </trkpt>
      <trkpt lat="47.16582" lon="-1.50823">
        <ele>72.050751</ele>
        <time>2021-11-06T14:18:13.948Z</time>
      </trkpt>
      <trkpt lat="47.16578" lon="-1.50806">
        <ele>72.063126</ele>
        <time>2021-11-06T14:18:15.945Z</time>
      </trkpt>
      <trkpt lat="47.16574" lon="-1.50789">
        <ele>72.07559</ele>
        <time>2021-11-06T14:18:17.961Z</time>
      </trkpt>
      <trkpt lat="47.16569" lon="-1.50772">
        <ele>72.087894</ele>
        <time>2021-11-06T14:18:19.948Z</time>
      </trkpt>
      <trkpt lat="47.16565" lon="-1.50755">
        <ele>72.100319</ele>
        <time>2021-11-06T14:18:21.966Z</time>
      </trkpt>
      <trkpt lat="47.1656" lon="-1.5074">
        <ele>72.111984</ele>
        <time>2021-11-06T14:18:23.946Z</time>
      </trkpt>
      <trkpt lat="47.16555" lon="-1.50725">
        <ele>72.123711</ele>
        <time>2021-11-06T14:18:25.952Z</time>
      </trkpt>
      <trkpt lat="47.16549" lon="-1.50711">
        <ele>72.135312</ele>
        <time>2021-11-06T14:18:27.957Z</time>
      </trkpt>
      <trkpt lat="47.16541" lon="-1.50699">
        <ele>72.146924</ele>
        <time>2021-11-06T14:18:29.956Z</time>
      </trkpt>
      <trkpt lat="47.16532" lon="-1.50688">
        <ele>72.158563</ele>
        <time>2021-11-06T14:18:31.944Z</time>
      </trkpt>
      <trkpt lat="47.16522" lon="-1.50679">
        <ele>72.170294</ele>
        <time>2021-11-06T14:18:33.960Z</time>
      </trkpt>
      <trkpt lat="47.16512" lon="-1.50672">
        <ele>72.181947</ele>
        <time>2021-11-06T14:18:35.964Z</time>
      </trkpt>
      <trkpt lat="47.16501" lon="-1.50665">
        <ele>72.193807</ele>
        <time>2021-11-06T14:18:37.967Z</time>
      </trkpt>
      <trkpt lat="47.1649" lon="-1.50658">
        <ele>72.024276</ele>
        <time>2021-11-06T14:18:39.950Z</time>
      </trkpt>
      <trkpt lat="47.1648" lon="-1.50651">
        <ele>71.753389</ele>
        <time>2021-11-06T14:18:41.959Z</time>
      </trkpt>
      <trkpt lat="47.16468" lon="-1.50644">
        <ele>71.466057</ele>
        <time>2021-11-06T14:18:43.964Z</time>
      </trkpt>
      <trkpt lat="47.16457" lon="-1.50635">
        <ele>71.169628</ele>
        <time>2021-11-06T14:18:45.973Z</time>
      </trkpt>
      <trkpt lat="47.16446" lon="-1.50628">
        <ele>70.864825</ele>
        <time>2021-11-06T14:18:47.950Z</time>
      </trkpt>
      <trkpt lat="47.16433" lon="-1.50622">
        <ele>70.549376</ele>
        <time>2021-11-06T14:18:50.010Z</time>
      </trkpt>
      <trkpt lat="47.1642" lon="-1.50616">
        <ele>70.239501</ele>
        <time>2021-11-06T14:18:51.974Z</time>
      </trkpt>
      <trkpt lat="47.16408" lon="-1.50608">
        <ele>69.915013</ele>
        <time>2021-11-06T14:18:53.960Z</time>
      </trkpt>
      <trkpt lat="47.16395" lon="-1.506">
        <ele>69.59686</ele>
        <time>2021-11-06T14:18:55.955Z</time>
      </trkpt>
      <trkpt lat="47.16383" lon="-1.50593">
        <ele>69.279958</ele>
        <time>2021-11-06T14:18:57.948Z</time>
      </trkpt>
      <trkpt lat="47.1637" lon="-1.50585">
        <ele>68.957796</ele>
        <time>2021-11-06T14:18:59.941Z</time>
      </trkpt>
      <trkpt lat="47.16358" lon="-1.50577">
        <ele>68.633757</ele>
        <time>2021-11-06T14:19:01.955Z</time>
      </trkpt>
      <trkpt lat="47.16345" lon="-1.50569">
        <ele>68.31252</ele>
        <time>2021-11-06T14:19:03.951Z</time>
      </trkpt>
      <trkpt lat="47.16333" lon="-1.50561">
        <ele>67.989113</ele>
        <time>2021-11-06T14:19:05.958Z</time>
      </trkpt>
      <trkpt lat="47.1632" lon="-1.50553">
        <ele>67.618522</ele>
        <time>2021-11-06T14:19:07.978Z</time>
      </trkpt>
      <trkpt lat="47.16306" lon="-1.50546">
        <ele>67.239433</ele>
        <time>2021-11-06T14:19:09.953Z</time>
      </trkpt>
      <trkpt lat="47.16292" lon="-1.5054">
        <ele>66.855676</ele>
        <time>2021-11-06T14:19:11.957Z</time>
      </trkpt>
      <trkpt lat="47.16279" lon="-1.50534">
        <ele>66.471531</ele>
        <time>2021-11-06T14:19:13.966Z</time>
      </trkpt>
      <trkpt lat="47.16265" lon="-1.50528">
        <ele>66.085688</ele>
        <time>2021-11-06T14:19:15.948Z</time>
      </trkpt>
      <trkpt lat="47.16251" lon="-1.50521">
        <ele>65.688381</ele>
        <time>2021-11-06T14:19:17.965Z</time>
      </trkpt>
      <trkpt lat="47.16236" lon="-1.50515">
        <ele>65.282168</ele>
        <time>2021-11-06T14:19:19.966Z</time>
      </trkpt>
      <trkpt lat="47.16222" lon="-1.50507">
        <ele>64.874302</ele>
        <time>2021-11-06T14:19:21.973Z</time>
      </trkpt>
      <trkpt lat="47.16208" lon="-1.50501">
        <ele>64.484914</ele>
        <time>2021-11-06T14:19:23.958Z</time>
      </trkpt>
      <trkpt lat="47.16194" lon="-1.50494">
        <ele>64.096624</ele>
        <time>2021-11-06T14:19:25.951Z</time>
      </trkpt>
      <trkpt lat="47.1618" lon="-1.50487">
        <ele>63.695612</ele>
        <time>2021-11-06T14:19:27.953Z</time>
      </trkpt>
      <trkpt lat="47.16166" lon="-1.5048">
        <ele>63.306456</ele>
        <time>2021-11-06T14:19:29.962Z</time>
      </trkpt>
      <trkpt lat="47.16152" lon="-1.50474">
        <ele>63.313948</ele>
        <time>2021-11-06T14:19:31.968Z</time>
      </trkpt>
      <trkpt lat="47.1614" lon="-1.50466">
        <ele>63.557496</ele>
        <time>2021-11-06T14:19:33.980Z</time>
      </trkpt>
      <trkpt lat="47.16128" lon="-1.5046">
        <ele>63.780313</ele>
        <time>2021-11-06T14:19:35.935Z</time>
      </trkpt>
      <trkpt lat="47.16117" lon="-1.50454">
        <ele>63.9845</ele>
        <time>2021-11-06T14:19:37.953Z</time>
      </trkpt>
      <trkpt lat="47.16108" lon="-1.50449">
        <ele>64.172589</ele>
        <time>2021-11-06T14:19:39.942Z</time>
      </trkpt>
      <trkpt lat="47.16098" lon="-1.50443">
        <ele>64.357783</ele>
        <time>2021-11-06T14:19:41.975Z</time>
      </trkpt>
      <trkpt lat="47.16087" lon="-1.50437">
        <ele>64.568288</ele>
        <time>2021-11-06T14:19:43.948Z</time>
      </trkpt>
      <trkpt lat="47.16076" lon="-1.50431">
        <ele>64.791063</ele>
        <time>2021-11-06T14:19:45.967Z</time>
      </trkpt>
      <trkpt lat="47.16064" lon="-1.50424">
        <ele>65.014329</ele>
        <time>2021-11-06T14:19:47.950Z</time>
      </trkpt>
      <trkpt lat="47.16052" lon="-1.50418">
        <ele>65.238511</ele>
        <time>2021-11-06T14:19:49.970Z</time>
      </trkpt>
      <trkpt lat="47.1604" lon="-1.50411">
        <ele>65.470306</ele>
        <time>2021-11-06T14:19:51.950Z</time>
      </trkpt>
      <trkpt lat="47.16029" lon="-1.50405">
        <ele>65.686745</ele>
        <time>2021-11-06T14:19:53.962Z</time>
      </trkpt>
      <trkpt lat="47.16018" lon="-1.50398">
        <ele>65.907589</ele>
        <time>2021-11-06T14:19:55.961Z</time>
      </trkpt>
      <trkpt lat="47.16006" lon="-1.50393">
        <ele>66.129297</ele>
        <time>2021-11-06T14:19:57.953Z</time>
      </trkpt>
      <trkpt lat="47.15995" lon="-1.50388">
        <ele>66.34402</ele>
        <time>2021-11-06T14:19:59.945Z</time>
      </trkpt>
      <trkpt lat="47.15983" lon="-1.50384">
        <ele>66.563521</ele>
        <time>2021-11-06T14:20:01.954Z</time>
      </trkpt>
      <trkpt lat="47.15971" lon="-1.50382">
        <ele>66.784026</ele>
        <time>2021-11-06T14:20:03.947Z</time>
      </trkpt>
      <trkpt lat="47.1596" lon="-1.5038">
        <ele>66.991451</ele>
        <time>2021-11-06T14:20:05.947Z</time>
      </trkpt>
      <trkpt lat="47.15949" lon="-1.50379">
        <ele>67.19494</ele>
        <time>2021-11-06T14:20:07.951Z</time>
      </trkpt>
      <trkpt lat="47.15939" lon="-1.50377">
        <ele>67.398931</ele>
        <time>2021-11-06T14:20:09.958Z</time>
      </trkpt>
      <trkpt lat="47.15928" lon="-1.50376">
        <ele>67.598714</ele>
        <time>2021-11-06T14:20:11.964Z</time>
      </trkpt>
      <trkpt lat="47.15917" lon="-1.50375">
        <ele>67.794682</ele>
        <time>2021-11-06T14:20:13.952Z</time>
      </trkpt>
      <trkpt lat="47.15907" lon="-1.50373">
        <ele>67.987306</ele>
        <time>2021-11-06T14:20:15.951Z</time>
      </trkpt>
      <trkpt lat="47.15897" lon="-1.50372">
        <ele>68.17401</ele>
        <time>2021-11-06T14:20:17.950Z</time>
      </trkpt>
      <trkpt lat="47.15887" lon="-1.5037">
        <ele>68.362681</ele>
        <time>2021-11-06T14:20:19.948Z</time>
      </trkpt>
      <trkpt lat="47.15877" lon="-1.50368">
        <ele>68.557433</ele>
        <time>2021-11-06T14:20:21.949Z</time>
      </trkpt>
      <trkpt lat="47.15867" lon="-1.50367">
        <ele>68.7448</ele>
        <time>2021-11-06T14:20:23.958Z</time>
      </trkpt>
      <trkpt lat="47.15856" lon="-1.50365">
        <ele>68.933471</ele>
        <time>2021-11-06T14:20:25.955Z</time>
      </trkpt>
      <trkpt lat="47.15846" lon="-1.50364">
        <ele>69.120688</ele>
        <time>2021-11-06T14:20:27.957Z</time>
      </trkpt>
      <trkpt lat="47.15837" lon="-1.50363">
        <ele>69.29782</ele>
        <time>2021-11-06T14:20:29.972Z</time>
      </trkpt>
      <trkpt lat="47.15827" lon="-1.50361">
        <ele>69.478856</ele>
        <time>2021-11-06T14:20:31.936Z</time>
      </trkpt>
      <trkpt lat="47.15818" lon="-1.5036">
        <ele>69.660387</ele>
        <time>2021-11-06T14:20:33.970Z</time>
      </trkpt>
      <trkpt lat="47.15808" lon="-1.50358">
        <ele>69.79083</ele>
        <time>2021-11-06T14:20:35.953Z</time>
      </trkpt>
      <trkpt lat="47.15799" lon="-1.50357">
        <ele>69.86899</ele>
        <time>2021-11-06T14:20:37.952Z</time>
      </trkpt>
      <trkpt lat="47.15789" lon="-1.50356">
        <ele>69.947242</ele>
        <time>2021-11-06T14:20:39.947Z</time>
      </trkpt>
      <trkpt lat="47.1578" lon="-1.50354">
        <ele>70.026329</ele>
        <time>2021-11-06T14:20:41.989Z</time>
      </trkpt>
      <trkpt lat="47.1577" lon="-1.50354">
        <ele>70.105194</ele>
        <time>2021-11-06T14:20:43.989Z</time>
      </trkpt>
      <trkpt lat="47.15761" lon="-1.50353">
        <ele>70.185951</ele>
        <time>2021-11-06T14:20:45.947Z</time>
      </trkpt>
      <trkpt lat="47.15751" lon="-1.50351">
        <ele>70.265145</ele>
        <time>2021-11-06T14:20:47.941Z</time>
      </trkpt>
      <trkpt lat="47.15742" lon="-1.50349">
        <ele>70.343182</ele>
        <time>2021-11-06T14:20:49.958Z</time>
      </trkpt>
      <trkpt lat="47.1573" lon="-1.50347">
        <ele>70.444232</ele>
        <time>2021-11-06T14:20:52.956Z</time>
      </trkpt>
      <trkpt lat="47.15718" lon="-1.50343">
        <ele>70.552237</ele>
        <time>2021-11-06T14:20:55.969Z</time>
      </trkpt>
      <trkpt lat="47.15704" lon="-1.50338">
        <ele>70.668115</ele>
        <time>2021-11-06T14:20:57.967Z</time>
      </trkpt>
      <trkpt lat="47.15697" lon="-1.50328">
        <ele>70.752643</ele>
        <time>2021-11-06T14:21:00.806Z</time>
      </trkpt>
      <trkpt lat="47.15688" lon="-1.50324">
        <ele>70.829155</ele>
        <time>2021-11-06T14:21:02.867Z</time>
      </trkpt>
      <trkpt lat="47.15676" lon="-1.50317">
        <ele>70.933262</ele>
        <time>2021-11-06T14:21:05.834Z</time>
      </trkpt>
      <trkpt lat="47.15666" lon="-1.5031">
        <ele>71.026899</ele>
        <time>2021-11-06T14:21:08.436Z</time>
      </trkpt>
      <trkpt lat="47.15657" lon="-1.50304">
        <ele>71.11425</ele>
        <time>2021-11-06T14:21:10.956Z</time>
      </trkpt>
      <trkpt lat="47.15645" lon="-1.50296">
        <ele>71.222629</ele>
        <time>2021-11-06T14:21:13.968Z</time>
      </trkpt>
      <trkpt lat="47.15634" lon="-1.50288">
        <ele>71.405669</ele>
        <time>2021-11-06T14:21:16.936Z</time>
      </trkpt>
      <trkpt lat="47.15624" lon="-1.50283">
        <ele>71.590468</ele>
        <time>2021-11-06T14:21:19.393Z</time>
      </trkpt>
      <trkpt lat="47.15613" lon="-1.50275">
        <ele>71.82031</ele>
        <time>2021-11-06T14:21:22.756Z</time>
      </trkpt>
      <trkpt lat="47.15602" lon="-1.50267">
        <ele>72.032927</ele>
        <time>2021-11-06T14:21:25.829Z</time>
      </trkpt>
      <trkpt lat="47.15593" lon="-1.5026">
        <ele>72.227738</ele>
        <time>2021-11-06T14:21:28.781Z</time>
      </trkpt>
      <trkpt lat="47.15582" lon="-1.50252">
        <ele>72.431694</ele>
        <time>2021-11-06T14:21:31.867Z</time>
      </trkpt>
      <trkpt lat="47.15572" lon="-1.50245">
        <ele>72.646435</ele>
        <time>2021-11-06T14:21:34.956Z</time>
      </trkpt>
      <trkpt lat="47.15562" lon="-1.50241">
        <ele>72.825148</ele>
        <time>2021-11-06T14:21:37.613Z</time>
      </trkpt>
      <trkpt lat="47.15553" lon="-1.50241">
        <ele>72.992719</ele>
        <time>2021-11-06T14:21:40.170Z</time>
      </trkpt>
      <trkpt lat="47.15544" lon="-1.50247">
        <ele>73.168697</ele>
        <time>2021-11-06T14:21:42.642Z</time>
      </trkpt>
      <trkpt lat="47.15535" lon="-1.50254">
        <ele>73.349093</ele>
        <time>2021-11-06T14:21:44.954Z</time>
      </trkpt>
      <trkpt lat="47.15524" lon="-1.50263">
        <ele>73.572433</ele>
        <time>2021-11-06T14:21:47.723Z</time>
      </trkpt>
      <trkpt lat="47.15511" lon="-1.5027">
        <ele>73.829359</ele>
        <time>2021-11-06T14:21:50.955Z</time>
      </trkpt>
      <trkpt lat="47.15501" lon="-1.50275">
        <ele>74.015074</ele>
        <time>2021-11-06T14:21:53.226Z</time>
      </trkpt>
      <trkpt lat="47.15492" lon="-1.50279">
        <ele>74.185216</ele>
        <time>2021-11-06T14:21:55.392Z</time>
      </trkpt>
      <trkpt lat="47.15479" lon="-1.50284">
        <ele>74.413708</ele>
        <time>2021-11-06T14:21:57.945Z</time>
      </trkpt>
      <trkpt lat="47.15471" lon="-1.50287">
        <ele>74.534721</ele>
        <time>2021-11-06T14:21:59.959Z</time>
      </trkpt>
      <trkpt lat="47.15462" lon="-1.50292">
        <ele>74.62171</ele>
        <time>2021-11-06T14:22:01.977Z</time>
      </trkpt>
      <trkpt lat="47.15454" lon="-1.50297">
        <ele>74.70858</ele>
        <time>2021-11-06T14:22:03.968Z</time>
      </trkpt>
      <trkpt lat="47.15445" lon="-1.50302">
        <ele>74.797116</ele>
        <time>2021-11-06T14:22:05.931Z</time>
      </trkpt>
      <trkpt lat="47.15436" lon="-1.50307">
        <ele>74.887336</ele>
        <time>2021-11-06T14:22:07.981Z</time>
      </trkpt>
      <trkpt lat="47.15427" lon="-1.50314">
        <ele>74.980039</ele>
        <time>2021-11-06T14:22:09.965Z</time>
      </trkpt>
      <trkpt lat="47.15419" lon="-1.50321">
        <ele>75.073044</ele>
        <time>2021-11-06T14:22:11.950Z</time>
      </trkpt>
      <trkpt lat="47.15409" lon="-1.50327">
        <ele>75.168264</ele>
        <time>2021-11-06T14:22:13.948Z</time>
      </trkpt>
      <trkpt lat="47.154" lon="-1.50333">
        <ele>75.262987</ele>
        <time>2021-11-06T14:22:15.964Z</time>
      </trkpt>
      <trkpt lat="47.15391" lon="-1.5034">
        <ele>75.359665</ele>
        <time>2021-11-06T14:22:17.978Z</time>
      </trkpt>
      <trkpt lat="47.15381" lon="-1.50344">
        <ele>75.457174</ele>
        <time>2021-11-06T14:22:19.960Z</time>
      </trkpt>
      <trkpt lat="47.15372" lon="-1.50338">
        <ele>75.557157</ele>
        <time>2021-11-06T14:22:21.958Z</time>
      </trkpt>
      <trkpt lat="47.15363" lon="-1.50328">
        <ele>75.661451</ele>
        <time>2021-11-06T14:22:23.970Z</time>
      </trkpt>
      <trkpt lat="47.15355" lon="-1.50317">
        <ele>75.758008</ele>
        <time>2021-11-06T14:22:25.979Z</time>
      </trkpt>
      <trkpt lat="47.15347" lon="-1.50309">
        <ele>75.852449</ele>
        <time>2021-11-06T14:22:27.946Z</time>
      </trkpt>
      <trkpt lat="47.15338" lon="-1.50301">
        <ele>75.948473</ele>
        <time>2021-11-06T14:22:29.954Z</time>
      </trkpt>
      <trkpt lat="47.1533" lon="-1.50294">
        <ele>76.040279</ele>
        <time>2021-11-06T14:22:31.979Z</time>
      </trkpt>
      <trkpt lat="47.15322" lon="-1.50288">
        <ele>76.126743</ele>
        <time>2021-11-06T14:22:33.960Z</time>
      </trkpt>
      <trkpt lat="47.15312" lon="-1.50283">
        <ele>76.188035</ele>
        <time>2021-11-06T14:22:35.941Z</time>
      </trkpt>
      <trkpt lat="47.15303" lon="-1.50278">
        <ele>76.202213</ele>
        <time>2021-11-06T14:22:37.952Z</time>
      </trkpt>
      <trkpt lat="47.15293" lon="-1.50272">
        <ele>76.218346</ele>
        <time>2021-11-06T14:22:40.942Z</time>
      </trkpt>
      <trkpt lat="47.15284" lon="-1.50266">
        <ele>76.234107</ele>
        <time>2021-11-06T14:22:43.960Z</time>
      </trkpt>
      <trkpt lat="47.15274" lon="-1.50261">
        <ele>76.248634</ele>
        <time>2021-11-06T14:22:46.568Z</time>
      </trkpt>
      <trkpt lat="47.15265" lon="-1.50256">
        <ele>76.26389</ele>
        <time>2021-11-06T14:22:49.913Z</time>
      </trkpt>
      <trkpt lat="47.15254" lon="-1.50249">
        <ele>76.281049</ele>
        <time>2021-11-06T14:22:53.793Z</time>
      </trkpt>
      <trkpt lat="47.15245" lon="-1.50245">
        <ele>76.295145</ele>
        <time>2021-11-06T14:22:56.534Z</time>
      </trkpt>
      <trkpt lat="47.15236" lon="-1.50239">
        <ele>76.30993</ele>
        <time>2021-11-06T14:22:58.792Z</time>
      </trkpt>
      <trkpt lat="47.15225" lon="-1.50233">
        <ele>76.327272</ele>
        <time>2021-11-06T14:23:00.948Z</time>
      </trkpt>
      <trkpt lat="47.15216" lon="-1.50227">
        <ele>76.341772</ele>
        <time>2021-11-06T14:23:02.962Z</time>
      </trkpt>
      <trkpt lat="47.15208" lon="-1.50221">
        <ele>76.355692</ele>
        <time>2021-11-06T14:23:04.956Z</time>
      </trkpt>
      <trkpt lat="47.15199" lon="-1.50215">
        <ele>76.369747</ele>
        <time>2021-11-06T14:23:06.965Z</time>
      </trkpt>
      <trkpt lat="47.1519" lon="-1.50208">
        <ele>76.383983</ele>
        <time>2021-11-06T14:23:08.950Z</time>
      </trkpt>
      <trkpt lat="47.15182" lon="-1.50202">
        <ele>76.397925</ele>
        <time>2021-11-06T14:23:10.949Z</time>
      </trkpt>
      <trkpt lat="47.15174" lon="-1.50194">
        <ele>76.412086</ele>
        <time>2021-11-06T14:23:12.952Z</time>
      </trkpt>
      <trkpt lat="47.15166" lon="-1.50186">
        <ele>76.42655</ele>
        <time>2021-11-06T14:23:14.966Z</time>
      </trkpt>
      <trkpt lat="47.15158" lon="-1.50179">
        <ele>76.440516</ele>
        <time>2021-11-06T14:23:16.972Z</time>
      </trkpt>
      <trkpt lat="47.1515" lon="-1.50172">
        <ele>76.541399</ele>
        <time>2021-11-06T14:23:18.955Z</time>
      </trkpt>
      <trkpt lat="47.15142" lon="-1.50165">
        <ele>76.767416</ele>
        <time>2021-11-06T14:23:20.974Z</time>
      </trkpt>
      <trkpt lat="47.15134" lon="-1.50158">
        <ele>76.992985</ele>
        <time>2021-11-06T14:23:22.972Z</time>
      </trkpt>
      <trkpt lat="47.15127" lon="-1.50151">
        <ele>77.222579</ele>
        <time>2021-11-06T14:23:24.964Z</time>
      </trkpt>
      <trkpt lat="47.15119" lon="-1.50143">
        <ele>77.458153</ele>
        <time>2021-11-06T14:23:26.954Z</time>
      </trkpt>
      <trkpt lat="47.15111" lon="-1.50136">
        <ele>77.683607</ele>
        <time>2021-11-06T14:23:28.948Z</time>
      </trkpt>
      <trkpt lat="47.15103" lon="-1.50129">
        <ele>77.914821</ele>
        <time>2021-11-06T14:23:30.971Z</time>
      </trkpt>
      <trkpt lat="47.15095" lon="-1.50122">
        <ele>78.145598</ele>
        <time>2021-11-06T14:23:32.954Z</time>
      </trkpt>
      <trkpt lat="47.15087" lon="-1.50114">
        <ele>78.376109</ele>
        <time>2021-11-06T14:23:34.980Z</time>
      </trkpt>
      <trkpt lat="47.15079" lon="-1.50107">
        <ele>78.602127</ele>
        <time>2021-11-06T14:23:36.976Z</time>
      </trkpt>
      <trkpt lat="47.15071" lon="-1.50101">
        <ele>78.826411</ele>
        <time>2021-11-06T14:23:38.948Z</time>
      </trkpt>
      <trkpt lat="47.15064" lon="-1.50094">
        <ele>79.050321</ele>
        <time>2021-11-06T14:23:40.981Z</time>
      </trkpt>
      <trkpt lat="47.15052" lon="-1.50083">
        <ele>79.383373</ele>
        <time>2021-11-06T14:23:43.956Z</time>
      </trkpt>
      <trkpt lat="47.15043" lon="-1.50077">
        <ele>79.629915</ele>
        <time>2021-11-06T14:23:45.950Z</time>
      </trkpt>
      <trkpt lat="47.15035" lon="-1.5007">
        <ele>79.872232</ele>
        <time>2021-11-06T14:23:47.941Z</time>
      </trkpt>
      <trkpt lat="47.15026" lon="-1.50064">
        <ele>80.109879</ele>
        <time>2021-11-06T14:23:49.946Z</time>
      </trkpt>
      <trkpt lat="47.15017" lon="-1.50058">
        <ele>80.344456</ele>
        <time>2021-11-06T14:23:51.948Z</time>
      </trkpt>
      <trkpt lat="47.15005" lon="-1.50052">
        <ele>80.664987</ele>
        <time>2021-11-06T14:23:54.941Z</time>
      </trkpt>
      <trkpt lat="47.14994" lon="-1.50047">
        <ele>80.910192</ele>
        <time>2021-11-06T14:23:57.961Z</time>
      </trkpt>
      <trkpt lat="47.14985" lon="-1.50043">
        <ele>80.960746</ele>
        <time>2021-11-06T14:23:59.960Z</time>
      </trkpt>
      <trkpt lat="47.14975" lon="-1.50039">
        <ele>81.013465</ele>
        <time>2021-11-06T14:24:01.954Z</time>
      </trkpt>
      <trkpt lat="47.14966" lon="-1.50036">
        <ele>81.063511</ele>
        <time>2021-11-06T14:24:03.965Z</time>
      </trkpt>
      <trkpt lat="47.14957" lon="-1.50032">
        <ele>81.113171</ele>
        <time>2021-11-06T14:24:05.959Z</time>
      </trkpt>
      <trkpt lat="47.14948" lon="-1.50027">
        <ele>81.164702</ele>
        <time>2021-11-06T14:24:07.965Z</time>
      </trkpt>
      <trkpt lat="47.14939" lon="-1.50021">
        <ele>81.218547</ele>
        <time>2021-11-06T14:24:09.954Z</time>
      </trkpt>
      <trkpt lat="47.1493" lon="-1.50016">
        <ele>81.267708</ele>
        <time>2021-11-06T14:24:11.969Z</time>
      </trkpt>
      <trkpt lat="47.14921" lon="-1.50011">
        <ele>81.320124</ele>
        <time>2021-11-06T14:24:13.973Z</time>
      </trkpt>
      <trkpt lat="47.14912" lon="-1.50006">
        <ele>81.372356</ele>
        <time>2021-11-06T14:24:15.976Z</time>
      </trkpt>
      <trkpt lat="47.14903" lon="-1.5">
        <ele>81.423758</ele>
        <time>2021-11-06T14:24:17.980Z</time>
      </trkpt>
      <trkpt lat="47.14893" lon="-1.49993">
        <ele>81.484066</ele>
        <time>2021-11-06T14:24:20.966Z</time>
      </trkpt>
      <trkpt lat="47.14896" lon="-1.49974">
        <ele>81.552304</ele>
        <time>2021-11-06T14:24:23.951Z</time>
      </trkpt>
      <trkpt lat="47.14906" lon="-1.49965">
        <ele>81.613634</ele>
        <time>2021-11-06T14:24:25.940Z</time>
      </trkpt>
      <trkpt lat="47.14916" lon="-1.49958">
        <ele>81.672844</ele>
        <time>2021-11-06T14:24:27.945Z</time>
      </trkpt>
      <trkpt lat="47.14925" lon="-1.49952">
        <ele>81.729513</ele>
        <time>2021-11-06T14:24:29.959Z</time>
      </trkpt>
      <trkpt lat="47.14934" lon="-1.49944">
        <ele>81.78261</ele>
        <time>2021-11-06T14:24:31.961Z</time>
      </trkpt>
      <trkpt lat="47.14942" lon="-1.49936">
        <ele>81.835909</ele>
        <time>2021-11-06T14:24:33.958Z</time>
      </trkpt>
      <trkpt lat="47.1495" lon="-1.49927">
        <ele>81.80269</ele>
        <time>2021-11-06T14:24:35.955Z</time>
      </trkpt>
      <trkpt lat="47.14958" lon="-1.49917">
        <ele>81.718252</ele>
        <time>2021-11-06T14:24:37.974Z</time>
      </trkpt>
      <trkpt lat="47.14964" lon="-1.49905">
        <ele>81.634336</ele>
        <time>2021-11-06T14:24:39.956Z</time>
      </trkpt>
      <trkpt lat="47.14969" lon="-1.49892">
        <ele>81.548949</ele>
        <time>2021-11-06T14:24:41.970Z</time>
      </trkpt>
      <trkpt lat="47.14974" lon="-1.49879">
        <ele>81.466484</ele>
        <time>2021-11-06T14:24:43.952Z</time>
      </trkpt>
      <trkpt lat="47.14977" lon="-1.49865">
        <ele>81.381459</ele>
        <time>2021-11-06T14:24:45.950Z</time>
      </trkpt>
      <trkpt lat="47.14978" lon="-1.4985">
        <ele>81.297597</ele>
        <time>2021-11-06T14:24:47.989Z</time>
      </trkpt>
      <trkpt lat="47.14979" lon="-1.49836">
        <ele>81.214169</ele>
        <time>2021-11-06T14:24:49.978Z</time>
      </trkpt>
      <trkpt lat="47.14978" lon="-1.49821">
        <ele>81.128275</ele>
        <time>2021-11-06T14:24:51.964Z</time>
      </trkpt>
      <trkpt lat="47.14976" lon="-1.49806">
        <ele>81.041952</ele>
        <time>2021-11-06T14:24:53.969Z</time>
      </trkpt>
      <trkpt lat="47.14973" lon="-1.49791">
        <ele>80.953664</ele>
        <time>2021-11-06T14:24:55.970Z</time>
      </trkpt>
      <trkpt lat="47.14969" lon="-1.49776">
        <ele>80.867042</ele>
        <time>2021-11-06T14:24:57.951Z</time>
      </trkpt>
      <trkpt lat="47.14965" lon="-1.49762">
        <ele>80.779015</ele>
        <time>2021-11-06T14:24:59.978Z</time>
      </trkpt>
      <trkpt lat="47.1496" lon="-1.49749">
        <ele>80.690094</ele>
        <time>2021-11-06T14:25:01.971Z</time>
      </trkpt>
      <trkpt lat="47.14954" lon="-1.49734">
        <ele>80.596671</ele>
        <time>2021-11-06T14:25:03.954Z</time>
      </trkpt>
      <trkpt lat="47.14947" lon="-1.49721">
        <ele>80.502541</ele>
        <time>2021-11-06T14:25:05.955Z</time>
      </trkpt>
      <trkpt lat="47.1494" lon="-1.49708">
        <ele>80.405237</ele>
        <time>2021-11-06T14:25:07.976Z</time>
      </trkpt>
      <trkpt lat="47.1493" lon="-1.49697">
        <ele>80.408565</ele>
        <time>2021-11-06T14:25:09.956Z</time>
      </trkpt>
      <trkpt lat="47.1492" lon="-1.49689">
        <ele>80.504718</ele>
        <time>2021-11-06T14:25:11.955Z</time>
      </trkpt>
      <trkpt lat="47.14909" lon="-1.49681">
        <ele>80.601441</ele>
        <time>2021-11-06T14:25:13.952Z</time>
      </trkpt>
      <trkpt lat="47.14899" lon="-1.49674">
        <ele>80.694804</ele>
        <time>2021-11-06T14:25:15.984Z</time>
      </trkpt>
      <trkpt lat="47.14888" lon="-1.49667">
        <ele>80.784322</ele>
        <time>2021-11-06T14:25:17.979Z</time>
      </trkpt>
      <trkpt lat="47.14879" lon="-1.4966">
        <ele>80.871417</ele>
        <time>2021-11-06T14:25:19.966Z</time>
      </trkpt>
      <trkpt lat="47.14869" lon="-1.49651">
        <ele>80.963266</ele>
        <time>2021-11-06T14:25:21.949Z</time>
      </trkpt>
      <trkpt lat="47.14861" lon="-1.49639">
        <ele>81.055343</ele>
        <time>2021-11-06T14:25:23.953Z</time>
      </trkpt>
      <trkpt lat="47.14853" lon="-1.49627">
        <ele>81.146317</ele>
        <time>2021-11-06T14:25:25.954Z</time>
      </trkpt>
      <trkpt lat="47.14846" lon="-1.49614">
        <ele>81.238054</ele>
        <time>2021-11-06T14:25:27.954Z</time>
      </trkpt>
      <trkpt lat="47.14839" lon="-1.49601">
        <ele>81.33045</ele>
        <time>2021-11-06T14:25:29.980Z</time>
      </trkpt>
      <trkpt lat="47.14832" lon="-1.49588">
        <ele>81.421126</ele>
        <time>2021-11-06T14:25:31.979Z</time>
      </trkpt>
      <trkpt lat="47.14826" lon="-1.49575">
        <ele>81.506563</ele>
        <time>2021-11-06T14:25:33.961Z</time>
      </trkpt>
      <trkpt lat="47.14818" lon="-1.49564">
        <ele>81.593448</ele>
        <time>2021-11-06T14:25:35.958Z</time>
      </trkpt>
      <trkpt lat="47.14812" lon="-1.49552">
        <ele>81.678736</ele>
        <time>2021-11-06T14:25:37.959Z</time>
      </trkpt>
      <trkpt lat="47.14806" lon="-1.49539">
        <ele>81.762589</ele>
        <time>2021-11-06T14:25:39.953Z</time>
      </trkpt>
      <trkpt lat="47.14799" lon="-1.49528">
        <ele>81.881227</ele>
        <time>2021-11-06T14:25:41.967Z</time>
      </trkpt>
      <trkpt lat="47.14793" lon="-1.49516">
        <ele>82.044118</ele>
        <time>2021-11-06T14:25:43.960Z</time>
      </trkpt>
      <trkpt lat="47.14787" lon="-1.49504">
        <ele>82.205227</ele>
        <time>2021-11-06T14:25:45.959Z</time>
      </trkpt>
      <trkpt lat="47.14781" lon="-1.49493">
        <ele>82.364673</ele>
        <time>2021-11-06T14:25:47.968Z</time>
      </trkpt>
      <trkpt lat="47.14775" lon="-1.49481">
        <ele>82.52774</ele>
        <time>2021-11-06T14:25:49.961Z</time>
      </trkpt>
      <trkpt lat="47.14771" lon="-1.49468">
        <ele>82.689089</ele>
        <time>2021-11-06T14:25:51.954Z</time>
      </trkpt>
      <trkpt lat="47.14766" lon="-1.49455">
        <ele>82.848677</ele>
        <time>2021-11-06T14:25:53.950Z</time>
      </trkpt>
      <trkpt lat="47.14762" lon="-1.49442">
        <ele>83.009295</ele>
        <time>2021-11-06T14:25:55.973Z</time>
      </trkpt>
      <trkpt lat="47.14757" lon="-1.49429">
        <ele>83.173888</ele>
        <time>2021-11-06T14:25:57.974Z</time>
      </trkpt>
      <trkpt lat="47.14751" lon="-1.49416">
        <ele>83.346789</ele>
        <time>2021-11-06T14:25:59.943Z</time>
      </trkpt>
      <trkpt lat="47.14745" lon="-1.49404">
        <ele>83.519711</ele>
        <time>2021-11-06T14:26:01.969Z</time>
      </trkpt>
      <trkpt lat="47.14738" lon="-1.49392">
        <ele>83.691633</ele>
        <time>2021-11-06T14:26:03.954Z</time>
      </trkpt>
      <trkpt lat="47.14731" lon="-1.4938">
        <ele>83.864828</ele>
        <time>2021-11-06T14:26:05.978Z</time>
      </trkpt>
      <trkpt lat="47.14723" lon="-1.4937">
        <ele>84.032496</ele>
        <time>2021-11-06T14:26:07.976Z</time>
      </trkpt>
      <trkpt lat="47.14715" lon="-1.49361">
        <ele>84.195821</ele>
        <time>2021-11-06T14:26:09.944Z</time>
      </trkpt>
      <trkpt lat="47.14706" lon="-1.49353">
        <ele>84.364901</ele>
        <time>2021-11-06T14:26:11.954Z</time>
      </trkpt>
      <trkpt lat="47.14698" lon="-1.49344">
        <ele>84.53221</ele>
        <time>2021-11-06T14:26:13.980Z</time>
      </trkpt>
      <trkpt lat="47.1469" lon="-1.49336">
        <ele>84.690294</ele>
        <time>2021-11-06T14:26:15.973Z</time>
      </trkpt>
      <trkpt lat="47.14682" lon="-1.49329">
        <ele>84.758282</ele>
        <time>2021-11-06T14:26:17.959Z</time>
      </trkpt>
      <trkpt lat="47.14673" lon="-1.49321">
        <ele>84.792779</ele>
        <time>2021-11-06T14:26:19.943Z</time>
      </trkpt>
      <trkpt lat="47.14665" lon="-1.49313">
        <ele>84.827459</ele>
        <time>2021-11-06T14:26:21.957Z</time>
      </trkpt>
      <trkpt lat="47.14658" lon="-1.49306">
        <ele>84.860418</ele>
        <time>2021-11-06T14:26:23.959Z</time>
      </trkpt>
      <trkpt lat="47.1465" lon="-1.49298">
        <ele>84.893881</ele>
        <time>2021-11-06T14:26:25.963Z</time>
      </trkpt>
      <trkpt lat="47.14642" lon="-1.49292">
        <ele>84.926054</ele>
        <time>2021-11-06T14:26:27.964Z</time>
      </trkpt>
      <trkpt lat="47.14632" lon="-1.49282">
        <ele>84.966439</ele>
        <time>2021-11-06T14:26:30.996Z</time>
      </trkpt>
      <trkpt lat="47.14622" lon="-1.49271">
        <ele>85.01283</ele>
        <time>2021-11-06T14:26:33.955Z</time>
      </trkpt>
      <trkpt lat="47.14609" lon="-1.49259">
        <ele>85.068162</ele>
        <time>2021-11-06T14:26:36.990Z</time>
      </trkpt>
      <trkpt lat="47.14601" lon="-1.49252">
        <ele>85.100692</ele>
        <time>2021-11-06T14:26:38.969Z</time>
      </trkpt>
      <trkpt lat="47.14593" lon="-1.49244">
        <ele>85.133652</ele>
        <time>2021-11-06T14:26:40.940Z</time>
      </trkpt>
      <trkpt lat="47.14585" lon="-1.49237">
        <ele>85.166988</ele>
        <time>2021-11-06T14:26:42.949Z</time>
      </trkpt>
      <trkpt lat="47.14578" lon="-1.49229">
        <ele>85.200061</ele>
        <time>2021-11-06T14:26:44.952Z</time>
      </trkpt>
      <trkpt lat="47.1457" lon="-1.49221">
        <ele>85.232705</ele>
        <time>2021-11-06T14:26:46.960Z</time>
      </trkpt>
      <trkpt lat="47.14564" lon="-1.49211">
        <ele>85.265198</ele>
        <time>2021-11-06T14:26:48.986Z</time>
      </trkpt>
      <trkpt lat="47.14559" lon="-1.49199">
        <ele>85.298917</ele>
        <time>2021-11-06T14:26:50.954Z</time>
      </trkpt>
      <trkpt lat="47.14556" lon="-1.49185">
        <ele>85.33485</ele>
        <time>2021-11-06T14:26:52.983Z</time>
      </trkpt>
      <trkpt lat="47.14555" lon="-1.4917">
        <ele>85.371838</ele>
        <time>2021-11-06T14:26:54.968Z</time>
      </trkpt>
      <trkpt lat="47.14555" lon="-1.49154">
        <ele>85.358217</ele>
        <time>2021-11-06T14:26:56.965Z</time>
      </trkpt>
      <trkpt lat="47.14556" lon="-1.49138">
        <ele>85.343202</ele>
        <time>2021-11-06T14:26:58.969Z</time>
      </trkpt>
      <trkpt lat="47.14556" lon="-1.49122">
        <ele>85.327975</ele>
        <time>2021-11-06T14:27:00.968Z</time>
      </trkpt>
      <trkpt lat="47.14557" lon="-1.49105">
        <ele>85.312353</ele>
        <time>2021-11-06T14:27:02.961Z</time>
      </trkpt>
      <trkpt lat="47.14558" lon="-1.49088">
        <ele>85.296472</ele>
        <time>2021-11-06T14:27:04.952Z</time>
      </trkpt>
      <trkpt lat="47.14559" lon="-1.49071">
        <ele>85.280693</ele>
        <time>2021-11-06T14:27:06.952Z</time>
      </trkpt>
      <trkpt lat="47.1456" lon="-1.49054">
        <ele>85.264642</ele>
        <time>2021-11-06T14:27:08.965Z</time>
      </trkpt>
      <trkpt lat="47.14561" lon="-1.49037">
        <ele>85.248633</ele>
        <time>2021-11-06T14:27:10.968Z</time>
      </trkpt>
      <trkpt lat="47.14561" lon="-1.49019">
        <ele>85.231833</ele>
        <time>2021-11-06T14:27:12.951Z</time>
      </trkpt>
      <trkpt lat="47.14562" lon="-1.49001">
        <ele>85.214557</ele>
        <time>2021-11-06T14:27:14.978Z</time>
      </trkpt>
      <trkpt lat="47.14563" lon="-1.48983">
        <ele>85.197544</ele>
        <time>2021-11-06T14:27:16.954Z</time>
      </trkpt>
      <trkpt lat="47.14559" lon="-1.48967">
        <ele>85.181657</ele>
        <time>2021-11-06T14:27:18.965Z</time>
      </trkpt>
      <trkpt lat="47.14547" lon="-1.48962">
        <ele>85.164209</ele>
        <time>2021-11-06T14:27:20.940Z</time>
      </trkpt>
      <trkpt lat="47.14535" lon="-1.48964">
        <ele>85.14729</ele>
        <time>2021-11-06T14:27:22.951Z</time>
      </trkpt>
      <trkpt lat="47.14523" lon="-1.48965">
        <ele>85.13199</ele>
        <time>2021-11-06T14:27:24.961Z</time>
      </trkpt>
      <trkpt lat="47.14513" lon="-1.48965">
        <ele>85.180564</ele>
        <time>2021-11-06T14:27:26.964Z</time>
      </trkpt>
      <trkpt lat="47.14503" lon="-1.48966">
        <ele>85.285201</ele>
        <time>2021-11-06T14:27:28.957Z</time>
      </trkpt>
      <trkpt lat="47.14493" lon="-1.48967">
        <ele>85.385812</ele>
        <time>2021-11-06T14:27:30.978Z</time>
      </trkpt>
      <trkpt lat="47.14483" lon="-1.48967">
        <ele>85.488381</ele>
        <time>2021-11-06T14:27:32.961Z</time>
      </trkpt>
      <trkpt lat="47.14473" lon="-1.48968">
        <ele>85.591058</ele>
        <time>2021-11-06T14:27:34.949Z</time>
      </trkpt>
      <trkpt lat="47.14464" lon="-1.48971">
        <ele>85.691981</ele>
        <time>2021-11-06T14:27:36.957Z</time>
      </trkpt>
      <trkpt lat="47.14454" lon="-1.48973">
        <ele>85.79358</ele>
        <time>2021-11-06T14:27:38.968Z</time>
      </trkpt>
      <trkpt lat="47.14444" lon="-1.48975">
        <ele>85.893611</ele>
        <time>2021-11-06T14:27:40.951Z</time>
      </trkpt>
      <trkpt lat="47.14435" lon="-1.48979">
        <ele>85.99353</ele>
        <time>2021-11-06T14:27:42.964Z</time>
      </trkpt>
      <trkpt lat="47.14426" lon="-1.48983">
        <ele>86.096221</ele>
        <time>2021-11-06T14:27:44.980Z</time>
      </trkpt>
      <trkpt lat="47.14416" lon="-1.48985">
        <ele>86.193516</ele>
        <time>2021-11-06T14:27:46.951Z</time>
      </trkpt>
      <trkpt lat="47.14407" lon="-1.48987">
        <ele>86.292219</ele>
        <time>2021-11-06T14:27:48.973Z</time>
      </trkpt>
      <trkpt lat="47.14397" lon="-1.48989">
        <ele>86.391773</ele>
        <time>2021-11-06T14:27:50.972Z</time>
      </trkpt>
      <trkpt lat="47.14388" lon="-1.48991">
        <ele>86.488375</ele>
        <time>2021-11-06T14:27:52.974Z</time>
      </trkpt>
      <trkpt lat="47.14379" lon="-1.48994">
        <ele>86.585098</ele>
        <time>2021-11-06T14:27:54.957Z</time>
      </trkpt>
      <trkpt lat="47.1437" lon="-1.48996">
        <ele>86.681339</ele>
        <time>2021-11-06T14:27:56.960Z</time>
      </trkpt>
      <trkpt lat="47.14361" lon="-1.48998">
        <ele>86.778739</ele>
        <time>2021-11-06T14:27:58.958Z</time>
      </trkpt>
      <trkpt lat="47.14351" lon="-1.49001">
        <ele>86.877161</ele>
        <time>2021-11-06T14:28:00.957Z</time>
      </trkpt>
      <trkpt lat="47.14342" lon="-1.49002">
        <ele>86.974173</ele>
        <time>2021-11-06T14:28:02.962Z</time>
      </trkpt>
      <trkpt lat="47.14329" lon="-1.49005">
        <ele>87.045161</ele>
        <time>2021-11-06T14:28:05.961Z</time>
      </trkpt>
      <trkpt lat="47.14316" lon="-1.49009">
        <ele>87.109626</ele>
        <time>2021-11-06T14:28:08.971Z</time>
      </trkpt>
      <trkpt lat="47.14307" lon="-1.49011">
        <ele>87.1541</ele>
        <time>2021-11-06T14:28:10.968Z</time>
      </trkpt>
      <trkpt lat="47.14293" lon="-1.49013">
        <ele>87.221679</ele>
        <time>2021-11-06T14:28:13.958Z</time>
      </trkpt>
      <trkpt lat="47.14282" lon="-1.49015">
        <ele>87.2777</ele>
        <time>2021-11-06T14:28:16.961Z</time>
      </trkpt>
      <trkpt lat="47.14272" lon="-1.49021">
        <ele>87.329224</ele>
        <time>2021-11-06T14:28:18.585Z</time>
      </trkpt>
      <trkpt lat="47.14259" lon="-1.49022">
        <ele>87.392601</ele>
        <time>2021-11-06T14:28:21.951Z</time>
      </trkpt>
      <trkpt lat="47.14249" lon="-1.49023">
        <ele>87.437567</ele>
        <time>2021-11-06T14:28:23.950Z</time>
      </trkpt>
      <trkpt lat="47.14241" lon="-1.49025">
        <ele>87.481619</ele>
        <time>2021-11-06T14:28:25.967Z</time>
      </trkpt>
      <trkpt lat="47.14231" lon="-1.49028">
        <ele>87.527052</ele>
        <time>2021-11-06T14:28:27.956Z</time>
      </trkpt>
      <trkpt lat="47.14222" lon="-1.49029">
        <ele>87.572082</ele>
        <time>2021-11-06T14:28:29.968Z</time>
      </trkpt>
      <trkpt lat="47.14213" lon="-1.49032">
        <ele>87.617692</ele>
        <time>2021-11-06T14:28:31.958Z</time>
      </trkpt>
      <trkpt lat="47.14204" lon="-1.49034">
        <ele>87.662922</ele>
        <time>2021-11-06T14:28:33.974Z</time>
      </trkpt>
      <trkpt lat="47.14195" lon="-1.49036">
        <ele>87.707035</ele>
        <time>2021-11-06T14:28:35.963Z</time>
      </trkpt>
      <trkpt lat="47.14186" lon="-1.49038">
        <ele>87.751453</ele>
        <time>2021-11-06T14:28:37.983Z</time>
      </trkpt>
      <trkpt lat="47.14177" lon="-1.49041">
        <ele>87.795391</ele>
        <time>2021-11-06T14:28:39.972Z</time>
      </trkpt>
      <trkpt lat="47.14168" lon="-1.49042">
        <ele>87.839452</ele>
        <time>2021-11-06T14:28:41.993Z</time>
      </trkpt>
      <trkpt lat="47.14155" lon="-1.49045">
        <ele>88.084712</ele>
        <time>2021-11-06T14:28:44.966Z</time>
      </trkpt>
      <trkpt lat="47.14142" lon="-1.49048">
        <ele>88.420701</ele>
        <time>2021-11-06T14:28:47.941Z</time>
      </trkpt>
      <trkpt lat="47.14135" lon="-1.49057">
        <ele>88.678191</ele>
        <time>2021-11-06T14:28:49.411Z</time>
      </trkpt>
      <trkpt lat="47.14124" lon="-1.49054">
        <ele>88.972536</ele>
        <time>2021-11-06T14:28:51.964Z</time>
      </trkpt>
      <trkpt lat="47.14115" lon="-1.49048">
        <ele>89.240892</ele>
        <time>2021-11-06T14:28:54.830Z</time>
      </trkpt>
      <trkpt lat="47.14103" lon="-1.49053">
        <ele>89.57884</ele>
        <time>2021-11-06T14:28:57.594Z</time>
      </trkpt>
      <trkpt lat="47.14093" lon="-1.4905">
        <ele>89.839199</ele>
        <time>2021-11-06T14:29:00.479Z</time>
      </trkpt>
      <trkpt lat="47.14082" lon="-1.49051">
        <ele>90.12178</ele>
        <time>2021-11-06T14:29:03.605Z</time>
      </trkpt>
      <trkpt lat="47.14072" lon="-1.49049">
        <ele>90.389436</ele>
        <time>2021-11-06T14:29:07.665Z</time>
      </trkpt>
      <trkpt lat="47.14053" lon="-1.49048">
        <ele>90.886173</ele>
        <time>2021-11-06T14:32:42.471Z</time>
      </trkpt>
      <trkpt lat="47.14043" lon="-1.49045">
        <ele>91.163207</ele>
        <time>2021-11-06T14:32:45.385Z</time>
      </trkpt>
      <trkpt lat="47.1403" lon="-1.49032">
        <ele>91.594579</ele>
        <time>2021-11-06T14:32:47.975Z</time>
      </trkpt>
      <trkpt lat="47.14019" lon="-1.49028">
        <ele>91.88057</ele>
        <time>2021-11-06T14:32:49.963Z</time>
      </trkpt>
      <trkpt lat="47.14009" lon="-1.49025">
        <ele>92.148325</ele>
        <time>2021-11-06T14:32:51.958Z</time>
      </trkpt>
      <trkpt lat="47.14" lon="-1.49023">
        <ele>92.402867</ele>
        <time>2021-11-06T14:32:53.952Z</time>
      </trkpt>
      <trkpt lat="47.1399" lon="-1.49021">
        <ele>92.599573</ele>
        <time>2021-11-06T14:32:55.956Z</time>
      </trkpt>
      <trkpt lat="47.13981" lon="-1.49018">
        <ele>92.572813</ele>
        <time>2021-11-06T14:32:57.972Z</time>
      </trkpt>
      <trkpt lat="47.13972" lon="-1.49015">
        <ele>92.54581</ele>
        <time>2021-11-06T14:32:59.949Z</time>
      </trkpt>
      <trkpt lat="47.13963" lon="-1.49012">
        <ele>92.518023</ele>
        <time>2021-11-06T14:33:01.947Z</time>
      </trkpt>
      <trkpt lat="47.13953" lon="-1.49011">
        <ele>92.489476</ele>
        <time>2021-11-06T14:33:03.971Z</time>
      </trkpt>
      <trkpt lat="47.13944" lon="-1.49009">
        <ele>92.462257</ele>
        <time>2021-11-06T14:33:05.950Z</time>
      </trkpt>
      <trkpt lat="47.13934" lon="-1.49007">
        <ele>92.434547</ele>
        <time>2021-11-06T14:33:07.980Z</time>
      </trkpt>
      <trkpt lat="47.13925" lon="-1.49004">
        <ele>92.407543</ele>
        <time>2021-11-06T14:33:09.981Z</time>
      </trkpt>
      <trkpt lat="47.13916" lon="-1.49001">
        <ele>92.380223</ele>
        <time>2021-11-06T14:33:11.961Z</time>
      </trkpt>
      <trkpt lat="47.13907" lon="-1.48998">
        <ele>92.352569</ele>
        <time>2021-11-06T14:33:13.965Z</time>
      </trkpt>
      <trkpt lat="47.13897" lon="-1.48996">
        <ele>92.324696</ele>
        <time>2021-11-06T14:33:15.970Z</time>
      </trkpt>
      <trkpt lat="47.13887" lon="-1.48995">
        <ele>92.295281</ele>
        <time>2021-11-06T14:33:17.951Z</time>
      </trkpt>
      <trkpt lat="47.13877" lon="-1.48991">
        <ele>92.263873</ele>
        <time>2021-11-06T14:33:19.973Z</time>
      </trkpt>
      <trkpt lat="47.13866" lon="-1.48988">
        <ele>92.232661</ele>
        <time>2021-11-06T14:33:21.981Z</time>
      </trkpt>
      <trkpt lat="47.13856" lon="-1.48984">
        <ele>92.201018</ele>
        <time>2021-11-06T14:33:23.958Z</time>
      </trkpt>
      <trkpt lat="47.13845" lon="-1.48981">
        <ele>92.168764</ele>
        <time>2021-11-06T14:33:25.980Z</time>
      </trkpt>
      <trkpt lat="47.13834" lon="-1.4898">
        <ele>92.137635</ele>
        <time>2021-11-06T14:33:27.970Z</time>
      </trkpt>
      <trkpt lat="47.13823" lon="-1.48978">
        <ele>92.10662</ele>
        <time>2021-11-06T14:33:29.971Z</time>
      </trkpt>
      <trkpt lat="47.13813" lon="-1.48974">
        <ele>92.0258</ele>
        <time>2021-11-06T14:33:31.976Z</time>
      </trkpt>
      <trkpt lat="47.13802" lon="-1.48971">
        <ele>91.768519</ele>
        <time>2021-11-06T14:33:33.972Z</time>
      </trkpt>
      <trkpt lat="47.13791" lon="-1.4897">
        <ele>91.513681</ele>
        <time>2021-11-06T14:33:35.953Z</time>
      </trkpt>
      <trkpt lat="47.1378" lon="-1.48967">
        <ele>91.264702</ele>
        <time>2021-11-06T14:33:37.985Z</time>
      </trkpt>
      <trkpt lat="47.1377" lon="-1.48964">
        <ele>91.029145</ele>
        <time>2021-11-06T14:33:39.957Z</time>
      </trkpt>
      <trkpt lat="47.1376" lon="-1.48962">
        <ele>90.79541</ele>
        <time>2021-11-06T14:33:41.971Z</time>
      </trkpt>
      <trkpt lat="47.1375" lon="-1.48963">
        <ele>90.552323</ele>
        <time>2021-11-06T14:33:43.965Z</time>
      </trkpt>
      <trkpt lat="47.13739" lon="-1.48963">
        <ele>90.298285</ele>
        <time>2021-11-06T14:33:45.973Z</time>
      </trkpt>
      <trkpt lat="47.13728" lon="-1.48962">
        <ele>90.043568</ele>
        <time>2021-11-06T14:33:47.984Z</time>
      </trkpt>
      <trkpt lat="47.13717" lon="-1.4896">
        <ele>89.788309</ele>
        <time>2021-11-06T14:33:49.987Z</time>
      </trkpt>
      <trkpt lat="47.13706" lon="-1.48958">
        <ele>89.528748</ele>
        <time>2021-11-06T14:33:51.977Z</time>
      </trkpt>
      <trkpt lat="47.13695" lon="-1.48956">
        <ele>89.273639</ele>
        <time>2021-11-06T14:33:53.976Z</time>
      </trkpt>
      <trkpt lat="47.13684" lon="-1.48953">
        <ele>89.016104</ele>
        <time>2021-11-06T14:33:55.979Z</time>
      </trkpt>
      <trkpt lat="47.13673" lon="-1.48951">
        <ele>88.75576</ele>
        <time>2021-11-06T14:33:57.972Z</time>
      </trkpt>
      <trkpt lat="47.13661" lon="-1.48949">
        <ele>88.486049</ele>
        <time>2021-11-06T14:33:59.972Z</time>
      </trkpt>
      <trkpt lat="47.13649" lon="-1.48947">
        <ele>88.208067</ele>
        <time>2021-11-06T14:34:01.967Z</time>
      </trkpt>
      <trkpt lat="47.13638" lon="-1.48942">
        <ele>87.950182</ele>
        <time>2021-11-06T14:34:03.958Z</time>
      </trkpt>
      <trkpt lat="47.13628" lon="-1.48939">
        <ele>87.844174</ele>
        <time>2021-11-06T14:34:05.974Z</time>
      </trkpt>
      <trkpt lat="47.13617" lon="-1.48934">
        <ele>87.750374</ele>
        <time>2021-11-06T14:34:07.973Z</time>
      </trkpt>
      <trkpt lat="47.13607" lon="-1.48929">
        <ele>87.66025</ele>
        <time>2021-11-06T14:34:09.971Z</time>
      </trkpt>
      <trkpt lat="47.13598" lon="-1.48923">
        <ele>87.574851</ele>
        <time>2021-11-06T14:34:11.974Z</time>
      </trkpt>
      <trkpt lat="47.1359" lon="-1.48914">
        <ele>87.490804</ele>
        <time>2021-11-06T14:34:13.966Z</time>
      </trkpt>
      <trkpt lat="47.13583" lon="-1.48906">
        <ele>87.412839</ele>
        <time>2021-11-06T14:34:16.013Z</time>
      </trkpt>
      <trkpt lat="47.13576" lon="-1.48895">
        <ele>87.323829</ele>
        <time>2021-11-06T14:34:18.979Z</time>
      </trkpt>
      <trkpt lat="47.13565" lon="-1.48885">
        <ele>87.218333</ele>
        <time>2021-11-06T14:34:21.977Z</time>
      </trkpt>
      <trkpt lat="47.13556" lon="-1.48878">
        <ele>87.125813</ele>
        <time>2021-11-06T14:34:23.981Z</time>
      </trkpt>
      <trkpt lat="47.13548" lon="-1.48871">
        <ele>87.045515</ele>
        <time>2021-11-06T14:34:25.990Z</time>
      </trkpt>
      <trkpt lat="47.13537" lon="-1.48861">
        <ele>86.938478</ele>
        <time>2021-11-06T14:34:29.869Z</time>
      </trkpt>
      <trkpt lat="47.13527" lon="-1.48854">
        <ele>86.843116</ele>
        <time>2021-11-06T14:34:32.233Z</time>
      </trkpt>
      <trkpt lat="47.13514" lon="-1.48851">
        <ele>86.732843</ele>
        <time>2021-11-06T14:34:35.733Z</time>
      </trkpt>
      <trkpt lat="47.13504" lon="-1.48846">
        <ele>86.639337</ele>
        <time>2021-11-06T14:34:39.621Z</time>
      </trkpt>
      <trkpt lat="47.13515" lon="-1.48845">
        <ele>86.540553</ele>
        <time>2021-11-06T14:34:55.926Z</time>
      </trkpt>
      <trkpt lat="47.13512" lon="-1.48832">
        <ele>86.459049</ele>
        <time>2021-11-06T14:35:04.445Z</time>
      </trkpt>
      <trkpt lat="47.13506" lon="-1.48819">
        <ele>86.489786</ele>
        <time>2021-11-06T14:35:08.350Z</time>
      </trkpt>
      <trkpt lat="47.13497" lon="-1.48806">
        <ele>86.813738</ele>
        <time>2021-11-06T14:35:11.492Z</time>
      </trkpt>
      <trkpt lat="47.13489" lon="-1.48794">
        <ele>87.11801</ele>
        <time>2021-11-06T14:35:14.655Z</time>
      </trkpt>
      <trkpt lat="47.13482" lon="-1.48781">
        <ele>87.399676</ele>
        <time>2021-11-06T14:35:17.479Z</time>
      </trkpt>
      <trkpt lat="47.13476" lon="-1.48771">
        <ele>87.655774</ele>
        <time>2021-11-06T14:35:20.528Z</time>
      </trkpt>
      <trkpt lat="47.13468" lon="-1.48761">
        <ele>87.919103</ele>
        <time>2021-11-06T14:35:23.969Z</time>
      </trkpt>
      <trkpt lat="47.13459" lon="-1.4875">
        <ele>88.231331</ele>
        <time>2021-11-06T14:35:26.783Z</time>
      </trkpt>
      <trkpt lat="47.13451" lon="-1.48739">
        <ele>88.514416</ele>
        <time>2021-11-06T14:35:29.427Z</time>
      </trkpt>
      <trkpt lat="47.13444" lon="-1.4873">
        <ele>88.750436</ele>
        <time>2021-11-06T14:35:31.706Z</time>
      </trkpt>
      <trkpt lat="47.13434" lon="-1.4872">
        <ele>89.052396</ele>
        <time>2021-11-06T14:35:34.474Z</time>
      </trkpt>
      <trkpt lat="47.13425" lon="-1.48708">
        <ele>89.379552</ele>
        <time>2021-11-06T14:35:37.594Z</time>
      </trkpt>
      <trkpt lat="47.13417" lon="-1.48696">
        <ele>89.686844</ele>
        <time>2021-11-06T14:35:40.567Z</time>
      </trkpt>
      <trkpt lat="47.1341" lon="-1.48685">
        <ele>89.943437</ele>
        <time>2021-11-06T14:35:42.984Z</time>
      </trkpt>
      <trkpt lat="47.13402" lon="-1.48672">
        <ele>90.255458</ele>
        <time>2021-11-06T14:35:45.974Z</time>
      </trkpt>
      <trkpt lat="47.13394" lon="-1.48662">
        <ele>90.532562</ele>
        <time>2021-11-06T14:35:48.965Z</time>
      </trkpt>
      <trkpt lat="47.13386" lon="-1.48651">
        <ele>90.813547</ele>
        <time>2021-11-06T14:35:51.804Z</time>
      </trkpt>
      <trkpt lat="47.13378" lon="-1.48642">
        <ele>91.083948</ele>
        <time>2021-11-06T14:35:54.728Z</time>
      </trkpt>
      <trkpt lat="47.13371" lon="-1.48632">
        <ele>91.262911</ele>
        <time>2021-11-06T14:35:57.214Z</time>
      </trkpt>
      <trkpt lat="47.13365" lon="-1.48621">
        <ele>91.456915</ele>
        <time>2021-11-06T14:35:59.811Z</time>
      </trkpt>
      <trkpt lat="47.13357" lon="-1.4861">
        <ele>91.659668</ele>
        <time>2021-11-06T14:36:02.967Z</time>
      </trkpt>
      <trkpt lat="47.13349" lon="-1.48601">
        <ele>91.858696</ele>
        <time>2021-11-06T14:36:05.972Z</time>
      </trkpt>
      <trkpt lat="47.13341" lon="-1.48588">
        <ele>92.095237</ele>
        <time>2021-11-06T14:36:08.990Z</time>
      </trkpt>
      <trkpt lat="47.13333" lon="-1.48577">
        <ele>92.30956</ele>
        <time>2021-11-06T14:36:11.581Z</time>
      </trkpt>
      <trkpt lat="47.13323" lon="-1.48565">
        <ele>92.558638</ele>
        <time>2021-11-06T14:36:14.790Z</time>
      </trkpt>
      <trkpt lat="47.13316" lon="-1.48555">
        <ele>92.744274</ele>
        <time>2021-11-06T14:36:16.978Z</time>
      </trkpt>
      <trkpt lat="47.13309" lon="-1.48545">
        <ele>92.941473</ele>
        <time>2021-11-06T14:36:19.769Z</time>
      </trkpt>
      <trkpt lat="47.13301" lon="-1.48533">
        <ele>93.161437</ele>
        <time>2021-11-06T14:36:22.655Z</time>
      </trkpt>
      <trkpt lat="47.13292" lon="-1.48523">
        <ele>93.38349</ele>
        <time>2021-11-06T14:36:25.489Z</time>
      </trkpt>
      <trkpt lat="47.13282" lon="-1.48511">
        <ele>93.623226</ele>
        <time>2021-11-06T14:36:28.915Z</time>
      </trkpt>
      <trkpt lat="47.13275" lon="-1.48499">
        <ele>93.841061</ele>
        <time>2021-11-06T14:36:31.971Z</time>
      </trkpt>
      <trkpt lat="47.13268" lon="-1.48489">
        <ele>94.024519</ele>
        <time>2021-11-06T14:36:34.727Z</time>
      </trkpt>
      <trkpt lat="47.1326" lon="-1.4848">
        <ele>94.214277</ele>
        <time>2021-11-06T14:36:37.430Z</time>
      </trkpt>
      <trkpt lat="47.13252" lon="-1.48468">
        <ele>94.443878</ele>
        <time>2021-11-06T14:36:40.495Z</time>
      </trkpt>
      <trkpt lat="47.13243" lon="-1.48456">
        <ele>94.758846</ele>
        <time>2021-11-06T14:36:43.694Z</time>
      </trkpt>
      <trkpt lat="47.13235" lon="-1.48445">
        <ele>95.115452</ele>
        <time>2021-11-06T14:36:46.345Z</time>
      </trkpt>
      <trkpt lat="47.13229" lon="-1.48435">
        <ele>95.421518</ele>
        <time>2021-11-06T14:36:48.654Z</time>
      </trkpt>
      <trkpt lat="47.1322" lon="-1.48425">
        <ele>95.793854</ele>
        <time>2021-11-06T14:36:51.555Z</time>
      </trkpt>
      <trkpt lat="47.13212" lon="-1.48413">
        <ele>96.183529</ele>
        <time>2021-11-06T14:36:54.591Z</time>
      </trkpt>
      <trkpt lat="47.13206" lon="-1.48403">
        <ele>96.488519</ele>
        <time>2021-11-06T14:36:56.925Z</time>
      </trkpt>
      <trkpt lat="47.13199" lon="-1.48393">
        <ele>96.810118</ele>
        <time>2021-11-06T14:36:59.957Z</time>
      </trkpt>
      <trkpt lat="47.13192" lon="-1.48384">
        <ele>97.12319</ele>
        <time>2021-11-06T14:37:02.651Z</time>
      </trkpt>
      <trkpt lat="47.13184" lon="-1.48376">
        <ele>97.43707</ele>
        <time>2021-11-06T14:37:04.968Z</time>
      </trkpt>
      <trkpt lat="47.13176" lon="-1.48368">
        <ele>97.769945</ele>
        <time>2021-11-06T14:37:07.552Z</time>
      </trkpt>
      <trkpt lat="47.13168" lon="-1.48357">
        <ele>98.145747</ele>
        <time>2021-11-06T14:37:10.670Z</time>
      </trkpt>
      <trkpt lat="47.13162" lon="-1.48346">
        <ele>98.44855</ele>
        <time>2021-11-06T14:37:13.265Z</time>
      </trkpt>
      <trkpt lat="47.13155" lon="-1.48337">
        <ele>98.763781</ele>
        <time>2021-11-06T14:37:15.987Z</time>
      </trkpt>
      <trkpt lat="47.13148" lon="-1.48325">
        <ele>99.132759</ele>
        <time>2021-11-06T14:37:18.961Z</time>
      </trkpt>
      <trkpt lat="47.1314" lon="-1.48315">
        <ele>99.474358</ele>
        <time>2021-11-06T14:37:21.978Z</time>
      </trkpt>
      <trkpt lat="47.13133" lon="-1.48306">
        <ele>99.798443</ele>
        <time>2021-11-06T14:37:24.710Z</time>
      </trkpt>
      <trkpt lat="47.13124" lon="-1.48293">
        <ele>100.19647</ele>
        <time>2021-11-06T14:37:27.874Z</time>
      </trkpt>
      <trkpt lat="47.13116" lon="-1.48281">
        <ele>100.588763</ele>
        <time>2021-11-06T14:37:30.953Z</time>
      </trkpt>
      <trkpt lat="47.13107" lon="-1.48271">
        <ele>100.774382</ele>
        <time>2021-11-06T14:37:33.891Z</time>
      </trkpt>
      <trkpt lat="47.13099" lon="-1.48261">
        <ele>100.945815</ele>
        <time>2021-11-06T14:37:36.872Z</time>
      </trkpt>
      <trkpt lat="47.13092" lon="-1.4825">
        <ele>101.119191</ele>
        <time>2021-11-06T14:37:39.958Z</time>
      </trkpt>
      <trkpt lat="47.13085" lon="-1.48241">
        <ele>101.278784</ele>
        <time>2021-11-06T14:37:42.634Z</time>
      </trkpt>
      <trkpt lat="47.13076" lon="-1.48229">
        <ele>101.47852</ele>
        <time>2021-11-06T14:37:45.972Z</time>
      </trkpt>
      <trkpt lat="47.13069" lon="-1.48218">
        <ele>101.663389</ele>
        <time>2021-11-06T14:37:48.957Z</time>
      </trkpt>
      <trkpt lat="47.1306" lon="-1.48206">
        <ele>101.863125</ele>
        <time>2021-11-06T14:37:51.967Z</time>
      </trkpt>
      <trkpt lat="47.13052" lon="-1.48193">
        <ele>102.060191</ele>
        <time>2021-11-06T14:37:54.963Z</time>
      </trkpt>
      <trkpt lat="47.13045" lon="-1.48184">
        <ele>102.215072</ele>
        <time>2021-11-06T14:37:57.252Z</time>
      </trkpt>
      <trkpt lat="47.13035" lon="-1.48171">
        <ele>102.437427</ele>
        <time>2021-11-06T14:38:00.610Z</time>
      </trkpt>
      <trkpt lat="47.13026" lon="-1.48159">
        <ele>102.642312</ele>
        <time>2021-11-06T14:38:03.473Z</time>
      </trkpt>
      <trkpt lat="47.13019" lon="-1.48149">
        <ele>102.809246</ele>
        <time>2021-11-06T14:38:05.985Z</time>
      </trkpt>
      <trkpt lat="47.13012" lon="-1.48137">
        <ele>102.992748</ele>
        <time>2021-11-06T14:38:08.679Z</time>
      </trkpt>
      <trkpt lat="47.13002" lon="-1.48124">
        <ele>103.213249</ele>
        <time>2021-11-06T14:38:11.868Z</time>
      </trkpt>
      <trkpt lat="47.12992" lon="-1.48111">
        <ele>103.444188</ele>
        <time>2021-11-06T14:38:14.960Z</time>
      </trkpt>
      <trkpt lat="47.12984" lon="-1.48098">
        <ele>103.643645</ele>
        <time>2021-11-06T14:38:18.846Z</time>
      </trkpt>
      <trkpt lat="47.12977" lon="-1.48084">
        <ele>103.866272</ele>
        <time>2021-11-06T14:38:22.970Z</time>
      </trkpt>
      <trkpt lat="47.12969" lon="-1.48074">
        <ele>104.059151</ele>
        <time>2021-11-06T14:38:25.967Z</time>
      </trkpt>
      <trkpt lat="47.1296" lon="-1.48063">
        <ele>104.278315</ele>
        <time>2021-11-06T14:38:29.709Z</time>
      </trkpt>
      <trkpt lat="47.12953" lon="-1.48054">
        <ele>104.446026</ele>
        <time>2021-11-06T14:38:32.672Z</time>
      </trkpt>
      <trkpt lat="47.12946" lon="-1.48042">
        <ele>104.658647</ele>
        <time>2021-11-06T14:38:35.835Z</time>
      </trkpt>
      <trkpt lat="47.12939" lon="-1.48032">
        <ele>104.833638</ele>
        <time>2021-11-06T14:38:38.368Z</time>
      </trkpt>
      <trkpt lat="47.1293" lon="-1.48022">
        <ele>105.042615</ele>
        <time>2021-11-06T14:38:41.385Z</time>
      </trkpt>
      <trkpt lat="47.12922" lon="-1.48011">
        <ele>105.250726</ele>
        <time>2021-11-06T14:38:44.291Z</time>
      </trkpt>
      <trkpt lat="47.12912" lon="-1.47998">
        <ele>105.491746</ele>
        <time>2021-11-06T14:38:47.535Z</time>
      </trkpt>
      <trkpt lat="47.12903" lon="-1.47987">
        <ele>105.703628</ele>
        <time>2021-11-06T14:38:50.362Z</time>
      </trkpt>
      <trkpt lat="47.12894" lon="-1.47976">
        <ele>105.937465</ele>
        <time>2021-11-06T14:38:53.574Z</time>
      </trkpt>
      <trkpt lat="47.12887" lon="-1.47967">
        <ele>106.10884</ele>
        <time>2021-11-06T14:38:55.914Z</time>
      </trkpt>
      <trkpt lat="47.1288" lon="-1.47958">
        <ele>106.280829</ele>
        <time>2021-11-06T14:38:58.511Z</time>
      </trkpt>
      <trkpt lat="47.12871" lon="-1.47948">
        <ele>106.493659</ele>
        <time>2021-11-06T14:39:01.608Z</time>
      </trkpt>
      <trkpt lat="47.12864" lon="-1.47938">
        <ele>106.664602</ele>
        <time>2021-11-06T14:39:03.963Z</time>
      </trkpt>
      <trkpt lat="47.12854" lon="-1.47922">
        <ele>106.948281</ele>
        <time>2021-11-06T14:39:07.612Z</time>
      </trkpt>
      <trkpt lat="47.12844" lon="-1.47908">
        <ele>106.781665</ele>
        <time>2021-11-06T14:39:09.994Z</time>
      </trkpt>
      <trkpt lat="47.12833" lon="-1.47897">
        <ele>106.593601</ele>
        <time>2021-11-06T14:39:13.707Z</time>
      </trkpt>
      <trkpt lat="47.12827" lon="-1.47885">
        <ele>106.442336</ele>
        <time>2021-11-06T14:39:15.678Z</time>
      </trkpt>
      <trkpt lat="47.1282" lon="-1.47876">
        <ele>106.312342</ele>
        <time>2021-11-06T14:39:17.560Z</time>
      </trkpt>
      <trkpt lat="47.12814" lon="-1.47866">
        <ele>106.177739</ele>
        <time>2021-11-06T14:39:19.472Z</time>
      </trkpt>
      <trkpt lat="47.12807" lon="-1.47856">
        <ele>106.037844</ele>
        <time>2021-11-06T14:39:20.962Z</time>
      </trkpt>
      <trkpt lat="47.12798" lon="-1.47847">
        <ele>105.885807</ele>
        <time>2021-11-06T14:39:22.966Z</time>
      </trkpt>
      <trkpt lat="47.12791" lon="-1.47836">
        <ele>105.739258</ele>
        <time>2021-11-06T14:39:24.981Z</time>
      </trkpt>
      <trkpt lat="47.12785" lon="-1.47824">
        <ele>105.592248</ele>
        <time>2021-11-06T14:39:26.980Z</time>
      </trkpt>
      <trkpt lat="47.12778" lon="-1.47812">
        <ele>105.435116</ele>
        <time>2021-11-06T14:39:30.644Z</time>
      </trkpt>
      <trkpt lat="47.12768" lon="-1.47801">
        <ele>105.254531</ele>
        <time>2021-11-06T14:39:34.769Z</time>
      </trkpt>
      <trkpt lat="47.12759" lon="-1.47791">
        <ele>105.094742</ele>
        <time>2021-11-06T14:39:37.406Z</time>
      </trkpt>
      <trkpt lat="47.1275" lon="-1.4778">
        <ele>104.927511</ele>
        <time>2021-11-06T14:39:39.928Z</time>
      </trkpt>
      <trkpt lat="47.12743" lon="-1.4777">
        <ele>104.789983</ele>
        <time>2021-11-06T14:39:42.636Z</time>
      </trkpt>
      <trkpt lat="47.12736" lon="-1.47761">
        <ele>104.652313</ele>
        <time>2021-11-06T14:39:45.803Z</time>
      </trkpt>
      <trkpt lat="47.12728" lon="-1.47748">
        <ele>104.486203</ele>
        <time>2021-11-06T14:39:48.924Z</time>
      </trkpt>
      <trkpt lat="47.12718" lon="-1.47737">
        <ele>104.363408</ele>
        <time>2021-11-06T14:39:52.971Z</time>
      </trkpt>
      <trkpt lat="47.12708" lon="-1.47727">
        <ele>104.321042</ele>
        <time>2021-11-06T14:39:56.552Z</time>
      </trkpt>
      <trkpt lat="47.12701" lon="-1.47714">
        <ele>104.280894</ele>
        <time>2021-11-06T14:39:59.992Z</time>
      </trkpt>
      <trkpt lat="47.12695" lon="-1.47704">
        <ele>104.248486</ele>
        <time>2021-11-06T14:40:02.808Z</time>
      </trkpt>
      <trkpt lat="47.12687" lon="-1.47692">
        <ele>104.209396</ele>
        <time>2021-11-06T14:40:06.318Z</time>
      </trkpt>
      <trkpt lat="47.1268" lon="-1.47682">
        <ele>104.176939</ele>
        <time>2021-11-06T14:40:08.764Z</time>
      </trkpt>
      <trkpt lat="47.12673" lon="-1.47669">
        <ele>104.136357</ele>
        <time>2021-11-06T14:40:11.689Z</time>
      </trkpt>
      <trkpt lat="47.12662" lon="-1.47656">
        <ele>104.087711</ele>
        <time>2021-11-06T14:40:13.976Z</time>
      </trkpt>
      <trkpt lat="47.12652" lon="-1.47645">
        <ele>104.042791</ele>
        <time>2021-11-06T14:40:17.007Z</time>
      </trkpt>
      <trkpt lat="47.12641" lon="-1.4763">
        <ele>103.991718</ele>
        <time>2021-11-06T14:40:20.873Z</time>
      </trkpt>
      <trkpt lat="47.12635" lon="-1.47618">
        <ele>103.954859</ele>
        <time>2021-11-06T14:40:22.982Z</time>
      </trkpt>
      <trkpt lat="47.12628" lon="-1.47608">
        <ele>103.921989</ele>
        <time>2021-11-06T14:40:25.375Z</time>
      </trkpt>
      <trkpt lat="47.12619" lon="-1.47598">
        <ele>103.88272</ele>
        <time>2021-11-06T14:40:28.974Z</time>
      </trkpt>
      <trkpt lat="47.12611" lon="-1.47588">
        <ele>103.845724</ele>
        <time>2021-11-06T14:40:31.977Z</time>
      </trkpt>
      <trkpt lat="47.12603" lon="-1.47577">
        <ele>103.807466</ele>
        <time>2021-11-06T14:40:34.570Z</time>
      </trkpt>
      <trkpt lat="47.12597" lon="-1.47564">
        <ele>103.771307</ele>
        <time>2021-11-06T14:40:36.873Z</time>
      </trkpt>
      <trkpt lat="47.12593" lon="-1.47549">
        <ele>103.748808</ele>
        <time>2021-11-06T14:40:39.383Z</time>
      </trkpt>
      <trkpt lat="47.12587" lon="-1.47537">
        <ele>103.740903</ele>
        <time>2021-11-06T14:40:42.179Z</time>
      </trkpt>
      <trkpt lat="47.12578" lon="-1.47534">
        <ele>103.733661</ele>
        <time>2021-11-06T14:40:44.885Z</time>
      </trkpt>
      <trkpt lat="47.12568" lon="-1.4753">
        <ele>103.725947</ele>
        <time>2021-11-06T14:40:47.265Z</time>
      </trkpt>
      <trkpt lat="47.12561" lon="-1.47521">
        <ele>103.71822</ele>
        <time>2021-11-06T14:40:49.844Z</time>
      </trkpt>
      <trkpt lat="47.12555" lon="-1.4751">
        <ele>103.710688</ele>
        <time>2021-11-06T14:40:52.709Z</time>
      </trkpt>
      <trkpt lat="47.12547" lon="-1.47498">
        <ele>103.701886</ele>
        <time>2021-11-06T14:40:56.785Z</time>
      </trkpt>
      <trkpt lat="47.1254" lon="-1.47487">
        <ele>103.693933</ele>
        <time>2021-11-06T14:41:00.254Z</time>
      </trkpt>
      <trkpt lat="47.12532" lon="-1.47474">
        <ele>103.684223</ele>
        <time>2021-11-06T14:41:03.980Z</time>
      </trkpt>
      <trkpt lat="47.1252" lon="-1.47462">
        <ele>103.673434</ele>
        <time>2021-11-06T14:41:06.984Z</time>
      </trkpt>
      <trkpt lat="47.12512" lon="-1.47454">
        <ele>103.665808</ele>
        <time>2021-11-06T14:41:08.980Z</time>
      </trkpt>
      <trkpt lat="47.12502" lon="-1.47441">
        <ele>103.655484</ele>
        <time>2021-11-06T14:41:11.967Z</time>
      </trkpt>
      <trkpt lat="47.12496" lon="-1.47431">
        <ele>103.648469</ele>
        <time>2021-11-06T14:41:13.920Z</time>
      </trkpt>
      <trkpt lat="47.12488" lon="-1.47418">
        <ele>103.638693</ele>
        <time>2021-11-06T14:41:16.704Z</time>
      </trkpt>
      <trkpt lat="47.1248" lon="-1.47409">
        <ele>103.631275</ele>
        <time>2021-11-06T14:41:18.869Z</time>
      </trkpt>
      <trkpt lat="47.12471" lon="-1.474">
        <ele>103.622672</ele>
        <time>2021-11-06T14:41:21.974Z</time>
      </trkpt>
      <trkpt lat="47.12464" lon="-1.4739">
        <ele>103.615176</ele>
        <time>2021-11-06T14:41:28.566Z</time>
      </trkpt>
      <trkpt lat="47.12457" lon="-1.47381">
        <ele>103.60069</ele>
        <time>2021-11-06T14:41:31.969Z</time>
      </trkpt>
      <trkpt lat="47.12449" lon="-1.47373">
        <ele>103.583403</ele>
        <time>2021-11-06T14:41:34.376Z</time>
      </trkpt>
      <trkpt lat="47.12441" lon="-1.47362">
        <ele>103.564489</ele>
        <time>2021-11-06T14:41:37.351Z</time>
      </trkpt>
      <trkpt lat="47.12431" lon="-1.47357">
        <ele>103.547006</ele>
        <time>2021-11-06T14:41:43.876Z</time>
      </trkpt>
      <trkpt lat="47.12423" lon="-1.47351">
        <ele>103.530883</ele>
        <time>2021-11-06T14:41:46.444Z</time>
      </trkpt>
      <trkpt lat="47.12412" lon="-1.47345">
        <ele>103.509719</ele>
        <time>2021-11-06T14:41:49.691Z</time>
      </trkpt>
      <trkpt lat="47.12401" lon="-1.47335">
        <ele>103.487577</ele>
        <time>2021-11-06T14:41:52.601Z</time>
      </trkpt>
      <trkpt lat="47.12389" lon="-1.47322">
        <ele>103.460977</ele>
        <time>2021-11-06T14:41:55.899Z</time>
      </trkpt>
      <trkpt lat="47.1238" lon="-1.47311">
        <ele>103.440326</ele>
        <time>2021-11-06T14:41:58.535Z</time>
      </trkpt>
      <trkpt lat="47.12371" lon="-1.473">
        <ele>103.420703</ele>
        <time>2021-11-06T14:42:01.520Z</time>
      </trkpt>
      <trkpt lat="47.12364" lon="-1.4729">
        <ele>103.403839</ele>
        <time>2021-11-06T14:42:03.982Z</time>
      </trkpt>
      <trkpt lat="47.12356" lon="-1.4728">
        <ele>103.384816</ele>
        <time>2021-11-06T14:42:06.622Z</time>
      </trkpt>
      <trkpt lat="47.12349" lon="-1.4727">
        <ele>103.368161</ele>
        <time>2021-11-06T14:42:08.921Z</time>
      </trkpt>
      <trkpt lat="47.12342" lon="-1.47261">
        <ele>103.351847</ele>
        <time>2021-11-06T14:42:11.370Z</time>
      </trkpt>
      <trkpt lat="47.12335" lon="-1.4725">
        <ele>103.334246</ele>
        <time>2021-11-06T14:42:14.090Z</time>
      </trkpt>
      <trkpt lat="47.12339" lon="-1.47237">
        <ele>103.317387</ele>
        <time>2021-11-06T14:42:17.473Z</time>
      </trkpt>
      <trkpt lat="47.12349" lon="-1.47232">
        <ele>103.29869</ele>
        <time>2021-11-06T14:42:20.295Z</time>
      </trkpt>
      <trkpt lat="47.12356" lon="-1.47224">
        <ele>103.332627</ele>
        <time>2021-11-06T14:42:22.857Z</time>
      </trkpt>
      <trkpt lat="47.12363" lon="-1.47214">
        <ele>103.371244</ele>
        <time>2021-11-06T14:42:25.437Z</time>
      </trkpt>
      <trkpt lat="47.12371" lon="-1.47206">
        <ele>103.410307</ele>
        <time>2021-11-06T14:42:27.960Z</time>
      </trkpt>
      <trkpt lat="47.1238" lon="-1.47199">
        <ele>103.453755</ele>
        <time>2021-11-06T14:42:31.341Z</time>
      </trkpt>
      <trkpt lat="47.1239" lon="-1.47191">
        <ele>103.498536</ele>
        <time>2021-11-06T14:42:35.492Z</time>
      </trkpt>
      <trkpt lat="47.12398" lon="-1.47185">
        <ele>103.536388</ele>
        <time>2021-11-06T14:42:38.375Z</time>
      </trkpt>
      <trkpt lat="47.12407" lon="-1.47178">
        <ele>103.57717</ele>
        <time>2021-11-06T14:42:41.348Z</time>
      </trkpt>
      <trkpt lat="47.12416" lon="-1.47171">
        <ele>103.619167</ele>
        <time>2021-11-06T14:42:44.113Z</time>
      </trkpt>
      <trkpt lat="47.12425" lon="-1.47163">
        <ele>103.662161</ele>
        <time>2021-11-06T14:42:46.951Z</time>
      </trkpt>
      <trkpt lat="47.12434" lon="-1.47155">
        <ele>103.704933</ele>
        <time>2021-11-06T14:42:49.940Z</time>
      </trkpt>
      <trkpt lat="47.12442" lon="-1.47144">
        <ele>103.748959</ele>
        <time>2021-11-06T14:42:53.271Z</time>
      </trkpt>
      <trkpt lat="47.12451" lon="-1.47133">
        <ele>103.795652</ele>
        <time>2021-11-06T14:42:56.380Z</time>
      </trkpt>
      <trkpt lat="47.12459" lon="-1.47123">
        <ele>103.839501</ele>
        <time>2021-11-06T14:42:59.085Z</time>
      </trkpt>
      <trkpt lat="47.12467" lon="-1.47116">
        <ele>103.876686</ele>
        <time>2021-11-06T14:43:01.538Z</time>
      </trkpt>
      <trkpt lat="47.12478" lon="-1.47108">
        <ele>103.923637</ele>
        <time>2021-11-06T14:43:04.741Z</time>
      </trkpt>
      <trkpt lat="47.12489" lon="-1.47099">
        <ele>103.974173</ele>
        <time>2021-11-06T14:43:07.959Z</time>
      </trkpt>
      <trkpt lat="47.12497" lon="-1.47089">
        <ele>104.018688</ele>
        <time>2021-11-06T14:43:10.875Z</time>
      </trkpt>
      <trkpt lat="47.12504" lon="-1.4708">
        <ele>104.007097</ele>
        <time>2021-11-06T14:43:13.454Z</time>
      </trkpt>
      <trkpt lat="47.12513" lon="-1.47074">
        <ele>103.981105</ele>
        <time>2021-11-06T14:43:16.611Z</time>
      </trkpt>
      <trkpt lat="47.12523" lon="-1.47069">
        <ele>103.952382</ele>
        <time>2021-11-06T14:43:19.668Z</time>
      </trkpt>
      <trkpt lat="47.12532" lon="-1.47063">
        <ele>103.925656</ele>
        <time>2021-11-06T14:43:22.620Z</time>
      </trkpt>
      <trkpt lat="47.12535" lon="-1.47047">
        <ele>103.895043</ele>
        <time>2021-11-06T14:43:25.864Z</time>
      </trkpt>
      <trkpt lat="47.1253" lon="-1.47032">
        <ele>103.865194</ele>
        <time>2021-11-06T14:43:28.389Z</time>
      </trkpt>
      <trkpt lat="47.12524" lon="-1.47019">
        <ele>103.836338</ele>
        <time>2021-11-06T14:43:30.724Z</time>
      </trkpt>
      <trkpt lat="47.12519" lon="-1.47006">
        <ele>103.807668</ele>
        <time>2021-11-06T14:43:33.179Z</time>
      </trkpt>
      <trkpt lat="47.12516" lon="-1.46993">
        <ele>103.78293</ele>
        <time>2021-11-06T14:43:35.282Z</time>
      </trkpt>
      <trkpt lat="47.12512" lon="-1.46979">
        <ele>103.755393</ele>
        <time>2021-11-06T14:43:37.661Z</time>
      </trkpt>
      <trkpt lat="47.12508" lon="-1.46964">
        <ele>103.725015</ele>
        <time>2021-11-06T14:43:40.555Z</time>
      </trkpt>
      <trkpt lat="47.12503" lon="-1.46949">
        <ele>103.694744</ele>
        <time>2021-11-06T14:43:43.684Z</time>
      </trkpt>
      <trkpt lat="47.12499" lon="-1.46937">
        <ele>103.669915</ele>
        <time>2021-11-06T14:43:46.387Z</time>
      </trkpt>
      <trkpt lat="47.12504" lon="-1.46925">
        <ele>103.644351</ele>
        <time>2021-11-06T14:44:06.957Z</time>
      </trkpt>
      <trkpt lat="47.12518" lon="-1.46919">
        <ele>103.60582</ele>
        <time>2021-11-06T14:44:08.940Z</time>
      </trkpt>
      <trkpt lat="47.12528" lon="-1.46915">
        <ele>103.576242</ele>
        <time>2021-11-06T14:44:10.947Z</time>
      </trkpt>
      <trkpt lat="47.12538" lon="-1.4691">
        <ele>103.547084</ele>
        <time>2021-11-06T14:44:12.973Z</time>
      </trkpt>
      <trkpt lat="47.12549" lon="-1.46906">
        <ele>103.503148</ele>
        <time>2021-11-06T14:44:14.988Z</time>
      </trkpt>
      <trkpt lat="47.1256" lon="-1.46901">
        <ele>103.451376</ele>
        <time>2021-11-06T14:44:16.978Z</time>
      </trkpt>
      <trkpt lat="47.12571" lon="-1.46896">
        <ele>103.398806</ele>
        <time>2021-11-06T14:44:18.978Z</time>
      </trkpt>
      <trkpt lat="47.12581" lon="-1.46891">
        <ele>103.347538</ele>
        <time>2021-11-06T14:44:20.981Z</time>
      </trkpt>
      <trkpt lat="47.12592" lon="-1.46886">
        <ele>103.296271</ele>
        <time>2021-11-06T14:44:22.962Z</time>
      </trkpt>
      <trkpt lat="47.12603" lon="-1.46881">
        <ele>103.246334</ele>
        <time>2021-11-06T14:44:24.948Z</time>
      </trkpt>
      <trkpt lat="47.12613" lon="-1.46877">
        <ele>103.196923</ele>
        <time>2021-11-06T14:44:26.954Z</time>
      </trkpt>
      <trkpt lat="47.12623" lon="-1.46872">
        <ele>103.147581</ele>
        <time>2021-11-06T14:44:28.949Z</time>
      </trkpt>
      <trkpt lat="47.12634" lon="-1.46867">
        <ele>103.098045</ele>
        <time>2021-11-06T14:44:30.983Z</time>
      </trkpt>
      <trkpt lat="47.12644" lon="-1.46862">
        <ele>103.049682</ele>
        <time>2021-11-06T14:44:32.964Z</time>
      </trkpt>
      <trkpt lat="47.12654" lon="-1.46858">
        <ele>103.000795</ele>
        <time>2021-11-06T14:44:34.999Z</time>
      </trkpt>
      <trkpt lat="47.12664" lon="-1.46854">
        <ele>102.951639</ele>
        <time>2021-11-06T14:44:36.988Z</time>
      </trkpt>
      <trkpt lat="47.12675" lon="-1.46849">
        <ele>102.902664</ele>
        <time>2021-11-06T14:44:38.943Z</time>
      </trkpt>
      <trkpt lat="47.12682" lon="-1.46839">
        <ele>102.856427</ele>
        <time>2021-11-06T14:44:40.955Z</time>
      </trkpt>
      <trkpt lat="47.1268" lon="-1.46822">
        <ele>102.804373</ele>
        <time>2021-11-06T14:44:42.943Z</time>
      </trkpt>
      <trkpt lat="47.12675" lon="-1.46808">
        <ele>102.752236</ele>
        <time>2021-11-06T14:44:44.968Z</time>
      </trkpt>
      <trkpt lat="47.1267" lon="-1.46793">
        <ele>102.676664</ele>
        <time>2021-11-06T14:44:46.957Z</time>
      </trkpt>
      <trkpt lat="47.12666" lon="-1.46777">
        <ele>102.544357</ele>
        <time>2021-11-06T14:44:48.949Z</time>
      </trkpt>
      <trkpt lat="47.12661" lon="-1.46761">
        <ele>102.409505</ele>
        <time>2021-11-06T14:44:50.969Z</time>
      </trkpt>
      <trkpt lat="47.12657" lon="-1.46745">
        <ele>102.274412</ele>
        <time>2021-11-06T14:44:52.956Z</time>
      </trkpt>
      <trkpt lat="47.12654" lon="-1.4673">
        <ele>102.144131</ele>
        <time>2021-11-06T14:44:54.972Z</time>
      </trkpt>
      <trkpt lat="47.12649" lon="-1.46713">
        <ele>102.009375</ele>
        <time>2021-11-06T14:44:56.979Z</time>
      </trkpt>
      <trkpt lat="47.12645" lon="-1.46697">
        <ele>101.874523</ele>
        <time>2021-11-06T14:44:58.978Z</time>
      </trkpt>
      <trkpt lat="47.12641" lon="-1.46681">
        <ele>101.737954</ele>
        <time>2021-11-06T14:45:00.984Z</time>
      </trkpt>
      <trkpt lat="47.12637" lon="-1.46664">
        <ele>101.598783</ele>
        <time>2021-11-06T14:45:02.965Z</time>
      </trkpt>
      <trkpt lat="47.12632" lon="-1.46648">
        <ele>101.456671</ele>
        <time>2021-11-06T14:45:04.959Z</time>
      </trkpt>
      <trkpt lat="47.12628" lon="-1.4663">
        <ele>101.313028</ele>
        <time>2021-11-06T14:45:06.984Z</time>
      </trkpt>
      <trkpt lat="47.12624" lon="-1.46615">
        <ele>101.180142</ele>
        <time>2021-11-06T14:45:08.969Z</time>
      </trkpt>
      <trkpt lat="47.1262" lon="-1.46599">
        <ele>101.051331</ele>
        <time>2021-11-06T14:45:10.951Z</time>
      </trkpt>
      <trkpt lat="47.12617" lon="-1.46584">
        <ele>100.925906</ele>
        <time>2021-11-06T14:45:12.985Z</time>
      </trkpt>
      <trkpt lat="47.12614" lon="-1.46569">
        <ele>100.806243</ele>
        <time>2021-11-06T14:45:14.960Z</time>
      </trkpt>
      <trkpt lat="47.1261" lon="-1.46556">
        <ele>100.696945</ele>
        <time>2021-11-06T14:45:17.962Z</time>
      </trkpt>
      <trkpt lat="47.12611" lon="-1.4654">
        <ele>100.641127</ele>
        <time>2021-11-06T14:46:34.965Z</time>
      </trkpt>
      <trkpt lat="47.12606" lon="-1.46517">
        <ele>100.628008</ele>
        <time>2021-11-06T14:46:37.944Z</time>
      </trkpt>
      <trkpt lat="47.12603" lon="-1.46501">
        <ele>100.619175</ele>
        <time>2021-11-06T14:46:39.961Z</time>
      </trkpt>
      <trkpt lat="47.126" lon="-1.46486">
        <ele>100.61054</ele>
        <time>2021-11-06T14:46:41.977Z</time>
      </trkpt>
      <trkpt lat="47.12598" lon="-1.46471">
        <ele>100.601846</ele>
        <time>2021-11-06T14:46:43.979Z</time>
      </trkpt>
      <trkpt lat="47.12595" lon="-1.46456">
        <ele>100.593284</ele>
        <time>2021-11-06T14:46:45.984Z</time>
      </trkpt>
      <trkpt lat="47.12593" lon="-1.4644">
        <ele>100.58465</ele>
        <time>2021-11-06T14:46:47.961Z</time>
      </trkpt>
      <trkpt lat="47.12591" lon="-1.46425">
        <ele>100.576134</ele>
        <time>2021-11-06T14:46:49.983Z</time>
      </trkpt>
      <trkpt lat="47.12592" lon="-1.46409">
        <ele>100.567615</ele>
        <time>2021-11-06T14:46:51.968Z</time>
      </trkpt>
      <trkpt lat="47.12593" lon="-1.46394">
        <ele>100.559304</ele>
        <time>2021-11-06T14:46:53.970Z</time>
      </trkpt>
      <trkpt lat="47.12593" lon="-1.46379">
        <ele>100.551009</ele>
        <time>2021-11-06T14:46:55.974Z</time>
      </trkpt>
      <trkpt lat="47.12594" lon="-1.46364">
        <ele>100.542607</ele>
        <time>2021-11-06T14:46:57.967Z</time>
      </trkpt>
      <trkpt lat="47.12595" lon="-1.46349">
        <ele>100.534398</ele>
        <time>2021-11-06T14:46:59.968Z</time>
      </trkpt>
      <trkpt lat="47.12596" lon="-1.46335">
        <ele>100.526717</ele>
        <time>2021-11-06T14:47:16.191Z</time>
      </trkpt>
      <trkpt lat="47.12598" lon="-1.46321">
        <ele>100.518707</ele>
        <time>2021-11-06T14:47:18.688Z</time>
      </trkpt>
      <trkpt lat="47.12601" lon="-1.46306">
        <ele>100.510126</ele>
        <time>2021-11-06T14:47:20.620Z</time>
      </trkpt>
      <trkpt lat="47.12603" lon="-1.46286">
        <ele>100.507408</ele>
        <time>2021-11-06T14:47:22.971Z</time>
      </trkpt>
      <trkpt lat="47.12604" lon="-1.46272">
        <ele>100.522298</ele>
        <time>2021-11-06T14:47:24.959Z</time>
      </trkpt>
      <trkpt lat="47.12605" lon="-1.46258">
        <ele>100.536973</ele>
        <time>2021-11-06T14:47:26.960Z</time>
      </trkpt>
      <trkpt lat="47.12606" lon="-1.46245">
        <ele>100.551971</ele>
        <time>2021-11-06T14:47:28.965Z</time>
      </trkpt>
      <trkpt lat="47.12607" lon="-1.46231">
        <ele>100.567167</ele>
        <time>2021-11-06T14:47:30.973Z</time>
      </trkpt>
      <trkpt lat="47.12608" lon="-1.46217">
        <ele>100.582349</ele>
        <time>2021-11-06T14:47:32.967Z</time>
      </trkpt>
      <trkpt lat="47.12608" lon="-1.46203">
        <ele>100.597627</ele>
        <time>2021-11-06T14:47:34.969Z</time>
      </trkpt>
      <trkpt lat="47.1261" lon="-1.46189">
        <ele>100.612836</ele>
        <time>2021-11-06T14:47:36.957Z</time>
      </trkpt>
      <trkpt lat="47.12611" lon="-1.46175">
        <ele>100.62814</ele>
        <time>2021-11-06T14:47:38.962Z</time>
      </trkpt>
      <trkpt lat="47.12611" lon="-1.4616">
        <ele>100.643623</ele>
        <time>2021-11-06T14:47:40.953Z</time>
      </trkpt>
      <trkpt lat="47.12612" lon="-1.46146">
        <ele>100.658873</ele>
        <time>2021-11-06T14:47:42.968Z</time>
      </trkpt>
      <trkpt lat="47.12612" lon="-1.46132">
        <ele>100.674327</ele>
        <time>2021-11-06T14:47:44.974Z</time>
      </trkpt>
      <trkpt lat="47.12611" lon="-1.46116">
        <ele>100.691084</ele>
        <time>2021-11-06T14:47:46.971Z</time>
      </trkpt>
      <trkpt lat="47.1261" lon="-1.461">
        <ele>100.708355</ele>
        <time>2021-11-06T14:47:48.981Z</time>
      </trkpt>
      <trkpt lat="47.1261" lon="-1.46085">
        <ele>100.725322</ele>
        <time>2021-11-06T14:47:50.985Z</time>
      </trkpt>
      <trkpt lat="47.1261" lon="-1.46069">
        <ele>100.742738</ele>
        <time>2021-11-06T14:47:52.964Z</time>
      </trkpt>
      <trkpt lat="47.12609" lon="-1.46053">
        <ele>100.760055</ele>
        <time>2021-11-06T14:47:54.986Z</time>
      </trkpt>
      <trkpt lat="47.12609" lon="-1.46037">
        <ele>100.777022</ele>
        <time>2021-11-06T14:47:56.948Z</time>
      </trkpt>
      <trkpt lat="47.12608" lon="-1.46022">
        <ele>100.793347</ele>
        <time>2021-11-06T14:47:58.984Z</time>
      </trkpt>
      <trkpt lat="47.12606" lon="-1.46006">
        <ele>100.810587</ele>
        <time>2021-11-06T14:48:00.987Z</time>
      </trkpt>
      <trkpt lat="47.12603" lon="-1.45991">
        <ele>100.828197</ele>
        <time>2021-11-06T14:48:02.992Z</time>
      </trkpt>
      <trkpt lat="47.126" lon="-1.45976">
        <ele>100.84548</ele>
        <time>2021-11-06T14:48:04.982Z</time>
      </trkpt>
      <trkpt lat="47.12598" lon="-1.45961">
        <ele>100.86168</ele>
        <time>2021-11-06T14:48:06.961Z</time>
      </trkpt>
      <trkpt lat="47.12596" lon="-1.45946">
        <ele>100.879158</ele>
        <time>2021-11-06T14:48:08.967Z</time>
      </trkpt>
      <trkpt lat="47.12594" lon="-1.45931">
        <ele>100.896</ele>
        <time>2021-11-06T14:48:10.961Z</time>
      </trkpt>
      <trkpt lat="47.12591" lon="-1.45915">
        <ele>100.9137</ele>
        <time>2021-11-06T14:48:12.951Z</time>
      </trkpt>
      <trkpt lat="47.12589" lon="-1.45899">
        <ele>100.93137</ele>
        <time>2021-11-06T14:48:14.963Z</time>
      </trkpt>
      <trkpt lat="47.12588" lon="-1.45883">
        <ele>100.948473</ele>
        <time>2021-11-06T14:48:16.975Z</time>
      </trkpt>
      <trkpt lat="47.12586" lon="-1.45868">
        <ele>100.965361</ele>
        <time>2021-11-06T14:48:18.965Z</time>
      </trkpt>
      <trkpt lat="47.12582" lon="-1.45855">
        <ele>100.981318</ele>
        <time>2021-11-06T14:48:20.966Z</time>
      </trkpt>
      <trkpt lat="47.12578" lon="-1.45842">
        <ele>100.997244</ele>
        <time>2021-11-06T14:48:22.951Z</time>
      </trkpt>
      <trkpt lat="47.12573" lon="-1.45828">
        <ele>101.013697</ele>
        <time>2021-11-06T14:48:24.971Z</time>
      </trkpt>
      <trkpt lat="47.12568" lon="-1.45815">
        <ele>101.030033</ele>
        <time>2021-11-06T14:48:26.979Z</time>
      </trkpt>
      <trkpt lat="47.12563" lon="-1.45803">
        <ele>101.046054</ele>
        <time>2021-11-06T14:48:28.980Z</time>
      </trkpt>
      <trkpt lat="47.12558" lon="-1.4579">
        <ele>101.062065</ele>
        <time>2021-11-06T14:48:30.976Z</time>
      </trkpt>
      <trkpt lat="47.12553" lon="-1.45778">
        <ele>101.07445</ele>
        <time>2021-11-06T14:48:32.970Z</time>
      </trkpt>
      <trkpt lat="47.12548" lon="-1.45765">
        <ele>101.051259</ele>
        <time>2021-11-06T14:48:34.972Z</time>
      </trkpt>
      <trkpt lat="47.12544" lon="-1.45752">
        <ele>101.027539</ele>
        <time>2021-11-06T14:48:36.943Z</time>
      </trkpt>
      <trkpt lat="47.12541" lon="-1.45738">
        <ele>101.004019</ele>
        <time>2021-11-06T14:48:38.974Z</time>
      </trkpt>
      <trkpt lat="47.12538" lon="-1.45724">
        <ele>100.980151</ele>
        <time>2021-11-06T14:48:40.965Z</time>
      </trkpt>
      <trkpt lat="47.12536" lon="-1.45711">
        <ele>100.957151</ele>
        <time>2021-11-06T14:48:42.974Z</time>
      </trkpt>
      <trkpt lat="47.12534" lon="-1.45697">
        <ele>100.933937</ele>
        <time>2021-11-06T14:48:44.956Z</time>
      </trkpt>
      <trkpt lat="47.12531" lon="-1.45683">
        <ele>100.910856</ele>
        <time>2021-11-06T14:48:46.956Z</time>
      </trkpt>
      <trkpt lat="47.12529" lon="-1.4567">
        <ele>100.888312</ele>
        <time>2021-11-06T14:48:48.967Z</time>
      </trkpt>
      <trkpt lat="47.12525" lon="-1.45651">
        <ele>100.855993</ele>
        <time>2021-11-06T14:48:51.941Z</time>
      </trkpt>
      <trkpt lat="47.12523" lon="-1.45638">
        <ele>100.834477</ele>
        <time>2021-11-06T14:48:53.953Z</time>
      </trkpt>
      <trkpt lat="47.12522" lon="-1.45624">
        <ele>100.811519</ele>
        <time>2021-11-06T14:48:55.947Z</time>
      </trkpt>
      <trkpt lat="47.12521" lon="-1.4561">
        <ele>100.787869</ele>
        <time>2021-11-06T14:48:57.975Z</time>
      </trkpt>
      <trkpt lat="47.12519" lon="-1.45596">
        <ele>100.764976</ele>
        <time>2021-11-06T14:48:59.976Z</time>
      </trkpt>
      <trkpt lat="47.12519" lon="-1.45582">
        <ele>100.742219</ele>
        <time>2021-11-06T14:49:01.967Z</time>
      </trkpt>
      <trkpt lat="47.12518" lon="-1.45568">
        <ele>100.718569</ele>
        <time>2021-11-06T14:49:03.943Z</time>
      </trkpt>
      <trkpt lat="47.12516" lon="-1.45553">
        <ele>100.69485</ele>
        <time>2021-11-06T14:49:05.980Z</time>
      </trkpt>
      <trkpt lat="47.12513" lon="-1.45538">
        <ele>100.669752</ele>
        <time>2021-11-06T14:49:07.978Z</time>
      </trkpt>
      <trkpt lat="47.1251" lon="-1.45524">
        <ele>100.64452</ele>
        <time>2021-11-06T14:49:09.973Z</time>
      </trkpt>
      <trkpt lat="47.12506" lon="-1.45509">
        <ele>100.64649</ele>
        <time>2021-11-06T14:49:11.978Z</time>
      </trkpt>
      <trkpt lat="47.12502" lon="-1.45491">
        <ele>100.648937</ele>
        <time>2021-11-06T14:49:14.968Z</time>
      </trkpt>
      <trkpt lat="47.12498" lon="-1.45478">
        <ele>100.650712</ele>
        <time>2021-11-06T14:49:16.988Z</time>
      </trkpt>
      <trkpt lat="47.12491" lon="-1.45467">
        <ele>100.652558</ele>
        <time>2021-11-06T14:49:18.961Z</time>
      </trkpt>
      <trkpt lat="47.12484" lon="-1.45454">
        <ele>100.654798</ele>
        <time>2021-11-06T14:49:20.981Z</time>
      </trkpt>
      <trkpt lat="47.12478" lon="-1.4544">
        <ele>100.656895</ele>
        <time>2021-11-06T14:49:22.974Z</time>
      </trkpt>
      <trkpt lat="47.12473" lon="-1.45425">
        <ele>100.658902</ele>
        <time>2021-11-06T14:49:24.981Z</time>
      </trkpt>
      <trkpt lat="47.12472" lon="-1.4541">
        <ele>100.660885</ele>
        <time>2021-11-06T14:49:26.981Z</time>
      </trkpt>
      <trkpt lat="47.12473" lon="-1.45395">
        <ele>100.662722</ele>
        <time>2021-11-06T14:49:28.975Z</time>
      </trkpt>
      <trkpt lat="47.12473" lon="-1.4538">
        <ele>100.664671</ele>
        <time>2021-11-06T14:49:30.971Z</time>
      </trkpt>
      <trkpt lat="47.12472" lon="-1.45365">
        <ele>100.666569</ele>
        <time>2021-11-06T14:49:32.972Z</time>
      </trkpt>
      <trkpt lat="47.12471" lon="-1.4535">
        <ele>100.66854</ele>
        <time>2021-11-06T14:49:34.948Z</time>
      </trkpt>
      <trkpt lat="47.1247" lon="-1.45334">
        <ele>100.670527</ele>
        <time>2021-11-06T14:49:36.965Z</time>
      </trkpt>
      <trkpt lat="47.1247" lon="-1.45319">
        <ele>100.672453</ele>
        <time>2021-11-06T14:49:38.970Z</time>
      </trkpt>
      <trkpt lat="47.1247" lon="-1.45305">
        <ele>100.674249</ele>
        <time>2021-11-06T14:49:40.951Z</time>
      </trkpt>
      <trkpt lat="47.12469" lon="-1.4529">
        <ele>100.676179</ele>
        <time>2021-11-06T14:49:43.981Z</time>
      </trkpt>
      <trkpt lat="47.12473" lon="-1.45276">
        <ele>100.678085</ele>
        <time>2021-11-06T14:49:46.949Z</time>
      </trkpt>
      <trkpt lat="47.12483" lon="-1.45271">
        <ele>100.536079</ele>
        <time>2021-11-06T14:49:48.958Z</time>
      </trkpt>
      <trkpt lat="47.12494" lon="-1.45266">
        <ele>100.386487</ele>
        <time>2021-11-06T14:49:50.976Z</time>
      </trkpt>
      <trkpt lat="47.12504" lon="-1.45261">
        <ele>100.238938</ele>
        <time>2021-11-06T14:49:52.963Z</time>
      </trkpt>
      <trkpt lat="47.12515" lon="-1.45257">
        <ele>100.093466</ele>
        <time>2021-11-06T14:49:54.972Z</time>
      </trkpt>
      <trkpt lat="47.12525" lon="-1.45253">
        <ele>99.946155</ele>
        <time>2021-11-06T14:49:56.964Z</time>
      </trkpt>
      <trkpt lat="47.12535" lon="-1.45248">
        <ele>99.802444</ele>
        <time>2021-11-06T14:49:58.967Z</time>
      </trkpt>
      <trkpt lat="47.12546" lon="-1.45243">
        <ele>99.656446</ele>
        <time>2021-11-06T14:50:00.978Z</time>
      </trkpt>
      <trkpt lat="47.12556" lon="-1.45239">
        <ele>99.511724</ele>
        <time>2021-11-06T14:50:02.977Z</time>
      </trkpt>
      <trkpt lat="47.12566" lon="-1.45234">
        <ele>99.369291</ele>
        <time>2021-11-06T14:50:04.967Z</time>
      </trkpt>
      <trkpt lat="47.12576" lon="-1.45229">
        <ele>99.230747</ele>
        <time>2021-11-06T14:50:06.979Z</time>
      </trkpt>
      <trkpt lat="47.12586" lon="-1.45223">
        <ele>99.090768</ele>
        <time>2021-11-06T14:50:08.961Z</time>
      </trkpt>
      <trkpt lat="47.12595" lon="-1.45216">
        <ele>98.948981</ele>
        <time>2021-11-06T14:50:10.952Z</time>
      </trkpt>
      <trkpt lat="47.12604" lon="-1.45209">
        <ele>98.808361</ele>
        <time>2021-11-06T14:50:12.954Z</time>
      </trkpt>
      <trkpt lat="47.12614" lon="-1.45202">
        <ele>98.669386</ele>
        <time>2021-11-06T14:50:14.983Z</time>
      </trkpt>
      <trkpt lat="47.12623" lon="-1.45196">
        <ele>98.527997</ele>
        <time>2021-11-06T14:50:16.991Z</time>
      </trkpt>
      <trkpt lat="47.12632" lon="-1.45189">
        <ele>98.393732</ele>
        <time>2021-11-06T14:50:18.975Z</time>
      </trkpt>
      <trkpt lat="47.1264" lon="-1.4518">
        <ele>98.264698</ele>
        <time>2021-11-06T14:50:20.960Z</time>
      </trkpt>
      <trkpt lat="47.12647" lon="-1.45167">
        <ele>98.268824</ele>
        <time>2021-11-06T14:50:22.965Z</time>
      </trkpt>
      <trkpt lat="47.12652" lon="-1.45154">
        <ele>98.272777</ele>
        <time>2021-11-06T14:50:24.951Z</time>
      </trkpt>
      <trkpt lat="47.12657" lon="-1.45139">
        <ele>98.276854</ele>
        <time>2021-11-06T14:50:26.967Z</time>
      </trkpt>
      <trkpt lat="47.12661" lon="-1.45124">
        <ele>98.280981</ele>
        <time>2021-11-06T14:50:28.966Z</time>
      </trkpt>
      <trkpt lat="47.12665" lon="-1.45108">
        <ele>98.285072</ele>
        <time>2021-11-06T14:50:30.959Z</time>
      </trkpt>
      <trkpt lat="47.12669" lon="-1.45093">
        <ele>98.289148</ele>
        <time>2021-11-06T14:50:32.953Z</time>
      </trkpt>
      <trkpt lat="47.12672" lon="-1.45079">
        <ele>98.293046</ele>
        <time>2021-11-06T14:50:34.981Z</time>
      </trkpt>
      <trkpt lat="47.12676" lon="-1.45065">
        <ele>98.296616</ele>
        <time>2021-11-06T14:50:36.955Z</time>
      </trkpt>
      <trkpt lat="47.12679" lon="-1.45051">
        <ele>98.300371</ele>
        <time>2021-11-06T14:50:40.985Z</time>
      </trkpt>
      <trkpt lat="47.12683" lon="-1.45039">
        <ele>98.303825</ele>
        <time>2021-11-06T14:50:43.970Z</time>
      </trkpt>
      <trkpt lat="47.12687" lon="-1.45023">
        <ele>98.307919</ele>
        <time>2021-11-06T14:50:45.984Z</time>
      </trkpt>
      <trkpt lat="47.12691" lon="-1.45009">
        <ele>98.31188</ele>
        <time>2021-11-06T14:50:47.960Z</time>
      </trkpt>
      <trkpt lat="47.12695" lon="-1.44994">
        <ele>98.315891</ele>
        <time>2021-11-06T14:50:49.960Z</time>
      </trkpt>
      <trkpt lat="47.12699" lon="-1.44979">
        <ele>98.319926</ele>
        <time>2021-11-06T14:50:51.983Z</time>
      </trkpt>
      <trkpt lat="47.12704" lon="-1.44964">
        <ele>98.323957</ele>
        <time>2021-11-06T14:50:53.959Z</time>
      </trkpt>
      <trkpt lat="47.12708" lon="-1.44949">
        <ele>98.328105</ele>
        <time>2021-11-06T14:50:55.979Z</time>
      </trkpt>
      <trkpt lat="47.12711" lon="-1.44933">
        <ele>98.334395</ele>
        <time>2021-11-06T14:50:57.980Z</time>
      </trkpt>
      <trkpt lat="47.12715" lon="-1.44918">
        <ele>98.345836</ele>
        <time>2021-11-06T14:50:59.971Z</time>
      </trkpt>
      <trkpt lat="47.1272" lon="-1.44902">
        <ele>98.357426</ele>
        <time>2021-11-06T14:51:01.960Z</time>
      </trkpt>
      <trkpt lat="47.12724" lon="-1.44887">
        <ele>98.368723</ele>
        <time>2021-11-06T14:51:03.956Z</time>
      </trkpt>
      <trkpt lat="47.12728" lon="-1.44871">
        <ele>98.380429</ele>
        <time>2021-11-06T14:51:05.989Z</time>
      </trkpt>
      <trkpt lat="47.12732" lon="-1.44856">
        <ele>98.391667</ele>
        <time>2021-11-06T14:51:07.979Z</time>
      </trkpt>
      <trkpt lat="47.12735" lon="-1.44841">
        <ele>98.402694</ele>
        <time>2021-11-06T14:51:09.948Z</time>
      </trkpt>
      <trkpt lat="47.12736" lon="-1.44824">
        <ele>98.414195</ele>
        <time>2021-11-06T14:51:11.980Z</time>
      </trkpt>
      <trkpt lat="47.12734" lon="-1.44807">
        <ele>98.426033</ele>
        <time>2021-11-06T14:51:13.953Z</time>
      </trkpt>
      <trkpt lat="47.12731" lon="-1.4479">
        <ele>98.437946</ele>
        <time>2021-11-06T14:51:15.962Z</time>
      </trkpt>
      <trkpt lat="47.12728" lon="-1.44774">
        <ele>98.449892</ele>
        <time>2021-11-06T14:51:17.979Z</time>
      </trkpt>
      <trkpt lat="47.12726" lon="-1.44756">
        <ele>98.462057</ele>
        <time>2021-11-06T14:51:19.978Z</time>
      </trkpt>
      <trkpt lat="47.12723" lon="-1.44738">
        <ele>98.474621</ele>
        <time>2021-11-06T14:51:21.975Z</time>
      </trkpt>
      <trkpt lat="47.1272" lon="-1.44721">
        <ele>98.486759</ele>
        <time>2021-11-06T14:51:23.957Z</time>
      </trkpt>
      <trkpt lat="47.12718" lon="-1.44704">
        <ele>98.498672</ele>
        <time>2021-11-06T14:51:25.979Z</time>
      </trkpt>
      <trkpt lat="47.12715" lon="-1.44687">
        <ele>98.510634</ele>
        <time>2021-11-06T14:51:27.974Z</time>
      </trkpt>
      <trkpt lat="47.12713" lon="-1.44671">
        <ele>98.384641</ele>
        <time>2021-11-06T14:51:29.980Z</time>
      </trkpt>
      <trkpt lat="47.1271" lon="-1.44653">
        <ele>98.212682</ele>
        <time>2021-11-06T14:51:31.991Z</time>
      </trkpt>
      <trkpt lat="47.12708" lon="-1.44636">
        <ele>98.040728</ele>
        <time>2021-11-06T14:51:33.979Z</time>
      </trkpt>
      <trkpt lat="47.12705" lon="-1.44619">
        <ele>97.866548</ele>
        <time>2021-11-06T14:51:35.971Z</time>
      </trkpt>
      <trkpt lat="47.12702" lon="-1.44602">
        <ele>97.696142</ele>
        <time>2021-11-06T14:51:37.978Z</time>
      </trkpt>
      <trkpt lat="47.12699" lon="-1.44584">
        <ele>97.52483</ele>
        <time>2021-11-06T14:51:39.982Z</time>
      </trkpt>
      <trkpt lat="47.12697" lon="-1.44567">
        <ele>97.354666</ele>
        <time>2021-11-06T14:51:42.000Z</time>
      </trkpt>
      <trkpt lat="47.12695" lon="-1.4455">
        <ele>97.184048</ele>
        <time>2021-11-06T14:51:43.984Z</time>
      </trkpt>
      <trkpt lat="47.12692" lon="-1.44533">
        <ele>97.010106</ele>
        <time>2021-11-06T14:51:45.986Z</time>
      </trkpt>
      <trkpt lat="47.12689" lon="-1.44515">
        <ele>96.838438</ele>
        <time>2021-11-06T14:51:47.966Z</time>
      </trkpt>
      <trkpt lat="47.12688" lon="-1.44499">
        <ele>96.674257</ele>
        <time>2021-11-06T14:51:49.966Z</time>
      </trkpt>
      <trkpt lat="47.12686" lon="-1.44482">
        <ele>96.50867</ele>
        <time>2021-11-06T14:51:51.979Z</time>
      </trkpt>
      <trkpt lat="47.12684" lon="-1.44466">
        <ele>96.349543</ele>
        <time>2021-11-06T14:51:53.953Z</time>
      </trkpt>
      <trkpt lat="47.12682" lon="-1.44451">
        <ele>96.199532</ele>
        <time>2021-11-06T14:51:55.959Z</time>
      </trkpt>
      <trkpt lat="47.12681" lon="-1.44437">
        <ele>96.061734</ele>
        <time>2021-11-06T14:51:57.947Z</time>
      </trkpt>
      <trkpt lat="47.12678" lon="-1.4442">
        <ele>95.947401</ele>
        <time>2021-11-06T14:52:00.946Z</time>
      </trkpt>
      <trkpt lat="47.12676" lon="-1.44403">
        <ele>95.964043</ele>
        <time>2021-11-06T14:52:03.966Z</time>
      </trkpt>
      <trkpt lat="47.12675" lon="-1.44386">
        <ele>95.980202</ele>
        <time>2021-11-06T14:52:06.950Z</time>
      </trkpt>
      <trkpt lat="47.12677" lon="-1.4437">
        <ele>95.99547</ele>
        <time>2021-11-06T14:52:11.379Z</time>
      </trkpt>
      <trkpt lat="47.12675" lon="-1.44353">
        <ele>96.01166</ele>
        <time>2021-11-06T14:52:14.513Z</time>
      </trkpt>
      <trkpt lat="47.12675" lon="-1.44335">
        <ele>96.029214</ele>
        <time>2021-11-06T14:52:16.966Z</time>
      </trkpt>
      <trkpt lat="47.12676" lon="-1.44319">
        <ele>96.043963</ele>
        <time>2021-11-06T14:52:18.968Z</time>
      </trkpt>
      <trkpt lat="47.12677" lon="-1.44304">
        <ele>96.058775</ele>
        <time>2021-11-06T14:52:20.980Z</time>
      </trkpt>
      <trkpt lat="47.12677" lon="-1.44288">
        <ele>96.073878</ele>
        <time>2021-11-06T14:52:22.959Z</time>
      </trkpt>
      <trkpt lat="47.12678" lon="-1.44272">
        <ele>96.089005</ele>
        <time>2021-11-06T14:52:24.980Z</time>
      </trkpt>
      <trkpt lat="47.12679" lon="-1.44256">
        <ele>96.104156</ele>
        <time>2021-11-06T14:52:26.980Z</time>
      </trkpt>
      <trkpt lat="47.12679" lon="-1.4424">
        <ele>96.119361</ele>
        <time>2021-11-06T14:52:28.955Z</time>
      </trkpt>
      <trkpt lat="47.1268" lon="-1.44225">
        <ele>96.134074</ele>
        <time>2021-11-06T14:52:30.971Z</time>
      </trkpt>
      <trkpt lat="47.1268" lon="-1.4421">
        <ele>96.147927</ele>
        <time>2021-11-06T14:52:32.962Z</time>
      </trkpt>
      <trkpt lat="47.12678" lon="-1.44195">
        <ele>96.162651</ele>
        <time>2021-11-06T14:52:34.980Z</time>
      </trkpt>
      <trkpt lat="47.12677" lon="-1.44179">
        <ele>96.177506</ele>
        <time>2021-11-06T14:52:36.978Z</time>
      </trkpt>
      <trkpt lat="47.12675" lon="-1.44164">
        <ele>96.192309</ele>
        <time>2021-11-06T14:52:38.984Z</time>
      </trkpt>
      <trkpt lat="47.12673" lon="-1.44148">
        <ele>96.422596</ele>
        <time>2021-11-06T14:52:40.980Z</time>
      </trkpt>
      <trkpt lat="47.1267" lon="-1.44133">
        <ele>96.679585</ele>
        <time>2021-11-06T14:52:42.977Z</time>
      </trkpt>
      <trkpt lat="47.12667" lon="-1.44118">
        <ele>96.931856</ele>
        <time>2021-11-06T14:52:44.966Z</time>
      </trkpt>
      <trkpt lat="47.12665" lon="-1.44103">
        <ele>97.185557</ele>
        <time>2021-11-06T14:52:46.961Z</time>
      </trkpt>
      <trkpt lat="47.12662" lon="-1.44088">
        <ele>97.430336</ele>
        <time>2021-11-06T14:52:48.982Z</time>
      </trkpt>
      <trkpt lat="47.12659" lon="-1.44074">
        <ele>97.675192</ele>
        <time>2021-11-06T14:52:50.953Z</time>
      </trkpt>
      <trkpt lat="47.12657" lon="-1.44059">
        <ele>97.924951</ele>
        <time>2021-11-06T14:52:52.970Z</time>
      </trkpt>
      <trkpt lat="47.12654" lon="-1.44044">
        <ele>98.171898</ele>
        <time>2021-11-06T14:52:54.964Z</time>
      </trkpt>
      <trkpt lat="47.12651" lon="-1.4403">
        <ele>98.418846</ele>
        <time>2021-11-06T14:52:56.981Z</time>
      </trkpt>
      <trkpt lat="47.12649" lon="-1.44015">
        <ele>98.661474</ele>
        <time>2021-11-06T14:52:58.995Z</time>
      </trkpt>
      <trkpt lat="47.12646" lon="-1.44">
        <ele>98.912566</ele>
        <time>2021-11-06T14:53:01.003Z</time>
      </trkpt>
      <trkpt lat="47.12644" lon="-1.43986">
        <ele>99.156224</ele>
        <time>2021-11-06T14:53:02.976Z</time>
      </trkpt>
      <trkpt lat="47.12641" lon="-1.43972">
        <ele>99.395038</ele>
        <time>2021-11-06T14:53:04.958Z</time>
      </trkpt>
      <trkpt lat="47.12639" lon="-1.43957">
        <ele>99.63553</ele>
        <time>2021-11-06T14:53:06.959Z</time>
      </trkpt>
      <trkpt lat="47.12637" lon="-1.43943">
        <ele>99.874485</ele>
        <time>2021-11-06T14:53:08.965Z</time>
      </trkpt>
      <trkpt lat="47.12634" lon="-1.43929">
        <ele>100.111581</ele>
        <time>2021-11-06T14:53:10.964Z</time>
      </trkpt>
      <trkpt lat="47.12631" lon="-1.43915">
        <ele>100.3491</ele>
        <time>2021-11-06T14:53:12.959Z</time>
      </trkpt>
      <trkpt lat="47.12629" lon="-1.43901">
        <ele>100.560229</ele>
        <time>2021-11-06T14:53:14.971Z</time>
      </trkpt>
      <trkpt lat="47.12626" lon="-1.43887">
        <ele>100.732781</ele>
        <time>2021-11-06T14:53:16.988Z</time>
      </trkpt>
      <trkpt lat="47.12623" lon="-1.43866">
        <ele>100.984156</ele>
        <time>2021-11-06T14:53:19.973Z</time>
      </trkpt>
      <trkpt lat="47.1262" lon="-1.43851">
        <ele>101.177275</ele>
        <time>2021-11-06T14:53:21.975Z</time>
      </trkpt>
      <trkpt lat="47.12619" lon="-1.43836">
        <ele>101.360199</ele>
        <time>2021-11-06T14:53:23.959Z</time>
      </trkpt>
      <trkpt lat="47.12618" lon="-1.43821">
        <ele>101.530648</ele>
        <time>2021-11-06T14:53:25.964Z</time>
      </trkpt>
      <trkpt lat="47.12617" lon="-1.43807">
        <ele>101.703476</ele>
        <time>2021-11-06T14:53:27.981Z</time>
      </trkpt>
      <trkpt lat="47.12614" lon="-1.43788">
        <ele>101.936996</ele>
        <time>2021-11-06T14:53:30.968Z</time>
      </trkpt>
      <trkpt lat="47.12612" lon="-1.43774">
        <ele>102.10563</ele>
        <time>2021-11-06T14:53:32.968Z</time>
      </trkpt>
      <trkpt lat="47.1261" lon="-1.4376">
        <ele>102.277422</ele>
        <time>2021-11-06T14:53:34.980Z</time>
      </trkpt>
      <trkpt lat="47.12608" lon="-1.43746">
        <ele>102.445627</ele>
        <time>2021-11-06T14:53:36.966Z</time>
      </trkpt>
      <trkpt lat="47.12607" lon="-1.43732">
        <ele>102.612681</ele>
        <time>2021-11-06T14:53:38.984Z</time>
      </trkpt>
      <trkpt lat="47.12607" lon="-1.43718">
        <ele>102.777764</ele>
        <time>2021-11-06T14:53:40.964Z</time>
      </trkpt>
      <trkpt lat="47.12606" lon="-1.43705">
        <ele>102.939723</ele>
        <time>2021-11-06T14:53:42.977Z</time>
      </trkpt>
      <trkpt lat="47.12606" lon="-1.43691">
        <ele>103.102608</ele>
        <time>2021-11-06T14:53:44.971Z</time>
      </trkpt>
      <trkpt lat="47.12606" lon="-1.43678">
        <ele>103.26755</ele>
        <time>2021-11-06T14:53:46.979Z</time>
      </trkpt>
      <trkpt lat="47.12606" lon="-1.43664">
        <ele>103.429137</ele>
        <time>2021-11-06T14:53:48.970Z</time>
      </trkpt>
      <trkpt lat="47.12606" lon="-1.4365">
        <ele>103.595303</ele>
        <time>2021-11-06T14:53:50.973Z</time>
      </trkpt>
      <trkpt lat="47.12607" lon="-1.43636">
        <ele>103.686127</ele>
        <time>2021-11-06T14:53:52.978Z</time>
      </trkpt>
      <trkpt lat="47.12608" lon="-1.43622">
        <ele>103.739533</ele>
        <time>2021-11-06T14:53:54.969Z</time>
      </trkpt>
      <trkpt lat="47.12609" lon="-1.43608">
        <ele>103.791727</ele>
        <time>2021-11-06T14:53:56.996Z</time>
      </trkpt>
      <trkpt lat="47.12611" lon="-1.43594">
        <ele>103.845199</ele>
        <time>2021-11-06T14:53:58.980Z</time>
      </trkpt>
      <trkpt lat="47.12612" lon="-1.43579">
        <ele>103.898727</ele>
        <time>2021-11-06T14:54:00.982Z</time>
      </trkpt>
      <trkpt lat="47.12613" lon="-1.43565">
        <ele>103.954166</ele>
        <time>2021-11-06T14:54:02.990Z</time>
      </trkpt>
      <trkpt lat="47.12614" lon="-1.4355">
        <ele>104.009368</ele>
        <time>2021-11-06T14:54:04.977Z</time>
      </trkpt>
      <trkpt lat="47.12615" lon="-1.43535">
        <ele>104.065417</ele>
        <time>2021-11-06T14:54:06.977Z</time>
      </trkpt>
      <trkpt lat="47.12616" lon="-1.4352">
        <ele>104.121314</ele>
        <time>2021-11-06T14:54:08.979Z</time>
      </trkpt>
      <trkpt lat="47.12618" lon="-1.43505">
        <ele>104.176458</ele>
        <time>2021-11-06T14:54:10.960Z</time>
      </trkpt>
      <trkpt lat="47.12619" lon="-1.43491">
        <ele>104.230423</ele>
        <time>2021-11-06T14:54:12.982Z</time>
      </trkpt>
      <trkpt lat="47.1262" lon="-1.43477">
        <ele>104.28278</ele>
        <time>2021-11-06T14:54:14.962Z</time>
      </trkpt>
      <trkpt lat="47.12621" lon="-1.43463">
        <ele>104.335816</ele>
        <time>2021-11-06T14:54:16.971Z</time>
      </trkpt>
      <trkpt lat="47.12622" lon="-1.43449">
        <ele>104.387004</ele>
        <time>2021-11-06T14:54:18.986Z</time>
      </trkpt>
      <trkpt lat="47.12623" lon="-1.43435">
        <ele>104.438471</ele>
        <time>2021-11-06T14:54:20.966Z</time>
      </trkpt>
      <trkpt lat="47.12624" lon="-1.43421">
        <ele>104.48972</ele>
        <time>2021-11-06T14:54:22.958Z</time>
      </trkpt>
      <trkpt lat="47.12626" lon="-1.43407">
        <ele>104.543986</ele>
        <time>2021-11-06T14:54:24.963Z</time>
      </trkpt>
      <trkpt lat="47.12627" lon="-1.43393">
        <ele>104.596282</ele>
        <time>2021-11-06T14:54:26.964Z</time>
      </trkpt>
      <trkpt lat="47.12628" lon="-1.43379">
        <ele>104.643759</ele>
        <time>2021-11-06T14:54:28.957Z</time>
      </trkpt>
      <trkpt lat="47.12629" lon="-1.43365">
        <ele>104.676477</ele>
        <time>2021-11-06T14:54:30.968Z</time>
      </trkpt>
      <trkpt lat="47.1263" lon="-1.4335">
        <ele>104.710549</ele>
        <time>2021-11-06T14:54:32.986Z</time>
      </trkpt>
      <trkpt lat="47.12632" lon="-1.43336">
        <ele>104.744255</ele>
        <time>2021-11-06T14:54:34.970Z</time>
      </trkpt>
      <trkpt lat="47.12635" lon="-1.43321">
        <ele>104.778952</ele>
        <time>2021-11-06T14:54:36.974Z</time>
      </trkpt>
      <trkpt lat="47.12638" lon="-1.43307">
        <ele>104.812543</ele>
        <time>2021-11-06T14:54:38.977Z</time>
      </trkpt>
      <trkpt lat="47.12642" lon="-1.43294">
        <ele>104.845009</ele>
        <time>2021-11-06T14:54:40.975Z</time>
      </trkpt>
      <trkpt lat="47.12646" lon="-1.43281">
        <ele>104.87844</ele>
        <time>2021-11-06T14:54:42.975Z</time>
      </trkpt>
      <trkpt lat="47.1265" lon="-1.43268">
        <ele>104.912082</ele>
        <time>2021-11-06T14:54:44.962Z</time>
      </trkpt>
      <trkpt lat="47.12654" lon="-1.43254">
        <ele>104.946041</ele>
        <time>2021-11-06T14:54:46.967Z</time>
      </trkpt>
      <trkpt lat="47.12655" lon="-1.43239">
        <ele>104.980968</ele>
        <time>2021-11-06T14:54:48.945Z</time>
      </trkpt>
      <trkpt lat="47.12655" lon="-1.43224">
        <ele>105.01718</ele>
        <time>2021-11-06T14:54:50.946Z</time>
      </trkpt>
      <trkpt lat="47.12653" lon="-1.43209">
        <ele>105.052082</ele>
        <time>2021-11-06T14:54:52.945Z</time>
      </trkpt>
      <trkpt lat="47.12649" lon="-1.43195">
        <ele>105.08678</ele>
        <time>2021-11-06T14:54:54.956Z</time>
      </trkpt>
      <trkpt lat="47.12645" lon="-1.43181">
        <ele>105.121722</ele>
        <time>2021-11-06T14:54:56.955Z</time>
      </trkpt>
      <trkpt lat="47.12641" lon="-1.43164">
        <ele>105.161861</ele>
        <time>2021-11-06T14:54:58.937Z</time>
      </trkpt>
      <trkpt lat="47.12637" lon="-1.4315">
        <ele>105.197952</ele>
        <time>2021-11-06T14:55:00.970Z</time>
      </trkpt>
      <trkpt lat="47.12632" lon="-1.43137">
        <ele>105.231351</ele>
        <time>2021-11-06T14:55:02.982Z</time>
      </trkpt>
      <trkpt lat="47.12627" lon="-1.43125">
        <ele>105.273915</ele>
        <time>2021-11-06T14:55:04.955Z</time>
      </trkpt>
      <trkpt lat="47.12622" lon="-1.43112">
        <ele>105.322952</ele>
        <time>2021-11-06T14:55:06.955Z</time>
      </trkpt>
      <trkpt lat="47.12616" lon="-1.43099">
        <ele>105.371736</ele>
        <time>2021-11-06T14:55:08.979Z</time>
      </trkpt>
      <trkpt lat="47.12611" lon="-1.43087">
        <ele>105.419169</ele>
        <time>2021-11-06T14:55:10.971Z</time>
      </trkpt>
      <trkpt lat="47.12605" lon="-1.43074">
        <ele>105.467932</ele>
        <time>2021-11-06T14:55:12.943Z</time>
      </trkpt>
      <trkpt lat="47.126" lon="-1.43061">
        <ele>105.518346</ele>
        <time>2021-11-06T14:55:14.972Z</time>
      </trkpt>
      <trkpt lat="47.12594" lon="-1.43047">
        <ele>105.570362</ele>
        <time>2021-11-06T14:55:16.972Z</time>
      </trkpt>
      <trkpt lat="47.12589" lon="-1.43033">
        <ele>105.621853</ele>
        <time>2021-11-06T14:55:18.961Z</time>
      </trkpt>
      <trkpt lat="47.12583" lon="-1.43019">
        <ele>105.676024</ele>
        <time>2021-11-06T14:55:20.959Z</time>
      </trkpt>
      <trkpt lat="47.12577" lon="-1.43005">
        <ele>105.729672</ele>
        <time>2021-11-06T14:55:22.971Z</time>
      </trkpt>
      <trkpt lat="47.12571" lon="-1.42991">
        <ele>105.781476</ele>
        <time>2021-11-06T14:55:24.939Z</time>
      </trkpt>
      <trkpt lat="47.12566" lon="-1.42978">
        <ele>105.830883</ele>
        <time>2021-11-06T14:55:26.968Z</time>
      </trkpt>
      <trkpt lat="47.1256" lon="-1.42965">
        <ele>105.880697</ele>
        <time>2021-11-06T14:55:28.966Z</time>
      </trkpt>
      <trkpt lat="47.12554" lon="-1.42952">
        <ele>105.93266</ele>
        <time>2021-11-06T14:55:30.972Z</time>
      </trkpt>
      <trkpt lat="47.12547" lon="-1.42939">
        <ele>105.985228</ele>
        <time>2021-11-06T14:55:32.968Z</time>
      </trkpt>
      <trkpt lat="47.12541" lon="-1.42925">
        <ele>106.039616</ele>
        <time>2021-11-06T14:55:34.960Z</time>
      </trkpt>
      <trkpt lat="47.12534" lon="-1.42912">
        <ele>106.093764</ele>
        <time>2021-11-06T14:55:36.975Z</time>
      </trkpt>
      <trkpt lat="47.12528" lon="-1.42898">
        <ele>106.077855</ele>
        <time>2021-11-06T14:55:38.992Z</time>
      </trkpt>
      <trkpt lat="47.12521" lon="-1.42885">
        <ele>106.0538</ele>
        <time>2021-11-06T14:55:40.956Z</time>
      </trkpt>
      <trkpt lat="47.12514" lon="-1.42871">
        <ele>106.029736</ele>
        <time>2021-11-06T14:55:42.996Z</time>
      </trkpt>
      <trkpt lat="47.12507" lon="-1.42857">
        <ele>106.005692</ele>
        <time>2021-11-06T14:55:44.965Z</time>
      </trkpt>
      <trkpt lat="47.12501" lon="-1.42844">
        <ele>105.982455</ele>
        <time>2021-11-06T14:55:46.969Z</time>
      </trkpt>
      <trkpt lat="47.12494" lon="-1.42831">
        <ele>105.959447</ele>
        <time>2021-11-06T14:55:48.980Z</time>
      </trkpt>
      <trkpt lat="47.12487" lon="-1.42818">
        <ele>105.936074</ele>
        <time>2021-11-06T14:55:50.994Z</time>
      </trkpt>
      <trkpt lat="47.12481" lon="-1.42805">
        <ele>105.913082</ele>
        <time>2021-11-06T14:55:52.980Z</time>
      </trkpt>
      <trkpt lat="47.12474" lon="-1.42791">
        <ele>105.889616</ele>
        <time>2021-11-06T14:55:54.992Z</time>
      </trkpt>
      <trkpt lat="47.12468" lon="-1.42778">
        <ele>105.866624</ele>
        <time>2021-11-06T14:55:56.979Z</time>
      </trkpt>
      <trkpt lat="47.12462" lon="-1.42764">
        <ele>105.843131</ele>
        <time>2021-11-06T14:55:58.973Z</time>
      </trkpt>
      <trkpt lat="47.12457" lon="-1.42748">
        <ele>105.818112</ele>
        <time>2021-11-06T14:56:00.980Z</time>
      </trkpt>
      <trkpt lat="47.12453" lon="-1.42731">
        <ele>105.793066</ele>
        <time>2021-11-06T14:56:02.979Z</time>
      </trkpt>
      <trkpt lat="47.12451" lon="-1.42714">
        <ele>105.768314</ele>
        <time>2021-11-06T14:56:04.965Z</time>
      </trkpt>
      <trkpt lat="47.12451" lon="-1.42696">
        <ele>105.743347</ele>
        <time>2021-11-06T14:56:06.956Z</time>
      </trkpt>
      <trkpt lat="47.12452" lon="-1.42679">
        <ele>105.740078</ele>
        <time>2021-11-06T14:56:08.969Z</time>
      </trkpt>
      <trkpt lat="47.12453" lon="-1.42661">
        <ele>105.809189</ele>
        <time>2021-11-06T14:56:10.976Z</time>
      </trkpt>
      <trkpt lat="47.12454" lon="-1.42643">
        <ele>105.879015</ele>
        <time>2021-11-06T14:56:12.945Z</time>
      </trkpt>
      <trkpt lat="47.12455" lon="-1.42626">
        <ele>105.947946</ele>
        <time>2021-11-06T14:56:14.979Z</time>
      </trkpt>
      <trkpt lat="47.12456" lon="-1.42608">
        <ele>106.016623</ele>
        <time>2021-11-06T14:56:16.966Z</time>
      </trkpt>
      <trkpt lat="47.12455" lon="-1.42591">
        <ele>106.084107</ele>
        <time>2021-11-06T14:56:18.976Z</time>
      </trkpt>
      <trkpt lat="47.12455" lon="-1.42574">
        <ele>106.151768</ele>
        <time>2021-11-06T14:56:20.969Z</time>
      </trkpt>
      <trkpt lat="47.12454" lon="-1.42557">
        <ele>106.219351</ele>
        <time>2021-11-06T14:56:22.984Z</time>
      </trkpt>
      <trkpt lat="47.12453" lon="-1.4254">
        <ele>106.287012</ele>
        <time>2021-11-06T14:56:24.986Z</time>
      </trkpt>
      <trkpt lat="47.12453" lon="-1.42523">
        <ele>106.354121</ele>
        <time>2021-11-06T14:56:26.965Z</time>
      </trkpt>
      <trkpt lat="47.12452" lon="-1.42506">
        <ele>106.420497</ele>
        <time>2021-11-06T14:56:28.982Z</time>
      </trkpt>
      <trkpt lat="47.12451" lon="-1.42489">
        <ele>106.487032</ele>
        <time>2021-11-06T14:56:30.976Z</time>
      </trkpt>
      <trkpt lat="47.12449" lon="-1.42472">
        <ele>106.554657</ele>
        <time>2021-11-06T14:56:32.992Z</time>
      </trkpt>
      <trkpt lat="47.12448" lon="-1.42456">
        <ele>106.618173</ele>
        <time>2021-11-06T14:56:34.979Z</time>
      </trkpt>
      <trkpt lat="47.12446" lon="-1.4244">
        <ele>106.68066</ele>
        <time>2021-11-06T14:56:36.960Z</time>
      </trkpt>
      <trkpt lat="47.12443" lon="-1.42423">
        <ele>106.747739</ele>
        <time>2021-11-06T14:56:38.965Z</time>
      </trkpt>
      <trkpt lat="47.1244" lon="-1.42407">
        <ele>106.616634</ele>
        <time>2021-11-06T14:56:40.972Z</time>
      </trkpt>
      <trkpt lat="47.12437" lon="-1.4239">
        <ele>106.434858</ele>
        <time>2021-11-06T14:56:42.950Z</time>
      </trkpt>
      <trkpt lat="47.12433" lon="-1.42373">
        <ele>106.254247</ele>
        <time>2021-11-06T14:56:44.989Z</time>
      </trkpt>
      <trkpt lat="47.12426" lon="-1.42358">
        <ele>106.071585</ele>
        <time>2021-11-06T14:56:46.953Z</time>
      </trkpt>
      <trkpt lat="47.12425" lon="-1.42341">
        <ele>105.890358</ele>
        <time>2021-11-06T14:56:48.963Z</time>
      </trkpt>
      <trkpt lat="47.12424" lon="-1.42322">
        <ele>105.69629</ele>
        <time>2021-11-06T14:56:50.989Z</time>
      </trkpt>
      <trkpt lat="47.1242" lon="-1.42304">
        <ele>105.497145</ele>
        <time>2021-11-06T14:56:52.974Z</time>
      </trkpt>
      <trkpt lat="47.12416" lon="-1.42286">
        <ele>105.29984</ele>
        <time>2021-11-06T14:56:54.957Z</time>
      </trkpt>
      <trkpt lat="47.12411" lon="-1.42269">
        <ele>105.105543</ele>
        <time>2021-11-06T14:56:56.990Z</time>
      </trkpt>
      <trkpt lat="47.12407" lon="-1.42251">
        <ele>104.913073</ele>
        <time>2021-11-06T14:56:58.958Z</time>
      </trkpt>
      <trkpt lat="47.12403" lon="-1.42234">
        <ele>104.720283</ele>
        <time>2021-11-06T14:57:00.977Z</time>
      </trkpt>
      <trkpt lat="47.12399" lon="-1.42216">
        <ele>104.528478</ele>
        <time>2021-11-06T14:57:02.978Z</time>
      </trkpt>
      <trkpt lat="47.12395" lon="-1.42199">
        <ele>104.336649</ele>
        <time>2021-11-06T14:57:04.963Z</time>
      </trkpt>
      <trkpt lat="47.12391" lon="-1.42181">
        <ele>104.141416</ele>
        <time>2021-11-06T14:57:06.976Z</time>
      </trkpt>
      <trkpt lat="47.12387" lon="-1.42164">
        <ele>104.005777</ele>
        <time>2021-11-06T14:57:08.997Z</time>
      </trkpt>
      <trkpt lat="47.12383" lon="-1.42147">
        <ele>103.961605</ele>
        <time>2021-11-06T14:57:10.939Z</time>
      </trkpt>
      <trkpt lat="47.12378" lon="-1.42131">
        <ele>103.915556</ele>
        <time>2021-11-06T14:57:12.949Z</time>
      </trkpt>
      <trkpt lat="47.12371" lon="-1.42115">
        <ele>103.868497</ele>
        <time>2021-11-06T14:57:14.976Z</time>
      </trkpt>
      <trkpt lat="47.12362" lon="-1.42101">
        <ele>103.820588</ele>
        <time>2021-11-06T14:57:16.960Z</time>
      </trkpt>
      <trkpt lat="47.12354" lon="-1.42088">
        <ele>103.772547</ele>
        <time>2021-11-06T14:57:18.974Z</time>
      </trkpt>
      <trkpt lat="47.12345" lon="-1.42074">
        <ele>103.725501</ele>
        <time>2021-11-06T14:57:20.967Z</time>
      </trkpt>
      <trkpt lat="47.12337" lon="-1.42061">
        <ele>103.680351</ele>
        <time>2021-11-06T14:57:22.966Z</time>
      </trkpt>
      <trkpt lat="47.12341" lon="-1.42049">
        <ele>103.645587</ele>
        <time>2021-11-06T14:57:27.952Z</time>
      </trkpt>
      <trkpt lat="47.12353" lon="-1.42042">
        <ele>103.597449</ele>
        <time>2021-11-06T14:57:30.988Z</time>
      </trkpt>
      <trkpt lat="47.12364" lon="-1.42035">
        <ele>103.555297</ele>
        <time>2021-11-06T14:57:32.979Z</time>
      </trkpt>
      <trkpt lat="47.12374" lon="-1.42026">
        <ele>103.510753</ele>
        <time>2021-11-06T14:57:34.973Z</time>
      </trkpt>
      <trkpt lat="47.12383" lon="-1.42016">
        <ele>103.468473</ele>
        <time>2021-11-06T14:57:36.947Z</time>
      </trkpt>
      <trkpt lat="47.12392" lon="-1.42005">
        <ele>103.42563</ele>
        <time>2021-11-06T14:57:38.959Z</time>
      </trkpt>
      <trkpt lat="47.124" lon="-1.41995">
        <ele>103.38503</ele>
        <time>2021-11-06T14:57:40.952Z</time>
      </trkpt>
      <trkpt lat="47.12408" lon="-1.41984">
        <ele>103.262705</ele>
        <time>2021-11-06T14:57:42.977Z</time>
      </trkpt>
      <trkpt lat="47.12416" lon="-1.41971">
        <ele>102.697924</ele>
        <time>2021-11-06T14:57:44.989Z</time>
      </trkpt>
      <trkpt lat="47.12423" lon="-1.41957">
        <ele>102.091828</ele>
        <time>2021-11-06T14:57:46.979Z</time>
      </trkpt>
      <trkpt lat="47.12432" lon="-1.41943">
        <ele>101.432613</ele>
        <time>2021-11-06T14:57:48.959Z</time>
      </trkpt>
      <trkpt lat="47.12442" lon="-1.4193">
        <ele>100.781972</ele>
        <time>2021-11-06T14:57:50.976Z</time>
      </trkpt>
      <trkpt lat="47.12452" lon="-1.41918">
        <ele>100.117605</ele>
        <time>2021-11-06T14:57:52.979Z</time>
      </trkpt>
      <trkpt lat="47.1246" lon="-1.41909">
        <ele>99.622585</ele>
        <time>2021-11-06T14:57:55.004Z</time>
      </trkpt>
      <trkpt lat="47.12457" lon="-1.41893">
        <ele>99.071192</ele>
        <time>2021-11-06T14:57:59.950Z</time>
      </trkpt>
      <trkpt lat="47.12448" lon="-1.41884">
        <ele>98.519918</ele>
        <time>2021-11-06T14:58:02.989Z</time>
      </trkpt>
      <trkpt lat="47.12442" lon="-1.41872">
        <ele>98.033052</ele>
        <time>2021-11-06T14:58:05.897Z</time>
      </trkpt>
      <trkpt lat="47.12435" lon="-1.41858">
        <ele>97.427384</ele>
        <time>2021-11-06T14:58:07.983Z</time>
      </trkpt>
      <trkpt lat="47.12433" lon="-1.41845">
        <ele>96.97634</ele>
        <time>2021-11-06T14:58:10.519Z</time>
      </trkpt>
      <trkpt lat="47.12427" lon="-1.41833">
        <ele>96.452627</ele>
        <time>2021-11-06T14:58:43.957Z</time>
      </trkpt>
      <trkpt lat="47.1242" lon="-1.41823">
        <ele>95.990781</ele>
        <time>2021-11-06T14:58:54.733Z</time>
      </trkpt>
      <trkpt lat="47.12437" lon="-1.41858">
        <ele>94.560819</ele>
        <time>2021-11-06T15:00:47.092Z</time>
      </trkpt>
      <trkpt lat="47.12434" lon="-1.41871">
        <ele>94.581851</ele>
        <time>2021-11-06T15:02:52.640Z</time>
      </trkpt>
      <trkpt lat="47.12441" lon="-1.4188">
        <ele>94.864757</ele>
        <time>2021-11-06T15:02:54.987Z</time>
      </trkpt>
      <trkpt lat="47.12451" lon="-1.41886">
        <ele>95.157862</ele>
        <time>2021-11-06T15:02:57.463Z</time>
      </trkpt>
      <trkpt lat="47.12459" lon="-1.41892">
        <ele>95.42323</ele>
        <time>2021-11-06T15:02:59.876Z</time>
      </trkpt>
      <trkpt lat="47.12465" lon="-1.41903">
        <ele>95.719409</ele>
        <time>2021-11-06T15:03:02.973Z</time>
      </trkpt>
      <trkpt lat="47.12472" lon="-1.41913">
        <ele>95.992526</ele>
        <time>2021-11-06T15:03:05.582Z</time>
      </trkpt>
      <trkpt lat="47.12477" lon="-1.41926">
        <ele>96.298757</ele>
        <time>2021-11-06T15:03:08.445Z</time>
      </trkpt>
      <trkpt lat="47.12483" lon="-1.41939">
        <ele>96.601764</ele>
        <time>2021-11-06T15:03:11.657Z</time>
      </trkpt>
      <trkpt lat="47.12491" lon="-1.41947">
        <ele>96.883322</ele>
        <time>2021-11-06T15:03:16.522Z</time>
      </trkpt>
      <trkpt lat="47.12497" lon="-1.41958">
        <ele>97.168239</ele>
        <time>2021-11-06T15:03:22.448Z</time>
      </trkpt>
      <trkpt lat="47.12503" lon="-1.4197">
        <ele>97.469769</ele>
        <time>2021-11-06T15:03:25.950Z</time>
      </trkpt>
      <trkpt lat="47.12511" lon="-1.4198">
        <ele>97.760191</ele>
        <time>2021-11-06T15:03:28.607Z</time>
      </trkpt>
      <trkpt lat="47.12521" lon="-1.41993">
        <ele>98.158088</ele>
        <time>2021-11-06T15:03:31.818Z</time>
      </trkpt>
      <trkpt lat="47.1253" lon="-1.42009">
        <ele>98.570703</ele>
        <time>2021-11-06T15:03:34.954Z</time>
      </trkpt>
      <trkpt lat="47.12539" lon="-1.4202">
        <ele>98.908339</ele>
        <time>2021-11-06T15:03:37.504Z</time>
      </trkpt>
      <trkpt lat="47.12545" lon="-1.4203">
        <ele>99.179181</ele>
        <time>2021-11-06T15:03:39.642Z</time>
      </trkpt>
      <trkpt lat="47.12551" lon="-1.42043">
        <ele>99.498396</ele>
        <time>2021-11-06T15:03:41.965Z</time>
      </trkpt>
      <trkpt lat="47.12557" lon="-1.42054">
        <ele>99.750344</ele>
        <time>2021-11-06T15:03:43.948Z</time>
      </trkpt>
      <trkpt lat="47.12563" lon="-1.42065">
        <ele>99.99333</ele>
        <time>2021-11-06T15:03:46.344Z</time>
      </trkpt>
      <trkpt lat="47.12572" lon="-1.42079">
        <ele>100.301841</ele>
        <time>2021-11-06T15:03:48.951Z</time>
      </trkpt>
      <trkpt lat="47.12579" lon="-1.42089">
        <ele>100.525143</ele>
        <time>2021-11-06T15:03:50.976Z</time>
      </trkpt>
      <trkpt lat="47.12587" lon="-1.42101">
        <ele>100.801502</ele>
        <time>2021-11-06T15:03:53.831Z</time>
      </trkpt>
      <trkpt lat="47.12595" lon="-1.4211">
        <ele>101.044659</ele>
        <time>2021-11-06T15:03:56.069Z</time>
      </trkpt>
      <trkpt lat="47.12603" lon="-1.42119">
        <ele>101.281404</ele>
        <time>2021-11-06T15:03:57.976Z</time>
      </trkpt>
      <trkpt lat="47.1261" lon="-1.42129">
        <ele>101.521097</ele>
        <time>2021-11-06T15:04:00.508Z</time>
      </trkpt>
      <trkpt lat="47.12618" lon="-1.42137">
        <ele>101.768232</ele>
        <time>2021-11-06T15:04:02.890Z</time>
      </trkpt>
      <trkpt lat="47.12628" lon="-1.42146">
        <ele>102.03459</ele>
        <time>2021-11-06T15:04:05.289Z</time>
      </trkpt>
      <trkpt lat="47.12635" lon="-1.42154">
        <ele>102.266552</ele>
        <time>2021-11-06T15:04:07.470Z</time>
      </trkpt>
      <trkpt lat="47.12645" lon="-1.42164">
        <ele>102.557822</ele>
        <time>2021-11-06T15:04:09.947Z</time>
      </trkpt>
      <trkpt lat="47.12654" lon="-1.42172">
        <ele>102.798521</ele>
        <time>2021-11-06T15:04:11.947Z</time>
      </trkpt>
      <trkpt lat="47.12662" lon="-1.42181">
        <ele>103.052757</ele>
        <time>2021-11-06T15:04:13.977Z</time>
      </trkpt>
      <trkpt lat="47.12671" lon="-1.42191">
        <ele>103.313769</ele>
        <time>2021-11-06T15:04:15.958Z</time>
      </trkpt>
      <trkpt lat="47.1268" lon="-1.422">
        <ele>103.586644</ele>
        <time>2021-11-06T15:04:17.976Z</time>
      </trkpt>
      <trkpt lat="47.1269" lon="-1.4221">
        <ele>103.864137</ele>
        <time>2021-11-06T15:04:19.964Z</time>
      </trkpt>
      <trkpt lat="47.12699" lon="-1.42219">
        <ele>103.97657</ele>
        <time>2021-11-06T15:04:21.959Z</time>
      </trkpt>
      <trkpt lat="47.12708" lon="-1.42229">
        <ele>103.941346</ele>
        <time>2021-11-06T15:04:23.965Z</time>
      </trkpt>
      <trkpt lat="47.12717" lon="-1.42241">
        <ele>103.905759</ele>
        <time>2021-11-06T15:04:25.960Z</time>
      </trkpt>
      <trkpt lat="47.12718" lon="-1.42257">
        <ele>103.870096</ele>
        <time>2021-11-06T15:04:27.959Z</time>
      </trkpt>
      <trkpt lat="47.12715" lon="-1.42273">
        <ele>103.834942</ele>
        <time>2021-11-06T15:04:29.974Z</time>
      </trkpt>
      <trkpt lat="47.12715" lon="-1.4229">
        <ele>103.800316</ele>
        <time>2021-11-06T15:04:31.947Z</time>
      </trkpt>
      <trkpt lat="47.12717" lon="-1.42306">
        <ele>103.765964</ele>
        <time>2021-11-06T15:04:33.982Z</time>
      </trkpt>
      <trkpt lat="47.1272" lon="-1.4232">
        <ele>103.733017</ele>
        <time>2021-11-06T15:04:35.991Z</time>
      </trkpt>
      <trkpt lat="47.12724" lon="-1.42334">
        <ele>103.701616</ele>
        <time>2021-11-06T15:04:37.961Z</time>
      </trkpt>
      <trkpt lat="47.12728" lon="-1.42347">
        <ele>103.670945</ele>
        <time>2021-11-06T15:04:39.977Z</time>
      </trkpt>
      <trkpt lat="47.12733" lon="-1.4236">
        <ele>103.640266</ele>
        <time>2021-11-06T15:04:41.963Z</time>
      </trkpt>
      <trkpt lat="47.12738" lon="-1.42373">
        <ele>103.608641</ele>
        <time>2021-11-06T15:04:43.977Z</time>
      </trkpt>
      <trkpt lat="47.12744" lon="-1.42385">
        <ele>103.577948</ele>
        <time>2021-11-06T15:04:45.968Z</time>
      </trkpt>
      <trkpt lat="47.12749" lon="-1.42397">
        <ele>103.547061</ele>
        <time>2021-11-06T15:04:47.973Z</time>
      </trkpt>
      <trkpt lat="47.12755" lon="-1.42408">
        <ele>103.517541</ele>
        <time>2021-11-06T15:04:49.964Z</time>
      </trkpt>
      <trkpt lat="47.12761" lon="-1.42419">
        <ele>103.48764</ele>
        <time>2021-11-06T15:04:51.980Z</time>
      </trkpt>
      <trkpt lat="47.12766" lon="-1.42431">
        <ele>103.457275</ele>
        <time>2021-11-06T15:04:53.980Z</time>
      </trkpt>
      <trkpt lat="47.12772" lon="-1.42443">
        <ele>103.425973</ele>
        <time>2021-11-06T15:04:55.985Z</time>
      </trkpt>
      <trkpt lat="47.12779" lon="-1.42455">
        <ele>103.389906</ele>
        <time>2021-11-06T15:04:57.967Z</time>
      </trkpt>
      <trkpt lat="47.12785" lon="-1.42466">
        <ele>103.354296</ele>
        <time>2021-11-06T15:04:59.999Z</time>
      </trkpt>
      <trkpt lat="47.12791" lon="-1.42478">
        <ele>103.317768</ele>
        <time>2021-11-06T15:05:01.964Z</time>
      </trkpt>
      <trkpt lat="47.12797" lon="-1.42491">
        <ele>103.280449</ele>
        <time>2021-11-06T15:05:03.973Z</time>
      </trkpt>
      <trkpt lat="47.12803" lon="-1.42504">
        <ele>103.242937</ele>
        <time>2021-11-06T15:05:05.965Z</time>
      </trkpt>
      <trkpt lat="47.12809" lon="-1.42516">
        <ele>103.207995</ele>
        <time>2021-11-06T15:05:07.991Z</time>
      </trkpt>
      <trkpt lat="47.12815" lon="-1.42528">
        <ele>103.173029</ele>
        <time>2021-11-06T15:05:09.955Z</time>
      </trkpt>
      <trkpt lat="47.1282" lon="-1.4254">
        <ele>103.138086</ele>
        <time>2021-11-06T15:05:11.984Z</time>
      </trkpt>
      <trkpt lat="47.12826" lon="-1.42553">
        <ele>103.102549</ele>
        <time>2021-11-06T15:05:13.962Z</time>
      </trkpt>
      <trkpt lat="47.12831" lon="-1.42565">
        <ele>103.068276</ele>
        <time>2021-11-06T15:05:15.961Z</time>
      </trkpt>
      <trkpt lat="47.12835" lon="-1.42577">
        <ele>103.036356</ele>
        <time>2021-11-06T15:05:17.958Z</time>
      </trkpt>
      <trkpt lat="47.12841" lon="-1.42593">
        <ele>102.991727</ele>
        <time>2021-11-06T15:05:20.942Z</time>
      </trkpt>
      <trkpt lat="47.12848" lon="-1.4261">
        <ele>102.946408</ele>
        <time>2021-11-06T15:05:23.989Z</time>
      </trkpt>
      <trkpt lat="47.12852" lon="-1.42625">
        <ele>102.906619</ele>
        <time>2021-11-06T15:05:25.995Z</time>
      </trkpt>
      <trkpt lat="47.12856" lon="-1.42638">
        <ele>102.873636</ele>
        <time>2021-11-06T15:05:27.971Z</time>
      </trkpt>
      <trkpt lat="47.12859" lon="-1.4265">
        <ele>102.841598</ele>
        <time>2021-11-06T15:05:29.972Z</time>
      </trkpt>
      <trkpt lat="47.12861" lon="-1.42668">
        <ele>102.818113</ele>
        <time>2021-11-06T15:05:34.339Z</time>
      </trkpt>
      <trkpt lat="47.12867" lon="-1.42681">
        <ele>102.882723</ele>
        <time>2021-11-06T15:05:36.179Z</time>
      </trkpt>
      <trkpt lat="47.12872" lon="-1.42695">
        <ele>102.956743</ele>
        <time>2021-11-06T15:05:38.582Z</time>
      </trkpt>
      <trkpt lat="47.12879" lon="-1.42713">
        <ele>103.041352</ele>
        <time>2021-11-06T15:05:40.970Z</time>
      </trkpt>
      <trkpt lat="47.12883" lon="-1.42726">
        <ele>103.103266</ele>
        <time>2021-11-06T15:05:42.966Z</time>
      </trkpt>
      <trkpt lat="47.12886" lon="-1.42738">
        <ele>103.16165</ele>
        <time>2021-11-06T15:05:44.967Z</time>
      </trkpt>
      <trkpt lat="47.1289" lon="-1.42751">
        <ele>103.222263</ele>
        <time>2021-11-06T15:05:46.962Z</time>
      </trkpt>
      <trkpt lat="47.12894" lon="-1.42764">
        <ele>103.283391</ele>
        <time>2021-11-06T15:05:48.947Z</time>
      </trkpt>
      <trkpt lat="47.12898" lon="-1.42777">
        <ele>103.345048</ele>
        <time>2021-11-06T15:05:50.974Z</time>
      </trkpt>
      <trkpt lat="47.12902" lon="-1.42791">
        <ele>103.407645</ele>
        <time>2021-11-06T15:05:52.946Z</time>
      </trkpt>
      <trkpt lat="47.12906" lon="-1.42804">
        <ele>103.470213</ele>
        <time>2021-11-06T15:05:55.009Z</time>
      </trkpt>
      <trkpt lat="47.1291" lon="-1.42816">
        <ele>103.5299</ele>
        <time>2021-11-06T15:05:56.948Z</time>
      </trkpt>
      <trkpt lat="47.12914" lon="-1.4283">
        <ele>103.591952</ele>
        <time>2021-11-06T15:05:58.973Z</time>
      </trkpt>
      <trkpt lat="47.12918" lon="-1.42842">
        <ele>103.651522</ele>
        <time>2021-11-06T15:06:00.989Z</time>
      </trkpt>
      <trkpt lat="47.12921" lon="-1.42855">
        <ele>103.71174</ele>
        <time>2021-11-06T15:06:02.968Z</time>
      </trkpt>
      <trkpt lat="47.12925" lon="-1.42868">
        <ele>103.77326</ele>
        <time>2021-11-06T15:06:04.963Z</time>
      </trkpt>
      <trkpt lat="47.1293" lon="-1.42882">
        <ele>103.837534</ele>
        <time>2021-11-06T15:06:06.976Z</time>
      </trkpt>
      <trkpt lat="47.12934" lon="-1.42896">
        <ele>103.903508</ele>
        <time>2021-11-06T15:06:08.990Z</time>
      </trkpt>
      <trkpt lat="47.12939" lon="-1.42909">
        <ele>103.898674</ele>
        <time>2021-11-06T15:06:10.972Z</time>
      </trkpt>
      <trkpt lat="47.12944" lon="-1.42922">
        <ele>103.766392</ele>
        <time>2021-11-06T15:06:12.967Z</time>
      </trkpt>
      <trkpt lat="47.1295" lon="-1.42935">
        <ele>103.634898</ele>
        <time>2021-11-06T15:06:14.962Z</time>
      </trkpt>
      <trkpt lat="47.12956" lon="-1.42948">
        <ele>103.501342</ele>
        <time>2021-11-06T15:06:16.978Z</time>
      </trkpt>
      <trkpt lat="47.12962" lon="-1.42961">
        <ele>103.36633</ele>
        <time>2021-11-06T15:06:18.971Z</time>
      </trkpt>
      <trkpt lat="47.12969" lon="-1.42976">
        <ele>103.213709</ele>
        <time>2021-11-06T15:06:20.974Z</time>
      </trkpt>
      <trkpt lat="47.12976" lon="-1.42988">
        <ele>103.074814</ele>
        <time>2021-11-06T15:06:22.957Z</time>
      </trkpt>
      <trkpt lat="47.12983" lon="-1.43001">
        <ele>102.936797</ele>
        <time>2021-11-06T15:06:24.947Z</time>
      </trkpt>
      <trkpt lat="47.12989" lon="-1.43015">
        <ele>102.795422</ele>
        <time>2021-11-06T15:06:26.974Z</time>
      </trkpt>
      <trkpt lat="47.12996" lon="-1.43028">
        <ele>102.651123</ele>
        <time>2021-11-06T15:06:28.975Z</time>
      </trkpt>
      <trkpt lat="47.13003" lon="-1.43041">
        <ele>102.512104</ele>
        <time>2021-11-06T15:06:30.983Z</time>
      </trkpt>
      <trkpt lat="47.1301" lon="-1.43054">
        <ele>102.372729</ele>
        <time>2021-11-06T15:06:32.946Z</time>
      </trkpt>
      <trkpt lat="47.13017" lon="-1.43067">
        <ele>102.22706</ele>
        <time>2021-11-06T15:06:34.966Z</time>
      </trkpt>
      <trkpt lat="47.13024" lon="-1.43081">
        <ele>102.080751</ele>
        <time>2021-11-06T15:06:36.957Z</time>
      </trkpt>
      <trkpt lat="47.13031" lon="-1.43096">
        <ele>101.928809</ele>
        <time>2021-11-06T15:06:38.979Z</time>
      </trkpt>
      <trkpt lat="47.13037" lon="-1.43111">
        <ele>101.77543</ele>
        <time>2021-11-06T15:06:40.976Z</time>
      </trkpt>
      <trkpt lat="47.13043" lon="-1.43127">
        <ele>101.522654</ele>
        <time>2021-11-06T15:06:42.969Z</time>
      </trkpt>
      <trkpt lat="47.13049" lon="-1.43143">
        <ele>101.14122</ele>
        <time>2021-11-06T15:06:44.964Z</time>
      </trkpt>
      <trkpt lat="47.13055" lon="-1.4316">
        <ele>100.755772</ele>
        <time>2021-11-06T15:06:46.970Z</time>
      </trkpt>
      <trkpt lat="47.13061" lon="-1.43177">
        <ele>100.370751</ele>
        <time>2021-11-06T15:06:48.971Z</time>
      </trkpt>
      <trkpt lat="47.13068" lon="-1.43194">
        <ele>99.982098</ele>
        <time>2021-11-06T15:06:50.979Z</time>
      </trkpt>
      <trkpt lat="47.13074" lon="-1.4321">
        <ele>99.593446</ele>
        <time>2021-11-06T15:06:52.964Z</time>
      </trkpt>
      <trkpt lat="47.13081" lon="-1.43227">
        <ele>99.213041</ele>
        <time>2021-11-06T15:06:54.983Z</time>
      </trkpt>
      <trkpt lat="47.13087" lon="-1.43243">
        <ele>98.828021</ele>
        <time>2021-11-06T15:06:56.965Z</time>
      </trkpt>
      <trkpt lat="47.13093" lon="-1.4326">
        <ele>98.43761</ele>
        <time>2021-11-06T15:06:58.979Z</time>
      </trkpt>
      <trkpt lat="47.131" lon="-1.43278">
        <ele>98.036236</ele>
        <time>2021-11-06T15:07:00.966Z</time>
      </trkpt>
      <trkpt lat="47.13106" lon="-1.43295">
        <ele>97.628441</ele>
        <time>2021-11-06T15:07:02.983Z</time>
      </trkpt>
      <trkpt lat="47.13113" lon="-1.43313">
        <ele>97.205661</ele>
        <time>2021-11-06T15:07:04.964Z</time>
      </trkpt>
      <trkpt lat="47.1312" lon="-1.43332">
        <ele>96.77642</ele>
        <time>2021-11-06T15:07:06.975Z</time>
      </trkpt>
      <trkpt lat="47.13128" lon="-1.43348">
        <ele>96.356755</ele>
        <time>2021-11-06T15:07:08.958Z</time>
      </trkpt>
      <trkpt lat="47.13138" lon="-1.43364">
        <ele>96.139608</ele>
        <time>2021-11-06T15:07:10.981Z</time>
      </trkpt>
      <trkpt lat="47.13147" lon="-1.4338">
        <ele>95.947695</ele>
        <time>2021-11-06T15:07:12.979Z</time>
      </trkpt>
      <trkpt lat="47.13156" lon="-1.43395">
        <ele>95.757781</ele>
        <time>2021-11-06T15:07:14.987Z</time>
      </trkpt>
      <trkpt lat="47.13166" lon="-1.4341">
        <ele>95.560179</ele>
        <time>2021-11-06T15:07:16.987Z</time>
      </trkpt>
      <trkpt lat="47.13176" lon="-1.43425">
        <ele>95.363523</ele>
        <time>2021-11-06T15:07:18.990Z</time>
      </trkpt>
      <trkpt lat="47.13186" lon="-1.4344">
        <ele>95.166586</ele>
        <time>2021-11-06T15:07:20.986Z</time>
      </trkpt>
      <trkpt lat="47.13195" lon="-1.43455">
        <ele>94.97573</ele>
        <time>2021-11-06T15:07:22.990Z</time>
      </trkpt>
      <trkpt lat="47.13204" lon="-1.43468">
        <ele>94.794297</ele>
        <time>2021-11-06T15:07:24.974Z</time>
      </trkpt>
      <trkpt lat="47.13214" lon="-1.4348">
        <ele>94.620127</ele>
        <time>2021-11-06T15:07:26.976Z</time>
      </trkpt>
      <trkpt lat="47.13223" lon="-1.4349">
        <ele>94.460393</ele>
        <time>2021-11-06T15:07:28.979Z</time>
      </trkpt>
      <trkpt lat="47.13233" lon="-1.43498">
        <ele>94.306296</ele>
        <time>2021-11-06T15:07:30.976Z</time>
      </trkpt>
      <trkpt lat="47.13241" lon="-1.43506">
        <ele>94.169132</ele>
        <time>2021-11-06T15:07:32.954Z</time>
      </trkpt>
      <trkpt lat="47.13249" lon="-1.43513">
        <ele>94.037485</ele>
        <time>2021-11-06T15:07:34.966Z</time>
      </trkpt>
      <trkpt lat="47.13258" lon="-1.43524">
        <ele>93.88161</ele>
        <time>2021-11-06T15:07:37.984Z</time>
      </trkpt>
      <trkpt lat="47.13264" lon="-1.43537">
        <ele>93.940317</ele>
        <time>2021-11-06T15:07:39.969Z</time>
      </trkpt>
      <trkpt lat="47.1327" lon="-1.4355">
        <ele>94.112043</ele>
        <time>2021-11-06T15:07:41.973Z</time>
      </trkpt>
      <trkpt lat="47.13276" lon="-1.43563">
        <ele>94.277495</ele>
        <time>2021-11-06T15:07:43.985Z</time>
      </trkpt>
      <trkpt lat="47.13282" lon="-1.43574">
        <ele>94.434333</ele>
        <time>2021-11-06T15:07:45.969Z</time>
      </trkpt>
      <trkpt lat="47.13288" lon="-1.43586">
        <ele>94.590034</ele>
        <time>2021-11-06T15:07:47.966Z</time>
      </trkpt>
      <trkpt lat="47.13294" lon="-1.43598">
        <ele>94.745734</ele>
        <time>2021-11-06T15:07:50.046Z</time>
      </trkpt>
      <trkpt lat="47.13299" lon="-1.4361">
        <ele>94.903236</ele>
        <time>2021-11-06T15:07:51.973Z</time>
      </trkpt>
      <trkpt lat="47.13305" lon="-1.43622">
        <ele>95.057112</ele>
        <time>2021-11-06T15:07:53.956Z</time>
      </trkpt>
      <trkpt lat="47.1331" lon="-1.43634">
        <ele>95.210133</ele>
        <time>2021-11-06T15:07:55.968Z</time>
      </trkpt>
      <trkpt lat="47.13315" lon="-1.43646">
        <ele>95.366646</ele>
        <time>2021-11-06T15:07:57.977Z</time>
      </trkpt>
      <trkpt lat="47.13322" lon="-1.43657">
        <ele>95.524785</ele>
        <time>2021-11-06T15:07:59.960Z</time>
      </trkpt>
      <trkpt lat="47.13329" lon="-1.43667">
        <ele>95.678027</ele>
        <time>2021-11-06T15:08:01.983Z</time>
      </trkpt>
      <trkpt lat="47.13336" lon="-1.43676">
        <ele>95.824697</ele>
        <time>2021-11-06T15:08:03.988Z</time>
      </trkpt>
      <trkpt lat="47.13344" lon="-1.43684">
        <ele>95.971237</ele>
        <time>2021-11-06T15:08:05.957Z</time>
      </trkpt>
      <trkpt lat="47.13351" lon="-1.43692">
        <ele>96.119019</ele>
        <time>2021-11-06T15:08:07.966Z</time>
      </trkpt>
      <trkpt lat="47.13358" lon="-1.437">
        <ele>96.267055</ele>
        <time>2021-11-06T15:08:09.982Z</time>
      </trkpt>
      <trkpt lat="47.13366" lon="-1.43709">
        <ele>96.416099</ele>
        <time>2021-11-06T15:08:11.982Z</time>
      </trkpt>
      <trkpt lat="47.13374" lon="-1.43717">
        <ele>96.56582</ele>
        <time>2021-11-06T15:08:13.948Z</time>
      </trkpt>
      <trkpt lat="47.13381" lon="-1.43725">
        <ele>96.633054</ele>
        <time>2021-11-06T15:08:15.966Z</time>
      </trkpt>
      <trkpt lat="47.13389" lon="-1.43733">
        <ele>96.494329</ele>
        <time>2021-11-06T15:08:17.976Z</time>
      </trkpt>
      <trkpt lat="47.13397" lon="-1.43742">
        <ele>96.355605</ele>
        <time>2021-11-06T15:08:19.968Z</time>
      </trkpt>
      <trkpt lat="47.13405" lon="-1.4375">
        <ele>96.216881</ele>
        <time>2021-11-06T15:08:21.975Z</time>
      </trkpt>
      <trkpt lat="47.13412" lon="-1.43759">
        <ele>96.079041</ele>
        <time>2021-11-06T15:08:23.982Z</time>
      </trkpt>
      <trkpt lat="47.13419" lon="-1.43769">
        <ele>95.938858</ele>
        <time>2021-11-06T15:08:25.974Z</time>
      </trkpt>
      <trkpt lat="47.13425" lon="-1.4378">
        <ele>95.801885</ele>
        <time>2021-11-06T15:08:27.977Z</time>
      </trkpt>
      <trkpt lat="47.1343" lon="-1.43792">
        <ele>95.664294</ele>
        <time>2021-11-06T15:08:29.949Z</time>
      </trkpt>
      <trkpt lat="47.13435" lon="-1.43804">
        <ele>95.518614</ele>
        <time>2021-11-06T15:08:31.968Z</time>
      </trkpt>
      <trkpt lat="47.13441" lon="-1.43817">
        <ele>95.368069</ele>
        <time>2021-11-06T15:08:33.963Z</time>
      </trkpt>
      <trkpt lat="47.13447" lon="-1.4383">
        <ele>95.217502</ele>
        <time>2021-11-06T15:08:35.988Z</time>
      </trkpt>
      <trkpt lat="47.13453" lon="-1.43843">
        <ele>95.063627</ele>
        <time>2021-11-06T15:08:37.970Z</time>
      </trkpt>
      <trkpt lat="47.13459" lon="-1.43856">
        <ele>94.905742</ele>
        <time>2021-11-06T15:08:39.996Z</time>
      </trkpt>
      <trkpt lat="47.13464" lon="-1.4387">
        <ele>94.74925</ele>
        <time>2021-11-06T15:08:41.979Z</time>
      </trkpt>
      <trkpt lat="47.13467" lon="-1.43886">
        <ele>94.584326</ele>
        <time>2021-11-06T15:08:43.985Z</time>
      </trkpt>
      <trkpt lat="47.1347" lon="-1.43903">
        <ele>94.412789</ele>
        <time>2021-11-06T15:08:45.960Z</time>
      </trkpt>
      <trkpt lat="47.13473" lon="-1.4392">
        <ele>94.23994</ele>
        <time>2021-11-06T15:08:47.977Z</time>
      </trkpt>
      <trkpt lat="47.13476" lon="-1.43937">
        <ele>94.054143</ele>
        <time>2021-11-06T15:08:49.965Z</time>
      </trkpt>
      <trkpt lat="47.13479" lon="-1.43955">
        <ele>93.539648</ele>
        <time>2021-11-06T15:08:51.971Z</time>
      </trkpt>
      <trkpt lat="47.13483" lon="-1.43972">
        <ele>93.009083</ele>
        <time>2021-11-06T15:08:53.976Z</time>
      </trkpt>
      <trkpt lat="47.13486" lon="-1.43991">
        <ele>92.46038</ele>
        <time>2021-11-06T15:08:55.958Z</time>
      </trkpt>
      <trkpt lat="47.1349" lon="-1.4401">
        <ele>91.892289</ele>
        <time>2021-11-06T15:08:57.971Z</time>
      </trkpt>
      <trkpt lat="47.13493" lon="-1.44029">
        <ele>91.314162</ele>
        <time>2021-11-06T15:08:59.964Z</time>
      </trkpt>
      <trkpt lat="47.13497" lon="-1.44049">
        <ele>90.715029</ele>
        <time>2021-11-06T15:09:01.958Z</time>
      </trkpt>
      <trkpt lat="47.13501" lon="-1.4407">
        <ele>90.098934</ele>
        <time>2021-11-06T15:09:03.973Z</time>
      </trkpt>
      <trkpt lat="47.13506" lon="-1.44091">
        <ele>89.473532</ele>
        <time>2021-11-06T15:09:05.960Z</time>
      </trkpt>
      <trkpt lat="47.1351" lon="-1.44112">
        <ele>88.840044</ele>
        <time>2021-11-06T15:09:07.966Z</time>
      </trkpt>
      <trkpt lat="47.13515" lon="-1.44133">
        <ele>88.195531</ele>
        <time>2021-11-06T15:09:09.977Z</time>
      </trkpt>
      <trkpt lat="47.13523" lon="-1.44152">
        <ele>87.539935</ele>
        <time>2021-11-06T15:09:11.979Z</time>
      </trkpt>
      <trkpt lat="47.13533" lon="-1.44168">
        <ele>86.924347</ele>
        <time>2021-11-06T15:09:13.946Z</time>
      </trkpt>
      <trkpt lat="47.13546" lon="-1.4418">
        <ele>86.492721</ele>
        <time>2021-11-06T15:09:15.955Z</time>
      </trkpt>
      <trkpt lat="47.13559" lon="-1.44188">
        <ele>86.547734</ele>
        <time>2021-11-06T15:09:17.946Z</time>
      </trkpt>
      <trkpt lat="47.13574" lon="-1.44195">
        <ele>86.604772</ele>
        <time>2021-11-06T15:09:19.950Z</time>
      </trkpt>
      <trkpt lat="47.13589" lon="-1.44202">
        <ele>86.662434</ele>
        <time>2021-11-06T15:09:21.987Z</time>
      </trkpt>
      <trkpt lat="47.13604" lon="-1.44211">
        <ele>86.720482</ele>
        <time>2021-11-06T15:09:23.980Z</time>
      </trkpt>
      <trkpt lat="47.13619" lon="-1.4422">
        <ele>86.780702</ele>
        <time>2021-11-06T15:09:25.976Z</time>
      </trkpt>
      <trkpt lat="47.13633" lon="-1.44231">
        <ele>86.841525</ele>
        <time>2021-11-06T15:09:27.954Z</time>
      </trkpt>
      <trkpt lat="47.13646" lon="-1.44244">
        <ele>86.899608</ele>
        <time>2021-11-06T15:09:29.959Z</time>
      </trkpt>
      <trkpt lat="47.13656" lon="-1.44258">
        <ele>86.949633</ele>
        <time>2021-11-06T15:09:31.962Z</time>
      </trkpt>
      <trkpt lat="47.13663" lon="-1.44269">
        <ele>86.986905</ele>
        <time>2021-11-06T15:09:33.975Z</time>
      </trkpt>
      <trkpt lat="47.1367" lon="-1.44282">
        <ele>87.028625</ele>
        <time>2021-11-06T15:09:36.984Z</time>
      </trkpt>
      <trkpt lat="47.13677" lon="-1.44296">
        <ele>87.072723</ele>
        <time>2021-11-06T15:09:39.990Z</time>
      </trkpt>
      <trkpt lat="47.13685" lon="-1.44312">
        <ele>87.123124</ele>
        <time>2021-11-06T15:09:42.977Z</time>
      </trkpt>
      <trkpt lat="47.13692" lon="-1.44324">
        <ele>87.264056</ele>
        <time>2021-11-06T15:09:46.472Z</time>
      </trkpt>
      <trkpt lat="47.13697" lon="-1.44335">
        <ele>87.463171</ele>
        <time>2021-11-06T15:09:48.822Z</time>
      </trkpt>
      <trkpt lat="47.13704" lon="-1.44348">
        <ele>87.699908</ele>
        <time>2021-11-06T15:09:51.769Z</time>
      </trkpt>
      <trkpt lat="47.13709" lon="-1.44359">
        <ele>87.902673</ele>
        <time>2021-11-06T15:09:54.438Z</time>
      </trkpt>
      <trkpt lat="47.13715" lon="-1.4437">
        <ele>88.105865</ele>
        <time>2021-11-06T15:09:57.137Z</time>
      </trkpt>
      <trkpt lat="47.13722" lon="-1.44384">
        <ele>88.364733</ele>
        <time>2021-11-06T15:10:00.502Z</time>
      </trkpt>
      <trkpt lat="47.13728" lon="-1.44396">
        <ele>88.573586</ele>
        <time>2021-11-06T15:10:03.218Z</time>
      </trkpt>
      <trkpt lat="47.13734" lon="-1.44411">
        <ele>88.828926</ele>
        <time>2021-11-06T15:10:06.541Z</time>
      </trkpt>
      <trkpt lat="47.1374" lon="-1.44424">
        <ele>89.059608</ele>
        <time>2021-11-06T15:10:09.691Z</time>
      </trkpt>
      <trkpt lat="47.13745" lon="-1.44438">
        <ele>89.293814</ele>
        <time>2021-11-06T15:10:12.856Z</time>
      </trkpt>
      <trkpt lat="47.13749" lon="-1.44451">
        <ele>89.50537</ele>
        <time>2021-11-06T15:10:15.630Z</time>
      </trkpt>
      <trkpt lat="47.13754" lon="-1.44464">
        <ele>89.725165</ele>
        <time>2021-11-06T15:10:18.455Z</time>
      </trkpt>
      <trkpt lat="47.13759" lon="-1.44481">
        <ele>89.990857</ele>
        <time>2021-11-06T15:10:21.966Z</time>
      </trkpt>
      <trkpt lat="47.13762" lon="-1.44495">
        <ele>90.210017</ele>
        <time>2021-11-06T15:10:24.868Z</time>
      </trkpt>
      <trkpt lat="47.13765" lon="-1.44508">
        <ele>90.414613</ele>
        <time>2021-11-06T15:10:27.611Z</time>
      </trkpt>
      <trkpt lat="47.13768" lon="-1.44523">
        <ele>90.636379</ele>
        <time>2021-11-06T15:10:30.562Z</time>
      </trkpt>
      <trkpt lat="47.13772" lon="-1.44537">
        <ele>90.860428</ele>
        <time>2021-11-06T15:10:33.729Z</time>
      </trkpt>
      <trkpt lat="47.13776" lon="-1.44553">
        <ele>90.999854</ele>
        <time>2021-11-06T15:10:36.894Z</time>
      </trkpt>
      <trkpt lat="47.1378" lon="-1.44572">
        <ele>90.927454</ele>
        <time>2021-11-06T15:10:40.572Z</time>
      </trkpt>
      <trkpt lat="47.13784" lon="-1.4459">
        <ele>90.859396</ele>
        <time>2021-11-06T15:10:43.921Z</time>
      </trkpt>
      <trkpt lat="47.13787" lon="-1.44605">
        <ele>90.804052</ele>
        <time>2021-11-06T15:10:46.604Z</time>
      </trkpt>
      <trkpt lat="47.13791" lon="-1.44622">
        <ele>90.73511</ele>
        <time>2021-11-06T15:10:49.769Z</time>
      </trkpt>
      <trkpt lat="47.13795" lon="-1.44638">
        <ele>90.673223</ele>
        <time>2021-11-06T15:10:52.505Z</time>
      </trkpt>
      <trkpt lat="47.13798" lon="-1.44653">
        <ele>90.619587</ele>
        <time>2021-11-06T15:10:54.809Z</time>
      </trkpt>
      <trkpt lat="47.13802" lon="-1.44666">
        <ele>90.567685</ele>
        <time>2021-11-06T15:10:56.928Z</time>
      </trkpt>
      <trkpt lat="47.13805" lon="-1.44681">
        <ele>90.508551</ele>
        <time>2021-11-06T15:10:58.967Z</time>
      </trkpt>
      <trkpt lat="47.1381" lon="-1.44695">
        <ele>90.454622</ele>
        <time>2021-11-06T15:11:00.975Z</time>
      </trkpt>
      <trkpt lat="47.13814" lon="-1.44709">
        <ele>90.396402</ele>
        <time>2021-11-06T15:11:02.975Z</time>
      </trkpt>
      <trkpt lat="47.1382" lon="-1.44723">
        <ele>90.338335</ele>
        <time>2021-11-06T15:11:04.999Z</time>
      </trkpt>
      <trkpt lat="47.13827" lon="-1.44735">
        <ele>90.281229</ele>
        <time>2021-11-06T15:11:06.948Z</time>
      </trkpt>
      <trkpt lat="47.13834" lon="-1.44749">
        <ele>90.21669</ele>
        <time>2021-11-06T15:11:08.975Z</time>
      </trkpt>
      <trkpt lat="47.13842" lon="-1.44762">
        <ele>90.152325</ele>
        <time>2021-11-06T15:11:10.987Z</time>
      </trkpt>
      <trkpt lat="47.1385" lon="-1.44776">
        <ele>90.086074</ele>
        <time>2021-11-06T15:11:12.976Z</time>
      </trkpt>
      <trkpt lat="47.13858" lon="-1.4479">
        <ele>89.792327</ele>
        <time>2021-11-06T15:11:14.959Z</time>
      </trkpt>
      <trkpt lat="47.13865" lon="-1.44805">
        <ele>89.372847</ele>
        <time>2021-11-06T15:11:16.956Z</time>
      </trkpt>
      <trkpt lat="47.13873" lon="-1.44819">
        <ele>88.968291</ele>
        <time>2021-11-06T15:11:18.949Z</time>
      </trkpt>
      <trkpt lat="47.13881" lon="-1.44833">
        <ele>88.568391</ele>
        <time>2021-11-06T15:11:20.974Z</time>
      </trkpt>
      <trkpt lat="47.13888" lon="-1.44847">
        <ele>88.162513</ele>
        <time>2021-11-06T15:11:22.973Z</time>
      </trkpt>
      <trkpt lat="47.13894" lon="-1.44862">
        <ele>87.761973</ele>
        <time>2021-11-06T15:11:24.980Z</time>
      </trkpt>
      <trkpt lat="47.13899" lon="-1.44878">
        <ele>87.368406</ele>
        <time>2021-11-06T15:11:26.974Z</time>
      </trkpt>
      <trkpt lat="47.13904" lon="-1.44892">
        <ele>87.022281</ele>
        <time>2021-11-06T15:11:28.988Z</time>
      </trkpt>
      <trkpt lat="47.13917" lon="-1.4489">
        <ele>86.568564</ele>
        <time>2021-11-06T15:11:32.959Z</time>
      </trkpt>
      <trkpt lat="47.13928" lon="-1.44888">
        <ele>86.202368</ele>
        <time>2021-11-06T15:11:34.945Z</time>
      </trkpt>
      <trkpt lat="47.13939" lon="-1.44886">
        <ele>85.841709</ele>
        <time>2021-11-06T15:11:36.987Z</time>
      </trkpt>
      <trkpt lat="47.13949" lon="-1.44884">
        <ele>85.486313</ele>
        <time>2021-11-06T15:11:38.978Z</time>
      </trkpt>
      <trkpt lat="47.1396" lon="-1.44881">
        <ele>85.130622</ele>
        <time>2021-11-06T15:11:40.967Z</time>
      </trkpt>
      <trkpt lat="47.13971" lon="-1.44879">
        <ele>84.765328</ele>
        <time>2021-11-06T15:11:42.997Z</time>
      </trkpt>
      <trkpt lat="47.13982" lon="-1.44877">
        <ele>84.393433</ele>
        <time>2021-11-06T15:11:44.965Z</time>
      </trkpt>
      <trkpt lat="47.13993" lon="-1.44876">
        <ele>84.097204</ele>
        <time>2021-11-06T15:11:46.973Z</time>
      </trkpt>
      <trkpt lat="47.14004" lon="-1.44874">
        <ele>84.190671</ele>
        <time>2021-11-06T15:11:48.972Z</time>
      </trkpt>
      <trkpt lat="47.14016" lon="-1.44872">
        <ele>84.286952</ele>
        <time>2021-11-06T15:11:50.977Z</time>
      </trkpt>
      <trkpt lat="47.14027" lon="-1.4487">
        <ele>84.381373</ele>
        <time>2021-11-06T15:11:52.976Z</time>
      </trkpt>
      <trkpt lat="47.14038" lon="-1.44868">
        <ele>84.47003</ele>
        <time>2021-11-06T15:11:54.974Z</time>
      </trkpt>
      <trkpt lat="47.14048" lon="-1.44865">
        <ele>84.556544</ele>
        <time>2021-11-06T15:11:56.977Z</time>
      </trkpt>
      <trkpt lat="47.14058" lon="-1.44864">
        <ele>84.639934</ele>
        <time>2021-11-06T15:11:58.982Z</time>
      </trkpt>
      <trkpt lat="47.14069" lon="-1.44863">
        <ele>84.734675</ele>
        <time>2021-11-06T15:12:01.988Z</time>
      </trkpt>
      <trkpt lat="47.14081" lon="-1.44864">
        <ele>84.828556</ele>
        <time>2021-11-06T15:12:04.977Z</time>
      </trkpt>
      <trkpt lat="47.14094" lon="-1.44858">
        <ele>84.939826</ele>
        <time>2021-11-06T15:12:07.994Z</time>
      </trkpt>
      <trkpt lat="47.14106" lon="-1.44856">
        <ele>85.042093</ele>
        <time>2021-11-06T15:12:10.980Z</time>
      </trkpt>
      <trkpt lat="47.14116" lon="-1.44851">
        <ele>85.126821</ele>
        <time>2021-11-06T15:12:12.966Z</time>
      </trkpt>
      <trkpt lat="47.14125" lon="-1.44847">
        <ele>85.208069</ele>
        <time>2021-11-06T15:12:14.988Z</time>
      </trkpt>
      <trkpt lat="47.14135" lon="-1.44844">
        <ele>85.292852</ele>
        <time>2021-11-06T15:12:16.986Z</time>
      </trkpt>
      <trkpt lat="47.14145" lon="-1.44841">
        <ele>85.378564</ele>
        <time>2021-11-06T15:12:18.985Z</time>
      </trkpt>
      <trkpt lat="47.14156" lon="-1.44837">
        <ele>85.470154</ele>
        <time>2021-11-06T15:12:20.990Z</time>
      </trkpt>
      <trkpt lat="47.14167" lon="-1.44833">
        <ele>85.562029</ele>
        <time>2021-11-06T15:12:22.971Z</time>
      </trkpt>
      <trkpt lat="47.14177" lon="-1.44828">
        <ele>85.392717</ele>
        <time>2021-11-06T15:12:24.986Z</time>
      </trkpt>
      <trkpt lat="47.14187" lon="-1.44823">
        <ele>85.203529</ele>
        <time>2021-11-06T15:12:26.979Z</time>
      </trkpt>
      <trkpt lat="47.14196" lon="-1.44819">
        <ele>85.01736</ele>
        <time>2021-11-06T15:12:28.979Z</time>
      </trkpt>
      <trkpt lat="47.14205" lon="-1.44814">
        <ele>84.84142</ele>
        <time>2021-11-06T15:12:30.973Z</time>
      </trkpt>
      <trkpt lat="47.14214" lon="-1.44809">
        <ele>84.650021</ele>
        <time>2021-11-06T15:12:32.979Z</time>
      </trkpt>
      <trkpt lat="47.14224" lon="-1.44804">
        <ele>84.462068</ele>
        <time>2021-11-06T15:12:34.962Z</time>
      </trkpt>
      <trkpt lat="47.14234" lon="-1.448">
        <ele>84.270541</ele>
        <time>2021-11-06T15:12:36.982Z</time>
      </trkpt>
      <trkpt lat="47.14243" lon="-1.44796">
        <ele>84.092058</ele>
        <time>2021-11-06T15:12:38.982Z</time>
      </trkpt>
      <trkpt lat="47.14254" lon="-1.44791">
        <ele>83.874853</ele>
        <time>2021-11-06T15:12:42.002Z</time>
      </trkpt>
      <trkpt lat="47.14264" lon="-1.44786">
        <ele>83.664866</ele>
        <time>2021-11-06T15:12:44.992Z</time>
      </trkpt>
      <trkpt lat="47.14275" lon="-1.44782">
        <ele>83.461038</ele>
        <time>2021-11-06T15:12:46.984Z</time>
      </trkpt>
      <trkpt lat="47.14284" lon="-1.44778">
        <ele>83.289743</ele>
        <time>2021-11-06T15:12:48.998Z</time>
      </trkpt>
      <trkpt lat="47.14296" lon="-1.44772">
        <ele>83.040859</ele>
        <time>2021-11-06T15:12:51.997Z</time>
      </trkpt>
      <trkpt lat="47.14305" lon="-1.44768">
        <ele>82.85945</ele>
        <time>2021-11-06T15:12:53.988Z</time>
      </trkpt>
      <trkpt lat="47.14318" lon="-1.44765">
        <ele>82.628149</ele>
        <time>2021-11-06T15:12:56.983Z</time>
      </trkpt>
      <trkpt lat="47.14327" lon="-1.44758">
        <ele>82.431231</ele>
        <time>2021-11-06T15:12:58.981Z</time>
      </trkpt>
      <trkpt lat="47.14337" lon="-1.44753">
        <ele>82.235402</ele>
        <time>2021-11-06T15:13:00.964Z</time>
      </trkpt>
      <trkpt lat="47.14346" lon="-1.44749">
        <ele>82.009697</ele>
        <time>2021-11-06T15:13:02.977Z</time>
      </trkpt>
      <trkpt lat="47.14355" lon="-1.44746">
        <ele>81.782142</ele>
        <time>2021-11-06T15:13:04.970Z</time>
      </trkpt>
      <trkpt lat="47.14364" lon="-1.44742">
        <ele>81.563945</ele>
        <time>2021-11-06T15:13:06.954Z</time>
      </trkpt>
      <trkpt lat="47.14373" lon="-1.44739">
        <ele>81.338732</ele>
        <time>2021-11-06T15:13:08.983Z</time>
      </trkpt>
      <trkpt lat="47.14382" lon="-1.44735">
        <ele>81.109158</ele>
        <time>2021-11-06T15:13:10.982Z</time>
      </trkpt>
      <trkpt lat="47.14392" lon="-1.44733">
        <ele>80.874771</ele>
        <time>2021-11-06T15:13:12.988Z</time>
      </trkpt>
      <trkpt lat="47.14402" lon="-1.44731">
        <ele>80.640326</ele>
        <time>2021-11-06T15:13:14.974Z</time>
      </trkpt>
      <trkpt lat="47.14411" lon="-1.4473">
        <ele>80.408555</ele>
        <time>2021-11-06T15:13:16.966Z</time>
      </trkpt>
      <trkpt lat="47.1442" lon="-1.44729">
        <ele>80.189024</ele>
        <time>2021-11-06T15:13:18.984Z</time>
      </trkpt>
      <trkpt lat="47.14431" lon="-1.44728">
        <ele>79.920404</ele>
        <time>2021-11-06T15:13:21.976Z</time>
      </trkpt>
      <trkpt lat="47.14444" lon="-1.44727">
        <ele>79.6262</ele>
        <time>2021-11-06T15:13:24.978Z</time>
      </trkpt>
      <trkpt lat="47.14455" lon="-1.44722">
        <ele>79.346052</ele>
        <time>2021-11-06T15:13:27.965Z</time>
      </trkpt>
      <trkpt lat="47.14466" lon="-1.44724">
        <ele>79.085357</ele>
        <time>2021-11-06T15:13:30.985Z</time>
      </trkpt>
      <trkpt lat="47.1448" lon="-1.44724">
        <ele>78.745968</ele>
        <time>2021-11-06T15:13:34.006Z</time>
      </trkpt>
      <trkpt lat="47.1449" lon="-1.44722">
        <ele>78.511026</ele>
        <time>2021-11-06T15:13:35.988Z</time>
      </trkpt>
      <trkpt lat="47.14499" lon="-1.44722">
        <ele>78.282363</ele>
        <time>2021-11-06T15:13:37.979Z</time>
      </trkpt>
      <trkpt lat="47.14508" lon="-1.44726">
        <ele>78.052348</ele>
        <time>2021-11-06T15:13:39.974Z</time>
      </trkpt>
      <trkpt lat="47.14516" lon="-1.44735">
        <ele>77.839998</ele>
        <time>2021-11-06T15:13:42.005Z</time>
      </trkpt>
      <trkpt lat="47.14522" lon="-1.44746">
        <ele>77.692817</ele>
        <time>2021-11-06T15:13:44.547Z</time>
      </trkpt>
      <trkpt lat="47.14526" lon="-1.44763">
        <ele>77.517751</ele>
        <time>2021-11-06T15:13:47.150Z</time>
      </trkpt>
      <trkpt lat="47.14532" lon="-1.44777">
        <ele>77.353614</ele>
        <time>2021-11-06T15:13:49.695Z</time>
      </trkpt>
      <trkpt lat="47.14538" lon="-1.44789">
        <ele>77.209666</ele>
        <time>2021-11-06T15:13:51.999Z</time>
      </trkpt>
      <trkpt lat="47.14545" lon="-1.44799">
        <ele>77.064192</ele>
        <time>2021-11-06T15:13:53.965Z</time>
      </trkpt>
      <trkpt lat="47.14552" lon="-1.4481">
        <ele>76.916014</ele>
        <time>2021-11-06T15:13:55.986Z</time>
      </trkpt>
      <trkpt lat="47.1456" lon="-1.44819">
        <ele>76.76389</ele>
        <time>2021-11-06T15:13:57.966Z</time>
      </trkpt>
      <trkpt lat="47.14568" lon="-1.44829">
        <ele>76.616529</ele>
        <time>2021-11-06T15:13:59.979Z</time>
      </trkpt>
      <trkpt lat="47.14574" lon="-1.4484">
        <ele>76.480299</ele>
        <time>2021-11-06T15:14:01.988Z</time>
      </trkpt>
      <trkpt lat="47.14581" lon="-1.44849">
        <ele>76.336437</ele>
        <time>2021-11-06T15:14:04.465Z</time>
      </trkpt>
      <trkpt lat="47.14588" lon="-1.44864">
        <ele>76.155908</ele>
        <time>2021-11-06T15:14:06.979Z</time>
      </trkpt>
      <trkpt lat="47.14596" lon="-1.44874">
        <ele>76.006344</ele>
        <time>2021-11-06T15:14:08.987Z</time>
      </trkpt>
      <trkpt lat="47.14604" lon="-1.44884">
        <ele>75.854243</ele>
        <time>2021-11-06T15:14:10.962Z</time>
      </trkpt>
      <trkpt lat="47.14613" lon="-1.44892">
        <ele>75.703831</ele>
        <time>2021-11-06T15:14:12.969Z</time>
      </trkpt>
      <trkpt lat="47.14621" lon="-1.44899">
        <ele>75.555748</ele>
        <time>2021-11-06T15:14:14.963Z</time>
      </trkpt>
      <trkpt lat="47.14631" lon="-1.44906">
        <ele>75.404777</ele>
        <time>2021-11-06T15:14:16.970Z</time>
      </trkpt>
      <trkpt lat="47.14639" lon="-1.44913">
        <ele>75.262028</ele>
        <time>2021-11-06T15:14:18.953Z</time>
      </trkpt>
      <trkpt lat="47.14648" lon="-1.44921">
        <ele>75.016737</ele>
        <time>2021-11-06T15:14:20.977Z</time>
      </trkpt>
      <trkpt lat="47.14657" lon="-1.44927">
        <ele>74.748248</ele>
        <time>2021-11-06T15:14:22.969Z</time>
      </trkpt>
      <trkpt lat="47.14667" lon="-1.44933">
        <ele>74.477328</ele>
        <time>2021-11-06T15:14:24.983Z</time>
      </trkpt>
      <trkpt lat="47.14676" lon="-1.4494">
        <ele>74.204502</ele>
        <time>2021-11-06T15:14:26.962Z</time>
      </trkpt>
      <trkpt lat="47.14685" lon="-1.44946">
        <ele>73.928345</ele>
        <time>2021-11-06T15:14:28.985Z</time>
      </trkpt>
      <trkpt lat="47.14696" lon="-1.44951">
        <ele>73.640953</ele>
        <time>2021-11-06T15:14:30.988Z</time>
      </trkpt>
      <trkpt lat="47.14706" lon="-1.44956">
        <ele>73.355428</ele>
        <time>2021-11-06T15:14:32.967Z</time>
      </trkpt>
      <trkpt lat="47.14716" lon="-1.44959">
        <ele>73.080183</ele>
        <time>2021-11-06T15:14:34.950Z</time>
      </trkpt>
      <trkpt lat="47.14727" lon="-1.4496">
        <ele>72.794471</ele>
        <time>2021-11-06T15:14:36.966Z</time>
      </trkpt>
      <trkpt lat="47.14736" lon="-1.44965">
        <ele>72.541031</ele>
        <time>2021-11-06T15:14:38.984Z</time>
      </trkpt>
      <trkpt lat="47.14744" lon="-1.4497">
        <ele>72.303412</ele>
        <time>2021-11-06T15:14:40.969Z</time>
      </trkpt>
      <trkpt lat="47.14754" lon="-1.4497">
        <ele>72.050343</ele>
        <time>2021-11-06T15:14:42.973Z</time>
      </trkpt>
      <trkpt lat="47.14763" lon="-1.4497">
        <ele>71.802744</ele>
        <time>2021-11-06T15:14:44.976Z</time>
      </trkpt>
      <trkpt lat="47.14773" lon="-1.44973">
        <ele>71.542732</ele>
        <time>2021-11-06T15:14:46.979Z</time>
      </trkpt>
      <trkpt lat="47.14783" lon="-1.44974">
        <ele>71.285849</ele>
        <time>2021-11-06T15:14:48.995Z</time>
      </trkpt>
      <trkpt lat="47.14792" lon="-1.44977">
        <ele>71.03976</ele>
        <time>2021-11-06T15:14:50.989Z</time>
      </trkpt>
      <trkpt lat="47.14802" lon="-1.44978">
        <ele>70.783527</ele>
        <time>2021-11-06T15:14:52.980Z</time>
      </trkpt>
      <trkpt lat="47.14812" lon="-1.44979">
        <ele>70.51196</ele>
        <time>2021-11-06T15:14:54.988Z</time>
      </trkpt>
      <trkpt lat="47.14823" lon="-1.44983">
        <ele>70.176672</ele>
        <time>2021-11-06T15:14:56.990Z</time>
      </trkpt>
      <trkpt lat="47.14834" lon="-1.44994">
        <ele>69.778082</ele>
        <time>2021-11-06T15:14:58.962Z</time>
      </trkpt>
      <trkpt lat="47.14842" lon="-1.45013">
        <ele>69.324786</ele>
        <time>2021-11-06T15:15:00.974Z</time>
      </trkpt>
      <trkpt lat="47.14843" lon="-1.45039">
        <ele>68.79841</ele>
        <time>2021-11-06T15:15:02.955Z</time>
      </trkpt>
      <trkpt lat="47.14843" lon="-1.45053">
        <ele>68.513559</ele>
        <time>2021-11-06T15:15:03.981Z</time>
      </trkpt>
      <trkpt lat="47.14842" lon="-1.45067">
        <ele>68.242998</ele>
        <time>2021-11-06T15:15:04.958Z</time>
      </trkpt>
      <trkpt lat="47.14843" lon="-1.45087">
        <ele>67.82597</ele>
        <time>2021-11-06T15:15:06.985Z</time>
      </trkpt>
      <trkpt lat="47.14851" lon="-1.45103">
        <ele>67.434158</ele>
        <time>2021-11-06T15:15:08.982Z</time>
      </trkpt>
      <trkpt lat="47.14865" lon="-1.45105">
        <ele>67.013369</ele>
        <time>2021-11-06T15:15:10.975Z</time>
      </trkpt>
      <trkpt lat="47.14879" lon="-1.45099">
        <ele>66.590026</ele>
        <time>2021-11-06T15:15:12.962Z</time>
      </trkpt>
      <trkpt lat="47.1489" lon="-1.45091">
        <ele>66.212035</ele>
        <time>2021-11-06T15:15:14.977Z</time>
      </trkpt>
      <trkpt lat="47.14901" lon="-1.45084">
        <ele>65.871899</ele>
        <time>2021-11-06T15:15:16.996Z</time>
      </trkpt>
      <trkpt lat="47.1491" lon="-1.45076">
        <ele>65.54233</ele>
        <time>2021-11-06T15:15:19.960Z</time>
      </trkpt>
      <trkpt lat="47.14919" lon="-1.4507">
        <ele>65.268708</ele>
        <time>2021-11-06T15:15:22.982Z</time>
      </trkpt>
      <trkpt lat="47.14929" lon="-1.45062">
        <ele>65.221581</ele>
        <time>2021-11-06T15:15:25.977Z</time>
      </trkpt>
      <trkpt lat="47.14938" lon="-1.45065">
        <ele>65.257999</ele>
        <time>2021-11-06T15:15:31.001Z</time>
      </trkpt>
      <trkpt lat="47.14949" lon="-1.4506">
        <ele>65.304547</ele>
        <time>2021-11-06T15:15:35.971Z</time>
      </trkpt>
      <trkpt lat="47.14958" lon="-1.45054">
        <ele>65.343463</ele>
        <time>2021-11-06T15:15:38.868Z</time>
      </trkpt>
      <trkpt lat="47.14968" lon="-1.45047">
        <ele>65.387384</ele>
        <time>2021-11-06T15:15:41.644Z</time>
      </trkpt>
      <trkpt lat="47.1498" lon="-1.45039">
        <ele>65.438241</ele>
        <time>2021-11-06T15:15:44.680Z</time>
      </trkpt>
      <trkpt lat="47.14992" lon="-1.45038">
        <ele>65.486083</ele>
        <time>2021-11-06T15:15:46.969Z</time>
      </trkpt>
      <trkpt lat="47.15001" lon="-1.45036">
        <ele>65.522358</ele>
        <time>2021-11-06T15:15:49.447Z</time>
      </trkpt>
      <trkpt lat="47.1501" lon="-1.45037">
        <ele>65.56059</ele>
        <time>2021-11-06T15:15:51.970Z</time>
      </trkpt>
      <trkpt lat="47.15021" lon="-1.45032">
        <ele>65.603138</ele>
        <time>2021-11-06T15:15:53.993Z</time>
      </trkpt>
      <trkpt lat="47.15029" lon="-1.45024">
        <ele>65.643527</ele>
        <time>2021-11-06T15:15:56.854Z</time>
      </trkpt>
      <trkpt lat="47.15039" lon="-1.45018">
        <ele>65.686574</ele>
        <time>2021-11-06T15:15:59.493Z</time>
      </trkpt>
      <trkpt lat="47.15051" lon="-1.4501">
        <ele>65.736928</ele>
        <time>2021-11-06T15:16:01.981Z</time>
      </trkpt>
      <trkpt lat="47.1506" lon="-1.45003">
        <ele>65.778539</ele>
        <time>2021-11-06T15:16:03.951Z</time>
      </trkpt>
      <trkpt lat="47.15068" lon="-1.44995">
        <ele>65.818332</ele>
        <time>2021-11-06T15:16:06.042Z</time>
      </trkpt>
      <trkpt lat="47.15079" lon="-1.44983">
        <ele>65.871192</ele>
        <time>2021-11-06T15:16:08.994Z</time>
      </trkpt>
      <trkpt lat="47.15091" lon="-1.44979">
        <ele>65.662653</ele>
        <time>2021-11-06T15:16:10.970Z</time>
      </trkpt>
      <trkpt lat="47.15101" lon="-1.44974">
        <ele>65.084375</ele>
        <time>2021-11-06T15:16:12.981Z</time>
      </trkpt>
      <trkpt lat="47.1511" lon="-1.44966">
        <ele>64.496338</ele>
        <time>2021-11-06T15:16:15.544Z</time>
      </trkpt>
      <trkpt lat="47.15119" lon="-1.44957">
        <ele>63.901281</ele>
        <time>2021-11-06T15:16:18.506Z</time>
      </trkpt>
      <trkpt lat="47.15128" lon="-1.44953">
        <ele>63.396076</ele>
        <time>2021-11-06T15:16:21.852Z</time>
      </trkpt>
      <trkpt lat="47.15137" lon="-1.44949">
        <ele>62.868178</ele>
        <time>2021-11-06T15:16:24.852Z</time>
      </trkpt>
      <trkpt lat="47.15148" lon="-1.44943">
        <ele>62.237543</ele>
        <time>2021-11-06T15:16:28.251Z</time>
      </trkpt>
      <trkpt lat="47.15157" lon="-1.44938">
        <ele>61.702923</ele>
        <time>2021-11-06T15:16:31.948Z</time>
      </trkpt>
      <trkpt lat="47.15148" lon="-1.44938">
        <ele>61.196039</ele>
        <time>2021-11-06T15:16:48.310Z</time>
      </trkpt>
      <trkpt lat="47.1514" lon="-1.44944">
        <ele>60.700303</ele>
        <time>2021-11-06T15:16:50.835Z</time>
      </trkpt>
      <trkpt lat="47.1513" lon="-1.44951">
        <ele>60.131007</ele>
        <time>2021-11-06T15:16:54.354Z</time>
      </trkpt>
      <trkpt lat="47.15122" lon="-1.44957">
        <ele>59.621721</ele>
        <time>2021-11-06T15:16:57.431Z</time>
      </trkpt>
      <trkpt lat="47.15113" lon="-1.44962">
        <ele>59.114131</ele>
        <time>2021-11-06T15:17:01.529Z</time>
      </trkpt>
      <trkpt lat="47.15104" lon="-1.44969">
        <ele>58.527016</ele>
        <time>2021-11-06T15:17:05.587Z</time>
      </trkpt>
      <trkpt lat="47.15097" lon="-1.44978">
        <ele>58.028581</ele>
        <time>2021-11-06T15:17:09.452Z</time>
      </trkpt>
      <trkpt lat="47.15087" lon="-1.44982">
        <ele>57.446257</ele>
        <time>2021-11-06T15:17:13.507Z</time>
      </trkpt>
      <trkpt lat="47.15077" lon="-1.44985">
        <ele>56.918875</ele>
        <time>2021-11-06T15:17:16.745Z</time>
      </trkpt>
      <trkpt lat="47.15069" lon="-1.44992">
        <ele>56.408473</ele>
        <time>2021-11-06T15:17:20.731Z</time>
      </trkpt>
      <trkpt lat="47.15062" lon="-1.44999">
        <ele>55.983297</ele>
        <time>2021-11-06T15:17:24.248Z</time>
      </trkpt>
      <trkpt lat="47.15067" lon="-1.45011">
        <ele>55.629506</ele>
        <time>2021-11-06T15:17:29.877Z</time>
      </trkpt>
      <trkpt lat="47.15074" lon="-1.45027">
        <ele>55.195561</ele>
        <time>2021-11-06T15:17:33.975Z</time>
      </trkpt>
      <trkpt lat="47.15075" lon="-1.45043">
        <ele>54.811488</ele>
        <time>2021-11-06T15:17:37.249Z</time>
      </trkpt>
      <trkpt lat="47.15076" lon="-1.45058">
        <ele>54.447636</ele>
        <time>2021-11-06T15:17:40.618Z</time>
      </trkpt>
      <trkpt lat="47.15078" lon="-1.45072">
        <ele>54.096065</ele>
        <time>2021-11-06T15:17:43.452Z</time>
      </trkpt>
      <trkpt lat="47.1508" lon="-1.45089">
        <ele>53.699281</ele>
        <time>2021-11-06T15:17:46.485Z</time>
      </trkpt>
      <trkpt lat="47.1508" lon="-1.45102">
        <ele>53.371975</ele>
        <time>2021-11-06T15:17:49.494Z</time>
      </trkpt>
      <trkpt lat="47.15079" lon="-1.45119">
        <ele>52.969888</ele>
        <time>2021-11-06T15:17:52.605Z</time>
      </trkpt>
      <trkpt lat="47.15078" lon="-1.45133">
        <ele>52.628401</ele>
        <time>2021-11-06T15:17:55.616Z</time>
      </trkpt>
      <trkpt lat="47.15078" lon="-1.45148">
        <ele>52.260651</ele>
        <time>2021-11-06T15:17:59.298Z</time>
      </trkpt>
      <trkpt lat="47.15079" lon="-1.45163">
        <ele>51.894757</ele>
        <time>2021-11-06T15:18:02.196Z</time>
      </trkpt>
      <trkpt lat="47.15077" lon="-1.4518">
        <ele>51.491197</ele>
        <time>2021-11-06T15:18:04.777Z</time>
      </trkpt>
      <trkpt lat="47.15075" lon="-1.45199">
        <ele>51.022689</ele>
        <time>2021-11-06T15:18:07.828Z</time>
      </trkpt>
      <trkpt lat="47.15073" lon="-1.45214">
        <ele>50.656017</ele>
        <time>2021-11-06T15:18:10.703Z</time>
      </trkpt>
      <trkpt lat="47.15072" lon="-1.45228">
        <ele>50.3178</ele>
        <time>2021-11-06T15:18:12.967Z</time>
      </trkpt>
      <trkpt lat="47.15068" lon="-1.45247">
        <ele>49.850305</ele>
        <time>2021-11-06T15:18:15.799Z</time>
      </trkpt>
      <trkpt lat="47.15066" lon="-1.4526">
        <ele>49.731753</ele>
        <time>2021-11-06T15:18:17.900Z</time>
      </trkpt>
      <trkpt lat="47.15063" lon="-1.45274">
        <ele>49.71001</ele>
        <time>2021-11-06T15:18:20.258Z</time>
      </trkpt>
      <trkpt lat="47.15067" lon="-1.4529">
        <ele>49.684364</ele>
        <time>2021-11-06T15:18:23.216Z</time>
      </trkpt>
      <trkpt lat="47.15075" lon="-1.453">
        <ele>49.660772</ele>
        <time>2021-11-06T15:18:26.180Z</time>
      </trkpt>
      <trkpt lat="47.15085" lon="-1.45302">
        <ele>49.636321</ele>
        <time>2021-11-06T15:18:28.975Z</time>
      </trkpt>
      <trkpt lat="47.15104" lon="-1.45299">
        <ele>49.594164</ele>
        <time>2021-11-06T15:18:30.967Z</time>
      </trkpt>
      <trkpt lat="47.15114" lon="-1.45302">
        <ele>49.569508</ele>
        <time>2021-11-06T15:18:33.003Z</time>
      </trkpt>
      <trkpt lat="47.15123" lon="-1.45307">
        <ele>49.548091</ele>
        <time>2021-11-06T15:18:35.498Z</time>
      </trkpt>
      <trkpt lat="47.15121" lon="-1.4532">
        <ele>49.526276</ele>
        <time>2021-11-06T15:18:37.235Z</time>
      </trkpt>
      <trkpt lat="47.15117" lon="-1.45333">
        <ele>49.503994</ele>
        <time>2021-11-06T15:18:39.392Z</time>
      </trkpt>
      <trkpt lat="47.15112" lon="-1.45347">
        <ele>49.480392</ele>
        <time>2021-11-06T15:18:41.644Z</time>
      </trkpt>
      <trkpt lat="47.1511" lon="-1.45364">
        <ele>49.454324</ele>
        <time>2021-11-06T15:18:44.766Z</time>
      </trkpt>
      <trkpt lat="47.15106" lon="-1.45381">
        <ele>49.426273</ele>
        <time>2021-11-06T15:18:47.663Z</time>
      </trkpt>
      <trkpt lat="47.151" lon="-1.45396">
        <ele>49.400151</ele>
        <time>2021-11-06T15:18:50.472Z</time>
      </trkpt>
      <trkpt lat="47.15092" lon="-1.45408">
        <ele>49.374335</ele>
        <time>2021-11-06T15:18:53.993Z</time>
      </trkpt>
      <trkpt lat="47.15083" lon="-1.45413">
        <ele>49.35065</ele>
        <time>2021-11-06T15:18:56.747Z</time>
      </trkpt>
      <trkpt lat="47.15073" lon="-1.45422">
        <ele>49.384912</ele>
        <time>2021-11-06T15:18:59.545Z</time>
      </trkpt>
      <trkpt lat="47.15067" lon="-1.45438">
        <ele>49.475482</ele>
        <time>2021-11-06T15:19:02.561Z</time>
      </trkpt>
      <trkpt lat="47.15067" lon="-1.45454">
        <ele>49.558218</ele>
        <time>2021-11-06T15:19:04.018Z</time>
      </trkpt>
      <trkpt lat="47.15068" lon="-1.45468">
        <ele>49.630164</ele>
        <time>2021-11-06T15:19:06.501Z</time>
      </trkpt>
      <trkpt lat="47.15065" lon="-1.45482">
        <ele>49.699244</ele>
        <time>2021-11-06T15:19:08.395Z</time>
      </trkpt>
      <trkpt lat="47.15061" lon="-1.45495">
        <ele>49.773097</ele>
        <time>2021-11-06T15:19:09.975Z</time>
      </trkpt>
      <trkpt lat="47.15058" lon="-1.45511">
        <ele>49.854558</ele>
        <time>2021-11-06T15:19:11.971Z</time>
      </trkpt>
      <trkpt lat="47.15054" lon="-1.45526">
        <ele>49.936019</ele>
        <time>2021-11-06T15:19:14.563Z</time>
      </trkpt>
      <trkpt lat="47.15051" lon="-1.4554">
        <ele>50.011513</ele>
        <time>2021-11-06T15:19:16.902Z</time>
      </trkpt>
      <trkpt lat="47.15048" lon="-1.45555">
        <ele>50.086524</ele>
        <time>2021-11-06T15:19:19.467Z</time>
      </trkpt>
      <trkpt lat="47.15048" lon="-1.45568">
        <ele>50.153732</ele>
        <time>2021-11-06T15:19:21.978Z</time>
      </trkpt>
      <trkpt lat="47.15048" lon="-1.45587">
        <ele>50.251536</ele>
        <time>2021-11-06T15:23:44.984Z</time>
      </trkpt>
      <trkpt lat="47.15041" lon="-1.45597">
        <ele>50.323535</ele>
        <time>2021-11-06T15:24:51.960Z</time>
      </trkpt>
      <trkpt lat="47.15039" lon="-1.45611">
        <ele>50.394486</ele>
        <time>2021-11-06T15:24:55.847Z</time>
      </trkpt>
      <trkpt lat="47.15036" lon="-1.45624">
        <ele>50.463811</ele>
        <time>2021-11-06T15:24:59.006Z</time>
      </trkpt>
      <trkpt lat="47.1503" lon="-1.45636">
        <ele>50.537625</ele>
        <time>2021-11-06T15:25:01.215Z</time>
      </trkpt>
      <trkpt lat="47.15025" lon="-1.45647">
        <ele>50.605682</ele>
        <time>2021-11-06T15:25:03.981Z</time>
      </trkpt>
      <trkpt lat="47.15026" lon="-1.45661">
        <ele>50.685974</ele>
        <time>2021-11-06T15:25:10.526Z</time>
      </trkpt>
      <trkpt lat="47.15034" lon="-1.45682">
        <ele>50.883788</ele>
        <time>2021-11-06T15:25:12.974Z</time>
      </trkpt>
      <trkpt lat="47.15036" lon="-1.45698">
        <ele>51.028365</ele>
        <time>2021-11-06T15:25:14.953Z</time>
      </trkpt>
      <trkpt lat="47.1504" lon="-1.45712">
        <ele>51.160954</ele>
        <time>2021-11-06T15:25:17.291Z</time>
      </trkpt>
      <trkpt lat="47.15039" lon="-1.45728">
        <ele>51.29283</ele>
        <time>2021-11-06T15:25:19.985Z</time>
      </trkpt>
      <trkpt lat="47.15036" lon="-1.45748">
        <ele>51.472707</ele>
        <time>2021-11-06T15:25:22.991Z</time>
      </trkpt>
      <trkpt lat="47.15036" lon="-1.45763">
        <ele>51.599589</ele>
        <time>2021-11-06T15:25:25.495Z</time>
      </trkpt>
      <trkpt lat="47.15033" lon="-1.45783">
        <ele>51.775021</ele>
        <time>2021-11-06T15:25:29.003Z</time>
      </trkpt>
      <trkpt lat="47.15029" lon="-1.45799">
        <ele>51.916487</ele>
        <time>2021-11-06T15:25:32.205Z</time>
      </trkpt>
      <trkpt lat="47.15028" lon="-1.45812">
        <ele>52.031208</ele>
        <time>2021-11-06T15:25:34.341Z</time>
      </trkpt>
      <trkpt lat="47.15026" lon="-1.45827">
        <ele>52.163773</ele>
        <time>2021-11-06T15:25:36.986Z</time>
      </trkpt>
      <trkpt lat="47.15025" lon="-1.45843">
        <ele>52.302436</ele>
        <time>2021-11-06T15:25:39.827Z</time>
      </trkpt>
      <trkpt lat="47.15025" lon="-1.45857">
        <ele>52.418996</ele>
        <time>2021-11-06T15:25:42.425Z</time>
      </trkpt>
      <trkpt lat="47.15027" lon="-1.45871">
        <ele>52.540995</ele>
        <time>2021-11-06T15:25:45.142Z</time>
      </trkpt>
      <trkpt lat="47.15028" lon="-1.45887">
        <ele>52.677596</ele>
        <time>2021-11-06T15:25:47.540Z</time>
      </trkpt>
      <trkpt lat="47.15028" lon="-1.459">
        <ele>52.790628</ele>
        <time>2021-11-06T15:25:49.884Z</time>
      </trkpt>
      <trkpt lat="47.15028" lon="-1.45913">
        <ele>52.906333</ele>
        <time>2021-11-06T15:25:53.898Z</time>
      </trkpt>
      <trkpt lat="47.15021" lon="-1.45926">
        <ele>53.104241</ele>
        <time>2021-11-06T15:25:57.846Z</time>
      </trkpt>
      <trkpt lat="47.15015" lon="-1.45938">
        <ele>53.297889</ele>
        <time>2021-11-06T15:26:01.721Z</time>
      </trkpt>
      <trkpt lat="47.15011" lon="-1.45953">
        <ele>53.510778</ele>
        <time>2021-11-06T15:26:04.896Z</time>
      </trkpt>
      <trkpt lat="47.1501" lon="-1.45968">
        <ele>53.705519</ele>
        <time>2021-11-06T15:26:07.738Z</time>
      </trkpt>
      <trkpt lat="47.15008" lon="-1.45985">
        <ele>53.924679</ele>
        <time>2021-11-06T15:26:10.977Z</time>
      </trkpt>
      <trkpt lat="47.15013" lon="-1.46">
        <ele>54.144082</ele>
        <time>2021-11-06T15:26:13.528Z</time>
      </trkpt>
      <trkpt lat="47.15017" lon="-1.46015">
        <ele>54.350782</ele>
        <time>2021-11-06T15:26:16.548Z</time>
      </trkpt>
      <trkpt lat="47.15021" lon="-1.46028">
        <ele>54.540542</ele>
        <time>2021-11-06T15:26:19.382Z</time>
      </trkpt>
      <trkpt lat="47.15024" lon="-1.46044">
        <ele>54.748555</ele>
        <time>2021-11-06T15:26:22.198Z</time>
      </trkpt>
      <trkpt lat="47.15026" lon="-1.46059">
        <ele>54.947147</ele>
        <time>2021-11-06T15:26:24.894Z</time>
      </trkpt>
      <trkpt lat="47.15028" lon="-1.46077">
        <ele>55.191361</ele>
        <time>2021-11-06T15:26:28.372Z</time>
      </trkpt>
      <trkpt lat="47.1503" lon="-1.46094">
        <ele>55.420075</ele>
        <time>2021-11-06T15:26:31.778Z</time>
      </trkpt>
      <trkpt lat="47.15032" lon="-1.46108">
        <ele>55.603274</ele>
        <time>2021-11-06T15:26:34.169Z</time>
      </trkpt>
      <trkpt lat="47.15031" lon="-1.46126">
        <ele>55.839598</ele>
        <time>2021-11-06T15:26:37.970Z</time>
      </trkpt>
      <trkpt lat="47.15024" lon="-1.46139">
        <ele>56.037422</ele>
        <time>2021-11-06T15:26:41.360Z</time>
      </trkpt>
      <trkpt lat="47.15017" lon="-1.4615">
        <ele>56.23639</ele>
        <time>2021-11-06T15:26:44.958Z</time>
      </trkpt>
      <trkpt lat="47.15012" lon="-1.46163">
        <ele>56.250968</ele>
        <time>2021-11-06T15:26:47.608Z</time>
      </trkpt>
      <trkpt lat="47.15008" lon="-1.46175">
        <ele>55.908375</ele>
        <time>2021-11-06T15:26:50.000Z</time>
      </trkpt>
      <trkpt lat="47.15005" lon="-1.46188">
        <ele>55.579685</ele>
        <time>2021-11-06T15:26:52.992Z</time>
      </trkpt>
      <trkpt lat="47.14999" lon="-1.46203">
        <ele>55.169148</ele>
        <time>2021-11-06T15:26:55.664Z</time>
      </trkpt>
      <trkpt lat="47.14995" lon="-1.46215">
        <ele>54.831864</ele>
        <time>2021-11-06T15:26:57.964Z</time>
      </trkpt>
      <trkpt lat="47.1499" lon="-1.46229">
        <ele>54.442398</ele>
        <time>2021-11-06T15:27:00.712Z</time>
      </trkpt>
      <trkpt lat="47.14985" lon="-1.46241">
        <ele>54.100665</ele>
        <time>2021-11-06T15:27:03.438Z</time>
      </trkpt>
      <trkpt lat="47.14979" lon="-1.46256">
        <ele>53.666609</ele>
        <time>2021-11-06T15:27:06.691Z</time>
      </trkpt>
      <trkpt lat="47.14974" lon="-1.4627">
        <ele>53.275661</ele>
        <time>2021-11-06T15:27:09.646Z</time>
      </trkpt>
      <trkpt lat="47.14973" lon="-1.4629">
        <ele>52.781171</ele>
        <time>2021-11-06T15:27:13.970Z</time>
      </trkpt>
      <trkpt lat="47.14975" lon="-1.46305">
        <ele>52.4014</ele>
        <time>2021-11-06T15:27:16.466Z</time>
      </trkpt>
      <trkpt lat="47.14979" lon="-1.46319">
        <ele>52.038793</ele>
        <time>2021-11-06T15:27:18.879Z</time>
      </trkpt>
      <trkpt lat="47.14984" lon="-1.46338">
        <ele>51.549896</ele>
        <time>2021-11-06T15:27:20.975Z</time>
      </trkpt>
      <trkpt lat="47.14983" lon="-1.46354">
        <ele>51.157922</ele>
        <time>2021-11-06T15:27:23.004Z</time>
      </trkpt>
      <trkpt lat="47.14983" lon="-1.4637">
        <ele>50.781656</ele>
        <time>2021-11-06T15:27:25.765Z</time>
      </trkpt>
      <trkpt lat="47.14981" lon="-1.46384">
        <ele>50.413379</ele>
        <time>2021-11-06T15:27:28.078Z</time>
      </trkpt>
      <trkpt lat="47.1498" lon="-1.464">
        <ele>50.024808</ele>
        <time>2021-11-06T15:27:30.547Z</time>
      </trkpt>
      <trkpt lat="47.14978" lon="-1.46415">
        <ele>50.012356</ele>
        <time>2021-11-06T15:27:32.839Z</time>
      </trkpt>
      <trkpt lat="47.14974" lon="-1.46436">
        <ele>50.239117</ele>
        <time>2021-11-06T15:27:36.012Z</time>
      </trkpt>
      <trkpt lat="47.14973" lon="-1.46451">
        <ele>50.396681</ele>
        <time>2021-11-06T15:27:38.493Z</time>
      </trkpt>
      <trkpt lat="47.14971" lon="-1.46468">
        <ele>50.566582</ele>
        <time>2021-11-06T15:27:41.384Z</time>
      </trkpt>
      <trkpt lat="47.1497" lon="-1.46486">
        <ele>50.758587</ele>
        <time>2021-11-06T15:27:44.035Z</time>
      </trkpt>
      <trkpt lat="47.14972" lon="-1.46515">
        <ele>51.050993</ele>
        <time>2021-11-06T15:27:47.987Z</time>
      </trkpt>
      <trkpt lat="47.14972" lon="-1.46529">
        <ele>51.199499</ele>
        <time>2021-11-06T15:27:49.956Z</time>
      </trkpt>
      <trkpt lat="47.14972" lon="-1.46543">
        <ele>51.339836</ele>
        <time>2021-11-06T15:27:51.987Z</time>
      </trkpt>
      <trkpt lat="47.14972" lon="-1.46562">
        <ele>51.534629</ele>
        <time>2021-11-06T15:27:55.001Z</time>
      </trkpt>
      <trkpt lat="47.14973" lon="-1.46577">
        <ele>51.687342</ele>
        <time>2021-11-06T15:27:56.966Z</time>
      </trkpt>
      <trkpt lat="47.14974" lon="-1.46591">
        <ele>51.835743</ele>
        <time>2021-11-06T15:27:58.985Z</time>
      </trkpt>
      <trkpt lat="47.14977" lon="-1.46607">
        <ele>52.006879</ele>
        <time>2021-11-06T15:28:01.706Z</time>
      </trkpt>
      <trkpt lat="47.14979" lon="-1.4662">
        <ele>52.145377</ele>
        <time>2021-11-06T15:28:03.865Z</time>
      </trkpt>
      <trkpt lat="47.14984" lon="-1.46641">
        <ele>52.365013</ele>
        <time>2021-11-06T15:28:07.002Z</time>
      </trkpt>
      <trkpt lat="47.14986" lon="-1.46654">
        <ele>52.503571</ele>
        <time>2021-11-06T15:28:09.437Z</time>
      </trkpt>
      <trkpt lat="47.1499" lon="-1.46669">
        <ele>52.733017</ele>
        <time>2021-11-06T15:28:12.165Z</time>
      </trkpt>
      <trkpt lat="47.14993" lon="-1.46682">
        <ele>53.029489</ele>
        <time>2021-11-06T15:28:14.443Z</time>
      </trkpt>
      <trkpt lat="47.14997" lon="-1.46697">
        <ele>53.385636</ele>
        <time>2021-11-06T15:28:17.134Z</time>
      </trkpt>
      <trkpt lat="47.15002" lon="-1.46712">
        <ele>53.7418</ele>
        <time>2021-11-06T15:28:19.868Z</time>
      </trkpt>
      <trkpt lat="47.15008" lon="-1.46723">
        <ele>54.062669</ele>
        <time>2021-11-06T15:28:22.717Z</time>
      </trkpt>
      <trkpt lat="47.15022" lon="-1.46728">
        <ele>54.522527</ele>
        <time>2021-11-06T15:28:25.989Z</time>
      </trkpt>
      <trkpt lat="47.15019" lon="-1.46747">
        <ele>54.94646</ele>
        <time>2021-11-06T15:28:29.434Z</time>
      </trkpt>
      <trkpt lat="47.15018" lon="-1.46761">
        <ele>55.258721</ele>
        <time>2021-11-06T15:28:30.993Z</time>
      </trkpt>
      <trkpt lat="47.15016" lon="-1.46776">
        <ele>55.59143</ele>
        <time>2021-11-06T15:28:34.160Z</time>
      </trkpt>
      <trkpt lat="47.15015" lon="-1.46791">
        <ele>55.921257</ele>
        <time>2021-11-06T15:28:36.968Z</time>
      </trkpt>
      <trkpt lat="47.15013" lon="-1.46805">
        <ele>56.249642</ele>
        <time>2021-11-06T15:28:39.601Z</time>
      </trkpt>
      <trkpt lat="47.15008" lon="-1.46819">
        <ele>56.597506</ele>
        <time>2021-11-06T15:28:42.390Z</time>
      </trkpt>
      <trkpt lat="47.14998" lon="-1.46827">
        <ele>56.975174</ele>
        <time>2021-11-06T15:28:45.329Z</time>
      </trkpt>
      <trkpt lat="47.14989" lon="-1.46835">
        <ele>57.313371</ele>
        <time>2021-11-06T15:28:48.681Z</time>
      </trkpt>
      <trkpt lat="47.14992" lon="-1.46848">
        <ele>57.625536</ele>
        <time>2021-11-06T15:28:51.975Z</time>
      </trkpt>
      <trkpt lat="47.14999" lon="-1.46861">
        <ele>57.974736</ele>
        <time>2021-11-06T15:28:55.995Z</time>
      </trkpt>
      <trkpt lat="47.15009" lon="-1.46865">
        <ele>58.301359</ele>
        <time>2021-11-06T15:28:58.692Z</time>
      </trkpt>
      <trkpt lat="47.1502" lon="-1.46864">
        <ele>58.389359</ele>
        <time>2021-11-06T15:29:01.533Z</time>
      </trkpt>
      <trkpt lat="47.15031" lon="-1.46862">
        <ele>58.285698</ele>
        <time>2021-11-06T15:29:04.522Z</time>
      </trkpt>
      <trkpt lat="47.15043" lon="-1.46858">
        <ele>58.181292</ele>
        <time>2021-11-06T15:29:07.770Z</time>
      </trkpt>
      <trkpt lat="47.15053" lon="-1.46857">
        <ele>58.091482</ele>
        <time>2021-11-06T15:29:10.539Z</time>
      </trkpt>
      <trkpt lat="47.15062" lon="-1.46856">
        <ele>58.005451</ele>
        <time>2021-11-06T15:29:12.972Z</time>
      </trkpt>
      <trkpt lat="47.15072" lon="-1.46856">
        <ele>57.915911</ele>
        <time>2021-11-06T15:29:15.504Z</time>
      </trkpt>
      <trkpt lat="47.15081" lon="-1.46855">
        <ele>57.830703</ele>
        <time>2021-11-06T15:29:17.574Z</time>
      </trkpt>
      <trkpt lat="47.15095" lon="-1.46855">
        <ele>57.707706</ele>
        <time>2021-11-06T15:29:19.987Z</time>
      </trkpt>
      <trkpt lat="47.15105" lon="-1.46854">
        <ele>57.617243</ele>
        <time>2021-11-06T15:29:21.954Z</time>
      </trkpt>
      <trkpt lat="47.15115" lon="-1.46854">
        <ele>57.525876</ele>
        <time>2021-11-06T15:29:23.976Z</time>
      </trkpt>
      <trkpt lat="47.15126" lon="-1.46852">
        <ele>57.424197</ele>
        <time>2021-11-06T15:29:25.967Z</time>
      </trkpt>
      <trkpt lat="47.15138" lon="-1.4685">
        <ele>57.314939</ele>
        <time>2021-11-06T15:29:27.982Z</time>
      </trkpt>
      <trkpt lat="47.1515" lon="-1.46849">
        <ele>57.209974</ele>
        <time>2021-11-06T15:29:29.978Z</time>
      </trkpt>
      <trkpt lat="47.15162" lon="-1.46849">
        <ele>57.102342</ele>
        <time>2021-11-06T15:29:31.997Z</time>
      </trkpt>
      <trkpt lat="47.15175" lon="-1.46847">
        <ele>56.986199</ele>
        <time>2021-11-06T15:29:33.979Z</time>
      </trkpt>
      <trkpt lat="47.15188" lon="-1.46847">
        <ele>56.865023</ele>
        <time>2021-11-06T15:29:35.969Z</time>
      </trkpt>
      <trkpt lat="47.15202" lon="-1.46845">
        <ele>56.486239</ele>
        <time>2021-11-06T15:29:37.966Z</time>
      </trkpt>
      <trkpt lat="47.15214" lon="-1.46843">
        <ele>56.019911</ele>
        <time>2021-11-06T15:29:39.971Z</time>
      </trkpt>
      <trkpt lat="47.15226" lon="-1.46841">
        <ele>55.566387</ele>
        <time>2021-11-06T15:29:41.973Z</time>
      </trkpt>
      <trkpt lat="47.15239" lon="-1.46838">
        <ele>55.091298</ele>
        <time>2021-11-06T15:29:43.987Z</time>
      </trkpt>
      <trkpt lat="47.15251" lon="-1.46837">
        <ele>54.638434</ele>
        <time>2021-11-06T15:29:45.965Z</time>
      </trkpt>
      <trkpt lat="47.15262" lon="-1.46833">
        <ele>54.203386</ele>
        <time>2021-11-06T15:29:47.981Z</time>
      </trkpt>
      <trkpt lat="47.15274" lon="-1.46832">
        <ele>53.767897</ele>
        <time>2021-11-06T15:29:49.965Z</time>
      </trkpt>
      <trkpt lat="47.15287" lon="-1.46827">
        <ele>53.260342</ele>
        <time>2021-11-06T15:29:51.964Z</time>
      </trkpt>
      <trkpt lat="47.153" lon="-1.46819">
        <ele>52.727113</ele>
        <time>2021-11-06T15:29:53.968Z</time>
      </trkpt>
      <trkpt lat="47.15313" lon="-1.46812">
        <ele>52.225377</ele>
        <time>2021-11-06T15:29:55.967Z</time>
      </trkpt>
      <trkpt lat="47.15325" lon="-1.46806">
        <ele>51.755225</ele>
        <time>2021-11-06T15:29:57.961Z</time>
      </trkpt>
      <trkpt lat="47.15337" lon="-1.46801">
        <ele>51.265969</ele>
        <time>2021-11-06T15:29:59.997Z</time>
      </trkpt>
      <trkpt lat="47.1535" lon="-1.46796">
        <ele>50.790596</ele>
        <time>2021-11-06T15:30:01.986Z</time>
      </trkpt>
      <trkpt lat="47.15362" lon="-1.4679">
        <ele>50.302732</ele>
        <time>2021-11-06T15:30:03.993Z</time>
      </trkpt>
      <trkpt lat="47.15374" lon="-1.46782">
        <ele>50.468343</ele>
        <time>2021-11-06T15:30:05.967Z</time>
      </trkpt>
      <trkpt lat="47.15386" lon="-1.46775">
        <ele>50.983954</ele>
        <time>2021-11-06T15:30:07.983Z</time>
      </trkpt>
      <trkpt lat="47.15395" lon="-1.46768">
        <ele>51.441211</ele>
        <time>2021-11-06T15:30:09.998Z</time>
      </trkpt>
      <trkpt lat="47.15405" lon="-1.46761">
        <ele>51.885814</ele>
        <time>2021-11-06T15:30:11.985Z</time>
      </trkpt>
      <trkpt lat="47.15416" lon="-1.46754">
        <ele>52.387631</ele>
        <time>2021-11-06T15:30:14.984Z</time>
      </trkpt>
      <trkpt lat="47.15425" lon="-1.46747">
        <ele>52.847441</ele>
        <time>2021-11-06T15:30:18.052Z</time>
      </trkpt>
      <trkpt lat="47.15433" lon="-1.46737">
        <ele>53.268226</ele>
        <time>2021-11-06T15:30:22.642Z</time>
      </trkpt>
      <trkpt lat="47.1544" lon="-1.4673">
        <ele>53.656971</ele>
        <time>2021-11-06T15:30:26.525Z</time>
      </trkpt>
      <trkpt lat="47.15448" lon="-1.4674">
        <ele>54.085402</ele>
        <time>2021-11-06T15:30:39.619Z</time>
      </trkpt>
      <trkpt lat="47.15457" lon="-1.46756">
        <ele>54.683456</ele>
        <time>2021-11-06T15:30:42.981Z</time>
      </trkpt>
      <trkpt lat="47.15463" lon="-1.46766">
        <ele>55.077234</ele>
        <time>2021-11-06T15:30:44.958Z</time>
      </trkpt>
      <trkpt lat="47.15469" lon="-1.46781">
        <ele>55.572583</ele>
        <time>2021-11-06T15:30:47.979Z</time>
      </trkpt>
      <trkpt lat="47.1546" lon="-1.46796">
        <ele>56.133393</ele>
        <time>2021-11-06T15:30:50.964Z</time>
      </trkpt>
      <trkpt lat="47.15447" lon="-1.46804">
        <ele>56.742872</ele>
        <time>2021-11-06T15:30:52.997Z</time>
      </trkpt>
      <trkpt lat="47.15434" lon="-1.46812">
        <ele>57.331762</ele>
        <time>2021-11-06T15:30:54.959Z</time>
      </trkpt>
      <trkpt lat="47.15421" lon="-1.4682">
        <ele>57.658764</ele>
        <time>2021-11-06T15:30:56.991Z</time>
      </trkpt>
      <trkpt lat="47.15408" lon="-1.46829">
        <ele>57.465377</ele>
        <time>2021-11-06T15:30:58.974Z</time>
      </trkpt>
      <trkpt lat="47.15396" lon="-1.4684">
        <ele>57.273665</ele>
        <time>2021-11-06T15:31:00.971Z</time>
      </trkpt>
      <trkpt lat="47.15389" lon="-1.46856">
        <ele>57.109154</ele>
        <time>2021-11-06T15:31:02.963Z</time>
      </trkpt>
      <trkpt lat="47.15392" lon="-1.46874">
        <ele>56.939182</ele>
        <time>2021-11-06T15:31:04.990Z</time>
      </trkpt>
      <trkpt lat="47.15399" lon="-1.46889">
        <ele>56.778963</ele>
        <time>2021-11-06T15:31:06.971Z</time>
      </trkpt>
      <trkpt lat="47.15406" lon="-1.46901">
        <ele>56.635426</ele>
        <time>2021-11-06T15:31:08.985Z</time>
      </trkpt>
      <trkpt lat="47.15415" lon="-1.46911">
        <ele>56.489141</ele>
        <time>2021-11-06T15:31:10.977Z</time>
      </trkpt>
      <trkpt lat="47.15423" lon="-1.46921">
        <ele>56.345838</ele>
        <time>2021-11-06T15:31:12.963Z</time>
      </trkpt>
      <trkpt lat="47.15432" lon="-1.4693">
        <ele>56.204307</ele>
        <time>2021-11-06T15:31:14.970Z</time>
      </trkpt>
      <trkpt lat="47.1544" lon="-1.4694">
        <ele>56.065414</ele>
        <time>2021-11-06T15:31:16.970Z</time>
      </trkpt>
      <trkpt lat="47.15447" lon="-1.4695">
        <ele>55.928809</ele>
        <time>2021-11-06T15:31:18.970Z</time>
      </trkpt>
      <trkpt lat="47.15455" lon="-1.4696">
        <ele>55.788499</ele>
        <time>2021-11-06T15:31:20.975Z</time>
      </trkpt>
      <trkpt lat="47.15463" lon="-1.46971">
        <ele>55.650179</ele>
        <time>2021-11-06T15:31:22.971Z</time>
      </trkpt>
      <trkpt lat="47.15471" lon="-1.46979">
        <ele>55.519917</ele>
        <time>2021-11-06T15:31:24.983Z</time>
      </trkpt>
      <trkpt lat="47.1548" lon="-1.46985">
        <ele>55.389419</ele>
        <time>2021-11-06T15:31:26.991Z</time>
      </trkpt>
      <trkpt lat="47.15489" lon="-1.46991">
        <ele>55.315582</ele>
        <time>2021-11-06T15:31:28.981Z</time>
      </trkpt>
      <trkpt lat="47.15497" lon="-1.46995">
        <ele>55.277006</ele>
        <time>2021-11-06T15:31:30.999Z</time>
      </trkpt>
      <trkpt lat="47.15507" lon="-1.46998">
        <ele>55.235719</ele>
        <time>2021-11-06T15:31:32.963Z</time>
      </trkpt>
      <trkpt lat="47.15517" lon="-1.47001">
        <ele>55.192272</ele>
        <time>2021-11-06T15:31:34.994Z</time>
      </trkpt>
      <trkpt lat="47.15527" lon="-1.47005">
        <ele>55.148951</ele>
        <time>2021-11-06T15:31:36.971Z</time>
      </trkpt>
      <trkpt lat="47.15537" lon="-1.47007">
        <ele>55.105384</ele>
        <time>2021-11-06T15:31:38.984Z</time>
      </trkpt>
      <trkpt lat="47.15546" lon="-1.47011">
        <ele>55.063055</ele>
        <time>2021-11-06T15:31:40.980Z</time>
      </trkpt>
      <trkpt lat="47.15555" lon="-1.47016">
        <ele>55.023577</ele>
        <time>2021-11-06T15:31:43.017Z</time>
      </trkpt>
      <trkpt lat="47.15566" lon="-1.4702">
        <ele>54.975843</ele>
        <time>2021-11-06T15:31:45.994Z</time>
      </trkpt>
      <trkpt lat="47.15574" lon="-1.47024">
        <ele>54.936708</ele>
        <time>2021-11-06T15:31:47.991Z</time>
      </trkpt>
      <trkpt lat="47.15584" lon="-1.4703">
        <ele>54.893751</ele>
        <time>2021-11-06T15:31:50.009Z</time>
      </trkpt>
      <trkpt lat="47.15593" lon="-1.47036">
        <ele>54.851853</ele>
        <time>2021-11-06T15:31:51.969Z</time>
      </trkpt>
      <trkpt lat="47.15606" lon="-1.47037">
        <ele>54.794888</ele>
        <time>2021-11-06T15:31:54.971Z</time>
      </trkpt>
      <trkpt lat="47.15616" lon="-1.47034">
        <ele>54.75026</ele>
        <time>2021-11-06T15:31:56.972Z</time>
      </trkpt>
      <trkpt lat="47.15629" lon="-1.47036">
        <ele>54.69347</ele>
        <time>2021-11-06T15:31:59.976Z</time>
      </trkpt>
      <trkpt lat="47.15641" lon="-1.47047">
        <ele>54.636227</ele>
        <time>2021-11-06T15:32:02.991Z</time>
      </trkpt>
      <trkpt lat="47.15649" lon="-1.47059">
        <ele>54.586764</ele>
        <time>2021-11-06T15:32:06.002Z</time>
      </trkpt>
      <trkpt lat="47.15655" lon="-1.47076">
        <ele>54.758123</ele>
        <time>2021-11-06T15:32:09.228Z</time>
      </trkpt>
      <trkpt lat="47.1567" lon="-1.47086">
        <ele>55.07409</ele>
        <time>2021-11-06T15:32:11.978Z</time>
      </trkpt>
      <trkpt lat="47.1568" lon="-1.47091">
        <ele>55.271713</ele>
        <time>2021-11-06T15:32:13.965Z</time>
      </trkpt>
      <trkpt lat="47.15691" lon="-1.47103">
        <ele>55.522178</ele>
        <time>2021-11-06T15:32:16.983Z</time>
      </trkpt>
      <trkpt lat="47.15699" lon="-1.47113">
        <ele>55.7266</ele>
        <time>2021-11-06T15:32:18.983Z</time>
      </trkpt>
      <trkpt lat="47.15706" lon="-1.47124">
        <ele>55.921488</ele>
        <time>2021-11-06T15:32:20.976Z</time>
      </trkpt>
      <trkpt lat="47.15713" lon="-1.47135">
        <ele>56.104349</ele>
        <time>2021-11-06T15:32:22.956Z</time>
      </trkpt>
      <trkpt lat="47.1572" lon="-1.47143">
        <ele>56.282046</ele>
        <time>2021-11-06T15:32:24.992Z</time>
      </trkpt>
      <trkpt lat="47.15732" lon="-1.47155">
        <ele>56.540345</ele>
        <time>2021-11-06T15:32:27.980Z</time>
      </trkpt>
      <trkpt lat="47.1574" lon="-1.47161">
        <ele>56.715736</ele>
        <time>2021-11-06T15:32:29.972Z</time>
      </trkpt>
      <trkpt lat="47.15748" lon="-1.47168">
        <ele>56.891457</ele>
        <time>2021-11-06T15:32:31.991Z</time>
      </trkpt>
      <trkpt lat="47.15759" lon="-1.47175">
        <ele>57.127807</ele>
        <time>2021-11-06T15:32:35.088Z</time>
      </trkpt>
      <trkpt lat="47.15769" lon="-1.47185">
        <ele>57.337321</ele>
        <time>2021-11-06T15:32:38.000Z</time>
      </trkpt>
      <trkpt lat="47.15778" lon="-1.47196">
        <ele>57.569791</ele>
        <time>2021-11-06T15:32:40.991Z</time>
      </trkpt>
      <trkpt lat="47.15788" lon="-1.47206">
        <ele>57.795251</ele>
        <time>2021-11-06T15:32:43.985Z</time>
      </trkpt>
      <trkpt lat="47.15794" lon="-1.47217">
        <ele>57.929711</ele>
        <time>2021-11-06T15:32:46.001Z</time>
      </trkpt>
      <trkpt lat="47.15798" lon="-1.47233">
        <ele>57.629731</ele>
        <time>2021-11-06T15:32:48.872Z</time>
      </trkpt>
      <trkpt lat="47.15804" lon="-1.47246">
        <ele>57.335541</ele>
        <time>2021-11-06T15:32:51.481Z</time>
      </trkpt>
      <trkpt lat="47.15811" lon="-1.47263">
        <ele>56.964453</ele>
        <time>2021-11-06T15:32:54.570Z</time>
      </trkpt>
      <trkpt lat="47.15819" lon="-1.47277">
        <ele>56.622106</ele>
        <time>2021-11-06T15:32:57.014Z</time>
      </trkpt>
      <trkpt lat="47.15825" lon="-1.47289">
        <ele>56.35233</ele>
        <time>2021-11-06T15:32:58.989Z</time>
      </trkpt>
      <trkpt lat="47.15831" lon="-1.47301">
        <ele>56.073355</ele>
        <time>2021-11-06T15:33:00.967Z</time>
      </trkpt>
      <trkpt lat="47.15836" lon="-1.47314">
        <ele>55.806019</ele>
        <time>2021-11-06T15:33:02.989Z</time>
      </trkpt>
      <trkpt lat="47.15841" lon="-1.47326">
        <ele>55.536352</ele>
        <time>2021-11-06T15:33:04.970Z</time>
      </trkpt>
      <trkpt lat="47.15848" lon="-1.47337">
        <ele>55.26499</ele>
        <time>2021-11-06T15:33:06.980Z</time>
      </trkpt>
      <trkpt lat="47.15857" lon="-1.4735">
        <ele>54.917922</ele>
        <time>2021-11-06T15:33:10.007Z</time>
      </trkpt>
      <trkpt lat="47.15866" lon="-1.47363">
        <ele>54.568983</ele>
        <time>2021-11-06T15:33:12.986Z</time>
      </trkpt>
      <trkpt lat="47.15873" lon="-1.47372">
        <ele>54.321723</ele>
        <time>2021-11-06T15:33:14.986Z</time>
      </trkpt>
      <trkpt lat="47.1588" lon="-1.47387">
        <ele>53.976749</ele>
        <time>2021-11-06T15:33:17.986Z</time>
      </trkpt>
      <trkpt lat="47.15886" lon="-1.47398">
        <ele>53.714243</ele>
        <time>2021-11-06T15:33:20.004Z</time>
      </trkpt>
      <trkpt lat="47.15892" lon="-1.4741">
        <ele>53.448798</ele>
        <time>2021-11-06T15:33:21.974Z</time>
      </trkpt>
      <trkpt lat="47.15899" lon="-1.47421">
        <ele>53.157792</ele>
        <time>2021-11-06T15:33:23.972Z</time>
      </trkpt>
      <trkpt lat="47.15906" lon="-1.47431">
        <ele>53.046729</ele>
        <time>2021-11-06T15:33:25.994Z</time>
      </trkpt>
      <trkpt lat="47.15914" lon="-1.4744">
        <ele>53.024236</ele>
        <time>2021-11-06T15:33:28.976Z</time>
      </trkpt>
      <trkpt lat="47.15906" lon="-1.47427">
        <ele>52.997339</ele>
        <time>2021-11-06T15:33:38.782Z</time>
      </trkpt>
      <trkpt lat="47.15899" lon="-1.47416">
        <ele>52.9737</ele>
        <time>2021-11-06T15:33:42.666Z</time>
      </trkpt>
      <trkpt lat="47.15909" lon="-1.47416">
        <ele>52.950038</ele>
        <time>2021-11-06T15:33:48.166Z</time>
      </trkpt>
      <trkpt lat="47.15918" lon="-1.47412">
        <ele>52.927995</ele>
        <time>2021-11-06T15:33:55.559Z</time>
      </trkpt>
      <trkpt lat="47.15925" lon="-1.47404">
        <ele>52.906834</ele>
        <time>2021-11-06T15:34:15.971Z</time>
      </trkpt>
      <trkpt lat="47.15939" lon="-1.47389">
        <ele>52.865755</ele>
        <time>2021-11-06T15:35:18.976Z</time>
      </trkpt>
      <trkpt lat="47.15949" lon="-1.47381">
        <ele>52.840386</ele>
        <time>2021-11-06T15:35:21.556Z</time>
      </trkpt>
      <trkpt lat="47.15956" lon="-1.47374">
        <ele>52.818623</ele>
        <time>2021-11-06T15:35:24.321Z</time>
      </trkpt>
      <trkpt lat="47.15966" lon="-1.47364">
        <ele>52.790674</ele>
        <time>2021-11-06T15:35:29.523Z</time>
      </trkpt>
      <trkpt lat="47.15975" lon="-1.47357">
        <ele>52.765941</ele>
        <time>2021-11-06T15:35:32.483Z</time>
      </trkpt>
      <trkpt lat="47.15988" lon="-1.47349">
        <ele>52.733401</ele>
        <time>2021-11-06T15:35:36.422Z</time>
      </trkpt>
      <trkpt lat="47.15999" lon="-1.47343">
        <ele>52.706321</ele>
        <time>2021-11-06T15:35:38.744Z</time>
      </trkpt>
      <trkpt lat="47.16008" lon="-1.47338">
        <ele>52.681779</ele>
        <time>2021-11-06T15:35:40.943Z</time>
      </trkpt>
      <trkpt lat="47.16017" lon="-1.47333">
        <ele>52.660236</ele>
        <time>2021-11-06T15:35:43.442Z</time>
      </trkpt>
      <trkpt lat="47.16026" lon="-1.4733">
        <ele>52.638329</ele>
        <time>2021-11-06T15:35:46.976Z</time>
      </trkpt>
      <trkpt lat="47.16037" lon="-1.47325">
        <ele>53.370011</ele>
        <time>2021-11-06T15:35:50.599Z</time>
      </trkpt>
      <trkpt lat="47.16046" lon="-1.4732">
        <ele>54.089361</ele>
        <time>2021-11-06T15:35:53.462Z</time>
      </trkpt>
      <trkpt lat="47.16055" lon="-1.47315">
        <ele>54.833289</ele>
        <time>2021-11-06T15:35:56.969Z</time>
      </trkpt>
      <trkpt lat="47.16065" lon="-1.47311">
        <ele>55.595114</ele>
        <time>2021-11-06T15:36:00.659Z</time>
      </trkpt>
      <trkpt lat="47.16074" lon="-1.47308">
        <ele>56.294649</ele>
        <time>2021-11-06T15:36:03.802Z</time>
      </trkpt>
      <trkpt lat="47.16084" lon="-1.47304">
        <ele>57.074068</ele>
        <time>2021-11-06T15:36:07.679Z</time>
      </trkpt>
      <trkpt lat="47.16093" lon="-1.47298">
        <ele>57.797197</ele>
        <time>2021-11-06T15:36:11.954Z</time>
      </trkpt>
      <trkpt lat="47.16103" lon="-1.47292">
        <ele>58.642843</ele>
        <time>2021-11-06T15:36:16.992Z</time>
      </trkpt>
      <trkpt lat="47.16112" lon="-1.47287">
        <ele>59.322332</ele>
        <time>2021-11-06T15:36:19.986Z</time>
      </trkpt>
      <trkpt lat="47.16121" lon="-1.47278">
        <ele>60.169202</ele>
        <time>2021-11-06T15:36:23.786Z</time>
      </trkpt>
      <trkpt lat="47.1613" lon="-1.4727">
        <ele>60.923751</ele>
        <time>2021-11-06T15:36:27.707Z</time>
      </trkpt>
      <trkpt lat="47.16138" lon="-1.47264">
        <ele>61.620255</ele>
        <time>2021-11-06T15:36:31.456Z</time>
      </trkpt>
      <trkpt lat="47.16148" lon="-1.47261">
        <ele>62.392766</ele>
        <time>2021-11-06T15:36:35.479Z</time>
      </trkpt>
      <trkpt lat="47.16158" lon="-1.47262">
        <ele>63.131859</ele>
        <time>2021-11-06T15:36:38.539Z</time>
      </trkpt>
      <trkpt lat="47.16167" lon="-1.47264">
        <ele>63.8265</ele>
        <time>2021-11-06T15:36:42.996Z</time>
      </trkpt>
      <trkpt lat="47.16176" lon="-1.4727">
        <ele>64.526965</ele>
        <time>2021-11-06T15:36:52.561Z</time>
      </trkpt>
      <trkpt lat="47.16189" lon="-1.47289">
        <ele>65.907964</ele>
        <time>2021-11-06T15:36:54.977Z</time>
      </trkpt>
      <trkpt lat="47.16199" lon="-1.47303">
        <ele>65.848555</ele>
        <time>2021-11-06T15:36:56.986Z</time>
      </trkpt>
      <trkpt lat="47.16213" lon="-1.47313">
        <ele>65.538633</ele>
        <time>2021-11-06T15:36:58.970Z</time>
      </trkpt>
      <trkpt lat="47.16228" lon="-1.47318">
        <ele>65.221667</ele>
        <time>2021-11-06T15:37:00.969Z</time>
      </trkpt>
      <trkpt lat="47.16243" lon="-1.47323">
        <ele>64.908103</ele>
        <time>2021-11-06T15:37:02.974Z</time>
      </trkpt>
      <trkpt lat="47.16258" lon="-1.47327">
        <ele>64.598054</ele>
        <time>2021-11-06T15:37:04.982Z</time>
      </trkpt>
      <trkpt lat="47.16273" lon="-1.47329">
        <ele>64.296778</ele>
        <time>2021-11-06T15:37:06.986Z</time>
      </trkpt>
      <trkpt lat="47.16288" lon="-1.47331">
        <ele>64.002118</ele>
        <time>2021-11-06T15:37:08.981Z</time>
      </trkpt>
      <trkpt lat="47.16303" lon="-1.47333">
        <ele>63.69622</ele>
        <time>2021-11-06T15:37:10.973Z</time>
      </trkpt>
      <trkpt lat="47.16318" lon="-1.4733">
        <ele>63.386588</ele>
        <time>2021-11-06T15:37:13.001Z</time>
      </trkpt>
      <trkpt lat="47.1633" lon="-1.47324">
        <ele>63.135835</ele>
        <time>2021-11-06T15:37:14.964Z</time>
      </trkpt>
      <trkpt lat="47.16339" lon="-1.47332">
        <ele>62.915802</ele>
        <time>2021-11-06T15:37:16.968Z</time>
      </trkpt>
      <trkpt lat="47.16346" lon="-1.47345">
        <ele>62.686314</ele>
        <time>2021-11-06T15:37:18.983Z</time>
      </trkpt>
      <trkpt lat="47.16356" lon="-1.47352">
        <ele>62.473126</ele>
        <time>2021-11-06T15:37:20.992Z</time>
      </trkpt>
      <trkpt lat="47.16365" lon="-1.47355">
        <ele>62.554098</ele>
        <time>2021-11-06T15:37:22.992Z</time>
      </trkpt>
      <trkpt lat="47.16375" lon="-1.47359">
        <ele>62.697761</ele>
        <time>2021-11-06T15:37:25.966Z</time>
      </trkpt>
      <trkpt lat="47.16386" lon="-1.4736">
        <ele>62.847428</ele>
        <time>2021-11-06T15:37:28.968Z</time>
      </trkpt>
      <trkpt lat="47.16396" lon="-1.4736">
        <ele>62.976464</ele>
        <time>2021-11-06T15:37:30.990Z</time>
      </trkpt>
      <trkpt lat="47.16409" lon="-1.47362">
        <ele>63.154486</ele>
        <time>2021-11-06T15:37:34.831Z</time>
      </trkpt>
      <trkpt lat="47.16419" lon="-1.47363">
        <ele>63.293517</ele>
        <time>2021-11-06T15:37:37.640Z</time>
      </trkpt>
      <trkpt lat="47.1643" lon="-1.47364">
        <ele>63.434942</ele>
        <time>2021-11-06T15:37:40.634Z</time>
      </trkpt>
      <trkpt lat="47.1644" lon="-1.47365">
        <ele>63.564027</ele>
        <time>2021-11-06T15:37:43.988Z</time>
      </trkpt>
      <trkpt lat="47.16452" lon="-1.47365">
        <ele>63.725318</ele>
        <time>2021-11-06T15:37:47.642Z</time>
      </trkpt>
      <trkpt lat="47.16465" lon="-1.47364">
        <ele>63.908135</ele>
        <time>2021-11-06T15:37:51.641Z</time>
      </trkpt>
      <trkpt lat="47.16476" lon="-1.47365">
        <ele>64.050682</ele>
        <time>2021-11-06T15:37:54.934Z</time>
      </trkpt>
      <trkpt lat="47.16486" lon="-1.47365">
        <ele>64.182432</ele>
        <time>2021-11-06T15:37:57.969Z</time>
      </trkpt>
      <trkpt lat="47.16495" lon="-1.47366">
        <ele>64.304775</ele>
        <time>2021-11-06T15:38:00.722Z</time>
      </trkpt>
      <trkpt lat="47.16505" lon="-1.47366">
        <ele>64.443244</ele>
        <time>2021-11-06T15:38:03.767Z</time>
      </trkpt>
      <trkpt lat="47.16516" lon="-1.47367">
        <ele>64.587352</ele>
        <time>2021-11-06T15:38:06.681Z</time>
      </trkpt>
      <trkpt lat="47.16526" lon="-1.47368">
        <ele>64.726383</ele>
        <time>2021-11-06T15:38:09.011Z</time>
      </trkpt>
      <trkpt lat="47.16537" lon="-1.4737">
        <ele>64.929066</ele>
        <time>2021-11-06T15:38:11.521Z</time>
      </trkpt>
      <trkpt lat="47.16547" lon="-1.47371">
        <ele>65.557125</ele>
        <time>2021-11-06T15:38:13.736Z</time>
      </trkpt>
      <trkpt lat="47.16557" lon="-1.47371">
        <ele>66.184711</ele>
        <time>2021-11-06T15:38:15.923Z</time>
      </trkpt>
      <trkpt lat="47.1657" lon="-1.47372">
        <ele>66.989432</ele>
        <time>2021-11-06T15:38:18.698Z</time>
      </trkpt>
      <trkpt lat="47.16582" lon="-1.47374">
        <ele>67.745695</ele>
        <time>2021-11-06T15:38:21.544Z</time>
      </trkpt>
      <trkpt lat="47.16591" lon="-1.47376">
        <ele>68.347724</ele>
        <time>2021-11-06T15:38:23.842Z</time>
      </trkpt>
      <trkpt lat="47.166" lon="-1.47378">
        <ele>68.931662</ele>
        <time>2021-11-06T15:38:26.144Z</time>
      </trkpt>
      <trkpt lat="47.16609" lon="-1.47381">
        <ele>69.521238</ele>
        <time>2021-11-06T15:38:28.496Z</time>
      </trkpt>
      <trkpt lat="47.16621" lon="-1.47385">
        <ele>70.301302</ele>
        <time>2021-11-06T15:38:31.736Z</time>
      </trkpt>
      <trkpt lat="47.16632" lon="-1.47389">
        <ele>71.003457</ele>
        <time>2021-11-06T15:38:34.721Z</time>
      </trkpt>
      <trkpt lat="47.16643" lon="-1.47393">
        <ele>71.739395</ele>
        <time>2021-11-06T15:38:37.799Z</time>
      </trkpt>
      <trkpt lat="47.16654" lon="-1.47393">
        <ele>72.429631</ele>
        <time>2021-11-06T15:38:40.739Z</time>
      </trkpt>
      <trkpt lat="47.16664" lon="-1.4739">
        <ele>73.078877</ele>
        <time>2021-11-06T15:38:43.619Z</time>
      </trkpt>
      <trkpt lat="47.16674" lon="-1.47387">
        <ele>73.733072</ele>
        <time>2021-11-06T15:38:46.607Z</time>
      </trkpt>
      <trkpt lat="47.16684" lon="-1.47384">
        <ele>74.328837</ele>
        <time>2021-11-06T15:38:50.978Z</time>
      </trkpt>
      <trkpt lat="47.16693" lon="-1.47384">
        <ele>74.905189</ele>
        <time>2021-11-06T15:38:54.512Z</time>
      </trkpt>
      <trkpt lat="47.16702" lon="-1.47381">
        <ele>75.49356</ele>
        <time>2021-11-06T15:38:57.235Z</time>
      </trkpt>
      <trkpt lat="47.16714" lon="-1.47378">
        <ele>76.28548</ele>
        <time>2021-11-06T15:39:00.967Z</time>
      </trkpt>
      <trkpt lat="47.16726" lon="-1.47376">
        <ele>76.801432</ele>
        <time>2021-11-06T15:39:04.726Z</time>
      </trkpt>
      <trkpt lat="47.16735" lon="-1.47373">
        <ele>77.203803</ele>
        <time>2021-11-06T15:39:07.694Z</time>
      </trkpt>
      <trkpt lat="47.16744" lon="-1.47371">
        <ele>77.623298</ele>
        <time>2021-11-06T15:39:10.977Z</time>
      </trkpt>
      <trkpt lat="47.16755" lon="-1.47366">
        <ele>78.160252</ele>
        <time>2021-11-06T15:39:14.920Z</time>
      </trkpt>
      <trkpt lat="47.16766" lon="-1.47363">
        <ele>78.641641</ele>
        <time>2021-11-06T15:39:18.756Z</time>
      </trkpt>
      <trkpt lat="47.16775" lon="-1.47358">
        <ele>79.078927</ele>
        <time>2021-11-06T15:39:22.660Z</time>
      </trkpt>
      <trkpt lat="47.16787" lon="-1.47356">
        <ele>79.608172</ele>
        <time>2021-11-06T15:39:27.976Z</time>
      </trkpt>
      <trkpt lat="47.16795" lon="-1.47351">
        <ele>80.014503</ele>
        <time>2021-11-06T15:39:31.982Z</time>
      </trkpt>
      <trkpt lat="47.16796" lon="-1.47337">
        <ele>80.424892</ele>
        <time>2021-11-06T15:39:35.958Z</time>
      </trkpt>
      <trkpt lat="47.16796" lon="-1.47323">
        <ele>80.858548</ele>
        <time>2021-11-06T15:39:39.555Z</time>
      </trkpt>
      <trkpt lat="47.16807" lon="-1.47316">
        <ele>81.359456</ele>
        <time>2021-11-06T15:39:43.961Z</time>
      </trkpt>
      <trkpt lat="47.16817" lon="-1.47322">
        <ele>81.848006</ele>
        <time>2021-11-06T15:39:46.979Z</time>
      </trkpt>
      <trkpt lat="47.16827" lon="-1.47325">
        <ele>82.32506</ele>
        <time>2021-11-06T15:39:49.824Z</time>
      </trkpt>
      <trkpt lat="47.16837" lon="-1.47329">
        <ele>82.766027</ele>
        <time>2021-11-06T15:39:52.401Z</time>
      </trkpt>
      <trkpt lat="47.16848" lon="-1.47332">
        <ele>83.289615</ele>
        <time>2021-11-06T15:39:55.802Z</time>
      </trkpt>
      <trkpt lat="47.16856" lon="-1.47323">
        <ele>83.715792</ele>
        <time>2021-11-06T15:39:58.977Z</time>
      </trkpt>
      <trkpt lat="47.16856" lon="-1.47309">
        <ele>84.143268</ele>
        <time>2021-11-06T15:40:01.347Z</time>
      </trkpt>
      <trkpt lat="47.16857" lon="-1.47295">
        <ele>84.122354</ele>
        <time>2021-11-06T15:40:03.976Z</time>
      </trkpt>
      <trkpt lat="47.16862" lon="-1.47281">
        <ele>83.902743</ele>
        <time>2021-11-06T15:40:06.757Z</time>
      </trkpt>
      <trkpt lat="47.16873" lon="-1.47279">
        <ele>83.678143</ele>
        <time>2021-11-06T15:40:09.521Z</time>
      </trkpt>
      <trkpt lat="47.16882" lon="-1.47284">
        <ele>83.481353</ele>
        <time>2021-11-06T15:40:10.991Z</time>
      </trkpt>
      <trkpt lat="47.16891" lon="-1.47287">
        <ele>83.292495</ele>
        <time>2021-11-06T15:40:12.971Z</time>
      </trkpt>
      <trkpt lat="47.16902" lon="-1.4729">
        <ele>83.059252</ele>
        <time>2021-11-06T15:40:15.537Z</time>
      </trkpt>
      <trkpt lat="47.16906" lon="-1.47304">
        <ele>82.838624</ele>
        <time>2021-11-06T15:40:16.973Z</time>
      </trkpt>
      <trkpt lat="47.16904" lon="-1.4732">
        <ele>82.607739</ele>
        <time>2021-11-06T15:40:18.977Z</time>
      </trkpt>
      <trkpt lat="47.16902" lon="-1.47335">
        <ele>82.394291</ele>
        <time>2021-11-06T15:40:20.975Z</time>
      </trkpt>
      <trkpt lat="47.16898" lon="-1.47353">
        <ele>82.126434</ele>
        <time>2021-11-06T15:40:24.518Z</time>
      </trkpt>
      <trkpt lat="47.16897" lon="-1.47369">
        <ele>81.902155</ele>
        <time>2021-11-06T15:40:26.871Z</time>
      </trkpt>
      <trkpt lat="47.16898" lon="-1.47391">
        <ele>81.584822</ele>
        <time>2021-11-06T15:40:29.986Z</time>
      </trkpt>
      <trkpt lat="47.16901" lon="-1.47405">
        <ele>81.378451</ele>
        <time>2021-11-06T15:40:31.975Z</time>
      </trkpt>
      <trkpt lat="47.16907" lon="-1.47419">
        <ele>81.156556</ele>
        <time>2021-11-06T15:40:33.964Z</time>
      </trkpt>
      <trkpt lat="47.16912" lon="-1.47433">
        <ele>80.921488</ele>
        <time>2021-11-06T15:40:35.965Z</time>
      </trkpt>
      <trkpt lat="47.16917" lon="-1.47448">
        <ele>80.681101</ele>
        <time>2021-11-06T15:40:37.994Z</time>
      </trkpt>
      <trkpt lat="47.16927" lon="-1.47499">
        <ele>79.914245</ele>
        <time>2021-11-06T15:41:36.978Z</time>
      </trkpt>
      <trkpt lat="47.16929" lon="-1.47513">
        <ele>79.71486</ele>
        <time>2021-11-06T15:41:41.633Z</time>
      </trkpt>
      <trkpt lat="47.1693" lon="-1.47527">
        <ele>79.501826</ele>
        <time>2021-11-06T15:41:45.168Z</time>
      </trkpt>
      <trkpt lat="47.1693" lon="-1.47541">
        <ele>79.3043</ele>
        <time>2021-11-06T15:41:47.348Z</time>
      </trkpt>
      <trkpt lat="47.16929" lon="-1.47554">
        <ele>79.108362</ele>
        <time>2021-11-06T15:41:48.987Z</time>
      </trkpt>
      <trkpt lat="47.1693" lon="-1.4757">
        <ele>78.877317</ele>
        <time>2021-11-06T15:41:50.956Z</time>
      </trkpt>
      <trkpt lat="47.16931" lon="-1.47586">
        <ele>78.644393</ele>
        <time>2021-11-06T15:41:52.954Z</time>
      </trkpt>
      <trkpt lat="47.16932" lon="-1.47602">
        <ele>78.405238</ele>
        <time>2021-11-06T15:41:54.973Z</time>
      </trkpt>
      <trkpt lat="47.16933" lon="-1.47617">
        <ele>78.187598</ele>
        <time>2021-11-06T15:41:56.960Z</time>
      </trkpt>
      <trkpt lat="47.16932" lon="-1.47632">
        <ele>77.971502</ele>
        <time>2021-11-06T15:41:58.974Z</time>
      </trkpt>
      <trkpt lat="47.16932" lon="-1.47646">
        <ele>77.768376</ele>
        <time>2021-11-06T15:42:00.976Z</time>
      </trkpt>
      <trkpt lat="47.16933" lon="-1.47665">
        <ele>77.484926</ele>
        <time>2021-11-06T15:42:03.960Z</time>
      </trkpt>
      <trkpt lat="47.16933" lon="-1.47679">
        <ele>77.274145</ele>
        <time>2021-11-06T15:42:05.960Z</time>
      </trkpt>
      <trkpt lat="47.16934" lon="-1.47694">
        <ele>77.056335</ele>
        <time>2021-11-06T15:42:07.969Z</time>
      </trkpt>
      <trkpt lat="47.16934" lon="-1.47708">
        <ele>76.851648</ele>
        <time>2021-11-06T15:42:09.969Z</time>
      </trkpt>
      <trkpt lat="47.16935" lon="-1.47727">
        <ele>76.359157</ele>
        <time>2021-11-06T15:42:12.970Z</time>
      </trkpt>
      <trkpt lat="47.16936" lon="-1.4774">
        <ele>75.700069</ele>
        <time>2021-11-06T15:42:14.970Z</time>
      </trkpt>
      <trkpt lat="47.16937" lon="-1.47756">
        <ele>74.931605</ele>
        <time>2021-11-06T15:42:16.970Z</time>
      </trkpt>
      <trkpt lat="47.16937" lon="-1.47773">
        <ele>74.125433</ele>
        <time>2021-11-06T15:42:18.968Z</time>
      </trkpt>
      <trkpt lat="47.16939" lon="-1.47788">
        <ele>73.357475</ele>
        <time>2021-11-06T15:42:20.968Z</time>
      </trkpt>
      <trkpt lat="47.16941" lon="-1.47805">
        <ele>72.528435</ele>
        <time>2021-11-06T15:42:22.968Z</time>
      </trkpt>
      <trkpt lat="47.16944" lon="-1.47822">
        <ele>71.664255</ele>
        <time>2021-11-06T15:42:24.965Z</time>
      </trkpt>
      <trkpt lat="47.16949" lon="-1.47838">
        <ele>70.819901</ele>
        <time>2021-11-06T15:42:26.961Z</time>
      </trkpt>
      <trkpt lat="47.16956" lon="-1.47853">
        <ele>69.93284</ele>
        <time>2021-11-06T15:42:28.950Z</time>
      </trkpt>
      <trkpt lat="47.16963" lon="-1.47869">
        <ele>69.025658</ele>
        <time>2021-11-06T15:42:30.965Z</time>
      </trkpt>
      <trkpt lat="47.16971" lon="-1.47884">
        <ele>68.098134</ele>
        <time>2021-11-06T15:42:32.980Z</time>
      </trkpt>
      <trkpt lat="47.1698" lon="-1.479">
        <ele>67.094779</ele>
        <time>2021-11-06T15:42:34.974Z</time>
      </trkpt>
      <trkpt lat="47.1699" lon="-1.47916">
        <ele>66.06611</ele>
        <time>2021-11-06T15:42:36.981Z</time>
      </trkpt>
      <trkpt lat="47.17" lon="-1.47931">
        <ele>65.00369</ele>
        <time>2021-11-06T15:42:38.973Z</time>
      </trkpt>
      <trkpt lat="47.17006" lon="-1.47952">
        <ele>63.889647</ele>
        <time>2021-11-06T15:42:40.969Z</time>
      </trkpt>
      <trkpt lat="47.17016" lon="-1.47971">
        <ele>63.724637</ele>
        <time>2021-11-06T15:42:42.974Z</time>
      </trkpt>
      <trkpt lat="47.17021" lon="-1.47985">
        <ele>63.64738</ele>
        <time>2021-11-06T15:42:45.182Z</time>
      </trkpt>
      <trkpt lat="47.17011" lon="-1.47996">
        <ele>63.554454</ele>
        <time>2021-11-06T15:42:47.957Z</time>
      </trkpt>
      <trkpt lat="47.17002" lon="-1.48008">
        <ele>63.468134</ele>
        <time>2021-11-06T15:42:50.954Z</time>
      </trkpt>
      <trkpt lat="47.16995" lon="-1.4802">
        <ele>63.387968</ele>
        <time>2021-11-06T15:42:53.959Z</time>
      </trkpt>
      <trkpt lat="47.16986" lon="-1.48034">
        <ele>63.298393</ele>
        <time>2021-11-06T15:42:56.982Z</time>
      </trkpt>
      <trkpt lat="47.1698" lon="-1.48048">
        <ele>63.217661</ele>
        <time>2021-11-06T15:42:59.985Z</time>
      </trkpt>
      <trkpt lat="47.16976" lon="-1.4806">
        <ele>63.148632</ele>
        <time>2021-11-06T15:43:01.990Z</time>
      </trkpt>
      <trkpt lat="47.16967" lon="-1.48076">
        <ele>63.052032</ele>
        <time>2021-11-06T15:43:04.974Z</time>
      </trkpt>
      <trkpt lat="47.16962" lon="-1.48088">
        <ele>62.977401</ele>
        <time>2021-11-06T15:43:06.951Z</time>
      </trkpt>
      <trkpt lat="47.16964" lon="-1.48103">
        <ele>62.90564</ele>
        <time>2021-11-06T15:43:08.958Z</time>
      </trkpt>
      <trkpt lat="47.16973" lon="-1.48117">
        <ele>62.809891</ele>
        <time>2021-11-06T15:43:10.963Z</time>
      </trkpt>
      <trkpt lat="47.16984" lon="-1.48126">
        <ele>62.716018</ele>
        <time>2021-11-06T15:43:12.970Z</time>
      </trkpt>
      <trkpt lat="47.16993" lon="-1.48125">
        <ele>62.651041</ele>
        <time>2021-11-06T15:43:15.524Z</time>
      </trkpt>
      <trkpt lat="47.16956" lon="-1.48167">
        <ele>61.621355</ele>
        <time>2021-11-06T15:43:50.984Z</time>
      </trkpt>
      <trkpt lat="47.16955" lon="-1.4818">
        <ele>61.357958</ele>
        <time>2021-11-06T15:43:53.780Z</time>
      </trkpt>
      <trkpt lat="47.16951" lon="-1.48197">
        <ele>61.020557</ele>
        <time>2021-11-06T15:43:56.361Z</time>
      </trkpt>
      <trkpt lat="47.16949" lon="-1.48211">
        <ele>60.731903</ele>
        <time>2021-11-06T15:43:58.958Z</time>
      </trkpt>
      <trkpt lat="47.1695" lon="-1.48224">
        <ele>60.464455</ele>
        <time>2021-11-06T15:44:04.441Z</time>
      </trkpt>
      <trkpt lat="47.16941" lon="-1.48226">
        <ele>60.18023</ele>
        <time>2021-11-06T15:44:07.916Z</time>
      </trkpt>
      <trkpt lat="47.16936" lon="-1.4824">
        <ele>59.878684</ele>
        <time>2021-11-06T15:44:13.347Z</time>
      </trkpt>
      <trkpt lat="47.16942" lon="-1.48256">
        <ele>59.506062</ele>
        <time>2021-11-06T15:44:16.560Z</time>
      </trkpt>
      <trkpt lat="47.16944" lon="-1.48274">
        <ele>59.145198</ele>
        <time>2021-11-06T15:44:19.616Z</time>
      </trkpt>
      <trkpt lat="47.16944" lon="-1.4829">
        <ele>58.83438</ele>
        <time>2021-11-06T15:44:21.965Z</time>
      </trkpt>
      <trkpt lat="47.16944" lon="-1.48309">
        <ele>58.466525</ele>
        <time>2021-11-06T15:44:24.621Z</time>
      </trkpt>
      <trkpt lat="47.16942" lon="-1.48322">
        <ele>58.194246</ele>
        <time>2021-11-06T15:44:26.557Z</time>
      </trkpt>
      <trkpt lat="47.16936" lon="-1.48343">
        <ele>57.755493</ele>
        <time>2021-11-06T15:44:28.988Z</time>
      </trkpt>
      <trkpt lat="47.1693" lon="-1.48362">
        <ele>57.333245</ele>
        <time>2021-11-06T15:44:31.985Z</time>
      </trkpt>
      <trkpt lat="47.16924" lon="-1.48383">
        <ele>56.370118</ele>
        <time>2021-11-06T15:44:34.960Z</time>
      </trkpt>
      <trkpt lat="47.16917" lon="-1.48409">
        <ele>55.134474</ele>
        <time>2021-11-06T15:44:38.962Z</time>
      </trkpt>
      <trkpt lat="47.16914" lon="-1.48424">
        <ele>54.41142</ele>
        <time>2021-11-06T15:44:40.965Z</time>
      </trkpt>
      <trkpt lat="47.16908" lon="-1.48437">
        <ele>53.731681</ele>
        <time>2021-11-06T15:44:43.491Z</time>
      </trkpt>
      <trkpt lat="47.16906" lon="-1.48451">
        <ele>53.106627</ele>
        <time>2021-11-06T15:44:47.313Z</time>
      </trkpt>
      <trkpt lat="47.16903" lon="-1.48467">
        <ele>52.370768</ele>
        <time>2021-11-06T15:44:53.980Z</time>
      </trkpt>
      <trkpt lat="47.16899" lon="-1.48481">
        <ele>51.717722</ele>
        <time>2021-11-06T15:44:56.975Z</time>
      </trkpt>
      <trkpt lat="47.16896" lon="-1.48493">
        <ele>51.128611</ele>
        <time>2021-11-06T15:44:58.978Z</time>
      </trkpt>
      <trkpt lat="47.16893" lon="-1.48506">
        <ele>50.536168</ele>
        <time>2021-11-06T15:45:00.970Z</time>
      </trkpt>
      <trkpt lat="47.1689" lon="-1.48518">
        <ele>49.949534</ele>
        <time>2021-11-06T15:45:02.967Z</time>
      </trkpt>
      <trkpt lat="47.16889" lon="-1.48532">
        <ele>49.322317</ele>
        <time>2021-11-06T15:45:04.990Z</time>
      </trkpt>
      <trkpt lat="47.16887" lon="-1.48547">
        <ele>48.682104</ele>
        <time>2021-11-06T15:45:06.981Z</time>
      </trkpt>
      <trkpt lat="47.16887" lon="-1.48562">
        <ele>48.023514</ele>
        <time>2021-11-06T15:45:08.971Z</time>
      </trkpt>
      <trkpt lat="47.1689" lon="-1.48578">
        <ele>47.263633</ele>
        <time>2021-11-06T15:45:11.989Z</time>
      </trkpt>
      <trkpt lat="47.16892" lon="-1.48592">
        <ele>46.653347</ele>
        <time>2021-11-06T15:45:13.997Z</time>
      </trkpt>
      <trkpt lat="47.16894" lon="-1.48605">
        <ele>46.05819</ele>
        <time>2021-11-06T15:45:15.973Z</time>
      </trkpt>
      <trkpt lat="47.16896" lon="-1.48619">
        <ele>45.717908</ele>
        <time>2021-11-06T15:45:17.959Z</time>
      </trkpt>
      <trkpt lat="47.16899" lon="-1.48634">
        <ele>46.005988</ele>
        <time>2021-11-06T15:45:21.516Z</time>
      </trkpt>
      <trkpt lat="47.16902" lon="-1.48651">
        <ele>46.331819</ele>
        <time>2021-11-06T15:45:23.814Z</time>
      </trkpt>
      <trkpt lat="47.16904" lon="-1.48664">
        <ele>46.581185</ele>
        <time>2021-11-06T15:45:25.548Z</time>
      </trkpt>
      <trkpt lat="47.16908" lon="-1.48682">
        <ele>46.933764</ele>
        <time>2021-11-06T15:45:28.721Z</time>
      </trkpt>
      <trkpt lat="47.16911" lon="-1.48695">
        <ele>47.188006</ele>
        <time>2021-11-06T15:45:30.796Z</time>
      </trkpt>
      <trkpt lat="47.16911" lon="-1.48714">
        <ele>47.534154</ele>
        <time>2021-11-06T15:45:32.973Z</time>
      </trkpt>
      <trkpt lat="47.16915" lon="-1.48727">
        <ele>47.803203</ele>
        <time>2021-11-06T15:45:34.987Z</time>
      </trkpt>
      <trkpt lat="47.16919" lon="-1.48741">
        <ele>48.087416</ele>
        <time>2021-11-06T15:45:37.775Z</time>
      </trkpt>
      <trkpt lat="47.16926" lon="-1.48762">
        <ele>48.511065</ele>
        <time>2021-11-06T15:45:40.989Z</time>
      </trkpt>
      <trkpt lat="47.1693" lon="-1.48776">
        <ele>48.802738</ele>
        <time>2021-11-06T15:45:42.967Z</time>
      </trkpt>
      <trkpt lat="47.16932" lon="-1.48789">
        <ele>49.049752</ele>
        <time>2021-11-06T15:45:45.156Z</time>
      </trkpt>
      <trkpt lat="47.16935" lon="-1.48803">
        <ele>49.322384</ele>
        <time>2021-11-06T15:45:47.789Z</time>
      </trkpt>
      <trkpt lat="47.16936" lon="-1.48817">
        <ele>49.57962</ele>
        <time>2021-11-06T15:45:49.952Z</time>
      </trkpt>
      <trkpt lat="47.16937" lon="-1.48833">
        <ele>49.886325</ele>
        <time>2021-11-06T15:45:51.991Z</time>
      </trkpt>
      <trkpt lat="47.16939" lon="-1.48849">
        <ele>50.184332</ele>
        <time>2021-11-06T15:45:53.956Z</time>
      </trkpt>
      <trkpt lat="47.16941" lon="-1.48864">
        <ele>50.470891</ele>
        <time>2021-11-06T15:45:55.978Z</time>
      </trkpt>
      <trkpt lat="47.16945" lon="-1.48878">
        <ele>50.768768</ele>
        <time>2021-11-06T15:45:57.971Z</time>
      </trkpt>
      <trkpt lat="47.16948" lon="-1.48893">
        <ele>51.068239</ele>
        <time>2021-11-06T15:45:59.966Z</time>
      </trkpt>
      <trkpt lat="47.1695" lon="-1.48908">
        <ele>51.366327</ele>
        <time>2021-11-06T15:46:01.987Z</time>
      </trkpt>
      <trkpt lat="47.16953" lon="-1.48926">
        <ele>51.745768</ele>
        <time>2021-11-06T15:46:04.971Z</time>
      </trkpt>
      <trkpt lat="47.16957" lon="-1.48941">
        <ele>52.056396</ele>
        <time>2021-11-06T15:46:06.966Z</time>
      </trkpt>
      <trkpt lat="47.16959" lon="-1.48956">
        <ele>52.357695</ele>
        <time>2021-11-06T15:46:08.965Z</time>
      </trkpt>
      <trkpt lat="47.16962" lon="-1.4897">
        <ele>52.658921</ele>
        <time>2021-11-06T15:46:11.028Z</time>
      </trkpt>
      <trkpt lat="47.16966" lon="-1.48983">
        <ele>52.951739</ele>
        <time>2021-11-06T15:46:12.972Z</time>
      </trkpt>
      <trkpt lat="47.1697" lon="-1.48997">
        <ele>53.234938</ele>
        <time>2021-11-06T15:46:14.998Z</time>
      </trkpt>
      <trkpt lat="47.16973" lon="-1.49011">
        <ele>53.531674</ele>
        <time>2021-11-06T15:46:16.989Z</time>
      </trkpt>
      <trkpt lat="47.16977" lon="-1.49024">
        <ele>53.818429</ele>
        <time>2021-11-06T15:46:18.983Z</time>
      </trkpt>
      <trkpt lat="47.16981" lon="-1.49037">
        <ele>54.116477</ele>
        <time>2021-11-06T15:46:20.977Z</time>
      </trkpt>
      <trkpt lat="47.16986" lon="-1.49052">
        <ele>54.427995</ele>
        <time>2021-11-06T15:46:22.968Z</time>
      </trkpt>
      <trkpt lat="47.16992" lon="-1.49069">
        <ele>54.817987</ele>
        <time>2021-11-06T15:46:25.993Z</time>
      </trkpt>
      <trkpt lat="47.16994" lon="-1.49086">
        <ele>55.149605</ele>
        <time>2021-11-06T15:46:27.970Z</time>
      </trkpt>
      <trkpt lat="47.16997" lon="-1.49102">
        <ele>55.485823</ele>
        <time>2021-11-06T15:46:29.967Z</time>
      </trkpt>
      <trkpt lat="47.17001" lon="-1.49116">
        <ele>55.785948</ele>
        <time>2021-11-06T15:46:31.975Z</time>
      </trkpt>
      <trkpt lat="47.17005" lon="-1.4913">
        <ele>55.753972</ele>
        <time>2021-11-06T15:46:33.987Z</time>
      </trkpt>
      <trkpt lat="47.17008" lon="-1.49145">
        <ele>55.698051</ele>
        <time>2021-11-06T15:46:35.974Z</time>
      </trkpt>
      <trkpt lat="47.17013" lon="-1.49159">
        <ele>55.643983</ele>
        <time>2021-11-06T15:46:37.992Z</time>
      </trkpt>
      <trkpt lat="47.17019" lon="-1.49171">
        <ele>55.592278</ele>
        <time>2021-11-06T15:46:39.971Z</time>
      </trkpt>
      <trkpt lat="47.17023" lon="-1.49184">
        <ele>55.539579</ele>
        <time>2021-11-06T15:46:41.996Z</time>
      </trkpt>
      <trkpt lat="47.17029" lon="-1.49197">
        <ele>55.486165</ele>
        <time>2021-11-06T15:46:43.995Z</time>
      </trkpt>
      <trkpt lat="47.17033" lon="-1.49212">
        <ele>55.428947</ele>
        <time>2021-11-06T15:46:45.999Z</time>
      </trkpt>
      <trkpt lat="47.17037" lon="-1.49231">
        <ele>55.356228</ele>
        <time>2021-11-06T15:46:48.975Z</time>
      </trkpt>
      <trkpt lat="47.17042" lon="-1.49246">
        <ele>55.298277</ele>
        <time>2021-11-06T15:46:50.986Z</time>
      </trkpt>
      <trkpt lat="47.17046" lon="-1.49259">
        <ele>55.247917</ele>
        <time>2021-11-06T15:46:52.968Z</time>
      </trkpt>
      <trkpt lat="47.17051" lon="-1.49271">
        <ele>55.199241</ele>
        <time>2021-11-06T15:46:54.998Z</time>
      </trkpt>
      <trkpt lat="47.17054" lon="-1.49284">
        <ele>55.148681</ele>
        <time>2021-11-06T15:46:57.011Z</time>
      </trkpt>
      <trkpt lat="47.1706" lon="-1.49302">
        <ele>55.078565</ele>
        <time>2021-11-06T15:46:59.983Z</time>
      </trkpt>
      <trkpt lat="47.17063" lon="-1.49317">
        <ele>55.021442</ele>
        <time>2021-11-06T15:47:01.977Z</time>
      </trkpt>
      <trkpt lat="47.17066" lon="-1.4933">
        <ele>54.971904</ele>
        <time>2021-11-06T15:47:04.001Z</time>
      </trkpt>
      <trkpt lat="47.17072" lon="-1.49347">
        <ele>54.90348</ele>
        <time>2021-11-06T15:47:06.989Z</time>
      </trkpt>
      <trkpt lat="47.17077" lon="-1.49363">
        <ele>54.845461</ele>
        <time>2021-11-06T15:47:08.970Z</time>
      </trkpt>
      <trkpt lat="47.17081" lon="-1.49378">
        <ele>54.792804</ele>
        <time>2021-11-06T15:47:11.006Z</time>
      </trkpt>
      <trkpt lat="47.17085" lon="-1.49392">
        <ele>54.742621</ele>
        <time>2021-11-06T15:47:12.989Z</time>
      </trkpt>
      <trkpt lat="47.17091" lon="-1.49404">
        <ele>54.6955</ele>
        <time>2021-11-06T15:47:15.002Z</time>
      </trkpt>
      <trkpt lat="47.17097" lon="-1.49416">
        <ele>54.649221</ele>
        <time>2021-11-06T15:47:16.978Z</time>
      </trkpt>
      <trkpt lat="47.17101" lon="-1.49428">
        <ele>54.603328</ele>
        <time>2021-11-06T15:47:18.977Z</time>
      </trkpt>
      <trkpt lat="47.17105" lon="-1.4944">
        <ele>54.560098</ele>
        <time>2021-11-06T15:47:21.001Z</time>
      </trkpt>
      <trkpt lat="47.17109" lon="-1.49456">
        <ele>54.507679</ele>
        <time>2021-11-06T15:47:22.974Z</time>
      </trkpt>
      <trkpt lat="47.17113" lon="-1.4947">
        <ele>54.456212</ele>
        <time>2021-11-06T15:47:24.978Z</time>
      </trkpt>
      <trkpt lat="47.17118" lon="-1.49483">
        <ele>54.40682</ele>
        <time>2021-11-06T15:47:27.004Z</time>
      </trkpt>
      <trkpt lat="47.17121" lon="-1.49498">
        <ele>54.359031</ele>
        <time>2021-11-06T15:47:28.971Z</time>
      </trkpt>
      <trkpt lat="47.17124" lon="-1.49512">
        <ele>54.310445</ele>
        <time>2021-11-06T15:47:30.974Z</time>
      </trkpt>
      <trkpt lat="47.17126" lon="-1.49526">
        <ele>54.264171</ele>
        <time>2021-11-06T15:47:32.998Z</time>
      </trkpt>
      <trkpt lat="47.17129" lon="-1.4954">
        <ele>54.217926</ele>
        <time>2021-11-06T15:47:34.997Z</time>
      </trkpt>
      <trkpt lat="47.17134" lon="-1.49551">
        <ele>54.173647</ele>
        <time>2021-11-06T15:47:36.981Z</time>
      </trkpt>
      <trkpt lat="47.17138" lon="-1.49564">
        <ele>54.128865</ele>
        <time>2021-11-06T15:47:38.971Z</time>
      </trkpt>
      <trkpt lat="47.1714" lon="-1.49578">
        <ele>54.081963</ele>
        <time>2021-11-06T15:47:40.974Z</time>
      </trkpt>
      <trkpt lat="47.17143" lon="-1.49593">
        <ele>54.032519</ele>
        <time>2021-11-06T15:47:42.993Z</time>
      </trkpt>
      <trkpt lat="47.17146" lon="-1.49606">
        <ele>54.003111</ele>
        <time>2021-11-06T15:47:44.969Z</time>
      </trkpt>
      <trkpt lat="47.1715" lon="-1.4962">
        <ele>53.986664</ele>
        <time>2021-11-06T15:47:46.976Z</time>
      </trkpt>
      <trkpt lat="47.17154" lon="-1.49635">
        <ele>53.970056</ele>
        <time>2021-11-06T15:47:48.998Z</time>
      </trkpt>
      <trkpt lat="47.17157" lon="-1.49648">
        <ele>53.95504</ele>
        <time>2021-11-06T15:47:50.978Z</time>
      </trkpt>
      <trkpt lat="47.17162" lon="-1.49663">
        <ele>53.937056</ele>
        <time>2021-11-06T15:47:52.967Z</time>
      </trkpt>
      <trkpt lat="47.17166" lon="-1.49679">
        <ele>53.918795</ele>
        <time>2021-11-06T15:47:54.990Z</time>
      </trkpt>
      <trkpt lat="47.1717" lon="-1.49693">
        <ele>53.902411</ele>
        <time>2021-11-06T15:47:56.974Z</time>
      </trkpt>
      <trkpt lat="47.17175" lon="-1.49706">
        <ele>53.885804</ele>
        <time>2021-11-06T15:47:58.984Z</time>
      </trkpt>
      <trkpt lat="47.17178" lon="-1.4972">
        <ele>53.87037</ele>
        <time>2021-11-06T15:48:00.988Z</time>
      </trkpt>
      <trkpt lat="47.17182" lon="-1.49734">
        <ele>53.853982</ele>
        <time>2021-11-06T15:48:02.997Z</time>
      </trkpt>
      <trkpt lat="47.17186" lon="-1.49748">
        <ele>53.837618</ele>
        <time>2021-11-06T15:48:04.998Z</time>
      </trkpt>
      <trkpt lat="47.1719" lon="-1.49761">
        <ele>53.822053</ele>
        <time>2021-11-06T15:48:06.980Z</time>
      </trkpt>
      <trkpt lat="47.17194" lon="-1.49775">
        <ele>53.805607</ele>
        <time>2021-11-06T15:48:08.995Z</time>
      </trkpt>
      <trkpt lat="47.17199" lon="-1.49788">
        <ele>53.789722</ele>
        <time>2021-11-06T15:48:10.994Z</time>
      </trkpt>
      <trkpt lat="47.17203" lon="-1.49801">
        <ele>53.774511</ele>
        <time>2021-11-06T15:48:12.997Z</time>
      </trkpt>
      <trkpt lat="47.17207" lon="-1.49814">
        <ele>53.758508</ele>
        <time>2021-11-06T15:48:14.995Z</time>
      </trkpt>
      <trkpt lat="47.17212" lon="-1.49829">
        <ele>53.740885</ele>
        <time>2021-11-06T15:48:16.981Z</time>
      </trkpt>
      <trkpt lat="47.17217" lon="-1.49843">
        <ele>53.729743</ele>
        <time>2021-11-06T15:48:18.992Z</time>
      </trkpt>
      <trkpt lat="47.17222" lon="-1.49856">
        <ele>53.760074</ele>
        <time>2021-11-06T15:48:20.991Z</time>
      </trkpt>
      <trkpt lat="47.17227" lon="-1.49868">
        <ele>53.787129</ele>
        <time>2021-11-06T15:48:22.982Z</time>
      </trkpt>
      <trkpt lat="47.17231" lon="-1.4988">
        <ele>53.814878</ele>
        <time>2021-11-06T15:48:25.003Z</time>
      </trkpt>
      <trkpt lat="47.17236" lon="-1.49893">
        <ele>53.844735</ele>
        <time>2021-11-06T15:48:26.998Z</time>
      </trkpt>
      <trkpt lat="47.17242" lon="-1.49907">
        <ele>53.875632</ele>
        <time>2021-11-06T15:48:28.970Z</time>
      </trkpt>
      <trkpt lat="47.17246" lon="-1.49921">
        <ele>53.905961</ele>
        <time>2021-11-06T15:48:30.980Z</time>
      </trkpt>
      <trkpt lat="47.1725" lon="-1.49934">
        <ele>53.934846</ele>
        <time>2021-11-06T15:48:32.964Z</time>
      </trkpt>
      <trkpt lat="47.17254" lon="-1.49946">
        <ele>53.962529</ele>
        <time>2021-11-06T15:48:35.027Z</time>
      </trkpt>
      <trkpt lat="47.17259" lon="-1.49961">
        <ele>53.995566</ele>
        <time>2021-11-06T15:48:37.987Z</time>
      </trkpt>
      <trkpt lat="47.17263" lon="-1.49977">
        <ele>54.029067</ele>
        <time>2021-11-06T15:48:40.987Z</time>
      </trkpt>
      <trkpt lat="47.17269" lon="-1.49989">
        <ele>54.05829</ele>
        <time>2021-11-06T15:48:42.890Z</time>
      </trkpt>
      <trkpt lat="47.17274" lon="-1.50003">
        <ele>54.089313</ele>
        <time>2021-11-06T15:48:44.966Z</time>
      </trkpt>
      <trkpt lat="47.17278" lon="-1.50016">
        <ele>54.118076</ele>
        <time>2021-11-06T15:48:46.960Z</time>
      </trkpt>
      <trkpt lat="47.17284" lon="-1.50027">
        <ele>54.145354</ele>
        <time>2021-11-06T15:48:48.987Z</time>
      </trkpt>
      <trkpt lat="47.17289" lon="-1.5004">
        <ele>54.175649</ele>
        <time>2021-11-06T15:48:52.658Z</time>
      </trkpt>
      <trkpt lat="47.17298" lon="-1.50046">
        <ele>54.202787</ele>
        <time>2021-11-06T15:48:54.631Z</time>
      </trkpt>
      <trkpt lat="47.17305" lon="-1.50056">
        <ele>54.233082</ele>
        <time>2021-11-06T15:48:57.981Z</time>
      </trkpt>
      <trkpt lat="47.17333" lon="-1.50116">
        <ele>54.171721</ele>
        <time>2021-11-06T15:49:31.976Z</time>
      </trkpt>
      <trkpt lat="47.17338" lon="-1.50128">
        <ele>54.154016</ele>
        <time>2021-11-06T15:49:33.968Z</time>
      </trkpt>
      <trkpt lat="47.17343" lon="-1.50141">
        <ele>54.135892</ele>
        <time>2021-11-06T15:49:35.979Z</time>
      </trkpt>
      <trkpt lat="47.17348" lon="-1.50153">
        <ele>54.11824</ele>
        <time>2021-11-06T15:49:37.971Z</time>
      </trkpt>
      <trkpt lat="47.17354" lon="-1.50165">
        <ele>54.101052</ele>
        <time>2021-11-06T15:49:39.973Z</time>
      </trkpt>
      <trkpt lat="47.17359" lon="-1.50177">
        <ele>54.083555</ele>
        <time>2021-11-06T15:49:41.997Z</time>
      </trkpt>
      <trkpt lat="47.17363" lon="-1.5019">
        <ele>54.065258</ele>
        <time>2021-11-06T15:49:43.980Z</time>
      </trkpt>
      <trkpt lat="47.17371" lon="-1.50204">
        <ele>54.04235</ele>
        <time>2021-11-06T15:49:46.991Z</time>
      </trkpt>
      <trkpt lat="47.17377" lon="-1.50217">
        <ele>54.023941</ele>
        <time>2021-11-06T15:49:48.969Z</time>
      </trkpt>
      <trkpt lat="47.17383" lon="-1.5023">
        <ele>54.005501</ele>
        <time>2021-11-06T15:49:50.980Z</time>
      </trkpt>
      <trkpt lat="47.17388" lon="-1.50242">
        <ele>53.987456</ele>
        <time>2021-11-06T15:49:52.988Z</time>
      </trkpt>
      <trkpt lat="47.17392" lon="-1.50255">
        <ele>53.969847</ele>
        <time>2021-11-06T15:49:54.973Z</time>
      </trkpt>
      <trkpt lat="47.17396" lon="-1.50267">
        <ele>53.952783</ele>
        <time>2021-11-06T15:49:56.982Z</time>
      </trkpt>
      <trkpt lat="47.17402" lon="-1.50278">
        <ele>53.936082</ele>
        <time>2021-11-06T15:49:58.979Z</time>
      </trkpt>
      <trkpt lat="47.17408" lon="-1.50293">
        <ele>53.792714</ele>
        <time>2021-11-06T15:50:01.969Z</time>
      </trkpt>
      <trkpt lat="47.17414" lon="-1.50305">
        <ele>53.573272</ele>
        <time>2021-11-06T15:50:03.975Z</time>
      </trkpt>
      <trkpt lat="47.17421" lon="-1.50319">
        <ele>53.327092</ele>
        <time>2021-11-06T15:50:05.979Z</time>
      </trkpt>
      <trkpt lat="47.17426" lon="-1.50333">
        <ele>53.090969</ele>
        <time>2021-11-06T15:50:07.989Z</time>
      </trkpt>
      <trkpt lat="47.17432" lon="-1.50346">
        <ele>52.860798</ele>
        <time>2021-11-06T15:50:09.958Z</time>
      </trkpt>
      <trkpt lat="47.17438" lon="-1.50357">
        <ele>52.63983</ele>
        <time>2021-11-06T15:50:11.999Z</time>
      </trkpt>
      <trkpt lat="47.17444" lon="-1.50369">
        <ele>52.42422</ele>
        <time>2021-11-06T15:50:13.978Z</time>
      </trkpt>
      <trkpt lat="47.17449" lon="-1.50381">
        <ele>52.204969</ele>
        <time>2021-11-06T15:50:15.969Z</time>
      </trkpt>
      <trkpt lat="47.17456" lon="-1.50392">
        <ele>51.992137</ele>
        <time>2021-11-06T15:50:17.977Z</time>
      </trkpt>
      <trkpt lat="47.17463" lon="-1.50404">
        <ele>51.753402</ele>
        <time>2021-11-06T15:50:19.979Z</time>
      </trkpt>
      <trkpt lat="47.17469" lon="-1.50417">
        <ele>51.519318</ele>
        <time>2021-11-06T15:50:21.991Z</time>
      </trkpt>
      <trkpt lat="47.17475" lon="-1.50429">
        <ele>51.29143</ele>
        <time>2021-11-06T15:50:23.997Z</time>
      </trkpt>
      <trkpt lat="47.17482" lon="-1.50441">
        <ele>51.067237</ele>
        <time>2021-11-06T15:50:25.952Z</time>
      </trkpt>
      <trkpt lat="47.17487" lon="-1.50453">
        <ele>50.861564</ele>
        <time>2021-11-06T15:50:27.988Z</time>
      </trkpt>
      <trkpt lat="47.17492" lon="-1.50465">
        <ele>50.644944</ele>
        <time>2021-11-06T15:50:29.984Z</time>
      </trkpt>
      <trkpt lat="47.17499" lon="-1.50481">
        <ele>50.359054</ele>
        <time>2021-11-06T15:50:32.968Z</time>
      </trkpt>
      <trkpt lat="47.17506" lon="-1.50494">
        <ele>50.11803</ele>
        <time>2021-11-06T15:50:34.994Z</time>
      </trkpt>
      <trkpt lat="47.17511" lon="-1.50505">
        <ele>50.077607</ele>
        <time>2021-11-06T15:50:36.967Z</time>
      </trkpt>
      <trkpt lat="47.17518" lon="-1.50518">
        <ele>50.361424</ele>
        <time>2021-11-06T15:50:38.969Z</time>
      </trkpt>
      <trkpt lat="47.17526" lon="-1.50528">
        <ele>50.625405</ele>
        <time>2021-11-06T15:50:40.996Z</time>
      </trkpt>
      <trkpt lat="47.17535" lon="-1.50542">
        <ele>50.966093</ele>
        <time>2021-11-06T15:50:44.008Z</time>
      </trkpt>
      <trkpt lat="47.17542" lon="-1.50551">
        <ele>51.217515</ele>
        <time>2021-11-06T15:50:45.991Z</time>
      </trkpt>
      <trkpt lat="47.1755" lon="-1.50563">
        <ele>51.50744</ele>
        <time>2021-11-06T15:50:48.004Z</time>
      </trkpt>
      <trkpt lat="47.17556" lon="-1.50574">
        <ele>51.743077</ele>
        <time>2021-11-06T15:50:49.992Z</time>
      </trkpt>
      <trkpt lat="47.17564" lon="-1.50586">
        <ele>52.026895</ele>
        <time>2021-11-06T15:50:51.959Z</time>
      </trkpt>
      <trkpt lat="47.17571" lon="-1.50599">
        <ele>52.323935</ele>
        <time>2021-11-06T15:50:53.965Z</time>
      </trkpt>
      <trkpt lat="47.17577" lon="-1.50611">
        <ele>52.592862</ele>
        <time>2021-11-06T15:50:56.025Z</time>
      </trkpt>
      <trkpt lat="47.17585" lon="-1.50622">
        <ele>52.879979</ele>
        <time>2021-11-06T15:50:58.980Z</time>
      </trkpt>
      <trkpt lat="47.17591" lon="-1.50634">
        <ele>53.133087</ele>
        <time>2021-11-06T15:51:01.363Z</time>
      </trkpt>
      <trkpt lat="47.17598" lon="-1.50644">
        <ele>53.383862</ele>
        <time>2021-11-06T15:51:03.815Z</time>
      </trkpt>
      <trkpt lat="47.17606" lon="-1.50653">
        <ele>53.63854</ele>
        <time>2021-11-06T15:51:06.551Z</time>
      </trkpt>
      <trkpt lat="47.17614" lon="-1.50663">
        <ele>53.904121</ele>
        <time>2021-11-06T15:51:09.873Z</time>
      </trkpt>
      <trkpt lat="47.17622" lon="-1.50677">
        <ele>54.216653</ele>
        <time>2021-11-06T15:51:12.785Z</time>
      </trkpt>
      <trkpt lat="47.17629" lon="-1.5069">
        <ele>54.514678</ele>
        <time>2021-11-06T15:51:14.983Z</time>
      </trkpt>
      <trkpt lat="47.17635" lon="-1.50701">
        <ele>54.608585</ele>
        <time>2021-11-06T15:51:16.988Z</time>
      </trkpt>
      <trkpt lat="47.17641" lon="-1.50711">
        <ele>54.60669</ele>
        <time>2021-11-06T15:51:18.970Z</time>
      </trkpt>
      <trkpt lat="47.17646" lon="-1.50723">
        <ele>54.604634</ele>
        <time>2021-11-06T15:51:21.244Z</time>
      </trkpt>
      <trkpt lat="47.17645" lon="-1.50736">
        <ele>54.602711</ele>
        <time>2021-11-06T15:51:23.480Z</time>
      </trkpt>
      <trkpt lat="47.17636" lon="-1.50751">
        <ele>54.599942</ele>
        <time>2021-11-06T15:51:26.025Z</time>
      </trkpt>
      <trkpt lat="47.17628" lon="-1.50764">
        <ele>54.597489</ele>
        <time>2021-11-06T15:51:29.000Z</time>
      </trkpt>
      <trkpt lat="47.17629" lon="-1.50783">
        <ele>54.594701</ele>
        <time>2021-11-06T15:51:32.443Z</time>
      </trkpt>
      <trkpt lat="47.17637" lon="-1.50795">
        <ele>54.592422</ele>
        <time>2021-11-06T15:51:34.781Z</time>
      </trkpt>
      <trkpt lat="47.17645" lon="-1.50805">
        <ele>54.590191</ele>
        <time>2021-11-06T15:51:37.252Z</time>
      </trkpt>
      <trkpt lat="47.17651" lon="-1.50815">
        <ele>54.588205</ele>
        <time>2021-11-06T15:51:39.758Z</time>
      </trkpt>
      <trkpt lat="47.17665" lon="-1.50822">
        <ele>54.585238</ele>
        <time>2021-11-06T15:51:41.985Z</time>
      </trkpt>
      <trkpt lat="47.17677" lon="-1.50814">
        <ele>54.582335</ele>
        <time>2021-11-06T15:51:43.968Z</time>
      </trkpt>
      <trkpt lat="47.17685" lon="-1.50801">
        <ele>54.579843</ele>
        <time>2021-11-06T15:51:45.994Z</time>
      </trkpt>
      <trkpt lat="47.17693" lon="-1.50791">
        <ele>54.577626</ele>
        <time>2021-11-06T15:51:47.977Z</time>
      </trkpt>
      <trkpt lat="47.17707" lon="-1.50793">
        <ele>54.57485</ele>
        <time>2021-11-06T15:51:50.971Z</time>
      </trkpt>
      <trkpt lat="47.17714" lon="-1.50802">
        <ele>54.572743</ele>
        <time>2021-11-06T15:51:52.970Z</time>
      </trkpt>
      <trkpt lat="47.17722" lon="-1.50813">
        <ele>54.576128</ele>
        <time>2021-11-06T15:51:55.576Z</time>
      </trkpt>
      <trkpt lat="47.17734" lon="-1.50829">
        <ele>54.583612</ele>
        <time>2021-11-06T15:51:58.993Z</time>
      </trkpt>
      <trkpt lat="47.17741" lon="-1.50839">
        <ele>54.587853</ele>
        <time>2021-11-06T15:52:01.001Z</time>
      </trkpt>
      <trkpt lat="47.17748" lon="-1.50847">
        <ele>54.592181</ele>
        <time>2021-11-06T15:52:02.997Z</time>
      </trkpt>
      <trkpt lat="47.17756" lon="-1.50857">
        <ele>54.596656</ele>
        <time>2021-11-06T15:52:04.969Z</time>
      </trkpt>
      <trkpt lat="47.17762" lon="-1.50866">
        <ele>54.600951</ele>
        <time>2021-11-06T15:52:06.980Z</time>
      </trkpt>
      <trkpt lat="47.1777" lon="-1.50875">
        <ele>54.605513</ele>
        <time>2021-11-06T15:52:08.985Z</time>
      </trkpt>
      <trkpt lat="47.17778" lon="-1.50883">
        <ele>54.610154</ele>
        <time>2021-11-06T15:52:10.979Z</time>
      </trkpt>
      <trkpt lat="47.17786" lon="-1.50892">
        <ele>54.614622</ele>
        <time>2021-11-06T15:52:12.973Z</time>
      </trkpt>
      <trkpt lat="47.17795" lon="-1.509">
        <ele>54.619462</ele>
        <time>2021-11-06T15:52:14.974Z</time>
      </trkpt>
      <trkpt lat="47.17804" lon="-1.50909">
        <ele>54.624284</ele>
        <time>2021-11-06T15:52:16.997Z</time>
      </trkpt>
      <trkpt lat="47.17812" lon="-1.50918">
        <ele>54.628883</ele>
        <time>2021-11-06T15:52:18.992Z</time>
      </trkpt>
      <trkpt lat="47.17821" lon="-1.50928">
        <ele>54.634389</ele>
        <time>2021-11-06T15:52:21.967Z</time>
      </trkpt>
      <trkpt lat="47.1783" lon="-1.50935">
        <ele>54.638867</ele>
        <time>2021-11-06T15:52:23.984Z</time>
      </trkpt>
      <trkpt lat="47.1784" lon="-1.50948">
        <ele>54.645009</ele>
        <time>2021-11-06T15:52:26.976Z</time>
      </trkpt>
      <trkpt lat="47.17851" lon="-1.50966">
        <ele>54.6527</ele>
        <time>2021-11-06T15:52:30.983Z</time>
      </trkpt>
      <trkpt lat="47.17859" lon="-1.50978">
        <ele>54.661535</ele>
        <time>2021-11-06T15:52:33.432Z</time>
      </trkpt>
      <trkpt lat="47.17868" lon="-1.50991">
        <ele>54.673758</ele>
        <time>2021-11-06T15:52:35.000Z</time>
      </trkpt>
      <trkpt lat="47.17876" lon="-1.51002">
        <ele>54.685193</ele>
        <time>2021-11-06T15:52:36.969Z</time>
      </trkpt>
      <trkpt lat="47.17883" lon="-1.51012">
        <ele>54.694929</ele>
        <time>2021-11-06T15:52:38.972Z</time>
      </trkpt>
      <trkpt lat="47.17891" lon="-1.51022">
        <ele>54.705284</ele>
        <time>2021-11-06T15:52:40.975Z</time>
      </trkpt>
      <trkpt lat="47.17899" lon="-1.51033">
        <ele>54.716078</ele>
        <time>2021-11-06T15:52:42.986Z</time>
      </trkpt>
      <trkpt lat="47.17907" lon="-1.51043">
        <ele>54.726689</ele>
        <time>2021-11-06T15:52:44.974Z</time>
      </trkpt>
      <trkpt lat="47.17915" lon="-1.51054">
        <ele>54.737465</ele>
        <time>2021-11-06T15:52:46.985Z</time>
      </trkpt>
      <trkpt lat="47.17923" lon="-1.51064">
        <ele>54.748545</ele>
        <time>2021-11-06T15:52:48.964Z</time>
      </trkpt>
      <trkpt lat="47.17931" lon="-1.51074">
        <ele>54.759329</ele>
        <time>2021-11-06T15:52:50.959Z</time>
      </trkpt>
      <trkpt lat="47.1794" lon="-1.51085">
        <ele>54.771332</ele>
        <time>2021-11-06T15:52:52.958Z</time>
      </trkpt>
      <trkpt lat="47.17948" lon="-1.51095">
        <ele>54.78137</ele>
        <time>2021-11-06T15:52:54.961Z</time>
      </trkpt>
      <trkpt lat="47.17956" lon="-1.51104">
        <ele>54.791532</ele>
        <time>2021-11-06T15:52:56.959Z</time>
      </trkpt>
      <trkpt lat="47.17964" lon="-1.51113">
        <ele>54.801945</ele>
        <time>2021-11-06T15:52:58.975Z</time>
      </trkpt>
      <trkpt lat="47.17974" lon="-1.51121">
        <ele>54.813256</ele>
        <time>2021-11-06T15:53:00.972Z</time>
      </trkpt>
      <trkpt lat="47.17983" lon="-1.51128">
        <ele>54.823521</ele>
        <time>2021-11-06T15:53:02.997Z</time>
      </trkpt>
      <trkpt lat="47.17992" lon="-1.51135">
        <ele>54.833723</ele>
        <time>2021-11-06T15:53:04.961Z</time>
      </trkpt>
      <trkpt lat="47.18002" lon="-1.51141">
        <ele>54.771337</ele>
        <time>2021-11-06T15:53:07.126Z</time>
      </trkpt>
      <trkpt lat="47.18011" lon="-1.51146">
        <ele>54.691963</ele>
        <time>2021-11-06T15:53:08.972Z</time>
      </trkpt>
      <trkpt lat="47.18021" lon="-1.51149">
        <ele>54.610341</ele>
        <time>2021-11-06T15:53:10.974Z</time>
      </trkpt>
      <trkpt lat="47.18031" lon="-1.5115">
        <ele>54.530557</ele>
        <time>2021-11-06T15:53:12.960Z</time>
      </trkpt>
      <trkpt lat="47.1804" lon="-1.51152">
        <ele>54.45348</ele>
        <time>2021-11-06T15:53:14.993Z</time>
      </trkpt>
      <trkpt lat="47.18049" lon="-1.51155">
        <ele>54.380452</ele>
        <time>2021-11-06T15:53:17.066Z</time>
      </trkpt>
      <trkpt lat="47.18055" lon="-1.51171">
        <ele>54.282557</ele>
        <time>2021-11-06T15:53:19.968Z</time>
      </trkpt>
      <trkpt lat="47.18053" lon="-1.51189">
        <ele>54.184457</ele>
        <time>2021-11-06T15:53:21.970Z</time>
      </trkpt>
      <trkpt lat="47.18054" lon="-1.51205">
        <ele>54.09202</ele>
        <time>2021-11-06T15:53:24.011Z</time>
      </trkpt>
      <trkpt lat="47.18055" lon="-1.51221">
        <ele>54.003887</ele>
        <time>2021-11-06T15:53:25.989Z</time>
      </trkpt>
      <trkpt lat="47.18057" lon="-1.51237">
        <ele>53.918015</ele>
        <time>2021-11-06T15:53:27.974Z</time>
      </trkpt>
      <trkpt lat="47.18059" lon="-1.51252">
        <ele>53.83586</ele>
        <time>2021-11-06T15:53:29.980Z</time>
      </trkpt>
      <trkpt lat="47.1806" lon="-1.51266">
        <ele>53.754882</ele>
        <time>2021-11-06T15:53:31.998Z</time>
      </trkpt>
      <trkpt lat="47.1806" lon="-1.51281">
        <ele>53.673932</ele>
        <time>2021-11-06T15:53:33.985Z</time>
      </trkpt>
      <trkpt lat="47.18062" lon="-1.51296">
        <ele>53.591427</ele>
        <time>2021-11-06T15:53:35.989Z</time>
      </trkpt>
      <trkpt lat="47.18064" lon="-1.51311">
        <ele>53.505189</ele>
        <time>2021-11-06T15:53:37.991Z</time>
      </trkpt>
      <trkpt lat="47.18067" lon="-1.51325">
        <ele>53.42549</ele>
        <time>2021-11-06T15:53:39.968Z</time>
      </trkpt>
      <trkpt lat="47.1807" lon="-1.51339">
        <ele>53.401613</ele>
        <time>2021-11-06T15:53:41.985Z</time>
      </trkpt>
      <trkpt lat="47.18075" lon="-1.51351">
        <ele>53.427749</ele>
        <time>2021-11-06T15:53:43.977Z</time>
      </trkpt>
      <trkpt lat="47.1808" lon="-1.51363">
        <ele>53.453319</ele>
        <time>2021-11-06T15:53:45.992Z</time>
      </trkpt>
      <trkpt lat="47.18085" lon="-1.51377">
        <ele>53.480692</ele>
        <time>2021-11-06T15:53:47.991Z</time>
      </trkpt>
      <trkpt lat="47.18089" lon="-1.51391">
        <ele>53.506665</ele>
        <time>2021-11-06T15:53:50.093Z</time>
      </trkpt>
      <trkpt lat="47.18093" lon="-1.51404">
        <ele>53.532279</ele>
        <time>2021-11-06T15:53:51.973Z</time>
      </trkpt>
      <trkpt lat="47.18098" lon="-1.51417">
        <ele>53.559407</ele>
        <time>2021-11-06T15:53:53.971Z</time>
      </trkpt>
      <trkpt lat="47.18104" lon="-1.5143">
        <ele>53.585973</ele>
        <time>2021-11-06T15:53:55.977Z</time>
      </trkpt>
      <trkpt lat="47.18108" lon="-1.51442">
        <ele>53.610924</ele>
        <time>2021-11-06T15:53:57.998Z</time>
      </trkpt>
      <trkpt lat="47.18112" lon="-1.51455">
        <ele>53.636587</ele>
        <time>2021-11-06T15:53:59.978Z</time>
      </trkpt>
      <trkpt lat="47.18116" lon="-1.51469">
        <ele>53.662722</ele>
        <time>2021-11-06T15:54:01.984Z</time>
      </trkpt>
      <trkpt lat="47.1812" lon="-1.51482">
        <ele>53.688226</ele>
        <time>2021-11-06T15:54:03.990Z</time>
      </trkpt>
      <trkpt lat="47.18123" lon="-1.51496">
        <ele>53.71427</ele>
        <time>2021-11-06T15:54:05.976Z</time>
      </trkpt>
      <trkpt lat="47.18126" lon="-1.5151">
        <ele>53.739829</ele>
        <time>2021-11-06T15:54:07.998Z</time>
      </trkpt>
      <trkpt lat="47.1813" lon="-1.51523">
        <ele>53.766232</ele>
        <time>2021-11-06T15:54:09.997Z</time>
      </trkpt>
      <trkpt lat="47.18133" lon="-1.51538">
        <ele>53.793055</ele>
        <time>2021-11-06T15:54:11.979Z</time>
      </trkpt>
      <trkpt lat="47.18135" lon="-1.51552">
        <ele>53.818325</ele>
        <time>2021-11-06T15:54:13.996Z</time>
      </trkpt>
      <trkpt lat="47.18137" lon="-1.51565">
        <ele>53.842791</ele>
        <time>2021-11-06T15:54:15.978Z</time>
      </trkpt>
      <trkpt lat="47.18138" lon="-1.51579">
        <ele>53.872394</ele>
        <time>2021-11-06T15:54:17.983Z</time>
      </trkpt>
      <trkpt lat="47.18139" lon="-1.51593">
        <ele>53.911782</ele>
        <time>2021-11-06T15:54:20.017Z</time>
      </trkpt>
      <trkpt lat="47.1814" lon="-1.51608">
        <ele>53.953368</ele>
        <time>2021-11-06T15:54:21.997Z</time>
      </trkpt>
      <trkpt lat="47.18142" lon="-1.51623">
        <ele>53.99686</ele>
        <time>2021-11-06T15:54:23.978Z</time>
      </trkpt>
      <trkpt lat="47.18143" lon="-1.51637">
        <ele>54.037218</ele>
        <time>2021-11-06T15:54:25.970Z</time>
      </trkpt>
      <trkpt lat="47.18145" lon="-1.51651">
        <ele>54.076707</ele>
        <time>2021-11-06T15:54:27.989Z</time>
      </trkpt>
      <trkpt lat="47.18145" lon="-1.51665">
        <ele>54.11538</ele>
        <time>2021-11-06T15:54:29.979Z</time>
      </trkpt>
      <trkpt lat="47.18146" lon="-1.51679">
        <ele>54.1547</ele>
        <time>2021-11-06T15:54:31.992Z</time>
      </trkpt>
      <trkpt lat="47.18147" lon="-1.51693">
        <ele>54.193707</ele>
        <time>2021-11-06T15:54:34.016Z</time>
      </trkpt>
      <trkpt lat="47.18149" lon="-1.5171">
        <ele>54.243623</ele>
        <time>2021-11-06T15:54:36.979Z</time>
      </trkpt>
      <trkpt lat="47.1815" lon="-1.51724">
        <ele>54.282635</ele>
        <time>2021-11-06T15:54:39.015Z</time>
      </trkpt>
      <trkpt lat="47.18146" lon="-1.51747">
        <ele>54.349746</ele>
        <time>2021-11-06T15:54:43.001Z</time>
      </trkpt>
      <trkpt lat="47.18143" lon="-1.5176">
        <ele>54.387718</ele>
        <time>2021-11-06T15:54:44.968Z</time>
      </trkpt>
      <trkpt lat="47.18137" lon="-1.51772">
        <ele>54.42922</ele>
        <time>2021-11-06T15:54:47.441Z</time>
      </trkpt>
      <trkpt lat="47.18131" lon="-1.51783">
        <ele>54.467046</ele>
        <time>2021-11-06T15:54:48.992Z</time>
      </trkpt>
      <trkpt lat="47.18125" lon="-1.51795">
        <ele>54.510686</ele>
        <time>2021-11-06T15:54:50.994Z</time>
      </trkpt>
      <trkpt lat="47.18119" lon="-1.51805">
        <ele>54.549164</ele>
        <time>2021-11-06T15:54:53.009Z</time>
      </trkpt>
      <trkpt lat="47.18108" lon="-1.51821">
        <ele>54.587931</ele>
        <time>2021-11-06T15:54:55.977Z</time>
      </trkpt>
      <trkpt lat="47.18107" lon="-1.51836">
        <ele>54.547255</ele>
        <time>2021-11-06T15:54:57.974Z</time>
      </trkpt>
      <trkpt lat="47.18107" lon="-1.51851">
        <ele>54.509326</ele>
        <time>2021-11-06T15:54:59.970Z</time>
      </trkpt>
      <trkpt lat="47.18105" lon="-1.51865">
        <ele>54.471479</ele>
        <time>2021-11-06T15:55:02.028Z</time>
      </trkpt>
      <trkpt lat="47.18105" lon="-1.5188">
        <ele>54.429062</ele>
        <time>2021-11-06T15:55:04.708Z</time>
      </trkpt>
      <trkpt lat="47.18109" lon="-1.51894">
        <ele>54.388977</ele>
        <time>2021-11-06T15:55:08.256Z</time>
      </trkpt>
      <trkpt lat="47.18112" lon="-1.51907">
        <ele>54.351603</ele>
        <time>2021-11-06T15:55:17.458Z</time>
      </trkpt>
      <trkpt lat="47.18114" lon="-1.51922">
        <ele>54.31216</ele>
        <time>2021-11-06T15:55:20.908Z</time>
      </trkpt>
      <trkpt lat="47.18116" lon="-1.51935">
        <ele>54.27653</ele>
        <time>2021-11-06T15:55:23.451Z</time>
      </trkpt>
      <trkpt lat="47.18119" lon="-1.51954">
        <ele>54.224179</ele>
        <time>2021-11-06T15:55:26.675Z</time>
      </trkpt>
      <trkpt lat="47.18119" lon="-1.51976">
        <ele>54.166057</ele>
        <time>2021-11-06T15:55:29.871Z</time>
      </trkpt>
      <trkpt lat="47.1812" lon="-1.51991">
        <ele>54.124733</ele>
        <time>2021-11-06T15:55:30.978Z</time>
      </trkpt>
      <trkpt lat="47.1812" lon="-1.52008">
        <ele>54.080984</ele>
        <time>2021-11-06T15:55:33.532Z</time>
      </trkpt>
      <trkpt lat="47.18121" lon="-1.52022">
        <ele>54.043786</ele>
        <time>2021-11-06T15:55:34.971Z</time>
      </trkpt>
      <trkpt lat="47.18125" lon="-1.52043">
        <ele>53.984039</ele>
        <time>2021-11-06T15:55:37.983Z</time>
      </trkpt>
      <trkpt lat="47.18125" lon="-1.52061">
        <ele>53.937371</ele>
        <time>2021-11-06T15:55:40.801Z</time>
      </trkpt>
      <trkpt lat="47.1813" lon="-1.52076">
        <ele>53.894699</ele>
        <time>2021-11-06T15:55:42.986Z</time>
      </trkpt>
      <trkpt lat="47.18131" lon="-1.52091">
        <ele>53.904674</ele>
        <time>2021-11-06T15:55:45.012Z</time>
      </trkpt>
      <trkpt lat="47.18135" lon="-1.5211">
        <ele>53.91831</ele>
        <time>2021-11-06T15:55:47.972Z</time>
      </trkpt>
      <trkpt lat="47.1814" lon="-1.52121">
        <ele>53.927878</ele>
        <time>2021-11-06T15:55:50.965Z</time>
      </trkpt>
      <trkpt lat="47.18148" lon="-1.52135">
        <ele>53.940409</ele>
        <time>2021-11-06T15:55:53.905Z</time>
      </trkpt>
      <trkpt lat="47.18152" lon="-1.52147">
        <ele>53.949706</ele>
        <time>2021-11-06T15:55:58.089Z</time>
      </trkpt>
      <trkpt lat="47.18157" lon="-1.52159">
        <ele>53.959383</ele>
        <time>2021-11-06T15:56:01.591Z</time>
      </trkpt>
      <trkpt lat="47.18162" lon="-1.52175">
        <ele>53.971448</ele>
        <time>2021-11-06T15:56:04.651Z</time>
      </trkpt>
      <trkpt lat="47.18165" lon="-1.52189">
        <ele>53.981455</ele>
        <time>2021-11-06T15:56:06.843Z</time>
      </trkpt>
      <trkpt lat="47.18169" lon="-1.52205">
        <ele>53.993522</ele>
        <time>2021-11-06T15:56:09.507Z</time>
      </trkpt>
      <trkpt lat="47.18175" lon="-1.52222">
        <ele>54.006938</ele>
        <time>2021-11-06T15:56:11.975Z</time>
      </trkpt>
      <trkpt lat="47.1818" lon="-1.52234">
        <ele>54.016499</ele>
        <time>2021-11-06T15:56:14.027Z</time>
      </trkpt>
      <trkpt lat="47.18184" lon="-1.5225">
        <ele>54.028725</ele>
        <time>2021-11-06T15:56:16.985Z</time>
      </trkpt>
      <trkpt lat="47.18187" lon="-1.52265">
        <ele>54.039066</ele>
        <time>2021-11-06T15:56:18.981Z</time>
      </trkpt>
      <trkpt lat="47.18188" lon="-1.52279">
        <ele>54.049047</ele>
        <time>2021-11-06T15:56:20.982Z</time>
      </trkpt>
      <trkpt lat="47.18188" lon="-1.52294">
        <ele>54.059041</ele>
        <time>2021-11-06T15:56:22.987Z</time>
      </trkpt>
      <trkpt lat="47.18188" lon="-1.52308">
        <ele>54.069298</ele>
        <time>2021-11-06T15:56:24.971Z</time>
      </trkpt>
      <trkpt lat="47.18186" lon="-1.52322">
        <ele>54.131429</ele>
        <time>2021-11-06T15:56:26.992Z</time>
      </trkpt>
      <trkpt lat="47.18182" lon="-1.52335">
        <ele>54.418445</ele>
        <time>2021-11-06T15:56:28.986Z</time>
      </trkpt>
      <trkpt lat="47.18181" lon="-1.52352">
        <ele>54.774835</ele>
        <time>2021-11-06T15:56:31.999Z</time>
      </trkpt>
      <trkpt lat="47.18181" lon="-1.52367">
        <ele>55.072851</ele>
        <time>2021-11-06T15:56:33.991Z</time>
      </trkpt>
      <trkpt lat="47.18183" lon="-1.5238">
        <ele>55.348621</ele>
        <time>2021-11-06T15:56:36.002Z</time>
      </trkpt>
      <trkpt lat="47.18186" lon="-1.52394">
        <ele>55.652782</ele>
        <time>2021-11-06T15:56:37.854Z</time>
      </trkpt>
      <trkpt lat="47.18191" lon="-1.52407">
        <ele>55.962301</ele>
        <time>2021-11-06T15:56:40.772Z</time>
      </trkpt>
      <trkpt lat="47.18193" lon="-1.52423">
        <ele>56.280683</ele>
        <time>2021-11-06T15:56:43.476Z</time>
      </trkpt>
      <trkpt lat="47.18199" lon="-1.52435">
        <ele>56.607449</ele>
        <time>2021-11-06T15:56:46.373Z</time>
      </trkpt>
      <trkpt lat="47.18203" lon="-1.52451">
        <ele>56.95161</ele>
        <time>2021-11-06T15:56:49.048Z</time>
      </trkpt>
      <trkpt lat="47.18199" lon="-1.52467">
        <ele>57.315781</ele>
        <time>2021-11-06T15:56:51.824Z</time>
      </trkpt>
      <trkpt lat="47.18197" lon="-1.52482">
        <ele>57.621364</ele>
        <time>2021-11-06T15:56:54.404Z</time>
      </trkpt>
      <trkpt lat="47.18197" lon="-1.52498">
        <ele>57.960708</ele>
        <time>2021-11-06T15:56:56.965Z</time>
      </trkpt>
      <trkpt lat="47.18197" lon="-1.5252">
        <ele>58.400636</ele>
        <time>2021-11-06T15:57:00.006Z</time>
      </trkpt>
      <trkpt lat="47.18198" lon="-1.52537">
        <ele>58.74348</ele>
        <time>2021-11-06T15:57:02.884Z</time>
      </trkpt>
      <trkpt lat="47.18205" lon="-1.5255">
        <ele>59.095455</ele>
        <time>2021-11-06T15:57:05.368Z</time>
      </trkpt>
      <trkpt lat="47.1821" lon="-1.52561">
        <ele>59.373523</ele>
        <time>2021-11-06T15:57:07.599Z</time>
      </trkpt>
      <trkpt lat="47.18215" lon="-1.52582">
        <ele>59.196894</ele>
        <time>2021-11-06T15:57:10.910Z</time>
      </trkpt>
      <trkpt lat="47.18221" lon="-1.52595">
        <ele>58.882854</ele>
        <time>2021-11-06T15:57:12.985Z</time>
      </trkpt>
      <trkpt lat="47.18227" lon="-1.52604">
        <ele>58.604884</ele>
        <time>2021-11-06T15:57:15.317Z</time>
      </trkpt>
      <trkpt lat="47.18235" lon="-1.52612">
        <ele>58.331677</ele>
        <time>2021-11-06T15:57:17.627Z</time>
      </trkpt>
      <trkpt lat="47.1824" lon="-1.52624">
        <ele>58.046201</ele>
        <time>2021-11-06T15:57:20.893Z</time>
      </trkpt>
      <trkpt lat="47.18243" lon="-1.52637">
        <ele>57.763615</ele>
        <time>2021-11-06T15:57:24.592Z</time>
      </trkpt>
      <trkpt lat="47.18242" lon="-1.52655">
        <ele>57.391943</ele>
        <time>2021-11-06T15:57:27.055Z</time>
      </trkpt>
      <trkpt lat="47.18241" lon="-1.52674">
        <ele>57.012295</ele>
        <time>2021-11-06T15:57:29.910Z</time>
      </trkpt>
      <trkpt lat="47.18236" lon="-1.5269">
        <ele>56.651043</ele>
        <time>2021-11-06T15:57:31.975Z</time>
      </trkpt>
      <trkpt lat="47.18233" lon="-1.52703">
        <ele>56.366515</ele>
        <time>2021-11-06T15:57:33.990Z</time>
      </trkpt>
      <trkpt lat="47.18231" lon="-1.52723">
        <ele>55.96811</ele>
        <time>2021-11-06T15:57:36.973Z</time>
      </trkpt>
      <trkpt lat="47.18233" lon="-1.52742">
        <ele>55.566532</ele>
        <time>2021-11-06T15:57:40.007Z</time>
      </trkpt>
      <trkpt lat="47.18237" lon="-1.52756">
        <ele>55.263079</ele>
        <time>2021-11-06T15:57:42.516Z</time>
      </trkpt>
      <trkpt lat="47.18241" lon="-1.5277">
        <ele>54.947348</ele>
        <time>2021-11-06T15:57:45.611Z</time>
      </trkpt>
      <trkpt lat="47.18246" lon="-1.52784">
        <ele>54.643356</ele>
        <time>2021-11-06T15:57:46.968Z</time>
      </trkpt>
      <trkpt lat="47.18254" lon="-1.52799">
        <ele>54.255958</ele>
        <time>2021-11-06T15:57:50.013Z</time>
      </trkpt>
      <trkpt lat="47.18259" lon="-1.52819">
        <ele>54.196149</ele>
        <time>2021-11-06T15:57:52.960Z</time>
      </trkpt>
      <trkpt lat="47.18263" lon="-1.52834">
        <ele>54.256073</ele>
        <time>2021-11-06T15:57:54.978Z</time>
      </trkpt>
      <trkpt lat="47.18265" lon="-1.52848">
        <ele>54.309745</ele>
        <time>2021-11-06T15:57:56.982Z</time>
      </trkpt>
      <trkpt lat="47.18266" lon="-1.52862">
        <ele>54.36331</ele>
        <time>2021-11-06T15:57:58.996Z</time>
      </trkpt>
      <trkpt lat="47.18268" lon="-1.52876">
        <ele>54.416781</ele>
        <time>2021-11-06T15:58:00.987Z</time>
      </trkpt>
      <trkpt lat="47.18271" lon="-1.52889">
        <ele>54.467257</ele>
        <time>2021-11-06T15:58:02.970Z</time>
      </trkpt>
      <trkpt lat="47.18278" lon="-1.52906">
        <ele>54.540165</ele>
        <time>2021-11-06T15:58:06.011Z</time>
      </trkpt>
      <trkpt lat="47.18283" lon="-1.52918">
        <ele>54.59285</ele>
        <time>2021-11-06T15:58:07.998Z</time>
      </trkpt>
      <trkpt lat="47.18292" lon="-1.52932">
        <ele>54.663739</ele>
        <time>2021-11-06T15:58:10.990Z</time>
      </trkpt>
      <trkpt lat="47.18298" lon="-1.52944">
        <ele>54.72218</ele>
        <time>2021-11-06T15:58:12.974Z</time>
      </trkpt>
      <trkpt lat="47.18304" lon="-1.52957">
        <ele>54.77917</ele>
        <time>2021-11-06T15:58:14.957Z</time>
      </trkpt>
      <trkpt lat="47.18307" lon="-1.52971">
        <ele>54.834958</ele>
        <time>2021-11-06T15:58:17.001Z</time>
      </trkpt>
      <trkpt lat="47.18309" lon="-1.52985">
        <ele>54.886886</ele>
        <time>2021-11-06T15:58:18.979Z</time>
      </trkpt>
      <trkpt lat="47.18314" lon="-1.53002">
        <ele>54.955744</ele>
        <time>2021-11-06T15:58:22.014Z</time>
      </trkpt>
      <trkpt lat="47.18324" lon="-1.53013">
        <ele>55.024901</ele>
        <time>2021-11-06T15:58:24.992Z</time>
      </trkpt>
      <trkpt lat="47.1833" lon="-1.53025">
        <ele>55.083683</ele>
        <time>2021-11-06T15:58:27.382Z</time>
      </trkpt>
      <trkpt lat="47.18336" lon="-1.5304">
        <ele>55.17658</ele>
        <time>2021-11-06T15:58:30.509Z</time>
      </trkpt>
      <trkpt lat="47.18341" lon="-1.53051">
        <ele>55.307889</ele>
        <time>2021-11-06T15:58:33.368Z</time>
      </trkpt>
      <trkpt lat="47.18348" lon="-1.5306">
        <ele>55.436902</ele>
        <time>2021-11-06T15:58:36.783Z</time>
      </trkpt>
      <trkpt lat="47.18357" lon="-1.53055">
        <ele>55.564545</ele>
        <time>2021-11-06T15:58:39.448Z</time>
      </trkpt>
      <trkpt lat="47.18366" lon="-1.53048">
        <ele>55.704785</ele>
        <time>2021-11-06T15:58:42.473Z</time>
      </trkpt>
      <trkpt lat="47.1837" lon="-1.53061">
        <ele>55.840291</ele>
        <time>2021-11-06T15:58:57.455Z</time>
      </trkpt>
      <trkpt lat="47.18364" lon="-1.53072">
        <ele>55.984976</ele>
        <time>2021-11-06T15:58:59.909Z</time>
      </trkpt>
      <trkpt lat="47.18357" lon="-1.53081">
        <ele>56.113731</ele>
        <time>2021-11-06T15:59:01.995Z</time>
      </trkpt>
      <trkpt lat="47.18349" lon="-1.53091">
        <ele>56.259181</ele>
        <time>2021-11-06T15:59:04.430Z</time>
      </trkpt>
      <trkpt lat="47.18339" lon="-1.53099">
        <ele>56.414667</ele>
        <time>2021-11-06T15:59:06.989Z</time>
      </trkpt>
      <trkpt lat="47.18328" lon="-1.53108">
        <ele>56.58922</ele>
        <time>2021-11-06T15:59:09.805Z</time>
      </trkpt>
      <trkpt lat="47.1832" lon="-1.53114">
        <ele>56.719025</ele>
        <time>2021-11-06T15:59:11.981Z</time>
      </trkpt>
      <trkpt lat="47.1831" lon="-1.53121">
        <ele>56.873186</ele>
        <time>2021-11-06T15:59:14.505Z</time>
      </trkpt>
      <trkpt lat="47.183" lon="-1.53128">
        <ele>57.023063</ele>
        <time>2021-11-06T15:59:16.995Z</time>
      </trkpt>
      <trkpt lat="47.18291" lon="-1.53134">
        <ele>57.17006</ele>
        <time>2021-11-06T15:59:18.996Z</time>
      </trkpt>
      <trkpt lat="47.18282" lon="-1.53141">
        <ele>57.310869</ele>
        <time>2021-11-06T15:59:20.994Z</time>
      </trkpt>
      <trkpt lat="47.18274" lon="-1.53149">
        <ele>57.444407</ele>
        <time>2021-11-06T15:59:23.005Z</time>
      </trkpt>
      <trkpt lat="47.18263" lon="-1.53159">
        <ele>57.616873</ele>
        <time>2021-11-06T15:59:26.013Z</time>
      </trkpt>
      <trkpt lat="47.18257" lon="-1.53172">
        <ele>57.366685</ele>
        <time>2021-11-06T15:59:28.739Z</time>
      </trkpt>
      <trkpt lat="47.18249" lon="-1.53183">
        <ele>57.045708</ele>
        <time>2021-11-06T15:59:31.193Z</time>
      </trkpt>
      <trkpt lat="47.18242" lon="-1.53195">
        <ele>56.727588</ele>
        <time>2021-11-06T15:59:33.803Z</time>
      </trkpt>
      <trkpt lat="47.18252" lon="-1.5319">
        <ele>56.400283</ele>
        <time>2021-11-06T15:59:38.681Z</time>
      </trkpt>
      <trkpt lat="47.18263" lon="-1.53178">
        <ele>56.002109</ele>
        <time>2021-11-06T15:59:40.987Z</time>
      </trkpt>
      <trkpt lat="47.18272" lon="-1.5317">
        <ele>55.700338</ele>
        <time>2021-11-06T15:59:42.994Z</time>
      </trkpt>
      <trkpt lat="47.18282" lon="-1.53165">
        <ele>55.388215</ele>
        <time>2021-11-06T15:59:44.987Z</time>
      </trkpt>
      <trkpt lat="47.18295" lon="-1.53163">
        <ele>54.987978</ele>
        <time>2021-11-06T15:59:47.986Z</time>
      </trkpt>
      <trkpt lat="47.18303" lon="-1.53172">
        <ele>54.702197</ele>
        <time>2021-11-06T15:59:50.268Z</time>
      </trkpt>
      <trkpt lat="47.18311" lon="-1.53186">
        <ele>54.342363</ele>
        <time>2021-11-06T15:59:53.499Z</time>
      </trkpt>
      <trkpt lat="47.18318" lon="-1.53199">
        <ele>54.004808</ele>
        <time>2021-11-06T15:59:56.326Z</time>
      </trkpt>
      <trkpt lat="47.18325" lon="-1.5321">
        <ele>53.700223</ele>
        <time>2021-11-06T15:59:58.779Z</time>
      </trkpt>
      <trkpt lat="47.18331" lon="-1.53222">
        <ele>53.420118</ele>
        <time>2021-11-06T16:00:01.011Z</time>
      </trkpt>
      <trkpt lat="47.18338" lon="-1.53233">
        <ele>53.117318</ele>
        <time>2021-11-06T16:00:03.420Z</time>
      </trkpt>
      <trkpt lat="47.18348" lon="-1.53246">
        <ele>52.710808</ele>
        <time>2021-11-06T16:00:05.961Z</time>
      </trkpt>
      <trkpt lat="47.18357" lon="-1.53257">
        <ele>52.382523</ele>
        <time>2021-11-06T16:00:07.968Z</time>
      </trkpt>
      <trkpt lat="47.18364" lon="-1.53268">
        <ele>52.405482</ele>
        <time>2021-11-06T16:00:09.990Z</time>
      </trkpt>
      <trkpt lat="47.1837" lon="-1.53279">
        <ele>52.441889</ele>
        <time>2021-11-06T16:00:12.004Z</time>
      </trkpt>
      <trkpt lat="47.18379" lon="-1.53289">
        <ele>52.482092</ele>
        <time>2021-11-06T16:00:13.981Z</time>
      </trkpt>
      <trkpt lat="47.18387" lon="-1.53299">
        <ele>52.523324</ele>
        <time>2021-11-06T16:00:15.977Z</time>
      </trkpt>
      <trkpt lat="47.18396" lon="-1.53309">
        <ele>52.564301</ele>
        <time>2021-11-06T16:00:18.007Z</time>
      </trkpt>
      <trkpt lat="47.18403" lon="-1.53319">
        <ele>52.602469</ele>
        <time>2021-11-06T16:00:19.983Z</time>
      </trkpt>
      <trkpt lat="47.18411" lon="-1.53329">
        <ele>52.6421</ele>
        <time>2021-11-06T16:00:21.980Z</time>
      </trkpt>
      <trkpt lat="47.18421" lon="-1.53338">
        <ele>52.683059</ele>
        <time>2021-11-06T16:00:23.986Z</time>
      </trkpt>
      <trkpt lat="47.18429" lon="-1.53347">
        <ele>52.721409</ele>
        <time>2021-11-06T16:00:25.964Z</time>
      </trkpt>
      <trkpt lat="47.18438" lon="-1.53356">
        <ele>52.761292</ele>
        <time>2021-11-06T16:00:27.998Z</time>
      </trkpt>
      <trkpt lat="47.18446" lon="-1.53366">
        <ele>52.800148</ele>
        <time>2021-11-06T16:00:29.975Z</time>
      </trkpt>
      <trkpt lat="47.18453" lon="-1.53375">
        <ele>52.836473</ele>
        <time>2021-11-06T16:00:31.970Z</time>
      </trkpt>
      <trkpt lat="47.18461" lon="-1.53383">
        <ele>52.871953</ele>
        <time>2021-11-06T16:00:33.984Z</time>
      </trkpt>
      <trkpt lat="47.18468" lon="-1.53392">
        <ele>52.908036</ele>
        <time>2021-11-06T16:00:35.980Z</time>
      </trkpt>
      <trkpt lat="47.18476" lon="-1.534">
        <ele>52.942021</ele>
        <time>2021-11-06T16:00:37.981Z</time>
      </trkpt>
      <trkpt lat="47.18487" lon="-1.53411">
        <ele>52.994298</ele>
        <time>2021-11-06T16:00:40.994Z</time>
      </trkpt>
      <trkpt lat="47.18498" lon="-1.53418">
        <ele>53.037119</ele>
        <time>2021-11-06T16:00:43.012Z</time>
      </trkpt>
      <trkpt lat="47.18505" lon="-1.53427">
        <ele>52.982364</ele>
        <time>2021-11-06T16:00:44.983Z</time>
      </trkpt>
      <trkpt lat="47.18509" lon="-1.53443">
        <ele>52.903045</ele>
        <time>2021-11-06T16:00:47.987Z</time>
      </trkpt>
      <trkpt lat="47.18518" lon="-1.5345">
        <ele>52.835038</ele>
        <time>2021-11-06T16:00:49.980Z</time>
      </trkpt>
      <trkpt lat="47.18528" lon="-1.53458">
        <ele>52.762837</ele>
        <time>2021-11-06T16:00:51.990Z</time>
      </trkpt>
      <trkpt lat="47.18538" lon="-1.53465">
        <ele>52.688817</ele>
        <time>2021-11-06T16:00:53.995Z</time>
      </trkpt>
      <trkpt lat="47.18547" lon="-1.53474">
        <ele>52.610781</ele>
        <time>2021-11-06T16:00:55.968Z</time>
      </trkpt>
      <trkpt lat="47.18556" lon="-1.53483">
        <ele>52.537911</ele>
        <time>2021-11-06T16:00:57.978Z</time>
      </trkpt>
      <trkpt lat="47.18564" lon="-1.53492">
        <ele>52.469684</ele>
        <time>2021-11-06T16:00:59.992Z</time>
      </trkpt>
      <trkpt lat="47.18572" lon="-1.53501">
        <ele>52.401655</ele>
        <time>2021-11-06T16:01:01.999Z</time>
      </trkpt>
      <trkpt lat="47.18581" lon="-1.5351">
        <ele>52.325013</ele>
        <time>2021-11-06T16:01:03.978Z</time>
      </trkpt>
      <trkpt lat="47.18591" lon="-1.53516">
        <ele>52.253533</ele>
        <time>2021-11-06T16:01:05.977Z</time>
      </trkpt>
      <trkpt lat="47.18601" lon="-1.53522">
        <ele>52.179198</ele>
        <time>2021-11-06T16:01:07.998Z</time>
      </trkpt>
      <trkpt lat="47.18611" lon="-1.53527">
        <ele>52.108567</ele>
        <time>2021-11-06T16:01:09.984Z</time>
      </trkpt>
      <trkpt lat="47.1862" lon="-1.53534">
        <ele>52.039799</ele>
        <time>2021-11-06T16:01:12.007Z</time>
      </trkpt>
      <trkpt lat="47.18629" lon="-1.53542">
        <ele>51.968306</ele>
        <time>2021-11-06T16:01:13.996Z</time>
      </trkpt>
      <trkpt lat="47.1864" lon="-1.53549">
        <ele>51.886174</ele>
        <time>2021-11-06T16:01:15.981Z</time>
      </trkpt>
      <trkpt lat="47.18651" lon="-1.53554">
        <ele>51.830551</ele>
        <time>2021-11-06T16:01:17.996Z</time>
      </trkpt>
      <trkpt lat="47.1866" lon="-1.53558">
        <ele>51.901302</ele>
        <time>2021-11-06T16:01:19.989Z</time>
      </trkpt>
      <trkpt lat="47.18672" lon="-1.53561">
        <ele>51.981732</ele>
        <time>2021-11-06T16:01:21.991Z</time>
      </trkpt>
      <trkpt lat="47.18682" lon="-1.53564">
        <ele>52.056533</ele>
        <time>2021-11-06T16:01:23.999Z</time>
      </trkpt>
      <trkpt lat="47.18692" lon="-1.53567">
        <ele>52.127739</ele>
        <time>2021-11-06T16:01:25.976Z</time>
      </trkpt>
      <trkpt lat="47.18703" lon="-1.53571">
        <ele>52.202084</ele>
        <time>2021-11-06T16:01:27.995Z</time>
      </trkpt>
      <trkpt lat="47.18713" lon="-1.53574">
        <ele>52.276118</ele>
        <time>2021-11-06T16:01:29.969Z</time>
      </trkpt>
      <trkpt lat="47.18723" lon="-1.53578">
        <ele>52.347772</ele>
        <time>2021-11-06T16:01:31.987Z</time>
      </trkpt>
      <trkpt lat="47.18734" lon="-1.53582">
        <ele>52.421559</ele>
        <time>2021-11-06T16:01:33.999Z</time>
      </trkpt>
      <trkpt lat="47.18744" lon="-1.53584">
        <ele>52.492465</ele>
        <time>2021-11-06T16:01:35.977Z</time>
      </trkpt>
      <trkpt lat="47.18755" lon="-1.53586">
        <ele>52.570235</ele>
        <time>2021-11-06T16:01:37.985Z</time>
      </trkpt>
      <trkpt lat="47.18765" lon="-1.53589">
        <ele>52.642591</ele>
        <time>2021-11-06T16:01:39.996Z</time>
      </trkpt>
      <trkpt lat="47.18775" lon="-1.53591">
        <ele>52.712545</ele>
        <time>2021-11-06T16:01:41.970Z</time>
      </trkpt>
      <trkpt lat="47.18786" lon="-1.53594">
        <ele>52.787785</ele>
        <time>2021-11-06T16:01:43.995Z</time>
      </trkpt>
      <trkpt lat="47.18796" lon="-1.53597">
        <ele>52.859687</ele>
        <time>2021-11-06T16:01:46.004Z</time>
      </trkpt>
      <trkpt lat="47.18806" lon="-1.53601">
        <ele>52.933702</ele>
        <time>2021-11-06T16:01:47.975Z</time>
      </trkpt>
      <trkpt lat="47.18816" lon="-1.53605">
        <ele>53.006518</ele>
        <time>2021-11-06T16:01:49.986Z</time>
      </trkpt>
      <trkpt lat="47.18826" lon="-1.53607">
        <ele>53.069068</ele>
        <time>2021-11-06T16:01:51.993Z</time>
      </trkpt>
      <trkpt lat="47.18836" lon="-1.53611">
        <ele>53.056397</ele>
        <time>2021-11-06T16:01:53.970Z</time>
      </trkpt>
      <trkpt lat="47.18846" lon="-1.53615">
        <ele>53.044187</ele>
        <time>2021-11-06T16:01:56.013Z</time>
      </trkpt>
      <trkpt lat="47.18856" lon="-1.53621">
        <ele>53.031496</ele>
        <time>2021-11-06T16:01:57.985Z</time>
      </trkpt>
      <trkpt lat="47.18864" lon="-1.53628">
        <ele>53.020569</ele>
        <time>2021-11-06T16:02:00.005Z</time>
      </trkpt>
      <trkpt lat="47.18876" lon="-1.53637">
        <ele>53.003904</ele>
        <time>2021-11-06T16:02:03.007Z</time>
      </trkpt>
      <trkpt lat="47.1889" lon="-1.53643">
        <ele>52.986892</ele>
        <time>2021-11-06T16:02:05.986Z</time>
      </trkpt>
      <trkpt lat="47.189" lon="-1.53648">
        <ele>52.973554</ele>
        <time>2021-11-06T16:02:08.022Z</time>
      </trkpt>
      <trkpt lat="47.1891" lon="-1.53654">
        <ele>52.960485</ele>
        <time>2021-11-06T16:02:09.998Z</time>
      </trkpt>
      <trkpt lat="47.18919" lon="-1.53661">
        <ele>52.948968</ele>
        <time>2021-11-06T16:02:11.999Z</time>
      </trkpt>
      <trkpt lat="47.18927" lon="-1.53668">
        <ele>52.93771</ele>
        <time>2021-11-06T16:02:13.989Z</time>
      </trkpt>
      <trkpt lat="47.18935" lon="-1.53676">
        <ele>52.926578</ele>
        <time>2021-11-06T16:02:15.976Z</time>
      </trkpt>
      <trkpt lat="47.18942" lon="-1.53684">
        <ele>52.915492</ele>
        <time>2021-11-06T16:02:17.982Z</time>
      </trkpt>
      <trkpt lat="47.1895" lon="-1.53692">
        <ele>52.90393</ele>
        <time>2021-11-06T16:02:20.004Z</time>
      </trkpt>
      <trkpt lat="47.18959" lon="-1.53698">
        <ele>52.892766</ele>
        <time>2021-11-06T16:02:22.000Z</time>
      </trkpt>
      <trkpt lat="47.18968" lon="-1.53704">
        <ele>52.880785</ele>
        <time>2021-11-06T16:02:25.023Z</time>
      </trkpt>
      <trkpt lat="47.18977" lon="-1.53711">
        <ele>52.868053</ele>
        <time>2021-11-06T16:02:27.999Z</time>
      </trkpt>
      <trkpt lat="47.18989" lon="-1.53715">
        <ele>52.861941</ele>
        <time>2021-11-06T16:02:31.022Z</time>
      </trkpt>
      <trkpt lat="47.19001" lon="-1.53729">
        <ele>52.977959</ele>
        <time>2021-11-06T16:02:33.968Z</time>
      </trkpt>
      <trkpt lat="47.19009" lon="-1.5374">
        <ele>53.062232</ele>
        <time>2021-11-06T16:02:35.983Z</time>
      </trkpt>
      <trkpt lat="47.19017" lon="-1.53749">
        <ele>53.139312</ele>
        <time>2021-11-06T16:02:37.995Z</time>
      </trkpt>
      <trkpt lat="47.19024" lon="-1.53758">
        <ele>53.208869</ele>
        <time>2021-11-06T16:02:39.981Z</time>
      </trkpt>
      <trkpt lat="47.19033" lon="-1.5377">
        <ele>53.298251</ele>
        <time>2021-11-06T16:02:41.991Z</time>
      </trkpt>
      <trkpt lat="47.19041" lon="-1.5378">
        <ele>53.377913</ele>
        <time>2021-11-06T16:02:43.998Z</time>
      </trkpt>
      <trkpt lat="47.19048" lon="-1.5379">
        <ele>53.452712</ele>
        <time>2021-11-06T16:02:45.991Z</time>
      </trkpt>
      <trkpt lat="47.19056" lon="-1.53799">
        <ele>53.525503</ele>
        <time>2021-11-06T16:02:48.021Z</time>
      </trkpt>
      <trkpt lat="47.19066" lon="-1.53808">
        <ele>53.619433</ele>
        <time>2021-11-06T16:02:51.013Z</time>
      </trkpt>
      <trkpt lat="47.19075" lon="-1.53814">
        <ele>53.691339</ele>
        <time>2021-11-06T16:02:53.929Z</time>
      </trkpt>
      <trkpt lat="47.1908" lon="-1.53825">
        <ele>53.761009</ele>
        <time>2021-11-06T16:02:54.988Z</time>
      </trkpt>
      <trkpt lat="47.19089" lon="-1.53836">
        <ele>53.846304</ele>
        <time>2021-11-06T16:02:57.000Z</time>
      </trkpt>
      <trkpt lat="47.19097" lon="-1.53847">
        <ele>53.925965</ele>
        <time>2021-11-06T16:02:58.993Z</time>
      </trkpt>
      <trkpt lat="47.19103" lon="-1.53857">
        <ele>53.997382</ele>
        <time>2021-11-06T16:03:01.000Z</time>
      </trkpt>
      <trkpt lat="47.1911" lon="-1.53866">
        <ele>54.069832</ele>
        <time>2021-11-06T16:03:02.983Z</time>
      </trkpt>
      <trkpt lat="47.19117" lon="-1.53877">
        <ele>54.143407</ele>
        <time>2021-11-06T16:03:04.964Z</time>
      </trkpt>
      <trkpt lat="47.19123" lon="-1.53888">
        <ele>54.208549</ele>
        <time>2021-11-06T16:03:06.998Z</time>
      </trkpt>
      <trkpt lat="47.19132" lon="-1.53896">
        <ele>54.144328</ele>
        <time>2021-11-06T16:03:08.999Z</time>
      </trkpt>
      <trkpt lat="47.1914" lon="-1.53904">
        <ele>54.074168</ele>
        <time>2021-11-06T16:03:11.008Z</time>
      </trkpt>
      <trkpt lat="47.19148" lon="-1.53913">
        <ele>54.007831</ele>
        <time>2021-11-06T16:03:13.025Z</time>
      </trkpt>
      <trkpt lat="47.19155" lon="-1.53923">
        <ele>53.943607</ele>
        <time>2021-11-06T16:03:15.007Z</time>
      </trkpt>
      <trkpt lat="47.19162" lon="-1.53934">
        <ele>53.874478</ele>
        <time>2021-11-06T16:03:16.999Z</time>
      </trkpt>
      <trkpt lat="47.19169" lon="-1.53946">
        <ele>53.807571</ele>
        <time>2021-11-06T16:03:18.985Z</time>
      </trkpt>
      <trkpt lat="47.19175" lon="-1.53956">
        <ele>53.74496</ele>
        <time>2021-11-06T16:03:20.998Z</time>
      </trkpt>
      <trkpt lat="47.1918" lon="-1.53968">
        <ele>53.682618</ele>
        <time>2021-11-06T16:03:23.010Z</time>
      </trkpt>
      <trkpt lat="47.19187" lon="-1.5398">
        <ele>53.611823</ele>
        <time>2021-11-06T16:03:24.994Z</time>
      </trkpt>
      <trkpt lat="47.19193" lon="-1.53991">
        <ele>53.545932</ele>
        <time>2021-11-06T16:03:26.972Z</time>
      </trkpt>
      <trkpt lat="47.192" lon="-1.54002">
        <ele>53.478496</ele>
        <time>2021-11-06T16:03:28.965Z</time>
      </trkpt>
      <trkpt lat="47.19204" lon="-1.54015">
        <ele>53.413229</ele>
        <time>2021-11-06T16:03:30.996Z</time>
      </trkpt>
      <trkpt lat="47.1921" lon="-1.54027">
        <ele>53.347473</ele>
        <time>2021-11-06T16:03:32.966Z</time>
      </trkpt>
      <trkpt lat="47.19221" lon="-1.54041">
        <ele>53.252491</ele>
        <time>2021-11-06T16:03:35.992Z</time>
      </trkpt>
      <trkpt lat="47.19227" lon="-1.54054">
        <ele>53.182574</ele>
        <time>2021-11-06T16:03:37.977Z</time>
      </trkpt>
      <trkpt lat="47.19232" lon="-1.54066">
        <ele>53.118417</ele>
        <time>2021-11-06T16:03:39.988Z</time>
      </trkpt>
      <trkpt lat="47.19236" lon="-1.54079">
        <ele>53.052754</ele>
        <time>2021-11-06T16:03:41.996Z</time>
      </trkpt>
      <trkpt lat="47.19241" lon="-1.54092">
        <ele>53.021673</ele>
        <time>2021-11-06T16:03:43.998Z</time>
      </trkpt>
      <trkpt lat="47.19248" lon="-1.54103">
        <ele>53.026294</ele>
        <time>2021-11-06T16:03:45.998Z</time>
      </trkpt>
      <trkpt lat="47.19254" lon="-1.54114">
        <ele>53.030908</ele>
        <time>2021-11-06T16:03:48.006Z</time>
      </trkpt>
      <trkpt lat="47.19259" lon="-1.54127">
        <ele>53.035586</ele>
        <time>2021-11-06T16:03:50.002Z</time>
      </trkpt>
      <trkpt lat="47.19265" lon="-1.5414">
        <ele>53.040295</ele>
        <time>2021-11-06T16:03:51.997Z</time>
      </trkpt>
      <trkpt lat="47.1927" lon="-1.54152">
        <ele>53.044955</ele>
        <time>2021-11-06T16:03:54.014Z</time>
      </trkpt>
      <trkpt lat="47.19275" lon="-1.54164">
        <ele>53.049225</ele>
        <time>2021-11-06T16:03:56.020Z</time>
      </trkpt>
      <trkpt lat="47.19282" lon="-1.54174">
        <ele>53.053651</ele>
        <time>2021-11-06T16:03:57.987Z</time>
      </trkpt>
      <trkpt lat="47.19289" lon="-1.54184">
        <ele>53.057989</ele>
        <time>2021-11-06T16:04:00.017Z</time>
      </trkpt>
      <trkpt lat="47.19296" lon="-1.54192">
        <ele>53.062223</ele>
        <time>2021-11-06T16:04:02.024Z</time>
      </trkpt>
      <trkpt lat="47.19307" lon="-1.54204">
        <ele>53.068659</ele>
        <time>2021-11-06T16:04:05.001Z</time>
      </trkpt>
      <trkpt lat="47.19314" lon="-1.54216">
        <ele>53.073577</ele>
        <time>2021-11-06T16:04:06.998Z</time>
      </trkpt>
      <trkpt lat="47.1932" lon="-1.54228">
        <ele>53.078105</ele>
        <time>2021-11-06T16:04:08.986Z</time>
      </trkpt>
      <trkpt lat="47.19326" lon="-1.5424">
        <ele>53.082766</ele>
        <time>2021-11-06T16:04:10.989Z</time>
      </trkpt>
      <trkpt lat="47.1933" lon="-1.54251">
        <ele>53.086991</ele>
        <time>2021-11-06T16:04:12.983Z</time>
      </trkpt>
      <trkpt lat="47.19335" lon="-1.54264">
        <ele>53.09157</ele>
        <time>2021-11-06T16:04:14.968Z</time>
      </trkpt>
      <trkpt lat="47.19342" lon="-1.54275">
        <ele>53.096076</ele>
        <time>2021-11-06T16:04:16.998Z</time>
      </trkpt>
      <trkpt lat="47.19349" lon="-1.54285">
        <ele>53.100604</ele>
        <time>2021-11-06T16:04:19.019Z</time>
      </trkpt>
      <trkpt lat="47.19356" lon="-1.54294">
        <ele>53.158457</ele>
        <time>2021-11-06T16:04:20.997Z</time>
      </trkpt>
      <trkpt lat="47.19363" lon="-1.54304">
        <ele>53.248469</ele>
        <time>2021-11-06T16:04:22.995Z</time>
      </trkpt>
      <trkpt lat="47.19372" lon="-1.54313">
        <ele>53.349421</ele>
        <time>2021-11-06T16:04:25.977Z</time>
      </trkpt>
      <trkpt lat="47.19381" lon="-1.54328">
        <ele>53.46843</ele>
        <time>2021-11-06T16:04:28.986Z</time>
      </trkpt>
      <trkpt lat="47.1939" lon="-1.54335">
        <ele>53.562598</ele>
        <time>2021-11-06T16:04:32.009Z</time>
      </trkpt>
      <trkpt lat="47.19397" lon="-1.54351">
        <ele>53.684926</ele>
        <time>2021-11-06T16:04:34.965Z</time>
      </trkpt>
      <trkpt lat="47.19405" lon="-1.54364">
        <ele>53.789667</ele>
        <time>2021-11-06T16:04:37.306Z</time>
      </trkpt>
      <trkpt lat="47.19415" lon="-1.54379">
        <ele>53.919882</ele>
        <time>2021-11-06T16:04:40.447Z</time>
      </trkpt>
      <trkpt lat="47.19424" lon="-1.54393">
        <ele>54.04121</ele>
        <time>2021-11-06T16:04:42.996Z</time>
      </trkpt>
      <trkpt lat="47.19429" lon="-1.54404">
        <ele>54.125343</ele>
        <time>2021-11-06T16:04:44.977Z</time>
      </trkpt>
      <trkpt lat="47.19435" lon="-1.54414">
        <ele>54.209062</ele>
        <time>2021-11-06T16:04:46.975Z</time>
      </trkpt>
      <trkpt lat="47.19443" lon="-1.54423">
        <ele>54.295397</ele>
        <time>2021-11-06T16:04:49.011Z</time>
      </trkpt>
      <trkpt lat="47.1945" lon="-1.54432">
        <ele>54.386465</ele>
        <time>2021-11-06T16:04:52.653Z</time>
      </trkpt>
      <trkpt lat="47.19454" lon="-1.54449">
        <ele>54.499309</ele>
        <time>2021-11-06T16:04:55.555Z</time>
      </trkpt>
      <trkpt lat="47.1945" lon="-1.54463">
        <ele>54.590833</ele>
        <time>2021-11-06T16:04:58.408Z</time>
      </trkpt>
      <trkpt lat="47.19443" lon="-1.54472">
        <ele>54.680085</ele>
        <time>2021-11-06T16:05:01.072Z</time>
      </trkpt>
      <trkpt lat="47.19434" lon="-1.54477">
        <ele>54.763042</ele>
        <time>2021-11-06T16:05:03.231Z</time>
      </trkpt>
      <trkpt lat="47.19425" lon="-1.54482">
        <ele>54.848636</ele>
        <time>2021-11-06T16:05:05.430Z</time>
      </trkpt>
      <trkpt lat="47.1942" lon="-1.54495">
        <ele>54.939067</ele>
        <time>2021-11-06T16:05:07.985Z</time>
      </trkpt>
      <trkpt lat="47.19429" lon="-1.545">
        <ele>55.027378</ele>
        <time>2021-11-06T16:05:11.807Z</time>
      </trkpt>
      <trkpt lat="47.19438" lon="-1.54493">
        <ele>55.113244</ele>
        <time>2021-11-06T16:05:12.991Z</time>
      </trkpt>
      <trkpt lat="47.19448" lon="-1.54479">
        <ele>55.239207</ele>
        <time>2021-11-06T16:05:15.707Z</time>
      </trkpt>
      <trkpt lat="47.19456" lon="-1.54467">
        <ele>55.341585</ele>
        <time>2021-11-06T16:05:18.235Z</time>
      </trkpt>
      <trkpt lat="47.19465" lon="-1.54463">
        <ele>55.423119</ele>
        <time>2021-11-06T16:05:33.816Z</time>
      </trkpt>
      <trkpt lat="47.19469" lon="-1.54475">
        <ele>55.506678</ele>
        <time>2021-11-06T16:05:38.540Z</time>
      </trkpt>
      <trkpt lat="47.19476" lon="-1.5449">
        <ele>55.610993</ele>
        <time>2021-11-06T16:05:42.274Z</time>
      </trkpt>
      <trkpt lat="47.19478" lon="-1.54506">
        <ele>55.710572</ele>
        <time>2021-11-06T16:05:44.973Z</time>
      </trkpt>
      <trkpt lat="47.19478" lon="-1.54519">
        <ele>55.789923</ele>
        <time>2021-11-06T16:05:48.868Z</time>
      </trkpt>
      <trkpt lat="47.19482" lon="-1.54544">
        <ele>55.941162</ele>
        <time>2021-11-06T16:05:52.977Z</time>
      </trkpt>
      <trkpt lat="47.19485" lon="-1.54557">
        <ele>56.027605</ele>
        <time>2021-11-06T16:05:54.967Z</time>
      </trkpt>
      <trkpt lat="47.19489" lon="-1.5457">
        <ele>56.110544</ele>
        <time>2021-11-06T16:05:57.000Z</time>
      </trkpt>
      <trkpt lat="47.19487" lon="-1.54585">
        <ele>56.202717</ele>
        <time>2021-11-06T16:05:59.893Z</time>
      </trkpt>
      <trkpt lat="47.19495" lon="-1.54597">
        <ele>56.305073</ele>
        <time>2021-11-06T16:06:02.577Z</time>
      </trkpt>
      <trkpt lat="47.19503" lon="-1.54605">
        <ele>56.335258</ele>
        <time>2021-11-06T16:06:04.894Z</time>
      </trkpt>
      <trkpt lat="47.19513" lon="-1.54612">
        <ele>56.321432</ele>
        <time>2021-11-06T16:06:07.356Z</time>
      </trkpt>
      <trkpt lat="47.19522" lon="-1.5462">
        <ele>56.307267</ele>
        <time>2021-11-06T16:06:10.017Z</time>
      </trkpt>
      <trkpt lat="47.19531" lon="-1.54629">
        <ele>56.293035</ele>
        <time>2021-11-06T16:06:12.684Z</time>
      </trkpt>
      <trkpt lat="47.19541" lon="-1.54641">
        <ele>56.2773</ele>
        <time>2021-11-06T16:06:15.550Z</time>
      </trkpt>
      <trkpt lat="47.1955" lon="-1.54654">
        <ele>56.261072</ele>
        <time>2021-11-06T16:06:18.797Z</time>
      </trkpt>
      <trkpt lat="47.19556" lon="-1.54666">
        <ele>56.247757</ele>
        <time>2021-11-06T16:06:21.678Z</time>
      </trkpt>
      <trkpt lat="47.19564" lon="-1.54679">
        <ele>56.232144</ele>
        <time>2021-11-06T16:06:24.759Z</time>
      </trkpt>
      <trkpt lat="47.19571" lon="-1.54689">
        <ele>56.219181</ele>
        <time>2021-11-06T16:06:27.171Z</time>
      </trkpt>
      <trkpt lat="47.19578" lon="-1.54702">
        <ele>56.204787</ele>
        <time>2021-11-06T16:06:29.934Z</time>
      </trkpt>
      <trkpt lat="47.19584" lon="-1.54713">
        <ele>56.192622</ele>
        <time>2021-11-06T16:06:32.177Z</time>
      </trkpt>
      <trkpt lat="47.19591" lon="-1.54724">
        <ele>56.179784</ele>
        <time>2021-11-06T16:06:34.726Z</time>
      </trkpt>
      <trkpt lat="47.19602" lon="-1.54734">
        <ele>56.162379</ele>
        <time>2021-11-06T16:06:37.930Z</time>
      </trkpt>
      <trkpt lat="47.19611" lon="-1.54742">
        <ele>56.148791</ele>
        <time>2021-11-06T16:06:40.013Z</time>
      </trkpt>
      <trkpt lat="47.19618" lon="-1.54753">
        <ele>56.135611</ele>
        <time>2021-11-06T16:06:41.992Z</time>
      </trkpt>
      <trkpt lat="47.19625" lon="-1.54764">
        <ele>56.122369</ele>
        <time>2021-11-06T16:06:44.005Z</time>
      </trkpt>
      <trkpt lat="47.19632" lon="-1.54775">
        <ele>56.107966</ele>
        <time>2021-11-06T16:06:45.978Z</time>
      </trkpt>
      <trkpt lat="47.1964" lon="-1.54785">
        <ele>56.076384</ele>
        <time>2021-11-06T16:06:47.971Z</time>
      </trkpt>
      <trkpt lat="47.19647" lon="-1.54796">
        <ele>56.044929</ele>
        <time>2021-11-06T16:06:49.997Z</time>
      </trkpt>
      <trkpt lat="47.19655" lon="-1.54807">
        <ele>56.013411</ele>
        <time>2021-11-06T16:06:51.981Z</time>
      </trkpt>
      <trkpt lat="47.19662" lon="-1.54819">
        <ele>55.978758</ele>
        <time>2021-11-06T16:06:53.998Z</time>
      </trkpt>
      <trkpt lat="47.1967" lon="-1.54833">
        <ele>55.94293</ele>
        <time>2021-11-06T16:06:55.978Z</time>
      </trkpt>
      <trkpt lat="47.19675" lon="-1.54847">
        <ele>55.908761</ele>
        <time>2021-11-06T16:06:57.976Z</time>
      </trkpt>
      <trkpt lat="47.19679" lon="-1.54862">
        <ele>55.875506</ele>
        <time>2021-11-06T16:07:00.001Z</time>
      </trkpt>
      <trkpt lat="47.19681" lon="-1.54878">
        <ele>55.843227</ele>
        <time>2021-11-06T16:07:01.989Z</time>
      </trkpt>
      <trkpt lat="47.19682" lon="-1.54892">
        <ele>55.813341</ele>
        <time>2021-11-06T16:07:04.005Z</time>
      </trkpt>
      <trkpt lat="47.19678" lon="-1.54905">
        <ele>55.784048</ele>
        <time>2021-11-06T16:07:05.972Z</time>
      </trkpt>
      <trkpt lat="47.19675" lon="-1.54921">
        <ele>55.750793</ele>
        <time>2021-11-06T16:07:07.978Z</time>
      </trkpt>
      <trkpt lat="47.19674" lon="-1.54937">
        <ele>55.716779</ele>
        <time>2021-11-06T16:07:10.014Z</time>
      </trkpt>
      <trkpt lat="47.19681" lon="-1.54949">
        <ele>55.684825</ele>
        <time>2021-11-06T16:07:11.975Z</time>
      </trkpt>
      <trkpt lat="47.1969" lon="-1.54953">
        <ele>55.654819</ele>
        <time>2021-11-06T16:07:13.970Z</time>
      </trkpt>
      <trkpt lat="47.19702" lon="-1.54951">
        <ele>55.618742</ele>
        <time>2021-11-06T16:07:16.988Z</time>
      </trkpt>
      <trkpt lat="47.19711" lon="-1.54959">
        <ele>55.587131</ele>
        <time>2021-11-06T16:07:19.979Z</time>
      </trkpt>
      <trkpt lat="47.19714" lon="-1.54973">
        <ele>55.593035</ele>
        <time>2021-11-06T16:07:21.987Z</time>
      </trkpt>
      <trkpt lat="47.19709" lon="-1.54989">
        <ele>55.714375</ele>
        <time>2021-11-06T16:07:25.980Z</time>
      </trkpt>
      <trkpt lat="47.19698" lon="-1.54996">
        <ele>55.845977</ele>
        <time>2021-11-06T16:07:28.925Z</time>
      </trkpt>
      <trkpt lat="47.19687" lon="-1.54995">
        <ele>55.963427</ele>
        <time>2021-11-06T16:07:31.628Z</time>
      </trkpt>
      <trkpt lat="47.19677" lon="-1.54995">
        <ele>56.074654</ele>
        <time>2021-11-06T16:07:34.528Z</time>
      </trkpt>
      <trkpt lat="47.19666" lon="-1.54993">
        <ele>56.190345</ele>
        <time>2021-11-06T16:07:37.409Z</time>
      </trkpt>
      <trkpt lat="47.19657" lon="-1.54991">
        <ele>56.289742</ele>
        <time>2021-11-06T16:07:40.158Z</time>
      </trkpt>
      <trkpt lat="47.19646" lon="-1.5499">
        <ele>56.406623</ele>
        <time>2021-11-06T16:07:43.351Z</time>
      </trkpt>
      <trkpt lat="47.19635" lon="-1.54989">
        <ele>56.526419</ele>
        <time>2021-11-06T16:07:46.634Z</time>
      </trkpt>
      <trkpt lat="47.19625" lon="-1.54988">
        <ele>56.631059</ele>
        <time>2021-11-06T16:07:49.372Z</time>
      </trkpt>
      <trkpt lat="47.19614" lon="-1.54987">
        <ele>56.741315</ele>
        <time>2021-11-06T16:07:52.231Z</time>
      </trkpt>
      <trkpt lat="47.19605" lon="-1.54986">
        <ele>56.840926</ele>
        <time>2021-11-06T16:07:54.872Z</time>
      </trkpt>
      <trkpt lat="47.19593" lon="-1.54985">
        <ele>56.971695</ele>
        <time>2021-11-06T16:07:58.228Z</time>
      </trkpt>
      <trkpt lat="47.19583" lon="-1.54983">
        <ele>57.074691</ele>
        <time>2021-11-06T16:08:01.008Z</time>
      </trkpt>
      <trkpt lat="47.19573" lon="-1.54981">
        <ele>57.187729</ele>
        <time>2021-11-06T16:08:04.027Z</time>
      </trkpt>
      <trkpt lat="47.19564" lon="-1.54984">
        <ele>57.287483</ele>
        <time>2021-11-06T16:08:08.006Z</time>
      </trkpt>
      <trkpt lat="47.19567" lon="-1.5497">
        <ele>57.391484</ele>
        <time>2021-11-06T16:08:13.534Z</time>
      </trkpt>
      <trkpt lat="47.19576" lon="-1.54968">
        <ele>57.493925</ele>
        <time>2021-11-06T16:08:15.819Z</time>
      </trkpt>
      <trkpt lat="47.1959" lon="-1.54969">
        <ele>57.932845</ele>
        <time>2021-11-06T16:08:18.583Z</time>
      </trkpt>
      <trkpt lat="47.19599" lon="-1.5497">
        <ele>58.246079</ele>
        <time>2021-11-06T16:08:20.809Z</time>
      </trkpt>
      <trkpt lat="47.19611" lon="-1.54971">
        <ele>58.639364</ele>
        <time>2021-11-06T16:08:23.981Z</time>
      </trkpt>
      <trkpt lat="47.19622" lon="-1.54971">
        <ele>58.98561</ele>
        <time>2021-11-06T16:08:26.977Z</time>
      </trkpt>
      <trkpt lat="47.19631" lon="-1.54972">
        <ele>59.285608</ele>
        <time>2021-11-06T16:08:29.980Z</time>
      </trkpt>
      <trkpt lat="47.1964" lon="-1.54972">
        <ele>59.582538</ele>
        <time>2021-11-06T16:08:33.895Z</time>
      </trkpt>
      <trkpt lat="47.19649" lon="-1.54973">
        <ele>59.886054</ele>
        <time>2021-11-06T16:08:37.005Z</time>
      </trkpt>
      <trkpt lat="47.19659" lon="-1.54973">
        <ele>60.20576</ele>
        <time>2021-11-06T16:08:39.751Z</time>
      </trkpt>
      <trkpt lat="47.19669" lon="-1.54973">
        <ele>60.558416</ele>
        <time>2021-11-06T16:08:42.650Z</time>
      </trkpt>
      <trkpt lat="47.19681" lon="-1.54972">
        <ele>60.931089</ele>
        <time>2021-11-06T16:08:45.964Z</time>
      </trkpt>
      <trkpt lat="47.1969" lon="-1.54971">
        <ele>61.234836</ele>
        <time>2021-11-06T16:08:48.919Z</time>
      </trkpt>
      <trkpt lat="47.19702" lon="-1.54969">
        <ele>61.642693</ele>
        <time>2021-11-06T16:08:52.626Z</time>
      </trkpt>
      <trkpt lat="47.19712" lon="-1.5497">
        <ele>61.975604</ele>
        <time>2021-11-06T16:08:55.634Z</time>
      </trkpt>
      <trkpt lat="47.19722" lon="-1.54971">
        <ele>62.309395</ele>
        <time>2021-11-06T16:08:58.814Z</time>
      </trkpt>
      <trkpt lat="47.19732" lon="-1.54972">
        <ele>62.636175</ele>
        <time>2021-11-06T16:09:01.869Z</time>
      </trkpt>
      <trkpt lat="47.19741" lon="-1.5497">
        <ele>62.938795</ele>
        <time>2021-11-06T16:09:04.548Z</time>
      </trkpt>
      <trkpt lat="47.19754" lon="-1.54971">
        <ele>63.347873</ele>
        <time>2021-11-06T16:09:07.814Z</time>
      </trkpt>
      <trkpt lat="47.19764" lon="-1.5497">
        <ele>63.471998</ele>
        <time>2021-11-06T16:09:10.663Z</time>
      </trkpt>
      <trkpt lat="47.19774" lon="-1.54971">
        <ele>63.544602</ele>
        <time>2021-11-06T16:09:13.001Z</time>
      </trkpt>
      <trkpt lat="47.19784" lon="-1.54971">
        <ele>63.614183</ele>
        <time>2021-11-06T16:09:14.962Z</time>
      </trkpt>
      <trkpt lat="47.19793" lon="-1.54969">
        <ele>63.681069</ele>
        <time>2021-11-06T16:09:16.962Z</time>
      </trkpt>
      <trkpt lat="47.19805" lon="-1.5497">
        <ele>63.764981</ele>
        <time>2021-11-06T16:09:20.760Z</time>
      </trkpt>
      <trkpt lat="47.19818" lon="-1.54971">
        <ele>63.861861</ele>
        <time>2021-11-06T16:09:23.912Z</time>
      </trkpt>
      <trkpt lat="47.19831" lon="-1.54969">
        <ele>63.955306</ele>
        <time>2021-11-06T16:09:27.756Z</time>
      </trkpt>
      <trkpt lat="47.19841" lon="-1.54968">
        <ele>64.028131</ele>
        <time>2021-11-06T16:09:30.501Z</time>
      </trkpt>
      <trkpt lat="47.19851" lon="-1.54966">
        <ele>64.100617</ele>
        <time>2021-11-06T16:09:32.848Z</time>
      </trkpt>
      <trkpt lat="47.19861" lon="-1.54965">
        <ele>64.172412</ele>
        <time>2021-11-06T16:09:34.697Z</time>
      </trkpt>
      <trkpt lat="47.19879" lon="-1.54965">
        <ele>64.297175</ele>
        <time>2021-11-06T16:09:35.995Z</time>
      </trkpt>
      <trkpt lat="47.19893" lon="-1.54966">
        <ele>64.396942</ele>
        <time>2021-11-06T16:09:37.993Z</time>
      </trkpt>
      <trkpt lat="47.19903" lon="-1.54967">
        <ele>64.470823</ele>
        <time>2021-11-06T16:09:40.005Z</time>
      </trkpt>
      <trkpt lat="47.19914" lon="-1.54967">
        <ele>64.551128</ele>
        <time>2021-11-06T16:09:42.997Z</time>
      </trkpt>
      <trkpt lat="47.19925" lon="-1.54971">
        <ele>64.629814</ele>
        <time>2021-11-06T16:09:45.752Z</time>
      </trkpt>
      <trkpt lat="47.19941" lon="-1.54969">
        <ele>64.420767</ele>
        <time>2021-11-06T16:09:48.009Z</time>
      </trkpt>
      <trkpt lat="47.19952" lon="-1.5497">
        <ele>63.862749</ele>
        <time>2021-11-06T16:09:50.004Z</time>
      </trkpt>
      <trkpt lat="47.19963" lon="-1.5497">
        <ele>63.334333</ele>
        <time>2021-11-06T16:09:52.005Z</time>
      </trkpt>
      <trkpt lat="47.19974" lon="-1.5497">
        <ele>62.78643</ele>
        <time>2021-11-06T16:09:53.988Z</time>
      </trkpt>
      <trkpt lat="47.19985" lon="-1.5497">
        <ele>62.2336</ele>
        <time>2021-11-06T16:09:55.967Z</time>
      </trkpt>
      <trkpt lat="47.19996" lon="-1.5497">
        <ele>61.705067</ele>
        <time>2021-11-06T16:09:57.991Z</time>
      </trkpt>
      <trkpt lat="47.20007" lon="-1.54969">
        <ele>61.151008</ele>
        <time>2021-11-06T16:09:59.993Z</time>
      </trkpt>
      <trkpt lat="47.20019" lon="-1.54967">
        <ele>60.554518</ele>
        <time>2021-11-06T16:10:01.980Z</time>
      </trkpt>
      <trkpt lat="47.20031" lon="-1.54963">
        <ele>59.948646</ele>
        <time>2021-11-06T16:10:03.969Z</time>
      </trkpt>
      <trkpt lat="47.20043" lon="-1.54957">
        <ele>59.336671</ele>
        <time>2021-11-06T16:10:05.992Z</time>
      </trkpt>
      <trkpt lat="47.20054" lon="-1.54952">
        <ele>58.740845</ele>
        <time>2021-11-06T16:10:08.003Z</time>
      </trkpt>
      <trkpt lat="47.20066" lon="-1.54945">
        <ele>58.1259</ele>
        <time>2021-11-06T16:10:09.994Z</time>
      </trkpt>
      <trkpt lat="47.20077" lon="-1.54938">
        <ele>57.498642</ele>
        <time>2021-11-06T16:10:11.973Z</time>
      </trkpt>
      <trkpt lat="47.20088" lon="-1.5493">
        <ele>56.890014</ele>
        <time>2021-11-06T16:10:13.978Z</time>
      </trkpt>
      <trkpt lat="47.201" lon="-1.54921">
        <ele>56.260546</ele>
        <time>2021-11-06T16:10:15.996Z</time>
      </trkpt>
      <trkpt lat="47.20111" lon="-1.54912">
        <ele>55.80712</ele>
        <time>2021-11-06T16:10:17.971Z</time>
      </trkpt>
      <trkpt lat="47.2012" lon="-1.549">
        <ele>55.752326</ele>
        <time>2021-11-06T16:10:20.307Z</time>
      </trkpt>
      <trkpt lat="47.20129" lon="-1.54891">
        <ele>55.702602</ele>
        <time>2021-11-06T16:10:22.031Z</time>
      </trkpt>
      <trkpt lat="47.20139" lon="-1.54885">
        <ele>55.655701</ele>
        <time>2021-11-06T16:10:23.989Z</time>
      </trkpt>
      <trkpt lat="47.20149" lon="-1.54884">
        <ele>55.610185</ele>
        <time>2021-11-06T16:10:25.979Z</time>
      </trkpt>
      <trkpt lat="47.2016" lon="-1.5489">
        <ele>55.557987</ele>
        <time>2021-11-06T16:10:28.957Z</time>
      </trkpt>
      <trkpt lat="47.20159" lon="-1.54908">
        <ele>55.504069</ele>
        <time>2021-11-06T16:10:31.997Z</time>
      </trkpt>
      <trkpt lat="47.20161" lon="-1.54923">
        <ele>55.457938</ele>
        <time>2021-11-06T16:10:33.957Z</time>
      </trkpt>
      <trkpt lat="47.20163" lon="-1.54938">
        <ele>55.409658</ele>
        <time>2021-11-06T16:10:35.972Z</time>
      </trkpt>
      <trkpt lat="47.20165" lon="-1.54954">
        <ele>55.361737</ele>
        <time>2021-11-06T16:10:37.987Z</time>
      </trkpt>
      <trkpt lat="47.20166" lon="-1.54969">
        <ele>55.315295</ele>
        <time>2021-11-06T16:10:39.976Z</time>
      </trkpt>
      <trkpt lat="47.20166" lon="-1.54984">
        <ele>55.269262</ele>
        <time>2021-11-06T16:10:41.995Z</time>
      </trkpt>
      <trkpt lat="47.20166" lon="-1.54998">
        <ele>55.228072</ele>
        <time>2021-11-06T16:10:44.010Z</time>
      </trkpt>
      <trkpt lat="47.20166" lon="-1.55017">
        <ele>55.170486</ele>
        <time>2021-11-06T16:10:46.991Z</time>
      </trkpt>
      <trkpt lat="47.20176" lon="-1.55032">
        <ele>55.108763</ele>
        <time>2021-11-06T16:10:49.962Z</time>
      </trkpt>
      <trkpt lat="47.20185" lon="-1.55039">
        <ele>55.060872</ele>
        <time>2021-11-06T16:10:51.961Z</time>
      </trkpt>
      <trkpt lat="47.20194" lon="-1.55045">
        <ele>54.997556</ele>
        <time>2021-11-06T16:10:53.992Z</time>
      </trkpt>
      <trkpt lat="47.20204" lon="-1.55053">
        <ele>54.808028</ele>
        <time>2021-11-06T16:10:55.995Z</time>
      </trkpt>
      <trkpt lat="47.20211" lon="-1.55064">
        <ele>54.623143</ele>
        <time>2021-11-06T16:10:57.974Z</time>
      </trkpt>
      <trkpt lat="47.20217" lon="-1.55075">
        <ele>54.445391</ele>
        <time>2021-11-06T16:10:59.982Z</time>
      </trkpt>
      <trkpt lat="47.20224" lon="-1.55087">
        <ele>54.260506</ele>
        <time>2021-11-06T16:11:01.989Z</time>
      </trkpt>
      <trkpt lat="47.2023" lon="-1.55098">
        <ele>54.088055</ele>
        <time>2021-11-06T16:11:04.000Z</time>
      </trkpt>
      <trkpt lat="47.20237" lon="-1.55109">
        <ele>53.911699</ele>
        <time>2021-11-06T16:11:06.001Z</time>
      </trkpt>
      <trkpt lat="47.20244" lon="-1.5512">
        <ele>53.727261</ele>
        <time>2021-11-06T16:11:07.970Z</time>
      </trkpt>
      <trkpt lat="47.20252" lon="-1.5513">
        <ele>53.536842</ele>
        <time>2021-11-06T16:11:09.990Z</time>
      </trkpt>
      <trkpt lat="47.20259" lon="-1.55142">
        <ele>53.349812</ele>
        <time>2021-11-06T16:11:11.984Z</time>
      </trkpt>
      <trkpt lat="47.20267" lon="-1.55152">
        <ele>53.167931</ele>
        <time>2021-11-06T16:11:13.962Z</time>
      </trkpt>
      <trkpt lat="47.20274" lon="-1.55165">
        <ele>52.963332</ele>
        <time>2021-11-06T16:11:15.995Z</time>
      </trkpt>
      <trkpt lat="47.20282" lon="-1.55178">
        <ele>52.760293</ele>
        <time>2021-11-06T16:11:17.989Z</time>
      </trkpt>
      <trkpt lat="47.20289" lon="-1.5519">
        <ele>52.560512</ele>
        <time>2021-11-06T16:11:19.990Z</time>
      </trkpt>
      <trkpt lat="47.20299" lon="-1.55202">
        <ele>52.332857</ele>
        <time>2021-11-06T16:11:21.976Z</time>
      </trkpt>
      <trkpt lat="47.20307" lon="-1.55215">
        <ele>52.131243</ele>
        <time>2021-11-06T16:11:23.952Z</time>
      </trkpt>
      <trkpt lat="47.20318" lon="-1.55217">
        <ele>51.931135</ele>
        <time>2021-11-06T16:11:27.957Z</time>
      </trkpt>
      <trkpt lat="47.20328" lon="-1.5521">
        <ele>51.995598</ele>
        <time>2021-11-06T16:11:29.978Z</time>
      </trkpt>
      <trkpt lat="47.20336" lon="-1.55196">
        <ele>52.344098</ele>
        <time>2021-11-06T16:11:31.987Z</time>
      </trkpt>
      <trkpt lat="47.20342" lon="-1.55184">
        <ele>52.626828</ele>
        <time>2021-11-06T16:11:34.015Z</time>
      </trkpt>
      <trkpt lat="47.20351" lon="-1.55176">
        <ele>52.918569</ele>
        <time>2021-11-06T16:11:36.986Z</time>
      </trkpt>
      <trkpt lat="47.20356" lon="-1.55165">
        <ele>53.188796</ele>
        <time>2021-11-06T16:11:38.974Z</time>
      </trkpt>
      <trkpt lat="47.20363" lon="-1.55155">
        <ele>53.444933</ele>
        <time>2021-11-06T16:11:41.003Z</time>
      </trkpt>
      <trkpt lat="47.20367" lon="-1.55143">
        <ele>53.711593</ele>
        <time>2021-11-06T16:11:44.001Z</time>
      </trkpt>
      <trkpt lat="47.20374" lon="-1.55135">
        <ele>53.97861</ele>
        <time>2021-11-06T16:11:52.997Z</time>
      </trkpt>
      <trkpt lat="47.20383" lon="-1.55142">
        <ele>54.243863</ele>
        <time>2021-11-06T16:11:55.966Z</time>
      </trkpt>
      <trkpt lat="47.20391" lon="-1.5515">
        <ele>54.521814</ele>
        <time>2021-11-06T16:11:59.322Z</time>
      </trkpt>
      <trkpt lat="47.20396" lon="-1.55162">
        <ele>54.802787</ele>
        <time>2021-11-06T16:12:02.430Z</time>
      </trkpt>
      <trkpt lat="47.20397" lon="-1.55178">
        <ele>55.119722</ele>
        <time>2021-11-06T16:12:04.869Z</time>
      </trkpt>
      <trkpt lat="47.20403" lon="-1.55194">
        <ele>55.46628</ele>
        <time>2021-11-06T16:12:06.975Z</time>
      </trkpt>
      <trkpt lat="47.20409" lon="-1.55207">
        <ele>55.769635</ele>
        <time>2021-11-06T16:12:08.988Z</time>
      </trkpt>
      <trkpt lat="47.20415" lon="-1.5522">
        <ele>56.076113</ele>
        <time>2021-11-06T16:12:10.974Z</time>
      </trkpt>
      <trkpt lat="47.20422" lon="-1.55231">
        <ele>56.357869</ele>
        <time>2021-11-06T16:12:12.997Z</time>
      </trkpt>
      <trkpt lat="47.20428" lon="-1.55245">
        <ele>56.691491</ele>
        <time>2021-11-06T16:12:14.988Z</time>
      </trkpt>
      <trkpt lat="47.20435" lon="-1.55259">
        <ele>56.95391</ele>
        <time>2021-11-06T16:12:16.998Z</time>
      </trkpt>
      <trkpt lat="47.20442" lon="-1.55273">
        <ele>57.000338</ele>
        <time>2021-11-06T16:12:18.990Z</time>
      </trkpt>
      <trkpt lat="47.20449" lon="-1.55286">
        <ele>57.046557</ele>
        <time>2021-11-06T16:12:20.971Z</time>
      </trkpt>
      <trkpt lat="47.20454" lon="-1.55301">
        <ele>57.094533</ele>
        <time>2021-11-06T16:12:22.991Z</time>
      </trkpt>
      <trkpt lat="47.20461" lon="-1.55314">
        <ele>57.139389</ele>
        <time>2021-11-06T16:12:24.998Z</time>
      </trkpt>
      <trkpt lat="47.20469" lon="-1.55327">
        <ele>57.188013</ele>
        <time>2021-11-06T16:12:27.003Z</time>
      </trkpt>
      <trkpt lat="47.20474" lon="-1.55338">
        <ele>57.227547</ele>
        <time>2021-11-06T16:12:29.042Z</time>
      </trkpt>
      <trkpt lat="47.20482" lon="-1.55354">
        <ele>57.27973</ele>
        <time>2021-11-06T16:12:32.001Z</time>
      </trkpt>
      <trkpt lat="47.20488" lon="-1.55369">
        <ele>57.330992</ele>
        <time>2021-11-06T16:12:33.981Z</time>
      </trkpt>
      <trkpt lat="47.20496" lon="-1.55384">
        <ele>57.381641</ele>
        <time>2021-11-06T16:12:35.998Z</time>
      </trkpt>
      <trkpt lat="47.20502" lon="-1.55398">
        <ele>57.429963</ele>
        <time>2021-11-06T16:12:37.996Z</time>
      </trkpt>
      <trkpt lat="47.20509" lon="-1.55411">
        <ele>57.477258</ele>
        <time>2021-11-06T16:12:39.971Z</time>
      </trkpt>
      <trkpt lat="47.20518" lon="-1.5542">
        <ele>57.519977</ele>
        <time>2021-11-06T16:12:41.999Z</time>
      </trkpt>
      <trkpt lat="47.20529" lon="-1.5542">
        <ele>57.56682</ele>
        <time>2021-11-06T16:12:44.004Z</time>
      </trkpt>
      <trkpt lat="47.20541" lon="-1.55421">
        <ele>57.61328</ele>
        <time>2021-11-06T16:12:45.974Z</time>
      </trkpt>
      <trkpt lat="47.2055" lon="-1.55429">
        <ele>57.657538</ele>
        <time>2021-11-06T16:12:47.967Z</time>
      </trkpt>
      <trkpt lat="47.20557" lon="-1.55443">
        <ele>57.609892</ele>
        <time>2021-11-06T16:12:49.982Z</time>
      </trkpt>
      <trkpt lat="47.20563" lon="-1.55458">
        <ele>57.482059</ele>
        <time>2021-11-06T16:12:51.986Z</time>
      </trkpt>
      <trkpt lat="47.20569" lon="-1.55472">
        <ele>57.349106</ele>
        <time>2021-11-06T16:12:53.998Z</time>
      </trkpt>
      <trkpt lat="47.2058" lon="-1.55479">
        <ele>57.225948</ele>
        <time>2021-11-06T16:12:55.985Z</time>
      </trkpt>
      <trkpt lat="47.20592" lon="-1.55478">
        <ele>57.091379</ele>
        <time>2021-11-06T16:12:57.991Z</time>
      </trkpt>
      <trkpt lat="47.20603" lon="-1.55479">
        <ele>56.970888</ele>
        <time>2021-11-06T16:12:59.993Z</time>
      </trkpt>
      <trkpt lat="47.20613" lon="-1.5548">
        <ele>56.85834</ele>
        <time>2021-11-06T16:13:01.982Z</time>
      </trkpt>
      <trkpt lat="47.20625" lon="-1.55484">
        <ele>56.721073</ele>
        <time>2021-11-06T16:13:03.982Z</time>
      </trkpt>
      <trkpt lat="47.20637" lon="-1.55487">
        <ele>56.582943</ele>
        <time>2021-11-06T16:13:05.983Z</time>
      </trkpt>
      <trkpt lat="47.2065" lon="-1.55487">
        <ele>56.444051</ele>
        <time>2021-11-06T16:13:07.976Z</time>
      </trkpt>
      <trkpt lat="47.20662" lon="-1.55488">
        <ele>56.309349</ele>
        <time>2021-11-06T16:13:09.971Z</time>
      </trkpt>
      <trkpt lat="47.20672" lon="-1.5549">
        <ele>56.1921</ele>
        <time>2021-11-06T16:13:11.961Z</time>
      </trkpt>
      <trkpt lat="47.20682" lon="-1.55493">
        <ele>56.076025</ele>
        <time>2021-11-06T16:13:13.967Z</time>
      </trkpt>
      <trkpt lat="47.20693" lon="-1.55493">
        <ele>55.959389</ele>
        <time>2021-11-06T16:13:15.989Z</time>
      </trkpt>
      <trkpt lat="47.20703" lon="-1.55493">
        <ele>55.842675</ele>
        <time>2021-11-06T16:13:17.992Z</time>
      </trkpt>
      <trkpt lat="47.20713" lon="-1.55497">
        <ele>55.736419</ele>
        <time>2021-11-06T16:13:19.988Z</time>
      </trkpt>
      <trkpt lat="47.20724" lon="-1.55498">
        <ele>55.537373</ele>
        <time>2021-11-06T16:13:21.992Z</time>
      </trkpt>
      <trkpt lat="47.20734" lon="-1.55509">
        <ele>55.239716</ele>
        <time>2021-11-06T16:13:25.007Z</time>
      </trkpt>
      <trkpt lat="47.20735" lon="-1.55527">
        <ele>54.961884</ele>
        <time>2021-11-06T16:13:26.980Z</time>
      </trkpt>
      <trkpt lat="47.20736" lon="-1.55545">
        <ele>54.66518</ele>
        <time>2021-11-06T16:13:28.991Z</time>
      </trkpt>
      <trkpt lat="47.20738" lon="-1.55564">
        <ele>54.366211</ele>
        <time>2021-11-06T16:13:30.988Z</time>
      </trkpt>
      <trkpt lat="47.2074" lon="-1.55581">
        <ele>54.084768</ele>
        <time>2021-11-06T16:13:33.008Z</time>
      </trkpt>
      <trkpt lat="47.20743" lon="-1.55598">
        <ele>53.812055</ele>
        <time>2021-11-06T16:13:34.999Z</time>
      </trkpt>
      <trkpt lat="47.20744" lon="-1.55615">
        <ele>53.533037</ele>
        <time>2021-11-06T16:13:36.996Z</time>
      </trkpt>
      <trkpt lat="47.20746" lon="-1.55631">
        <ele>53.27368</ele>
        <time>2021-11-06T16:13:39.011Z</time>
      </trkpt>
      <trkpt lat="47.20748" lon="-1.55647">
        <ele>53.014063</ele>
        <time>2021-11-06T16:13:40.998Z</time>
      </trkpt>
      <trkpt lat="47.20749" lon="-1.55663">
        <ele>52.766408</ele>
        <time>2021-11-06T16:13:42.996Z</time>
      </trkpt>
      <trkpt lat="47.20749" lon="-1.55678">
        <ele>52.527132</ele>
        <time>2021-11-06T16:13:44.984Z</time>
      </trkpt>
      <trkpt lat="47.2075" lon="-1.55693">
        <ele>52.283222</ele>
        <time>2021-11-06T16:13:47.000Z</time>
      </trkpt>
      <trkpt lat="47.20753" lon="-1.55708">
        <ele>52.035659</ele>
        <time>2021-11-06T16:13:48.974Z</time>
      </trkpt>
      <trkpt lat="47.20756" lon="-1.55725">
        <ele>51.74952</ele>
        <time>2021-11-06T16:13:50.961Z</time>
      </trkpt>
      <trkpt lat="47.20759" lon="-1.5574">
        <ele>51.504314</ele>
        <time>2021-11-06T16:13:52.994Z</time>
      </trkpt>
      <trkpt lat="47.20762" lon="-1.55755">
        <ele>51.53698</ele>
        <time>2021-11-06T16:13:54.980Z</time>
      </trkpt>
      <trkpt lat="47.20763" lon="-1.5577">
        <ele>51.626133</ele>
        <time>2021-11-06T16:13:56.994Z</time>
      </trkpt>
      <trkpt lat="47.20764" lon="-1.55785">
        <ele>51.713144</ele>
        <time>2021-11-06T16:13:58.993Z</time>
      </trkpt>
      <trkpt lat="47.20764" lon="-1.558">
        <ele>51.799657</ele>
        <time>2021-11-06T16:14:00.981Z</time>
      </trkpt>
      <trkpt lat="47.20767" lon="-1.55815">
        <ele>51.88715</ele>
        <time>2021-11-06T16:14:03.003Z</time>
      </trkpt>
      <trkpt lat="47.20772" lon="-1.55829">
        <ele>51.978107</ele>
        <time>2021-11-06T16:14:04.989Z</time>
      </trkpt>
      <trkpt lat="47.20775" lon="-1.55845">
        <ele>52.070502</ele>
        <time>2021-11-06T16:14:06.981Z</time>
      </trkpt>
      <trkpt lat="47.20778" lon="-1.5586">
        <ele>52.161886</ele>
        <time>2021-11-06T16:14:08.991Z</time>
      </trkpt>
      <trkpt lat="47.20781" lon="-1.55874">
        <ele>52.249855</ele>
        <time>2021-11-06T16:14:10.981Z</time>
      </trkpt>
      <trkpt lat="47.20784" lon="-1.55889">
        <ele>52.337501</ele>
        <time>2021-11-06T16:14:12.979Z</time>
      </trkpt>
      <trkpt lat="47.20786" lon="-1.55903">
        <ele>52.422061</ele>
        <time>2021-11-06T16:14:14.969Z</time>
      </trkpt>
      <trkpt lat="47.20789" lon="-1.55918">
        <ele>52.508693</ele>
        <time>2021-11-06T16:14:16.968Z</time>
      </trkpt>
      <trkpt lat="47.20791" lon="-1.55933">
        <ele>52.600009</ele>
        <time>2021-11-06T16:14:18.994Z</time>
      </trkpt>
      <trkpt lat="47.20793" lon="-1.55948">
        <ele>52.68682</ele>
        <time>2021-11-06T16:14:20.985Z</time>
      </trkpt>
      <trkpt lat="47.20795" lon="-1.55964">
        <ele>52.779214</ele>
        <time>2021-11-06T16:14:22.980Z</time>
      </trkpt>
      <trkpt lat="47.20798" lon="-1.55978">
        <ele>52.864417</ele>
        <time>2021-11-06T16:14:24.991Z</time>
      </trkpt>
      <trkpt lat="47.20802" lon="-1.55992">
        <ele>52.952338</ele>
        <time>2021-11-06T16:14:26.974Z</time>
      </trkpt>
      <trkpt lat="47.20805" lon="-1.56006">
        <ele>53.111963</ele>
        <time>2021-11-06T16:14:28.996Z</time>
      </trkpt>
      <trkpt lat="47.20807" lon="-1.5602">
        <ele>53.305913</ele>
        <time>2021-11-06T16:14:30.989Z</time>
      </trkpt>
      <trkpt lat="47.2081" lon="-1.56035">
        <ele>53.513482</ele>
        <time>2021-11-06T16:14:33.001Z</time>
      </trkpt>
      <trkpt lat="47.20812" lon="-1.56049">
        <ele>53.717093</ele>
        <time>2021-11-06T16:14:35.004Z</time>
      </trkpt>
      <trkpt lat="47.20817" lon="-1.56063">
        <ele>53.925408</ele>
        <time>2021-11-06T16:14:36.981Z</time>
      </trkpt>
      <trkpt lat="47.2082" lon="-1.56077">
        <ele>54.128309</ele>
        <time>2021-11-06T16:14:38.959Z</time>
      </trkpt>
      <trkpt lat="47.20822" lon="-1.56091">
        <ele>54.32477</ele>
        <time>2021-11-06T16:14:40.979Z</time>
      </trkpt>
      <trkpt lat="47.20824" lon="-1.56105">
        <ele>54.523437</ele>
        <time>2021-11-06T16:14:42.971Z</time>
      </trkpt>
      <trkpt lat="47.20827" lon="-1.5612">
        <ele>54.734198</ele>
        <time>2021-11-06T16:14:44.960Z</time>
      </trkpt>
      <trkpt lat="47.20834" lon="-1.56134">
        <ele>54.9812</ele>
        <time>2021-11-06T16:14:48.002Z</time>
      </trkpt>
      <trkpt lat="47.20844" lon="-1.56138">
        <ele>55.191411</ele>
        <time>2021-11-06T16:14:50.012Z</time>
      </trkpt>
      <trkpt lat="47.20857" lon="-1.56139">
        <ele>55.448662</ele>
        <time>2021-11-06T16:14:52.974Z</time>
      </trkpt>
      <trkpt lat="47.2087" lon="-1.56143">
        <ele>55.703143</ele>
        <time>2021-11-06T16:14:55.980Z</time>
      </trkpt>
      <trkpt lat="47.2088" lon="-1.56145">
        <ele>55.917164</ele>
        <time>2021-11-06T16:14:57.717Z</time>
      </trkpt>
      <trkpt lat="47.2089" lon="-1.56147">
        <ele>56.119354</ele>
        <time>2021-11-06T16:15:00.723Z</time>
      </trkpt>
      <trkpt lat="47.20901" lon="-1.5615">
        <ele>56.34525</ele>
        <time>2021-11-06T16:15:03.663Z</time>
      </trkpt>
      <trkpt lat="47.20913" lon="-1.56154">
        <ele>56.601786</ele>
        <time>2021-11-06T16:15:06.538Z</time>
      </trkpt>
      <trkpt lat="47.20924" lon="-1.56157">
        <ele>56.644446</ele>
        <time>2021-11-06T16:15:09.006Z</time>
      </trkpt>
      <trkpt lat="47.20935" lon="-1.56159">
        <ele>56.666563</ele>
        <time>2021-11-06T16:15:11.481Z</time>
      </trkpt>
      <trkpt lat="47.20948" lon="-1.5616">
        <ele>56.691053</ele>
        <time>2021-11-06T16:15:13.983Z</time>
      </trkpt>
      <trkpt lat="47.20958" lon="-1.56164">
        <ele>56.711251</ele>
        <time>2021-11-06T16:15:15.977Z</time>
      </trkpt>
      <trkpt lat="47.20968" lon="-1.56166">
        <ele>56.731219</ele>
        <time>2021-11-06T16:15:18.003Z</time>
      </trkpt>
      <trkpt lat="47.20978" lon="-1.56168">
        <ele>56.750456</ele>
        <time>2021-11-06T16:15:20.221Z</time>
      </trkpt>
      <trkpt lat="47.20989" lon="-1.5617">
        <ele>56.772657</ele>
        <time>2021-11-06T16:15:23.508Z</time>
      </trkpt>
      <trkpt lat="47.20992" lon="-1.56186">
        <ele>56.795017</ele>
        <time>2021-11-06T16:15:26.678Z</time>
      </trkpt>
      <trkpt lat="47.20995" lon="-1.56205">
        <ele>56.820251</ele>
        <time>2021-11-06T16:15:28.951Z</time>
      </trkpt>
      <trkpt lat="47.20998" lon="-1.56218">
        <ele>56.839624</ele>
        <time>2021-11-06T16:15:30.975Z</time>
      </trkpt>
      <trkpt lat="47.21002" lon="-1.56233">
        <ele>56.860644</ele>
        <time>2021-11-06T16:15:32.964Z</time>
      </trkpt>
      <trkpt lat="47.21005" lon="-1.56249">
        <ele>56.882289</ele>
        <time>2021-11-06T16:15:34.968Z</time>
      </trkpt>
      <trkpt lat="47.21006" lon="-1.56265">
        <ele>56.903411</ele>
        <time>2021-11-06T16:15:36.967Z</time>
      </trkpt>
      <trkpt lat="47.21003" lon="-1.56281">
        <ele>56.925748</ele>
        <time>2021-11-06T16:15:38.996Z</time>
      </trkpt>
      <trkpt lat="47.21004" lon="-1.56298">
        <ele>56.947567</ele>
        <time>2021-11-06T16:15:40.969Z</time>
      </trkpt>
      <trkpt lat="47.21002" lon="-1.56314">
        <ele>56.969711</ele>
        <time>2021-11-06T16:15:43.001Z</time>
      </trkpt>
      <trkpt lat="47.21" lon="-1.56331">
        <ele>56.906668</ele>
        <time>2021-11-06T16:15:44.979Z</time>
      </trkpt>
      <trkpt lat="47.20998" lon="-1.56346">
        <ele>56.808754</ele>
        <time>2021-11-06T16:15:47.000Z</time>
      </trkpt>
      <trkpt lat="47.20994" lon="-1.56361">
        <ele>56.711514</ele>
        <time>2021-11-06T16:15:48.969Z</time>
      </trkpt>
      <trkpt lat="47.2099" lon="-1.56375">
        <ele>56.616465</ele>
        <time>2021-11-06T16:15:50.988Z</time>
      </trkpt>
      <trkpt lat="47.20985" lon="-1.56388">
        <ele>56.528296</ele>
        <time>2021-11-06T16:15:52.971Z</time>
      </trkpt>
      <trkpt lat="47.20981" lon="-1.56401">
        <ele>56.435607</ele>
        <time>2021-11-06T16:15:54.985Z</time>
      </trkpt>
      <trkpt lat="47.20976" lon="-1.56415">
        <ele>56.338812</ele>
        <time>2021-11-06T16:15:56.993Z</time>
      </trkpt>
      <trkpt lat="47.20973" lon="-1.5643">
        <ele>56.244856</ele>
        <time>2021-11-06T16:15:58.973Z</time>
      </trkpt>
      <trkpt lat="47.2097" lon="-1.56444">
        <ele>56.152318</ele>
        <time>2021-11-06T16:16:00.969Z</time>
      </trkpt>
      <trkpt lat="47.20966" lon="-1.56457">
        <ele>56.064655</ele>
        <time>2021-11-06T16:16:02.990Z</time>
      </trkpt>
      <trkpt lat="47.20963" lon="-1.56471">
        <ele>55.977629</ele>
        <time>2021-11-06T16:16:05.000Z</time>
      </trkpt>
      <trkpt lat="47.2096" lon="-1.56484">
        <ele>55.89091</ele>
        <time>2021-11-06T16:16:07.001Z</time>
      </trkpt>
      <trkpt lat="47.20956" lon="-1.56498">
        <ele>55.801287</ele>
        <time>2021-11-06T16:16:09.001Z</time>
      </trkpt>
      <trkpt lat="47.20953" lon="-1.5651">
        <ele>55.719325</ele>
        <time>2021-11-06T16:16:10.998Z</time>
      </trkpt>
      <trkpt lat="47.20949" lon="-1.56523">
        <ele>55.635717</ele>
        <time>2021-11-06T16:16:13.004Z</time>
      </trkpt>
      <trkpt lat="47.20945" lon="-1.56535">
        <ele>55.549601</ele>
        <time>2021-11-06T16:16:15.015Z</time>
      </trkpt>
      <trkpt lat="47.20941" lon="-1.56548">
        <ele>55.460393</ele>
        <time>2021-11-06T16:16:17.013Z</time>
      </trkpt>
      <trkpt lat="47.20937" lon="-1.56561">
        <ele>55.375671</ele>
        <time>2021-11-06T16:16:19.010Z</time>
      </trkpt>
      <trkpt lat="47.20934" lon="-1.56574">
        <ele>55.390825</ele>
        <time>2021-11-06T16:16:20.989Z</time>
      </trkpt>
      <trkpt lat="47.2093" lon="-1.56587">
        <ele>55.452092</ele>
        <time>2021-11-06T16:16:23.006Z</time>
      </trkpt>
      <trkpt lat="47.20927" lon="-1.56599">
        <ele>55.510084</ele>
        <time>2021-11-06T16:16:25.016Z</time>
      </trkpt>
      <trkpt lat="47.20921" lon="-1.56615">
        <ele>55.587369</ele>
        <time>2021-11-06T16:16:28.011Z</time>
      </trkpt>
      <trkpt lat="47.20915" lon="-1.56627">
        <ele>55.647639</ele>
        <time>2021-11-06T16:16:30.988Z</time>
      </trkpt>
      <trkpt lat="47.20907" lon="-1.56638">
        <ele>55.718148</ele>
        <time>2021-11-06T16:16:33.999Z</time>
      </trkpt>
      <trkpt lat="47.209" lon="-1.5665">
        <ele>55.787915</ele>
        <time>2021-11-06T16:16:37.468Z</time>
      </trkpt>
      <trkpt lat="47.20911" lon="-1.56713">
        <ele>56.068155</ele>
        <time>2021-11-06T16:17:17.997Z</time>
      </trkpt>
      <trkpt lat="47.20912" lon="-1.56728">
        <ele>56.134574</ele>
        <time>2021-11-06T16:17:19.967Z</time>
      </trkpt>
      <trkpt lat="47.20906" lon="-1.56744">
        <ele>56.212081</ele>
        <time>2021-11-06T16:17:21.988Z</time>
      </trkpt>
      <trkpt lat="47.20901" lon="-1.56759">
        <ele>56.281514</ele>
        <time>2021-11-06T16:17:23.967Z</time>
      </trkpt>
      <trkpt lat="47.20897" lon="-1.56773">
        <ele>56.348679</ele>
        <time>2021-11-06T16:17:25.997Z</time>
      </trkpt>
      <trkpt lat="47.20893" lon="-1.56787">
        <ele>56.4144</ele>
        <time>2021-11-06T16:17:27.996Z</time>
      </trkpt>
      <trkpt lat="47.20891" lon="-1.56801">
        <ele>56.475655</ele>
        <time>2021-11-06T16:17:29.985Z</time>
      </trkpt>
      <trkpt lat="47.20899" lon="-1.5681">
        <ele>56.550435</ele>
        <time>2021-11-06T16:17:31.984Z</time>
      </trkpt>
      <trkpt lat="47.2091" lon="-1.56813">
        <ele>56.636562</ele>
        <time>2021-11-06T16:17:33.989Z</time>
      </trkpt>
      <trkpt lat="47.20921" lon="-1.56817">
        <ele>56.714747</ele>
        <time>2021-11-06T16:17:35.978Z</time>
      </trkpt>
      <trkpt lat="47.2093" lon="-1.56823">
        <ele>56.788149</ele>
        <time>2021-11-06T16:17:38.011Z</time>
      </trkpt>
      <trkpt lat="47.20941" lon="-1.56828">
        <ele>56.875147</ele>
        <time>2021-11-06T16:17:41.018Z</time>
      </trkpt>
      <trkpt lat="47.20951" lon="-1.56833">
        <ele>56.95053</ele>
        <time>2021-11-06T16:17:42.989Z</time>
      </trkpt>
      <trkpt lat="47.20963" lon="-1.56836">
        <ele>57.040645</ele>
        <time>2021-11-06T16:17:45.664Z</time>
      </trkpt>
      <trkpt lat="47.20975" lon="-1.56844">
        <ele>57.140866</ele>
        <time>2021-11-06T16:17:49.261Z</time>
      </trkpt>
      <trkpt lat="47.20985" lon="-1.56848">
        <ele>57.213381</ele>
        <time>2021-11-06T16:17:52.443Z</time>
      </trkpt>
      <trkpt lat="47.20995" lon="-1.56841">
        <ele>57.298433</ele>
        <time>2021-11-06T16:17:55.525Z</time>
      </trkpt>
      <trkpt lat="47.2101" lon="-1.56837">
        <ele>57.409976</ele>
        <time>2021-11-06T16:17:58.968Z</time>
      </trkpt>
      <trkpt lat="47.2102" lon="-1.56842">
        <ele>57.491991</ele>
        <time>2021-11-06T16:18:01.746Z</time>
      </trkpt>
      <trkpt lat="47.21034" lon="-1.56853">
        <ele>57.606948</ele>
        <time>2021-11-06T16:18:05.039Z</time>
      </trkpt>
      <trkpt lat="47.21047" lon="-1.56858">
        <ele>57.703112</ele>
        <time>2021-11-06T16:18:08.714Z</time>
      </trkpt>
      <trkpt lat="47.21055" lon="-1.56865">
        <ele>57.769919</ele>
        <time>2021-11-06T16:18:10.969Z</time>
      </trkpt>
      <trkpt lat="47.21064" lon="-1.56871">
        <ele>57.946757</ele>
        <time>2021-11-06T16:18:13.853Z</time>
      </trkpt>
      <trkpt lat="47.21073" lon="-1.56877">
        <ele>58.274205</ele>
        <time>2021-11-06T16:18:16.909Z</time>
      </trkpt>
      <trkpt lat="47.21082" lon="-1.56881">
        <ele>58.587845</ele>
        <time>2021-11-06T16:18:20.189Z</time>
      </trkpt>
      <trkpt lat="47.21091" lon="-1.56884">
        <ele>58.89724</ele>
        <time>2021-11-06T16:18:23.977Z</time>
      </trkpt>
      <trkpt lat="47.21098" lon="-1.56893">
        <ele>59.19802</ele>
        <time>2021-11-06T16:18:28.569Z</time>
      </trkpt>
      <trkpt lat="47.21109" lon="-1.56896">
        <ele>59.565649</ele>
        <time>2021-11-06T16:18:31.238Z</time>
      </trkpt>
      <trkpt lat="47.2112" lon="-1.56902">
        <ele>59.958448</ele>
        <time>2021-11-06T16:18:34.012Z</time>
      </trkpt>
      <trkpt lat="47.21129" lon="-1.56906">
        <ele>60.294932</ele>
        <time>2021-11-06T16:18:36.232Z</time>
      </trkpt>
      <trkpt lat="47.21139" lon="-1.56911">
        <ele>60.624377</ele>
        <time>2021-11-06T16:18:38.655Z</time>
      </trkpt>
      <trkpt lat="47.21149" lon="-1.56917">
        <ele>60.990566</ele>
        <time>2021-11-06T16:18:41.192Z</time>
      </trkpt>
      <trkpt lat="47.21158" lon="-1.56925">
        <ele>61.335282</ele>
        <time>2021-11-06T16:18:43.583Z</time>
      </trkpt>
      <trkpt lat="47.21166" lon="-1.56933">
        <ele>61.670169</ele>
        <time>2021-11-06T16:18:45.966Z</time>
      </trkpt>
      <trkpt lat="47.21176" lon="-1.56936">
        <ele>62.010046</ele>
        <time>2021-11-06T16:18:48.345Z</time>
      </trkpt>
      <trkpt lat="47.21188" lon="-1.56936">
        <ele>62.399999</ele>
        <time>2021-11-06T16:18:50.021Z</time>
      </trkpt>
      <trkpt lat="47.21198" lon="-1.56938">
        <ele>62.752067</ele>
        <time>2021-11-06T16:18:52.501Z</time>
      </trkpt>
      <trkpt lat="47.2121" lon="-1.56942">
        <ele>63.131894</ele>
        <time>2021-11-06T16:18:55.164Z</time>
      </trkpt>
      <trkpt lat="47.21221" lon="-1.5695">
        <ele>63.561856</ele>
        <time>2021-11-06T16:18:56.973Z</time>
      </trkpt>
      <trkpt lat="47.21232" lon="-1.56958">
        <ele>63.679289</ele>
        <time>2021-11-06T16:18:58.991Z</time>
      </trkpt>
      <trkpt lat="47.21241" lon="-1.56964">
        <ele>63.317562</ele>
        <time>2021-11-06T16:19:00.971Z</time>
      </trkpt>
      <trkpt lat="47.21252" lon="-1.5697">
        <ele>62.945074</ele>
        <time>2021-11-06T16:19:02.998Z</time>
      </trkpt>
      <trkpt lat="47.21263" lon="-1.56975">
        <ele>62.570227</ele>
        <time>2021-11-06T16:19:04.984Z</time>
      </trkpt>
      <trkpt lat="47.21272" lon="-1.56983">
        <ele>62.211861</ele>
        <time>2021-11-06T16:19:06.998Z</time>
      </trkpt>
      <trkpt lat="47.21274" lon="-1.57">
        <ele>61.825096</ele>
        <time>2021-11-06T16:19:08.970Z</time>
      </trkpt>
      <trkpt lat="47.21269" lon="-1.57019">
        <ele>61.376593</ele>
        <time>2021-11-06T16:19:11.001Z</time>
      </trkpt>
      <trkpt lat="47.21266" lon="-1.57039">
        <ele>60.923061</ele>
        <time>2021-11-06T16:19:12.976Z</time>
      </trkpt>
      <trkpt lat="47.21265" lon="-1.5706">
        <ele>60.440553</ele>
        <time>2021-11-06T16:19:14.985Z</time>
      </trkpt>
      <trkpt lat="47.21266" lon="-1.57082">
        <ele>59.940788</ele>
        <time>2021-11-06T16:19:16.981Z</time>
      </trkpt>
      <trkpt lat="47.21265" lon="-1.57103">
        <ele>59.478587</ele>
        <time>2021-11-06T16:19:18.966Z</time>
      </trkpt>
      <trkpt lat="47.21262" lon="-1.57121">
        <ele>59.048559</ele>
        <time>2021-11-06T16:19:20.993Z</time>
      </trkpt>
      <trkpt lat="47.21263" lon="-1.57135">
        <ele>58.733428</ele>
        <time>2021-11-06T16:19:23.005Z</time>
      </trkpt>
      <trkpt lat="47.21269" lon="-1.57145">
        <ele>58.431632</ele>
        <time>2021-11-06T16:19:24.968Z</time>
      </trkpt>
    </trkseg>
  </trk>
</gpx>